<?xml version="1.0" encoding="UTF-8"?>
<gpx
version="1.1"
creator="Erstellt von Google Meine Tracks auf Android"
xmlns="http://www.topografix.com/GPX/1/1"
xmlns:topografix="http://www.topografix.com/GPX/Private/TopoGrafix/0/1"
xmlns:xsi="http://www.w3.org/2001/XMLSchema-instance"
xsi:schemaLocation="http://www.topografix.com/GPX/1/1 http://www.topografix.com/GPX/1/1/gpx.xsd http://www.topografix.com/GPX/Private/TopoGrafix/0/1 http://www.topografix.com/GPX/Private/TopoGrafix/0/1/topografix.xsd">
<metadata>
<name><![CDATA[03.03.2013 14:09]]></name>
<desc><![CDATA[Tour ll]]></desc>
</metadata>
<wpt lat="51.261502" lon="6.548236">
<ele>28</ele>
<time>2013-03-03T14:09:53.000Z</time>
<name><![CDATA[1. Wegpunktmarkierung]]></name>
<desc><![CDATA[Gesamtstrecke: 16,89 km (10,5 Meile/n)
Gesamtzeit: 59:59
Zeit in Bewegung: 58:17
Durchschnittliche Geschwindigkeit: 16,89 km/h (10,5 Meile/h)
Durchschnittliche Geschwindigkeit in Bewegung: 17,39 km/h (10,8 Meile/h)
Maximale Geschwindigkeit: 31,30 km/h (19,4 Meile/h)
Durchschnittliches Tempo: 3,55 min/km (5,7 min/Meile)
Durchschnittliches Tempo in Bewegung: 3,45 min/km (5,6 min/Meile)
Schnellstes Tempo: 1,92 min/km (3,1 min/Meile)
Maximale Höhe: 52 m (169 Fuß)
Minimale Höhe: 19 m (62 Fuß)
Höhenunterschied: 218 m (717 Fuß)
Maximales Gefälle: 13 %
Minimales Gefälle: -9 %
Aufgezeichnet: 03.03.2013 14:09
]]></desc>
</wpt>
<trk>
<name><![CDATA[03.03.2013 14:09]]></name>
<desc><![CDATA[Tour ll]]></desc>
<extensions><topografix:color>c0c0c0</topografix:color></extensions>
<trkseg>
<trkpt lat="51.282139" lon="6.554774">
<ele>51.6</ele>
<time>2013-03-03T13:09:55.299Z</time>
</trkpt>
<trkpt lat="51.282089" lon="6.554832">
<ele>45.6</ele>
<time>2013-03-03T13:10:10.000Z</time>
</trkpt>
<trkpt lat="51.282027" lon="6.554813">
<ele>43.8</ele>
<time>2013-03-03T13:10:13.000Z</time>
</trkpt>
<trkpt lat="51.281979" lon="6.554805">
<ele>42.9</ele>
<time>2013-03-03T13:10:15.000Z</time>
</trkpt>
<trkpt lat="51.281919" lon="6.554803">
<ele>43.1</ele>
<time>2013-03-03T13:10:17.000Z</time>
</trkpt>
<trkpt lat="51.281842" lon="6.554801">
<ele>42.1</ele>
<time>2013-03-03T13:10:19.000Z</time>
</trkpt>
<trkpt lat="51.281753" lon="6.554807">
<ele>41.1</ele>
<time>2013-03-03T13:10:21.000Z</time>
</trkpt>
<trkpt lat="51.281682" lon="6.554821">
<ele>40.8</ele>
<time>2013-03-03T13:10:22.000Z</time>
</trkpt>
<trkpt lat="51.281596" lon="6.554793">
<ele>40.7</ele>
<time>2013-03-03T13:10:24.000Z</time>
</trkpt>
<trkpt lat="51.281548" lon="6.554796">
<ele>40.1</ele>
<time>2013-03-03T13:10:25.000Z</time>
</trkpt>
<trkpt lat="51.281487" lon="6.554807">
<ele>39.7</ele>
<time>2013-03-03T13:10:26.000Z</time>
</trkpt>
<trkpt lat="51.281425" lon="6.554801">
<ele>39.6</ele>
<time>2013-03-03T13:10:27.000Z</time>
</trkpt>
<trkpt lat="51.281372" lon="6.554791">
<ele>39.2</ele>
<time>2013-03-03T13:10:28.000Z</time>
</trkpt>
<trkpt lat="51.281309" lon="6.554786">
<ele>38.8</ele>
<time>2013-03-03T13:10:29.000Z</time>
</trkpt>
<trkpt lat="51.28125" lon="6.55478">
<ele>38.8</ele>
<time>2013-03-03T13:10:30.000Z</time>
</trkpt>
<trkpt lat="51.281186" lon="6.554795">
<ele>38.6</ele>
<time>2013-03-03T13:10:31.000Z</time>
</trkpt>
<trkpt lat="51.28112" lon="6.554796">
<ele>38.6</ele>
<time>2013-03-03T13:10:32.000Z</time>
</trkpt>
<trkpt lat="51.281069" lon="6.554773">
<ele>38.9</ele>
<time>2013-03-03T13:10:33.000Z</time>
</trkpt>
<trkpt lat="51.281015" lon="6.55476">
<ele>39</ele>
<time>2013-03-03T13:10:34.000Z</time>
</trkpt>
<trkpt lat="51.280944" lon="6.55476">
<ele>39.5</ele>
<time>2013-03-03T13:10:35.000Z</time>
</trkpt>
<trkpt lat="51.280889" lon="6.554773">
<ele>38.6</ele>
<time>2013-03-03T13:10:36.000Z</time>
</trkpt>
<trkpt lat="51.280824" lon="6.554789">
<ele>39.1</ele>
<time>2013-03-03T13:10:37.000Z</time>
</trkpt>
<trkpt lat="51.280758" lon="6.554792">
<ele>39.2</ele>
<time>2013-03-03T13:10:38.000Z</time>
</trkpt>
<trkpt lat="51.2807" lon="6.554788">
<ele>39</ele>
<time>2013-03-03T13:10:39.000Z</time>
</trkpt>
<trkpt lat="51.280634" lon="6.554786">
<ele>38.8</ele>
<time>2013-03-03T13:10:40.000Z</time>
</trkpt>
<trkpt lat="51.280567" lon="6.554776">
<ele>38.7</ele>
<time>2013-03-03T13:10:41.000Z</time>
</trkpt>
<trkpt lat="51.280515" lon="6.55479">
<ele>37.6</ele>
<time>2013-03-03T13:10:42.000Z</time>
</trkpt>
<trkpt lat="51.280458" lon="6.554764">
<ele>37.6</ele>
<time>2013-03-03T13:10:43.000Z</time>
</trkpt>
<trkpt lat="51.280386" lon="6.554769">
<ele>37.8</ele>
<time>2013-03-03T13:10:44.000Z</time>
</trkpt>
<trkpt lat="51.280323" lon="6.554757">
<ele>36.5</ele>
<time>2013-03-03T13:10:45.000Z</time>
</trkpt>
<trkpt lat="51.280255" lon="6.554769">
<ele>35.9</ele>
<time>2013-03-03T13:10:46.000Z</time>
</trkpt>
<trkpt lat="51.280182" lon="6.5548">
<ele>36.1</ele>
<time>2013-03-03T13:10:47.000Z</time>
</trkpt>
<trkpt lat="51.280125" lon="6.554813">
<ele>35.3</ele>
<time>2013-03-03T13:10:48.000Z</time>
</trkpt>
<trkpt lat="51.280062" lon="6.5548">
<ele>35.7</ele>
<time>2013-03-03T13:10:49.000Z</time>
</trkpt>
<trkpt lat="51.28" lon="6.554785">
<ele>36</ele>
<time>2013-03-03T13:10:50.000Z</time>
</trkpt>
<trkpt lat="51.27995" lon="6.554781">
<ele>35.9</ele>
<time>2013-03-03T13:10:51.000Z</time>
</trkpt>
<trkpt lat="51.279889" lon="6.554775">
<ele>36.6</ele>
<time>2013-03-03T13:10:52.000Z</time>
</trkpt>
<trkpt lat="51.279825" lon="6.554808">
<ele>37.8</ele>
<time>2013-03-03T13:10:53.000Z</time>
</trkpt>
<trkpt lat="51.279759" lon="6.554819">
<ele>37.8</ele>
<time>2013-03-03T13:10:54.000Z</time>
</trkpt>
<trkpt lat="51.279696" lon="6.55481">
<ele>38</ele>
<time>2013-03-03T13:10:55.000Z</time>
</trkpt>
<trkpt lat="51.279635" lon="6.554807">
<ele>38.6</ele>
<time>2013-03-03T13:10:56.000Z</time>
</trkpt>
<trkpt lat="51.279567" lon="6.554814">
<ele>38.3</ele>
<time>2013-03-03T13:10:57.000Z</time>
</trkpt>
<trkpt lat="51.279496" lon="6.554812">
<ele>37.7</ele>
<time>2013-03-03T13:10:58.000Z</time>
</trkpt>
<trkpt lat="51.279433" lon="6.554808">
<ele>37.7</ele>
<time>2013-03-03T13:10:59.000Z</time>
</trkpt>
<trkpt lat="51.279369" lon="6.554817">
<ele>39.1</ele>
<time>2013-03-03T13:11:00.000Z</time>
</trkpt>
<trkpt lat="51.279296" lon="6.554836">
<ele>39</ele>
<time>2013-03-03T13:11:01.000Z</time>
</trkpt>
<trkpt lat="51.279227" lon="6.554832">
<ele>39</ele>
<time>2013-03-03T13:11:02.000Z</time>
</trkpt>
<trkpt lat="51.279164" lon="6.554826">
<ele>38.8</ele>
<time>2013-03-03T13:11:03.000Z</time>
</trkpt>
<trkpt lat="51.279098" lon="6.554823">
<ele>38.6</ele>
<time>2013-03-03T13:11:04.000Z</time>
</trkpt>
<trkpt lat="51.279037" lon="6.554835">
<ele>38.8</ele>
<time>2013-03-03T13:11:05.000Z</time>
</trkpt>
<trkpt lat="51.278965" lon="6.554847">
<ele>39.4</ele>
<time>2013-03-03T13:11:06.000Z</time>
</trkpt>
<trkpt lat="51.278893" lon="6.554852">
<ele>39.2</ele>
<time>2013-03-03T13:11:07.000Z</time>
</trkpt>
<trkpt lat="51.27883" lon="6.554855">
<ele>39.7</ele>
<time>2013-03-03T13:11:08.000Z</time>
</trkpt>
<trkpt lat="51.278757" lon="6.554847">
<ele>40.1</ele>
<time>2013-03-03T13:11:09.000Z</time>
</trkpt>
<trkpt lat="51.278705" lon="6.554835">
<ele>39.2</ele>
<time>2013-03-03T13:11:10.000Z</time>
</trkpt>
<trkpt lat="51.278648" lon="6.554813">
<ele>38.9</ele>
<time>2013-03-03T13:11:11.000Z</time>
</trkpt>
<trkpt lat="51.278577" lon="6.55482">
<ele>38.2</ele>
<time>2013-03-03T13:11:12.000Z</time>
</trkpt>
<trkpt lat="51.278518" lon="6.554821">
<ele>37.9</ele>
<time>2013-03-03T13:11:13.000Z</time>
</trkpt>
<trkpt lat="51.278472" lon="6.554796">
<ele>38.9</ele>
<time>2013-03-03T13:11:14.000Z</time>
</trkpt>
<trkpt lat="51.278408" lon="6.554774">
<ele>39.3</ele>
<time>2013-03-03T13:11:15.000Z</time>
</trkpt>
<trkpt lat="51.27833" lon="6.554774">
<ele>39.2</ele>
<time>2013-03-03T13:11:16.000Z</time>
</trkpt>
<trkpt lat="51.278244" lon="6.554769">
<ele>38</ele>
<time>2013-03-03T13:11:17.000Z</time>
</trkpt>
<trkpt lat="51.278182" lon="6.554774">
<ele>37.3</ele>
<time>2013-03-03T13:11:18.000Z</time>
</trkpt>
<trkpt lat="51.278115" lon="6.554756">
<ele>37.5</ele>
<time>2013-03-03T13:11:19.000Z</time>
</trkpt>
<trkpt lat="51.278057" lon="6.554779">
<ele>39</ele>
<time>2013-03-03T13:11:20.000Z</time>
</trkpt>
<trkpt lat="51.277999" lon="6.554777">
<ele>38.3</ele>
<time>2013-03-03T13:11:21.000Z</time>
</trkpt>
<trkpt lat="51.277946" lon="6.554782">
<ele>39.9</ele>
<time>2013-03-03T13:11:22.000Z</time>
</trkpt>
<trkpt lat="51.27789" lon="6.554768">
<ele>39.6</ele>
<time>2013-03-03T13:11:23.000Z</time>
</trkpt>
<trkpt lat="51.277822" lon="6.55476">
<ele>39.8</ele>
<time>2013-03-03T13:11:24.000Z</time>
</trkpt>
<trkpt lat="51.277756" lon="6.554763">
<ele>41.1</ele>
<time>2013-03-03T13:11:25.000Z</time>
</trkpt>
<trkpt lat="51.277666" lon="6.554748">
<ele>40.3</ele>
<time>2013-03-03T13:11:26.000Z</time>
</trkpt>
<trkpt lat="51.277593" lon="6.554761">
<ele>40.1</ele>
<time>2013-03-03T13:11:27.000Z</time>
</trkpt>
<trkpt lat="51.277527" lon="6.554777">
<ele>39.9</ele>
<time>2013-03-03T13:11:28.000Z</time>
</trkpt>
<trkpt lat="51.27747" lon="6.554775">
<ele>39.9</ele>
<time>2013-03-03T13:11:29.000Z</time>
</trkpt>
<trkpt lat="51.277406" lon="6.55476">
<ele>39.3</ele>
<time>2013-03-03T13:11:30.000Z</time>
</trkpt>
<trkpt lat="51.27736" lon="6.554766">
<ele>39.5</ele>
<time>2013-03-03T13:11:31.000Z</time>
</trkpt>
<trkpt lat="51.277297" lon="6.554752">
<ele>38.7</ele>
<time>2013-03-03T13:11:32.000Z</time>
</trkpt>
<trkpt lat="51.277245" lon="6.554788">
<ele>38.1</ele>
<time>2013-03-03T13:11:33.000Z</time>
</trkpt>
<trkpt lat="51.277189" lon="6.554779">
<ele>38.4</ele>
<time>2013-03-03T13:11:34.000Z</time>
</trkpt>
<trkpt lat="51.277092" lon="6.554786">
<ele>37.1</ele>
<time>2013-03-03T13:11:36.000Z</time>
</trkpt>
<trkpt lat="51.277044" lon="6.554786">
<ele>36.3</ele>
<time>2013-03-03T13:11:37.000Z</time>
</trkpt>
<trkpt lat="51.276992" lon="6.55478">
<ele>35.9</ele>
<time>2013-03-03T13:11:38.000Z</time>
</trkpt>
<trkpt lat="51.276904" lon="6.554804">
<ele>36.9</ele>
<time>2013-03-03T13:11:40.000Z</time>
</trkpt>
<trkpt lat="51.276851" lon="6.554806">
<ele>36.5</ele>
<time>2013-03-03T13:11:41.000Z</time>
</trkpt>
<trkpt lat="51.276773" lon="6.554776">
<ele>36.7</ele>
<time>2013-03-03T13:11:43.000Z</time>
</trkpt>
<trkpt lat="51.276696" lon="6.554765">
<ele>36.6</ele>
<time>2013-03-03T13:11:45.000Z</time>
</trkpt>
<trkpt lat="51.276641" lon="6.554772">
<ele>35.9</ele>
<time>2013-03-03T13:11:46.000Z</time>
</trkpt>
<trkpt lat="51.27659" lon="6.554785">
<ele>35.7</ele>
<time>2013-03-03T13:11:47.000Z</time>
</trkpt>
<trkpt lat="51.276542" lon="6.554771">
<ele>35.6</ele>
<time>2013-03-03T13:11:48.000Z</time>
</trkpt>
<trkpt lat="51.276453" lon="6.554779">
<ele>35</ele>
<time>2013-03-03T13:11:50.000Z</time>
</trkpt>
<trkpt lat="51.276407" lon="6.554777">
<ele>34.5</ele>
<time>2013-03-03T13:11:51.000Z</time>
</trkpt>
<trkpt lat="51.276319" lon="6.554775">
<ele>35</ele>
<time>2013-03-03T13:11:53.000Z</time>
</trkpt>
<trkpt lat="51.27623" lon="6.554788">
<ele>34.1</ele>
<time>2013-03-03T13:11:55.000Z</time>
</trkpt>
<trkpt lat="51.276148" lon="6.554791">
<ele>33.9</ele>
<time>2013-03-03T13:11:57.000Z</time>
</trkpt>
<trkpt lat="51.276069" lon="6.554787">
<ele>34</ele>
<time>2013-03-03T13:11:59.000Z</time>
</trkpt>
<trkpt lat="51.276012" lon="6.554747">
<ele>33.4</ele>
<time>2013-03-03T13:12:01.000Z</time>
</trkpt>
<trkpt lat="51.275991" lon="6.55466">
<ele>33.4</ele>
<time>2013-03-03T13:12:03.000Z</time>
</trkpt>
<trkpt lat="51.275981" lon="6.554547">
<ele>33.7</ele>
<time>2013-03-03T13:12:05.000Z</time>
</trkpt>
<trkpt lat="51.275977" lon="6.55442">
<ele>33.9</ele>
<time>2013-03-03T13:12:07.000Z</time>
</trkpt>
<trkpt lat="51.275971" lon="6.554296">
<ele>35.4</ele>
<time>2013-03-03T13:12:09.000Z</time>
</trkpt>
<trkpt lat="51.275958" lon="6.554163">
<ele>35.6</ele>
<time>2013-03-03T13:12:11.000Z</time>
</trkpt>
<trkpt lat="51.275942" lon="6.554026">
<ele>34.7</ele>
<time>2013-03-03T13:12:13.000Z</time>
</trkpt>
<trkpt lat="51.275936" lon="6.553922">
<ele>34.7</ele>
<time>2013-03-03T13:12:14.000Z</time>
</trkpt>
<trkpt lat="51.275935" lon="6.553847">
<ele>34.2</ele>
<time>2013-03-03T13:12:15.000Z</time>
</trkpt>
<trkpt lat="51.275928" lon="6.553753">
<ele>33.9</ele>
<time>2013-03-03T13:12:16.000Z</time>
</trkpt>
<trkpt lat="51.27593" lon="6.553671">
<ele>34.4</ele>
<time>2013-03-03T13:12:17.000Z</time>
</trkpt>
<trkpt lat="51.275919" lon="6.553595">
<ele>33.9</ele>
<time>2013-03-03T13:12:18.000Z</time>
</trkpt>
<trkpt lat="51.275912" lon="6.553517">
<ele>33.4</ele>
<time>2013-03-03T13:12:19.000Z</time>
</trkpt>
<trkpt lat="51.275903" lon="6.553432">
<ele>33.4</ele>
<time>2013-03-03T13:12:20.000Z</time>
</trkpt>
<trkpt lat="51.275894" lon="6.553347">
<ele>33.7</ele>
<time>2013-03-03T13:12:21.000Z</time>
</trkpt>
<trkpt lat="51.275876" lon="6.553261">
<ele>33.9</ele>
<time>2013-03-03T13:12:22.000Z</time>
</trkpt>
<trkpt lat="51.275823" lon="6.55315">
<ele>33.8</ele>
<time>2013-03-03T13:12:24.000Z</time>
</trkpt>
<trkpt lat="51.275786" lon="6.553032">
<ele>31.6</ele>
<time>2013-03-03T13:12:26.000Z</time>
</trkpt>
<trkpt lat="51.275744" lon="6.55293">
<ele>31.7</ele>
<time>2013-03-03T13:12:28.000Z</time>
</trkpt>
<trkpt lat="51.275703" lon="6.552819">
<ele>31.4</ele>
<time>2013-03-03T13:12:30.000Z</time>
</trkpt>
<trkpt lat="51.275662" lon="6.552717">
<ele>30.3</ele>
<time>2013-03-03T13:12:32.000Z</time>
</trkpt>
<trkpt lat="51.275624" lon="6.55258">
<ele>31</ele>
<time>2013-03-03T13:12:34.000Z</time>
</trkpt>
<trkpt lat="51.275595" lon="6.552524">
<ele>31.1</ele>
<time>2013-03-03T13:12:35.000Z</time>
</trkpt>
<trkpt lat="51.27557" lon="6.552452">
<ele>31.6</ele>
<time>2013-03-03T13:12:36.000Z</time>
</trkpt>
<trkpt lat="51.275523" lon="6.552317">
<ele>32.1</ele>
<time>2013-03-03T13:12:38.000Z</time>
</trkpt>
<trkpt lat="51.275508" lon="6.552239">
<ele>32.6</ele>
<time>2013-03-03T13:12:39.000Z</time>
</trkpt>
<trkpt lat="51.27548" lon="6.552179">
<ele>32.4</ele>
<time>2013-03-03T13:12:40.000Z</time>
</trkpt>
<trkpt lat="51.275429" lon="6.552055">
<ele>31.6</ele>
<time>2013-03-03T13:12:42.000Z</time>
</trkpt>
<trkpt lat="51.275371" lon="6.551933">
<ele>29.9</ele>
<time>2013-03-03T13:12:44.000Z</time>
</trkpt>
<trkpt lat="51.275338" lon="6.551881">
<ele>31.4</ele>
<time>2013-03-03T13:12:45.000Z</time>
</trkpt>
<trkpt lat="51.275305" lon="6.551811">
<ele>32.2</ele>
<time>2013-03-03T13:12:46.000Z</time>
</trkpt>
<trkpt lat="51.275275" lon="6.551741">
<ele>31.5</ele>
<time>2013-03-03T13:12:47.000Z</time>
</trkpt>
<trkpt lat="51.275248" lon="6.551669">
<ele>32.2</ele>
<time>2013-03-03T13:12:48.000Z</time>
</trkpt>
<trkpt lat="51.275222" lon="6.551601">
<ele>31.8</ele>
<time>2013-03-03T13:12:49.000Z</time>
</trkpt>
<trkpt lat="51.275197" lon="6.551536">
<ele>31.4</ele>
<time>2013-03-03T13:12:50.000Z</time>
</trkpt>
<trkpt lat="51.275183" lon="6.551462">
<ele>30.6</ele>
<time>2013-03-03T13:12:51.000Z</time>
</trkpt>
<trkpt lat="51.275152" lon="6.551408">
<ele>29.1</ele>
<time>2013-03-03T13:12:52.000Z</time>
</trkpt>
<trkpt lat="51.275124" lon="6.55135">
<ele>29.5</ele>
<time>2013-03-03T13:12:53.000Z</time>
</trkpt>
<trkpt lat="51.275092" lon="6.551283">
<ele>30</ele>
<time>2013-03-03T13:12:54.000Z</time>
</trkpt>
<trkpt lat="51.275068" lon="6.551211">
<ele>30.9</ele>
<time>2013-03-03T13:12:55.000Z</time>
</trkpt>
<trkpt lat="51.275039" lon="6.551151">
<ele>31.5</ele>
<time>2013-03-03T13:12:56.000Z</time>
</trkpt>
<trkpt lat="51.275012" lon="6.551086">
<ele>32.2</ele>
<time>2013-03-03T13:12:57.000Z</time>
</trkpt>
<trkpt lat="51.274984" lon="6.551014">
<ele>32.3</ele>
<time>2013-03-03T13:12:58.000Z</time>
</trkpt>
<trkpt lat="51.274958" lon="6.550949">
<ele>31.9</ele>
<time>2013-03-03T13:12:59.000Z</time>
</trkpt>
<trkpt lat="51.274943" lon="6.55088">
<ele>31.6</ele>
<time>2013-03-03T13:13:00.000Z</time>
</trkpt>
<trkpt lat="51.274912" lon="6.550819">
<ele>31.3</ele>
<time>2013-03-03T13:13:01.000Z</time>
</trkpt>
<trkpt lat="51.27488" lon="6.550758">
<ele>31.3</ele>
<time>2013-03-03T13:13:02.000Z</time>
</trkpt>
<trkpt lat="51.274837" lon="6.550632">
<ele>32.3</ele>
<time>2013-03-03T13:13:04.000Z</time>
</trkpt>
<trkpt lat="51.274815" lon="6.550555">
<ele>32.9</ele>
<time>2013-03-03T13:13:05.000Z</time>
</trkpt>
<trkpt lat="51.274779" lon="6.550427">
<ele>33.9</ele>
<time>2013-03-03T13:13:07.000Z</time>
</trkpt>
<trkpt lat="51.274755" lon="6.550364">
<ele>33.5</ele>
<time>2013-03-03T13:13:08.000Z</time>
</trkpt>
<trkpt lat="51.274726" lon="6.550254">
<ele>32.5</ele>
<time>2013-03-03T13:13:10.000Z</time>
</trkpt>
<trkpt lat="51.274713" lon="6.550179">
<ele>32.5</ele>
<time>2013-03-03T13:13:11.000Z</time>
</trkpt>
<trkpt lat="51.274676" lon="6.550055">
<ele>32.8</ele>
<time>2013-03-03T13:13:13.000Z</time>
</trkpt>
<trkpt lat="51.274657" lon="6.54992">
<ele>31.6</ele>
<time>2013-03-03T13:13:15.000Z</time>
</trkpt>
<trkpt lat="51.274638" lon="6.549843">
<ele>30.8</ele>
<time>2013-03-03T13:13:16.000Z</time>
</trkpt>
<trkpt lat="51.274615" lon="6.549765">
<ele>30.6</ele>
<time>2013-03-03T13:13:17.000Z</time>
</trkpt>
<trkpt lat="51.274605" lon="6.54968">
<ele>31.5</ele>
<time>2013-03-03T13:13:18.000Z</time>
</trkpt>
<trkpt lat="51.274581" lon="6.549577">
<ele>29.9</ele>
<time>2013-03-03T13:13:20.000Z</time>
</trkpt>
<trkpt lat="51.27458" lon="6.549452">
<ele>28.8</ele>
<time>2013-03-03T13:13:22.000Z</time>
</trkpt>
<trkpt lat="51.274565" lon="6.549372">
<ele>29.2</ele>
<time>2013-03-03T13:13:23.000Z</time>
</trkpt>
<trkpt lat="51.274539" lon="6.549309">
<ele>29.7</ele>
<time>2013-03-03T13:13:24.000Z</time>
</trkpt>
<trkpt lat="51.274462" lon="6.54924">
<ele>29.7</ele>
<time>2013-03-03T13:13:26.000Z</time>
</trkpt>
<trkpt lat="51.274377" lon="6.549218">
<ele>30</ele>
<time>2013-03-03T13:13:28.000Z</time>
</trkpt>
<trkpt lat="51.27433" lon="6.549204">
<ele>30.2</ele>
<time>2013-03-03T13:13:29.000Z</time>
</trkpt>
<trkpt lat="51.274254" lon="6.549208">
<ele>29.4</ele>
<time>2013-03-03T13:13:31.000Z</time>
</trkpt>
<trkpt lat="51.274174" lon="6.549194">
<ele>30.2</ele>
<time>2013-03-03T13:13:33.000Z</time>
</trkpt>
<trkpt lat="51.274124" lon="6.549192">
<ele>30.4</ele>
<time>2013-03-03T13:13:34.000Z</time>
</trkpt>
<trkpt lat="51.274078" lon="6.549185">
<ele>30.7</ele>
<time>2013-03-03T13:13:35.000Z</time>
</trkpt>
<trkpt lat="51.273988" lon="6.549177">
<ele>31</ele>
<time>2013-03-03T13:13:37.000Z</time>
</trkpt>
<trkpt lat="51.273905" lon="6.549158">
<ele>32.5</ele>
<time>2013-03-03T13:13:39.000Z</time>
</trkpt>
<trkpt lat="51.273816" lon="6.549144">
<ele>33.3</ele>
<time>2013-03-03T13:13:41.000Z</time>
</trkpt>
<trkpt lat="51.273728" lon="6.549142">
<ele>32.6</ele>
<time>2013-03-03T13:13:43.000Z</time>
</trkpt>
<trkpt lat="51.273649" lon="6.549125">
<ele>32.9</ele>
<time>2013-03-03T13:13:45.000Z</time>
</trkpt>
<trkpt lat="51.273577" lon="6.549116">
<ele>33.5</ele>
<time>2013-03-03T13:13:47.000Z</time>
</trkpt>
<trkpt lat="51.273531" lon="6.549123">
<ele>33.1</ele>
<time>2013-03-03T13:13:48.000Z</time>
</trkpt>
<trkpt lat="51.273461" lon="6.549116">
<ele>33.3</ele>
<time>2013-03-03T13:13:50.000Z</time>
</trkpt>
<trkpt lat="51.273408" lon="6.549111">
<ele>33.3</ele>
<time>2013-03-03T13:13:52.000Z</time>
</trkpt>
<trkpt lat="51.273354" lon="6.549097">
<ele>34.5</ele>
<time>2013-03-03T13:13:55.000Z</time>
</trkpt>
<trkpt lat="51.273307" lon="6.549047">
<ele>33.7</ele>
<time>2013-03-03T13:13:58.000Z</time>
</trkpt>
<trkpt lat="51.273282" lon="6.548978">
<ele>33.9</ele>
<time>2013-03-03T13:14:00.000Z</time>
</trkpt>
<trkpt lat="51.273269" lon="6.548876">
<ele>34.8</ele>
<time>2013-03-03T13:14:02.000Z</time>
</trkpt>
<trkpt lat="51.27326" lon="6.548751">
<ele>34.1</ele>
<time>2013-03-03T13:14:04.000Z</time>
</trkpt>
<trkpt lat="51.27325" lon="6.548612">
<ele>34.2</ele>
<time>2013-03-03T13:14:06.000Z</time>
</trkpt>
<trkpt lat="51.273241" lon="6.548472">
<ele>34.5</ele>
<time>2013-03-03T13:14:08.000Z</time>
</trkpt>
<trkpt lat="51.273237" lon="6.5484">
<ele>34.7</ele>
<time>2013-03-03T13:14:09.000Z</time>
</trkpt>
<trkpt lat="51.273227" lon="6.54824">
<ele>34</ele>
<time>2013-03-03T13:14:11.000Z</time>
</trkpt>
<trkpt lat="51.273218" lon="6.548167">
<ele>33.9</ele>
<time>2013-03-03T13:14:12.000Z</time>
</trkpt>
<trkpt lat="51.273217" lon="6.548091">
<ele>33.7</ele>
<time>2013-03-03T13:14:13.000Z</time>
</trkpt>
<trkpt lat="51.273217" lon="6.54801">
<ele>34.7</ele>
<time>2013-03-03T13:14:14.000Z</time>
</trkpt>
<trkpt lat="51.273203" lon="6.547864">
<ele>33.6</ele>
<time>2013-03-03T13:14:16.000Z</time>
</trkpt>
<trkpt lat="51.273197" lon="6.547779">
<ele>33.5</ele>
<time>2013-03-03T13:14:17.000Z</time>
</trkpt>
<trkpt lat="51.273187" lon="6.547702">
<ele>34</ele>
<time>2013-03-03T13:14:18.000Z</time>
</trkpt>
<trkpt lat="51.27318" lon="6.547616">
<ele>34.2</ele>
<time>2013-03-03T13:14:19.000Z</time>
</trkpt>
<trkpt lat="51.273174" lon="6.547538">
<ele>34.6</ele>
<time>2013-03-03T13:14:20.000Z</time>
</trkpt>
<trkpt lat="51.273164" lon="6.547456">
<ele>35.2</ele>
<time>2013-03-03T13:14:21.000Z</time>
</trkpt>
<trkpt lat="51.273164" lon="6.54738">
<ele>35.2</ele>
<time>2013-03-03T13:14:22.000Z</time>
</trkpt>
<trkpt lat="51.273163" lon="6.547244">
<ele>34.5</ele>
<time>2013-03-03T13:14:24.000Z</time>
</trkpt>
<trkpt lat="51.273158" lon="6.547169">
<ele>33.9</ele>
<time>2013-03-03T13:14:25.000Z</time>
</trkpt>
<trkpt lat="51.27316" lon="6.547095">
<ele>33.8</ele>
<time>2013-03-03T13:14:26.000Z</time>
</trkpt>
<trkpt lat="51.273156" lon="6.547013">
<ele>34</ele>
<time>2013-03-03T13:14:27.000Z</time>
</trkpt>
<trkpt lat="51.273151" lon="6.546874">
<ele>32.9</ele>
<time>2013-03-03T13:14:29.000Z</time>
</trkpt>
<trkpt lat="51.27315" lon="6.546788">
<ele>33.4</ele>
<time>2013-03-03T13:14:30.000Z</time>
</trkpt>
<trkpt lat="51.273145" lon="6.546707">
<ele>33.2</ele>
<time>2013-03-03T13:14:31.000Z</time>
</trkpt>
<trkpt lat="51.273147" lon="6.546633">
<ele>33.8</ele>
<time>2013-03-03T13:14:32.000Z</time>
</trkpt>
<trkpt lat="51.273146" lon="6.546542">
<ele>34.6</ele>
<time>2013-03-03T13:14:33.000Z</time>
</trkpt>
<trkpt lat="51.273144" lon="6.546414">
<ele>34.5</ele>
<time>2013-03-03T13:14:35.000Z</time>
</trkpt>
<trkpt lat="51.273139" lon="6.546328">
<ele>34.8</ele>
<time>2013-03-03T13:14:36.000Z</time>
</trkpt>
<trkpt lat="51.273142" lon="6.546167">
<ele>34.9</ele>
<time>2013-03-03T13:14:38.000Z</time>
</trkpt>
<trkpt lat="51.273139" lon="6.546022">
<ele>34.9</ele>
<time>2013-03-03T13:14:40.000Z</time>
</trkpt>
<trkpt lat="51.273135" lon="6.545941">
<ele>35.3</ele>
<time>2013-03-03T13:14:41.000Z</time>
</trkpt>
<trkpt lat="51.273131" lon="6.545847">
<ele>36</ele>
<time>2013-03-03T13:14:42.000Z</time>
</trkpt>
<trkpt lat="51.273127" lon="6.54577">
<ele>36.3</ele>
<time>2013-03-03T13:14:43.000Z</time>
</trkpt>
<trkpt lat="51.273126" lon="6.54569">
<ele>36.7</ele>
<time>2013-03-03T13:14:44.000Z</time>
</trkpt>
<trkpt lat="51.273126" lon="6.545533">
<ele>36.1</ele>
<time>2013-03-03T13:14:46.000Z</time>
</trkpt>
<trkpt lat="51.273116" lon="6.545453">
<ele>36.2</ele>
<time>2013-03-03T13:14:47.000Z</time>
</trkpt>
<trkpt lat="51.273115" lon="6.545377">
<ele>35.8</ele>
<time>2013-03-03T13:14:48.000Z</time>
</trkpt>
<trkpt lat="51.273118" lon="6.545305">
<ele>36.3</ele>
<time>2013-03-03T13:14:49.000Z</time>
</trkpt>
<trkpt lat="51.273116" lon="6.545173">
<ele>34.9</ele>
<time>2013-03-03T13:14:51.000Z</time>
</trkpt>
<trkpt lat="51.273124" lon="6.545049">
<ele>35.9</ele>
<time>2013-03-03T13:14:53.000Z</time>
</trkpt>
<trkpt lat="51.27313" lon="6.544927">
<ele>34.7</ele>
<time>2013-03-03T13:14:55.000Z</time>
</trkpt>
<trkpt lat="51.273124" lon="6.544794">
<ele>35.4</ele>
<time>2013-03-03T13:14:57.000Z</time>
</trkpt>
<trkpt lat="51.27312" lon="6.544665">
<ele>36.5</ele>
<time>2013-03-03T13:14:59.000Z</time>
</trkpt>
<trkpt lat="51.273112" lon="6.544558">
<ele>36.3</ele>
<time>2013-03-03T13:15:01.000Z</time>
</trkpt>
<trkpt lat="51.273108" lon="6.544474">
<ele>33.4</ele>
<time>2013-03-03T13:15:29.000Z</time>
</trkpt>
<trkpt lat="51.273107" lon="6.544371">
<ele>34</ele>
<time>2013-03-03T13:15:32.000Z</time>
</trkpt>
<trkpt lat="51.273107" lon="6.544279">
<ele>34.7</ele>
<time>2013-03-03T13:15:34.000Z</time>
</trkpt>
<trkpt lat="51.273113" lon="6.54417">
<ele>35.2</ele>
<time>2013-03-03T13:15:36.000Z</time>
</trkpt>
<trkpt lat="51.273133" lon="6.544037">
<ele>35.9</ele>
<time>2013-03-03T13:15:38.000Z</time>
</trkpt>
<trkpt lat="51.273148" lon="6.543967">
<ele>34.7</ele>
<time>2013-03-03T13:15:39.000Z</time>
</trkpt>
<trkpt lat="51.273163" lon="6.543895">
<ele>33.2</ele>
<time>2013-03-03T13:15:40.000Z</time>
</trkpt>
<trkpt lat="51.273165" lon="6.543774">
<ele>33.5</ele>
<time>2013-03-03T13:15:41.000Z</time>
</trkpt>
<trkpt lat="51.27317" lon="6.543699">
<ele>33</ele>
<time>2013-03-03T13:15:42.000Z</time>
</trkpt>
<trkpt lat="51.273171" lon="6.543613">
<ele>32.5</ele>
<time>2013-03-03T13:15:43.000Z</time>
</trkpt>
<trkpt lat="51.273171" lon="6.543519">
<ele>32.4</ele>
<time>2013-03-03T13:15:44.000Z</time>
</trkpt>
<trkpt lat="51.273169" lon="6.543434">
<ele>32.7</ele>
<time>2013-03-03T13:15:45.000Z</time>
</trkpt>
<trkpt lat="51.273179" lon="6.543352">
<ele>32.4</ele>
<time>2013-03-03T13:15:46.000Z</time>
</trkpt>
<trkpt lat="51.273181" lon="6.543251">
<ele>32.3</ele>
<time>2013-03-03T13:15:47.000Z</time>
</trkpt>
<trkpt lat="51.273183" lon="6.543157">
<ele>32.6</ele>
<time>2013-03-03T13:15:48.000Z</time>
</trkpt>
<trkpt lat="51.273187" lon="6.543071">
<ele>32.6</ele>
<time>2013-03-03T13:15:49.000Z</time>
</trkpt>
<trkpt lat="51.273197" lon="6.542929">
<ele>31.3</ele>
<time>2013-03-03T13:15:51.000Z</time>
</trkpt>
<trkpt lat="51.273208" lon="6.542834">
<ele>32.2</ele>
<time>2013-03-03T13:15:52.000Z</time>
</trkpt>
<trkpt lat="51.273213" lon="6.542746">
<ele>32.8</ele>
<time>2013-03-03T13:15:53.000Z</time>
</trkpt>
<trkpt lat="51.27322" lon="6.542669">
<ele>33</ele>
<time>2013-03-03T13:15:54.000Z</time>
</trkpt>
<trkpt lat="51.273228" lon="6.542585">
<ele>32.4</ele>
<time>2013-03-03T13:15:55.000Z</time>
</trkpt>
<trkpt lat="51.273236" lon="6.542499">
<ele>32.1</ele>
<time>2013-03-03T13:15:56.000Z</time>
</trkpt>
<trkpt lat="51.273244" lon="6.542414">
<ele>32.3</ele>
<time>2013-03-03T13:15:57.000Z</time>
</trkpt>
<trkpt lat="51.273252" lon="6.542335">
<ele>31.1</ele>
<time>2013-03-03T13:15:58.000Z</time>
</trkpt>
<trkpt lat="51.273257" lon="6.54225">
<ele>31.3</ele>
<time>2013-03-03T13:15:59.000Z</time>
</trkpt>
<trkpt lat="51.27326" lon="6.542166">
<ele>31.8</ele>
<time>2013-03-03T13:16:00.000Z</time>
</trkpt>
<trkpt lat="51.273265" lon="6.54208">
<ele>31.7</ele>
<time>2013-03-03T13:16:01.000Z</time>
</trkpt>
<trkpt lat="51.273267" lon="6.541992">
<ele>31.4</ele>
<time>2013-03-03T13:16:02.000Z</time>
</trkpt>
<trkpt lat="51.273272" lon="6.541909">
<ele>32</ele>
<time>2013-03-03T13:16:03.000Z</time>
</trkpt>
<trkpt lat="51.273281" lon="6.54182">
<ele>32</ele>
<time>2013-03-03T13:16:04.000Z</time>
</trkpt>
<trkpt lat="51.273286" lon="6.54174">
<ele>32.3</ele>
<time>2013-03-03T13:16:05.000Z</time>
</trkpt>
<trkpt lat="51.273294" lon="6.541654">
<ele>32.4</ele>
<time>2013-03-03T13:16:06.000Z</time>
</trkpt>
<trkpt lat="51.273297" lon="6.541557">
<ele>33.5</ele>
<time>2013-03-03T13:16:07.000Z</time>
</trkpt>
<trkpt lat="51.273304" lon="6.541478">
<ele>33.9</ele>
<time>2013-03-03T13:16:08.000Z</time>
</trkpt>
<trkpt lat="51.273325" lon="6.541337">
<ele>30.8</ele>
<time>2013-03-03T13:16:10.000Z</time>
</trkpt>
<trkpt lat="51.273332" lon="6.541265">
<ele>30.4</ele>
<time>2013-03-03T13:16:11.000Z</time>
</trkpt>
<trkpt lat="51.273334" lon="6.541189">
<ele>30.2</ele>
<time>2013-03-03T13:16:12.000Z</time>
</trkpt>
<trkpt lat="51.273331" lon="6.541092">
<ele>31.2</ele>
<time>2013-03-03T13:16:13.000Z</time>
</trkpt>
<trkpt lat="51.273335" lon="6.54101">
<ele>31.7</ele>
<time>2013-03-03T13:16:14.000Z</time>
</trkpt>
<trkpt lat="51.273341" lon="6.540933">
<ele>31.5</ele>
<time>2013-03-03T13:16:15.000Z</time>
</trkpt>
<trkpt lat="51.273347" lon="6.54086">
<ele>31.5</ele>
<time>2013-03-03T13:16:16.000Z</time>
</trkpt>
<trkpt lat="51.273357" lon="6.540719">
<ele>30.4</ele>
<time>2013-03-03T13:16:18.000Z</time>
</trkpt>
<trkpt lat="51.273363" lon="6.540565">
<ele>30.5</ele>
<time>2013-03-03T13:16:20.000Z</time>
</trkpt>
<trkpt lat="51.273376" lon="6.540423">
<ele>28</ele>
<time>2013-03-03T13:16:22.000Z</time>
</trkpt>
<trkpt lat="51.273381" lon="6.540349">
<ele>28.3</ele>
<time>2013-03-03T13:16:23.000Z</time>
</trkpt>
<trkpt lat="51.273385" lon="6.540275">
<ele>28.1</ele>
<time>2013-03-03T13:16:24.000Z</time>
</trkpt>
<trkpt lat="51.273394" lon="6.540193">
<ele>29.7</ele>
<time>2013-03-03T13:16:25.000Z</time>
</trkpt>
<trkpt lat="51.273393" lon="6.540117">
<ele>29.5</ele>
<time>2013-03-03T13:16:26.000Z</time>
</trkpt>
<trkpt lat="51.273396" lon="6.540041">
<ele>29.3</ele>
<time>2013-03-03T13:16:27.000Z</time>
</trkpt>
<trkpt lat="51.273406" lon="6.539957">
<ele>30</ele>
<time>2013-03-03T13:16:28.000Z</time>
</trkpt>
<trkpt lat="51.2734" lon="6.53987">
<ele>30.8</ele>
<time>2013-03-03T13:16:29.000Z</time>
</trkpt>
<trkpt lat="51.273398" lon="6.539792">
<ele>31</ele>
<time>2013-03-03T13:16:30.000Z</time>
</trkpt>
<trkpt lat="51.273413" lon="6.539667">
<ele>28.6</ele>
<time>2013-03-03T13:16:32.000Z</time>
</trkpt>
<trkpt lat="51.273423" lon="6.539526">
<ele>29.5</ele>
<time>2013-03-03T13:16:34.000Z</time>
</trkpt>
<trkpt lat="51.273424" lon="6.539396">
<ele>30.6</ele>
<time>2013-03-03T13:16:36.000Z</time>
</trkpt>
<trkpt lat="51.273429" lon="6.539273">
<ele>32</ele>
<time>2013-03-03T13:16:38.000Z</time>
</trkpt>
<trkpt lat="51.273444" lon="6.539136">
<ele>32.4</ele>
<time>2013-03-03T13:16:40.000Z</time>
</trkpt>
<trkpt lat="51.273454" lon="6.538997">
<ele>33.8</ele>
<time>2013-03-03T13:16:42.000Z</time>
</trkpt>
<trkpt lat="51.273456" lon="6.538864">
<ele>32.8</ele>
<time>2013-03-03T13:16:44.000Z</time>
</trkpt>
<trkpt lat="51.27346" lon="6.538748">
<ele>31.6</ele>
<time>2013-03-03T13:16:46.000Z</time>
</trkpt>
<trkpt lat="51.273447" lon="6.538673">
<ele>31.6</ele>
<time>2013-03-03T13:16:48.000Z</time>
</trkpt>
<trkpt lat="51.273388" lon="6.538701">
<ele>31.5</ele>
<time>2013-03-03T13:16:51.000Z</time>
</trkpt>
<trkpt lat="51.273327" lon="6.538718">
<ele>31.9</ele>
<time>2013-03-03T13:16:53.000Z</time>
</trkpt>
<trkpt lat="51.273251" lon="6.53874">
<ele>32.7</ele>
<time>2013-03-03T13:16:55.000Z</time>
</trkpt>
<trkpt lat="51.273146" lon="6.538732">
<ele>33.4</ele>
<time>2013-03-03T13:16:57.000Z</time>
</trkpt>
<trkpt lat="51.273094" lon="6.538732">
<ele>33.8</ele>
<time>2013-03-03T13:16:58.000Z</time>
</trkpt>
<trkpt lat="51.273043" lon="6.538725">
<ele>33.7</ele>
<time>2013-03-03T13:16:59.000Z</time>
</trkpt>
<trkpt lat="51.27299" lon="6.538715">
<ele>33.5</ele>
<time>2013-03-03T13:17:00.000Z</time>
</trkpt>
<trkpt lat="51.272904" lon="6.538689">
<ele>33.7</ele>
<time>2013-03-03T13:17:02.000Z</time>
</trkpt>
<trkpt lat="51.272855" lon="6.538679">
<ele>33.1</ele>
<time>2013-03-03T13:17:03.000Z</time>
</trkpt>
<trkpt lat="51.272808" lon="6.538675">
<ele>33.1</ele>
<time>2013-03-03T13:17:04.000Z</time>
</trkpt>
<trkpt lat="51.27276" lon="6.53867">
<ele>33</ele>
<time>2013-03-03T13:17:05.000Z</time>
</trkpt>
<trkpt lat="51.272667" lon="6.538676">
<ele>32.7</ele>
<time>2013-03-03T13:17:07.000Z</time>
</trkpt>
<trkpt lat="51.272573" lon="6.538644">
<ele>33</ele>
<time>2013-03-03T13:17:09.000Z</time>
</trkpt>
<trkpt lat="51.272528" lon="6.53863">
<ele>32.8</ele>
<time>2013-03-03T13:17:10.000Z</time>
</trkpt>
<trkpt lat="51.272481" lon="6.538617">
<ele>33.6</ele>
<time>2013-03-03T13:17:11.000Z</time>
</trkpt>
<trkpt lat="51.272437" lon="6.538596">
<ele>33.7</ele>
<time>2013-03-03T13:17:12.000Z</time>
</trkpt>
<trkpt lat="51.272351" lon="6.538574">
<ele>35.1</ele>
<time>2013-03-03T13:17:14.000Z</time>
</trkpt>
<trkpt lat="51.27227" lon="6.538539">
<ele>35.2</ele>
<time>2013-03-03T13:17:16.000Z</time>
</trkpt>
<trkpt lat="51.272223" lon="6.538526">
<ele>35.7</ele>
<time>2013-03-03T13:17:17.000Z</time>
</trkpt>
<trkpt lat="51.272176" lon="6.538514">
<ele>35.5</ele>
<time>2013-03-03T13:17:18.000Z</time>
</trkpt>
<trkpt lat="51.272122" lon="6.538503">
<ele>35.3</ele>
<time>2013-03-03T13:17:19.000Z</time>
</trkpt>
<trkpt lat="51.272069" lon="6.538495">
<ele>36</ele>
<time>2013-03-03T13:17:20.000Z</time>
</trkpt>
<trkpt lat="51.272017" lon="6.538487">
<ele>35.8</ele>
<time>2013-03-03T13:17:21.000Z</time>
</trkpt>
<trkpt lat="51.271963" lon="6.538474">
<ele>36.4</ele>
<time>2013-03-03T13:17:22.000Z</time>
</trkpt>
<trkpt lat="51.27187" lon="6.538438">
<ele>37</ele>
<time>2013-03-03T13:17:24.000Z</time>
</trkpt>
<trkpt lat="51.271822" lon="6.538422">
<ele>36.9</ele>
<time>2013-03-03T13:17:25.000Z</time>
</trkpt>
<trkpt lat="51.271766" lon="6.538408">
<ele>36.9</ele>
<time>2013-03-03T13:17:26.000Z</time>
</trkpt>
<trkpt lat="51.271711" lon="6.538406">
<ele>37.2</ele>
<time>2013-03-03T13:17:27.000Z</time>
</trkpt>
<trkpt lat="51.271661" lon="6.538405">
<ele>36.3</ele>
<time>2013-03-03T13:17:28.000Z</time>
</trkpt>
<trkpt lat="51.271613" lon="6.538387">
<ele>35.9</ele>
<time>2013-03-03T13:17:29.000Z</time>
</trkpt>
<trkpt lat="51.271563" lon="6.538367">
<ele>36.1</ele>
<time>2013-03-03T13:17:30.000Z</time>
</trkpt>
<trkpt lat="51.271515" lon="6.538343">
<ele>36.5</ele>
<time>2013-03-03T13:17:31.000Z</time>
</trkpt>
<trkpt lat="51.271467" lon="6.53832">
<ele>36.6</ele>
<time>2013-03-03T13:17:32.000Z</time>
</trkpt>
<trkpt lat="51.271413" lon="6.538301">
<ele>36.9</ele>
<time>2013-03-03T13:17:33.000Z</time>
</trkpt>
<trkpt lat="51.27137" lon="6.538273">
<ele>36.7</ele>
<time>2013-03-03T13:17:34.000Z</time>
</trkpt>
<trkpt lat="51.271319" lon="6.538246">
<ele>37.5</ele>
<time>2013-03-03T13:17:35.000Z</time>
</trkpt>
<trkpt lat="51.271266" lon="6.538223">
<ele>37.6</ele>
<time>2013-03-03T13:17:36.000Z</time>
</trkpt>
<trkpt lat="51.271215" lon="6.538206">
<ele>37.7</ele>
<time>2013-03-03T13:17:37.000Z</time>
</trkpt>
<trkpt lat="51.271162" lon="6.538185">
<ele>38.1</ele>
<time>2013-03-03T13:17:38.000Z</time>
</trkpt>
<trkpt lat="51.271114" lon="6.538158">
<ele>37.9</ele>
<time>2013-03-03T13:17:39.000Z</time>
</trkpt>
<trkpt lat="51.271068" lon="6.538126">
<ele>37.4</ele>
<time>2013-03-03T13:17:40.000Z</time>
</trkpt>
<trkpt lat="51.271021" lon="6.538106">
<ele>36.4</ele>
<time>2013-03-03T13:17:41.000Z</time>
</trkpt>
<trkpt lat="51.27097" lon="6.538075">
<ele>36</ele>
<time>2013-03-03T13:17:42.000Z</time>
</trkpt>
<trkpt lat="51.270924" lon="6.538055">
<ele>35.9</ele>
<time>2013-03-03T13:17:43.000Z</time>
</trkpt>
<trkpt lat="51.270874" lon="6.538024">
<ele>36</ele>
<time>2013-03-03T13:17:44.000Z</time>
</trkpt>
<trkpt lat="51.27083" lon="6.537999">
<ele>36.1</ele>
<time>2013-03-03T13:17:45.000Z</time>
</trkpt>
<trkpt lat="51.27079" lon="6.53796">
<ele>35.8</ele>
<time>2013-03-03T13:17:46.000Z</time>
</trkpt>
<trkpt lat="51.270742" lon="6.537928">
<ele>35.3</ele>
<time>2013-03-03T13:17:47.000Z</time>
</trkpt>
<trkpt lat="51.270697" lon="6.537902">
<ele>35.6</ele>
<time>2013-03-03T13:17:48.000Z</time>
</trkpt>
<trkpt lat="51.270642" lon="6.537872">
<ele>35</ele>
<time>2013-03-03T13:17:49.000Z</time>
</trkpt>
<trkpt lat="51.270597" lon="6.537844">
<ele>35.1</ele>
<time>2013-03-03T13:17:50.000Z</time>
</trkpt>
<trkpt lat="51.270544" lon="6.537834">
<ele>35.3</ele>
<time>2013-03-03T13:17:51.000Z</time>
</trkpt>
<trkpt lat="51.270502" lon="6.537787">
<ele>35.8</ele>
<time>2013-03-03T13:17:52.000Z</time>
</trkpt>
<trkpt lat="51.270454" lon="6.537746">
<ele>36.2</ele>
<time>2013-03-03T13:17:53.000Z</time>
</trkpt>
<trkpt lat="51.270379" lon="6.537689">
<ele>36.9</ele>
<time>2013-03-03T13:17:55.000Z</time>
</trkpt>
<trkpt lat="51.270326" lon="6.537658">
<ele>37.4</ele>
<time>2013-03-03T13:17:56.000Z</time>
</trkpt>
<trkpt lat="51.270274" lon="6.537624">
<ele>37.5</ele>
<time>2013-03-03T13:17:57.000Z</time>
</trkpt>
<trkpt lat="51.270221" lon="6.537608">
<ele>36.9</ele>
<time>2013-03-03T13:17:58.000Z</time>
</trkpt>
<trkpt lat="51.270168" lon="6.537596">
<ele>37</ele>
<time>2013-03-03T13:17:59.000Z</time>
</trkpt>
<trkpt lat="51.270122" lon="6.537552">
<ele>36.8</ele>
<time>2013-03-03T13:18:00.000Z</time>
</trkpt>
<trkpt lat="51.270076" lon="6.537505">
<ele>37</ele>
<time>2013-03-03T13:18:01.000Z</time>
</trkpt>
<trkpt lat="51.270028" lon="6.537476">
<ele>36.1</ele>
<time>2013-03-03T13:18:02.000Z</time>
</trkpt>
<trkpt lat="51.269984" lon="6.537443">
<ele>35.5</ele>
<time>2013-03-03T13:18:03.000Z</time>
</trkpt>
<trkpt lat="51.269944" lon="6.537399">
<ele>35</ele>
<time>2013-03-03T13:18:04.000Z</time>
</trkpt>
<trkpt lat="51.269899" lon="6.537362">
<ele>34.4</ele>
<time>2013-03-03T13:18:05.000Z</time>
</trkpt>
<trkpt lat="51.269855" lon="6.537334">
<ele>34.6</ele>
<time>2013-03-03T13:18:06.000Z</time>
</trkpt>
<trkpt lat="51.269802" lon="6.537294">
<ele>34.4</ele>
<time>2013-03-03T13:18:07.000Z</time>
</trkpt>
<trkpt lat="51.269725" lon="6.537229">
<ele>34.9</ele>
<time>2013-03-03T13:18:09.000Z</time>
</trkpt>
<trkpt lat="51.269682" lon="6.537186">
<ele>34.4</ele>
<time>2013-03-03T13:18:10.000Z</time>
</trkpt>
<trkpt lat="51.269639" lon="6.537148">
<ele>34.5</ele>
<time>2013-03-03T13:18:11.000Z</time>
</trkpt>
<trkpt lat="51.269593" lon="6.537104">
<ele>36.1</ele>
<time>2013-03-03T13:18:12.000Z</time>
</trkpt>
<trkpt lat="51.269498" lon="6.537047">
<ele>36.7</ele>
<time>2013-03-03T13:18:14.000Z</time>
</trkpt>
<trkpt lat="51.269456" lon="6.53701">
<ele>36.5</ele>
<time>2013-03-03T13:18:15.000Z</time>
</trkpt>
<trkpt lat="51.269408" lon="6.53697">
<ele>36.6</ele>
<time>2013-03-03T13:18:16.000Z</time>
</trkpt>
<trkpt lat="51.269362" lon="6.53693">
<ele>37.7</ele>
<time>2013-03-03T13:18:17.000Z</time>
</trkpt>
<trkpt lat="51.269307" lon="6.536888">
<ele>36.9</ele>
<time>2013-03-03T13:18:18.000Z</time>
</trkpt>
<trkpt lat="51.269262" lon="6.536838">
<ele>36.4</ele>
<time>2013-03-03T13:18:19.000Z</time>
</trkpt>
<trkpt lat="51.26919" lon="6.536752">
<ele>33.4</ele>
<time>2013-03-03T13:18:21.000Z</time>
</trkpt>
<trkpt lat="51.269141" lon="6.536703">
<ele>32.9</ele>
<time>2013-03-03T13:18:22.000Z</time>
</trkpt>
<trkpt lat="51.269092" lon="6.536668">
<ele>32.7</ele>
<time>2013-03-03T13:18:23.000Z</time>
</trkpt>
<trkpt lat="51.269014" lon="6.536598">
<ele>32.1</ele>
<time>2013-03-03T13:18:25.000Z</time>
</trkpt>
<trkpt lat="51.268972" lon="6.536555">
<ele>32</ele>
<time>2013-03-03T13:18:26.000Z</time>
</trkpt>
<trkpt lat="51.268924" lon="6.536508">
<ele>32.1</ele>
<time>2013-03-03T13:18:27.000Z</time>
</trkpt>
<trkpt lat="51.268876" lon="6.536459">
<ele>32.4</ele>
<time>2013-03-03T13:18:28.000Z</time>
</trkpt>
<trkpt lat="51.268834" lon="6.536415">
<ele>33.7</ele>
<time>2013-03-03T13:18:29.000Z</time>
</trkpt>
<trkpt lat="51.268791" lon="6.536362">
<ele>33.4</ele>
<time>2013-03-03T13:18:30.000Z</time>
</trkpt>
<trkpt lat="51.268751" lon="6.536325">
<ele>34.4</ele>
<time>2013-03-03T13:18:31.000Z</time>
</trkpt>
<trkpt lat="51.268699" lon="6.536282">
<ele>33.1</ele>
<time>2013-03-03T13:18:32.000Z</time>
</trkpt>
<trkpt lat="51.268659" lon="6.536227">
<ele>32.4</ele>
<time>2013-03-03T13:18:33.000Z</time>
</trkpt>
<trkpt lat="51.268588" lon="6.536147">
<ele>32.8</ele>
<time>2013-03-03T13:18:35.000Z</time>
</trkpt>
<trkpt lat="51.26855" lon="6.536106">
<ele>33.7</ele>
<time>2013-03-03T13:18:36.000Z</time>
</trkpt>
<trkpt lat="51.268507" lon="6.536068">
<ele>33</ele>
<time>2013-03-03T13:18:37.000Z</time>
</trkpt>
<trkpt lat="51.268471" lon="6.536023">
<ele>33.2</ele>
<time>2013-03-03T13:18:38.000Z</time>
</trkpt>
<trkpt lat="51.268399" lon="6.535954">
<ele>33.6</ele>
<time>2013-03-03T13:18:40.000Z</time>
</trkpt>
<trkpt lat="51.268331" lon="6.535898">
<ele>33.9</ele>
<time>2013-03-03T13:18:42.000Z</time>
</trkpt>
<trkpt lat="51.268264" lon="6.535851">
<ele>34.4</ele>
<time>2013-03-03T13:18:44.000Z</time>
</trkpt>
<trkpt lat="51.268218" lon="6.535851">
<ele>34</ele>
<time>2013-03-03T13:18:46.000Z</time>
</trkpt>
<trkpt lat="51.268168" lon="6.535825">
<ele>33.3</ele>
<time>2013-03-03T13:18:49.000Z</time>
</trkpt>
<trkpt lat="51.268122" lon="6.535798">
<ele>34.3</ele>
<time>2013-03-03T13:18:52.000Z</time>
</trkpt>
<trkpt lat="51.268075" lon="6.535736">
<ele>34.6</ele>
<time>2013-03-03T13:18:55.000Z</time>
</trkpt>
<trkpt lat="51.26806" lon="6.535657">
<ele>34.3</ele>
<time>2013-03-03T13:18:57.000Z</time>
</trkpt>
<trkpt lat="51.268043" lon="6.535563">
<ele>35</ele>
<time>2013-03-03T13:18:59.000Z</time>
</trkpt>
<trkpt lat="51.268007" lon="6.535487">
<ele>35</ele>
<time>2013-03-03T13:19:01.000Z</time>
</trkpt>
<trkpt lat="51.267951" lon="6.535435">
<ele>34.9</ele>
<time>2013-03-03T13:19:03.000Z</time>
</trkpt>
<trkpt lat="51.267885" lon="6.53538">
<ele>35.3</ele>
<time>2013-03-03T13:19:05.000Z</time>
</trkpt>
<trkpt lat="51.267813" lon="6.535303">
<ele>36.9</ele>
<time>2013-03-03T13:19:07.000Z</time>
</trkpt>
<trkpt lat="51.267754" lon="6.535249">
<ele>36.8</ele>
<time>2013-03-03T13:19:08.000Z</time>
</trkpt>
<trkpt lat="51.267714" lon="6.535199">
<ele>37.4</ele>
<time>2013-03-03T13:19:09.000Z</time>
</trkpt>
<trkpt lat="51.267631" lon="6.53513">
<ele>38.1</ele>
<time>2013-03-03T13:19:11.000Z</time>
</trkpt>
<trkpt lat="51.26756" lon="6.535104">
<ele>37.1</ele>
<time>2013-03-03T13:19:12.000Z</time>
</trkpt>
<trkpt lat="51.26748" lon="6.535057">
<ele>37.4</ele>
<time>2013-03-03T13:19:14.000Z</time>
</trkpt>
<trkpt lat="51.267446" lon="6.53498">
<ele>37.7</ele>
<time>2013-03-03T13:19:15.000Z</time>
</trkpt>
<trkpt lat="51.267411" lon="6.534933">
<ele>37.2</ele>
<time>2013-03-03T13:19:16.000Z</time>
</trkpt>
<trkpt lat="51.26737" lon="6.534876">
<ele>37.2</ele>
<time>2013-03-03T13:19:17.000Z</time>
</trkpt>
<trkpt lat="51.267319" lon="6.534834">
<ele>35.9</ele>
<time>2013-03-03T13:19:18.000Z</time>
</trkpt>
<trkpt lat="51.267276" lon="6.534797">
<ele>36.1</ele>
<time>2013-03-03T13:19:19.000Z</time>
</trkpt>
<trkpt lat="51.267192" lon="6.534743">
<ele>36.3</ele>
<time>2013-03-03T13:19:21.000Z</time>
</trkpt>
<trkpt lat="51.267117" lon="6.534655">
<ele>36.2</ele>
<time>2013-03-03T13:19:23.000Z</time>
</trkpt>
<trkpt lat="51.267034" lon="6.534579">
<ele>36</ele>
<time>2013-03-03T13:19:25.000Z</time>
</trkpt>
<trkpt lat="51.266991" lon="6.534527">
<ele>36.4</ele>
<time>2013-03-03T13:19:26.000Z</time>
</trkpt>
<trkpt lat="51.266951" lon="6.534482">
<ele>36.3</ele>
<time>2013-03-03T13:19:27.000Z</time>
</trkpt>
<trkpt lat="51.266911" lon="6.534428">
<ele>36.2</ele>
<time>2013-03-03T13:19:28.000Z</time>
</trkpt>
<trkpt lat="51.26687" lon="6.53438">
<ele>36.9</ele>
<time>2013-03-03T13:19:29.000Z</time>
</trkpt>
<trkpt lat="51.266825" lon="6.534347">
<ele>36</ele>
<time>2013-03-03T13:19:30.000Z</time>
</trkpt>
<trkpt lat="51.266783" lon="6.534306">
<ele>35.3</ele>
<time>2013-03-03T13:19:31.000Z</time>
</trkpt>
<trkpt lat="51.266714" lon="6.534209">
<ele>36.3</ele>
<time>2013-03-03T13:19:33.000Z</time>
</trkpt>
<trkpt lat="51.266679" lon="6.534155">
<ele>37</ele>
<time>2013-03-03T13:19:34.000Z</time>
</trkpt>
<trkpt lat="51.266639" lon="6.534106">
<ele>36.7</ele>
<time>2013-03-03T13:19:35.000Z</time>
</trkpt>
<trkpt lat="51.2666" lon="6.534068">
<ele>37.5</ele>
<time>2013-03-03T13:19:36.000Z</time>
</trkpt>
<trkpt lat="51.266559" lon="6.534017">
<ele>37.3</ele>
<time>2013-03-03T13:19:37.000Z</time>
</trkpt>
<trkpt lat="51.266514" lon="6.533968">
<ele>38.9</ele>
<time>2013-03-03T13:19:38.000Z</time>
</trkpt>
<trkpt lat="51.266477" lon="6.533917">
<ele>38.3</ele>
<time>2013-03-03T13:19:39.000Z</time>
</trkpt>
<trkpt lat="51.266433" lon="6.533868">
<ele>38.9</ele>
<time>2013-03-03T13:19:40.000Z</time>
</trkpt>
<trkpt lat="51.266337" lon="6.533786">
<ele>39.9</ele>
<time>2013-03-03T13:19:42.000Z</time>
</trkpt>
<trkpt lat="51.266297" lon="6.53374">
<ele>40</ele>
<time>2013-03-03T13:19:43.000Z</time>
</trkpt>
<trkpt lat="51.266261" lon="6.533691">
<ele>39.6</ele>
<time>2013-03-03T13:19:44.000Z</time>
</trkpt>
<trkpt lat="51.266227" lon="6.533622">
<ele>39.5</ele>
<time>2013-03-03T13:19:45.000Z</time>
</trkpt>
<trkpt lat="51.266183" lon="6.533576">
<ele>37.3</ele>
<time>2013-03-03T13:19:46.000Z</time>
</trkpt>
<trkpt lat="51.266135" lon="6.533531">
<ele>37.3</ele>
<time>2013-03-03T13:19:47.000Z</time>
</trkpt>
<trkpt lat="51.266089" lon="6.533491">
<ele>38.3</ele>
<time>2013-03-03T13:19:48.000Z</time>
</trkpt>
<trkpt lat="51.266036" lon="6.533448">
<ele>37.2</ele>
<time>2013-03-03T13:19:49.000Z</time>
</trkpt>
<trkpt lat="51.265988" lon="6.533399">
<ele>36.2</ele>
<time>2013-03-03T13:19:50.000Z</time>
</trkpt>
<trkpt lat="51.265952" lon="6.533341">
<ele>35.7</ele>
<time>2013-03-03T13:19:51.000Z</time>
</trkpt>
<trkpt lat="51.265907" lon="6.533289">
<ele>36.2</ele>
<time>2013-03-03T13:19:52.000Z</time>
</trkpt>
<trkpt lat="51.265858" lon="6.533245">
<ele>35.9</ele>
<time>2013-03-03T13:19:53.000Z</time>
</trkpt>
<trkpt lat="51.265816" lon="6.533187">
<ele>36.3</ele>
<time>2013-03-03T13:19:54.000Z</time>
</trkpt>
<trkpt lat="51.265733" lon="6.533112">
<ele>34.5</ele>
<time>2013-03-03T13:19:56.000Z</time>
</trkpt>
<trkpt lat="51.26569" lon="6.533066">
<ele>34.2</ele>
<time>2013-03-03T13:19:57.000Z</time>
</trkpt>
<trkpt lat="51.265613" lon="6.532977">
<ele>33.7</ele>
<time>2013-03-03T13:19:59.000Z</time>
</trkpt>
<trkpt lat="51.265571" lon="6.532927">
<ele>33.8</ele>
<time>2013-03-03T13:20:00.000Z</time>
</trkpt>
<trkpt lat="51.26553" lon="6.532866">
<ele>33.8</ele>
<time>2013-03-03T13:20:01.000Z</time>
</trkpt>
<trkpt lat="51.265484" lon="6.532817">
<ele>33.6</ele>
<time>2013-03-03T13:20:02.000Z</time>
</trkpt>
<trkpt lat="51.265434" lon="6.53276">
<ele>33.1</ele>
<time>2013-03-03T13:20:03.000Z</time>
</trkpt>
<trkpt lat="51.265387" lon="6.532712">
<ele>33</ele>
<time>2013-03-03T13:20:04.000Z</time>
</trkpt>
<trkpt lat="51.26534" lon="6.532678">
<ele>32.7</ele>
<time>2013-03-03T13:20:05.000Z</time>
</trkpt>
<trkpt lat="51.265299" lon="6.532635">
<ele>32.7</ele>
<time>2013-03-03T13:20:06.000Z</time>
</trkpt>
<trkpt lat="51.265249" lon="6.532587">
<ele>33</ele>
<time>2013-03-03T13:20:07.000Z</time>
</trkpt>
<trkpt lat="51.265191" lon="6.53254">
<ele>32.4</ele>
<time>2013-03-03T13:20:08.000Z</time>
</trkpt>
<trkpt lat="51.265152" lon="6.532501">
<ele>32.2</ele>
<time>2013-03-03T13:20:09.000Z</time>
</trkpt>
<trkpt lat="51.26511" lon="6.532447">
<ele>32.6</ele>
<time>2013-03-03T13:20:10.000Z</time>
</trkpt>
<trkpt lat="51.26507" lon="6.532399">
<ele>32</ele>
<time>2013-03-03T13:20:11.000Z</time>
</trkpt>
<trkpt lat="51.265029" lon="6.532347">
<ele>32.6</ele>
<time>2013-03-03T13:20:12.000Z</time>
</trkpt>
<trkpt lat="51.264983" lon="6.532303">
<ele>32.1</ele>
<time>2013-03-03T13:20:13.000Z</time>
</trkpt>
<trkpt lat="51.264942" lon="6.532242">
<ele>32.7</ele>
<time>2013-03-03T13:20:14.000Z</time>
</trkpt>
<trkpt lat="51.264901" lon="6.53219">
<ele>32.6</ele>
<time>2013-03-03T13:20:15.000Z</time>
</trkpt>
<trkpt lat="51.264814" lon="6.532107">
<ele>32.5</ele>
<time>2013-03-03T13:20:17.000Z</time>
</trkpt>
<trkpt lat="51.264766" lon="6.532067">
<ele>32.6</ele>
<time>2013-03-03T13:20:18.000Z</time>
</trkpt>
<trkpt lat="51.264728" lon="6.532015">
<ele>33.9</ele>
<time>2013-03-03T13:20:19.000Z</time>
</trkpt>
<trkpt lat="51.264684" lon="6.531967">
<ele>34.4</ele>
<time>2013-03-03T13:20:20.000Z</time>
</trkpt>
<trkpt lat="51.264643" lon="6.531923">
<ele>34.9</ele>
<time>2013-03-03T13:20:21.000Z</time>
</trkpt>
<trkpt lat="51.264598" lon="6.531876">
<ele>35.1</ele>
<time>2013-03-03T13:20:22.000Z</time>
</trkpt>
<trkpt lat="51.264548" lon="6.531844">
<ele>34.3</ele>
<time>2013-03-03T13:20:23.000Z</time>
</trkpt>
<trkpt lat="51.264501" lon="6.531789">
<ele>34.1</ele>
<time>2013-03-03T13:20:24.000Z</time>
</trkpt>
<trkpt lat="51.26445" lon="6.531738">
<ele>34.3</ele>
<time>2013-03-03T13:20:25.000Z</time>
</trkpt>
<trkpt lat="51.264407" lon="6.531678">
<ele>33.9</ele>
<time>2013-03-03T13:20:26.000Z</time>
</trkpt>
<trkpt lat="51.264354" lon="6.531626">
<ele>33.6</ele>
<time>2013-03-03T13:20:27.000Z</time>
</trkpt>
<trkpt lat="51.264315" lon="6.531579">
<ele>33.5</ele>
<time>2013-03-03T13:20:28.000Z</time>
</trkpt>
<trkpt lat="51.264273" lon="6.531535">
<ele>34</ele>
<time>2013-03-03T13:20:29.000Z</time>
</trkpt>
<trkpt lat="51.26422" lon="6.531484">
<ele>33.5</ele>
<time>2013-03-03T13:20:30.000Z</time>
</trkpt>
<trkpt lat="51.264175" lon="6.531436">
<ele>33.4</ele>
<time>2013-03-03T13:20:31.000Z</time>
</trkpt>
<trkpt lat="51.264133" lon="6.531395">
<ele>33.5</ele>
<time>2013-03-03T13:20:32.000Z</time>
</trkpt>
<trkpt lat="51.264092" lon="6.531346">
<ele>33.6</ele>
<time>2013-03-03T13:20:33.000Z</time>
</trkpt>
<trkpt lat="51.264044" lon="6.5313">
<ele>33.5</ele>
<time>2013-03-03T13:20:34.000Z</time>
</trkpt>
<trkpt lat="51.264002" lon="6.531243">
<ele>34.2</ele>
<time>2013-03-03T13:20:35.000Z</time>
</trkpt>
<trkpt lat="51.263945" lon="6.531197">
<ele>34.1</ele>
<time>2013-03-03T13:20:36.000Z</time>
</trkpt>
<trkpt lat="51.263903" lon="6.531139">
<ele>35.3</ele>
<time>2013-03-03T13:20:37.000Z</time>
</trkpt>
<trkpt lat="51.263876" lon="6.53107">
<ele>35.9</ele>
<time>2013-03-03T13:20:38.000Z</time>
</trkpt>
<trkpt lat="51.263838" lon="6.531006">
<ele>36.2</ele>
<time>2013-03-03T13:20:39.000Z</time>
</trkpt>
<trkpt lat="51.263787" lon="6.530962">
<ele>35.9</ele>
<time>2013-03-03T13:20:40.000Z</time>
</trkpt>
<trkpt lat="51.263738" lon="6.530931">
<ele>35.6</ele>
<time>2013-03-03T13:20:41.000Z</time>
</trkpt>
<trkpt lat="51.2637" lon="6.530886">
<ele>34.8</ele>
<time>2013-03-03T13:20:42.000Z</time>
</trkpt>
<trkpt lat="51.263651" lon="6.530833">
<ele>35.6</ele>
<time>2013-03-03T13:20:43.000Z</time>
</trkpt>
<trkpt lat="51.263603" lon="6.530784">
<ele>35.4</ele>
<time>2013-03-03T13:20:44.000Z</time>
</trkpt>
<trkpt lat="51.263561" lon="6.530729">
<ele>35.8</ele>
<time>2013-03-03T13:20:45.000Z</time>
</trkpt>
<trkpt lat="51.26352" lon="6.530679">
<ele>35.7</ele>
<time>2013-03-03T13:20:46.000Z</time>
</trkpt>
<trkpt lat="51.263477" lon="6.530626">
<ele>35</ele>
<time>2013-03-03T13:20:47.000Z</time>
</trkpt>
<trkpt lat="51.263432" lon="6.530587">
<ele>35</ele>
<time>2013-03-03T13:20:48.000Z</time>
</trkpt>
<trkpt lat="51.263355" lon="6.530501">
<ele>34.3</ele>
<time>2013-03-03T13:20:50.000Z</time>
</trkpt>
<trkpt lat="51.263318" lon="6.530458">
<ele>34.3</ele>
<time>2013-03-03T13:20:51.000Z</time>
</trkpt>
<trkpt lat="51.263241" lon="6.530371">
<ele>34.6</ele>
<time>2013-03-03T13:20:53.000Z</time>
</trkpt>
<trkpt lat="51.263201" lon="6.530327">
<ele>34.6</ele>
<time>2013-03-03T13:20:54.000Z</time>
</trkpt>
<trkpt lat="51.263148" lon="6.53028">
<ele>35</ele>
<time>2013-03-03T13:20:55.000Z</time>
</trkpt>
<trkpt lat="51.263103" lon="6.530234">
<ele>35</ele>
<time>2013-03-03T13:20:56.000Z</time>
</trkpt>
<trkpt lat="51.263046" lon="6.530194">
<ele>33.6</ele>
<time>2013-03-03T13:20:57.000Z</time>
</trkpt>
<trkpt lat="51.263" lon="6.530152">
<ele>32.9</ele>
<time>2013-03-03T13:20:58.000Z</time>
</trkpt>
<trkpt lat="51.262957" lon="6.530111">
<ele>32.3</ele>
<time>2013-03-03T13:20:59.000Z</time>
</trkpt>
<trkpt lat="51.262911" lon="6.530063">
<ele>32.1</ele>
<time>2013-03-03T13:21:00.000Z</time>
</trkpt>
<trkpt lat="51.262869" lon="6.53002">
<ele>32.7</ele>
<time>2013-03-03T13:21:01.000Z</time>
</trkpt>
<trkpt lat="51.262831" lon="6.529977">
<ele>32.4</ele>
<time>2013-03-03T13:21:02.000Z</time>
</trkpt>
<trkpt lat="51.262786" lon="6.529942">
<ele>32.1</ele>
<time>2013-03-03T13:21:03.000Z</time>
</trkpt>
<trkpt lat="51.26274" lon="6.529877">
<ele>30.9</ele>
<time>2013-03-03T13:21:05.000Z</time>
</trkpt>
<trkpt lat="51.262675" lon="6.5298">
<ele>30.7</ele>
<time>2013-03-03T13:21:07.000Z</time>
</trkpt>
<trkpt lat="51.262616" lon="6.529732">
<ele>32.2</ele>
<time>2013-03-03T13:21:09.000Z</time>
</trkpt>
<trkpt lat="51.262562" lon="6.529663">
<ele>33.5</ele>
<time>2013-03-03T13:21:11.000Z</time>
</trkpt>
<trkpt lat="51.262502" lon="6.529598">
<ele>34.1</ele>
<time>2013-03-03T13:21:13.000Z</time>
</trkpt>
<trkpt lat="51.262437" lon="6.529537">
<ele>34</ele>
<time>2013-03-03T13:21:15.000Z</time>
</trkpt>
<trkpt lat="51.262366" lon="6.52947">
<ele>33.1</ele>
<time>2013-03-03T13:21:17.000Z</time>
</trkpt>
<trkpt lat="51.262274" lon="6.529383">
<ele>32.2</ele>
<time>2013-03-03T13:21:19.000Z</time>
</trkpt>
<trkpt lat="51.262201" lon="6.529302">
<ele>31.6</ele>
<time>2013-03-03T13:21:21.000Z</time>
</trkpt>
<trkpt lat="51.262165" lon="6.529251">
<ele>31.8</ele>
<time>2013-03-03T13:21:22.000Z</time>
</trkpt>
<trkpt lat="51.262099" lon="6.529171">
<ele>31.4</ele>
<time>2013-03-03T13:21:24.000Z</time>
</trkpt>
<trkpt lat="51.262027" lon="6.529104">
<ele>31</ele>
<time>2013-03-03T13:21:26.000Z</time>
</trkpt>
<trkpt lat="51.26199" lon="6.529048">
<ele>31.7</ele>
<time>2013-03-03T13:21:27.000Z</time>
</trkpt>
<trkpt lat="51.261948" lon="6.529006">
<ele>31.8</ele>
<time>2013-03-03T13:21:28.000Z</time>
</trkpt>
<trkpt lat="51.261916" lon="6.528952">
<ele>32</ele>
<time>2013-03-03T13:21:29.000Z</time>
</trkpt>
<trkpt lat="51.261845" lon="6.528864">
<ele>31.9</ele>
<time>2013-03-03T13:21:31.000Z</time>
</trkpt>
<trkpt lat="51.261789" lon="6.52882">
<ele>30.9</ele>
<time>2013-03-03T13:21:32.000Z</time>
</trkpt>
<trkpt lat="51.26175" lon="6.528775">
<ele>32</ele>
<time>2013-03-03T13:21:33.000Z</time>
</trkpt>
<trkpt lat="51.261705" lon="6.528746">
<ele>33.8</ele>
<time>2013-03-03T13:21:34.000Z</time>
</trkpt>
<trkpt lat="51.261654" lon="6.528702">
<ele>34.8</ele>
<time>2013-03-03T13:21:35.000Z</time>
</trkpt>
<trkpt lat="51.2616" lon="6.528668">
<ele>34.9</ele>
<time>2013-03-03T13:21:36.000Z</time>
</trkpt>
<trkpt lat="51.261556" lon="6.528625">
<ele>35.5</ele>
<time>2013-03-03T13:21:37.000Z</time>
</trkpt>
<trkpt lat="51.261512" lon="6.528565">
<ele>36.3</ele>
<time>2013-03-03T13:21:38.000Z</time>
</trkpt>
<trkpt lat="51.261451" lon="6.528457">
<ele>35.6</ele>
<time>2013-03-03T13:21:40.000Z</time>
</trkpt>
<trkpt lat="51.261395" lon="6.528397">
<ele>34.1</ele>
<time>2013-03-03T13:21:41.000Z</time>
</trkpt>
<trkpt lat="51.261347" lon="6.528339">
<ele>34.5</ele>
<time>2013-03-03T13:21:42.000Z</time>
</trkpt>
<trkpt lat="51.261299" lon="6.528281">
<ele>34</ele>
<time>2013-03-03T13:21:43.000Z</time>
</trkpt>
<trkpt lat="51.261257" lon="6.528219">
<ele>35.1</ele>
<time>2013-03-03T13:21:44.000Z</time>
</trkpt>
<trkpt lat="51.261206" lon="6.528161">
<ele>35</ele>
<time>2013-03-03T13:21:45.000Z</time>
</trkpt>
<trkpt lat="51.261165" lon="6.528112">
<ele>35</ele>
<time>2013-03-03T13:21:46.000Z</time>
</trkpt>
<trkpt lat="51.261129" lon="6.528064">
<ele>35.1</ele>
<time>2013-03-03T13:21:47.000Z</time>
</trkpt>
<trkpt lat="51.261081" lon="6.528003">
<ele>35.3</ele>
<time>2013-03-03T13:21:48.000Z</time>
</trkpt>
<trkpt lat="51.261042" lon="6.527934">
<ele>35.5</ele>
<time>2013-03-03T13:21:49.000Z</time>
</trkpt>
<trkpt lat="51.260972" lon="6.527834">
<ele>36.9</ele>
<time>2013-03-03T13:21:51.000Z</time>
</trkpt>
<trkpt lat="51.260911" lon="6.527733">
<ele>37.3</ele>
<time>2013-03-03T13:21:53.000Z</time>
</trkpt>
<trkpt lat="51.260872" lon="6.527683">
<ele>37.6</ele>
<time>2013-03-03T13:21:54.000Z</time>
</trkpt>
<trkpt lat="51.260807" lon="6.527599">
<ele>39.1</ele>
<time>2013-03-03T13:21:56.000Z</time>
</trkpt>
<trkpt lat="51.260749" lon="6.527524">
<ele>38.3</ele>
<time>2013-03-03T13:21:58.000Z</time>
</trkpt>
<trkpt lat="51.260687" lon="6.527503">
<ele>37.4</ele>
<time>2013-03-03T13:22:00.000Z</time>
</trkpt>
<trkpt lat="51.260663" lon="6.527407">
<ele>36</ele>
<time>2013-03-03T13:22:03.000Z</time>
</trkpt>
<trkpt lat="51.26067" lon="6.527323">
<ele>35.8</ele>
<time>2013-03-03T13:22:05.000Z</time>
</trkpt>
<trkpt lat="51.260642" lon="6.527261">
<ele>37.6</ele>
<time>2013-03-03T13:22:08.000Z</time>
</trkpt>
<trkpt lat="51.26059" lon="6.527272">
<ele>38.4</ele>
<time>2013-03-03T13:22:10.000Z</time>
</trkpt>
<trkpt lat="51.260526" lon="6.527285">
<ele>38.2</ele>
<time>2013-03-03T13:22:12.000Z</time>
</trkpt>
<trkpt lat="51.260465" lon="6.527253">
<ele>38</ele>
<time>2013-03-03T13:22:14.000Z</time>
</trkpt>
<trkpt lat="51.260405" lon="6.527178">
<ele>37.7</ele>
<time>2013-03-03T13:22:16.000Z</time>
</trkpt>
<trkpt lat="51.26035" lon="6.527063">
<ele>37</ele>
<time>2013-03-03T13:22:18.000Z</time>
</trkpt>
<trkpt lat="51.260318" lon="6.526946">
<ele>36.9</ele>
<time>2013-03-03T13:22:19.000Z</time>
</trkpt>
<trkpt lat="51.260281" lon="6.526882">
<ele>36.6</ele>
<time>2013-03-03T13:22:20.000Z</time>
</trkpt>
<trkpt lat="51.260249" lon="6.52681">
<ele>36.7</ele>
<time>2013-03-03T13:22:21.000Z</time>
</trkpt>
<trkpt lat="51.260213" lon="6.526749">
<ele>36.8</ele>
<time>2013-03-03T13:22:22.000Z</time>
</trkpt>
<trkpt lat="51.260179" lon="6.526682">
<ele>37</ele>
<time>2013-03-03T13:22:23.000Z</time>
</trkpt>
<trkpt lat="51.260136" lon="6.526621">
<ele>36.6</ele>
<time>2013-03-03T13:22:24.000Z</time>
</trkpt>
<trkpt lat="51.260103" lon="6.526565">
<ele>36.9</ele>
<time>2013-03-03T13:22:25.000Z</time>
</trkpt>
<trkpt lat="51.26007" lon="6.526501">
<ele>37.8</ele>
<time>2013-03-03T13:22:26.000Z</time>
</trkpt>
<trkpt lat="51.260036" lon="6.526437">
<ele>38.2</ele>
<time>2013-03-03T13:22:27.000Z</time>
</trkpt>
<trkpt lat="51.259997" lon="6.526387">
<ele>37.7</ele>
<time>2013-03-03T13:22:28.000Z</time>
</trkpt>
<trkpt lat="51.259957" lon="6.526322">
<ele>37.7</ele>
<time>2013-03-03T13:22:29.000Z</time>
</trkpt>
<trkpt lat="51.25992" lon="6.526266">
<ele>37.9</ele>
<time>2013-03-03T13:22:30.000Z</time>
</trkpt>
<trkpt lat="51.259877" lon="6.52621">
<ele>37.8</ele>
<time>2013-03-03T13:22:31.000Z</time>
</trkpt>
<trkpt lat="51.259828" lon="6.526148">
<ele>37.2</ele>
<time>2013-03-03T13:22:32.000Z</time>
</trkpt>
<trkpt lat="51.259786" lon="6.526083">
<ele>36.8</ele>
<time>2013-03-03T13:22:33.000Z</time>
</trkpt>
<trkpt lat="51.259747" lon="6.526021">
<ele>36</ele>
<time>2013-03-03T13:22:34.000Z</time>
</trkpt>
<trkpt lat="51.259713" lon="6.525956">
<ele>35.7</ele>
<time>2013-03-03T13:22:35.000Z</time>
</trkpt>
<trkpt lat="51.259675" lon="6.525888">
<ele>35.3</ele>
<time>2013-03-03T13:22:36.000Z</time>
</trkpt>
<trkpt lat="51.259635" lon="6.525832">
<ele>34.7</ele>
<time>2013-03-03T13:22:37.000Z</time>
</trkpt>
<trkpt lat="51.259597" lon="6.525775">
<ele>34.6</ele>
<time>2013-03-03T13:22:38.000Z</time>
</trkpt>
<trkpt lat="51.25957" lon="6.525707">
<ele>35</ele>
<time>2013-03-03T13:22:39.000Z</time>
</trkpt>
<trkpt lat="51.259529" lon="6.525643">
<ele>35.4</ele>
<time>2013-03-03T13:22:40.000Z</time>
</trkpt>
<trkpt lat="51.259487" lon="6.525585">
<ele>35</ele>
<time>2013-03-03T13:22:41.000Z</time>
</trkpt>
<trkpt lat="51.259446" lon="6.525513">
<ele>35.1</ele>
<time>2013-03-03T13:22:42.000Z</time>
</trkpt>
<trkpt lat="51.25941" lon="6.525449">
<ele>34.9</ele>
<time>2013-03-03T13:22:43.000Z</time>
</trkpt>
<trkpt lat="51.259337" lon="6.52533">
<ele>36.1</ele>
<time>2013-03-03T13:22:45.000Z</time>
</trkpt>
<trkpt lat="51.259296" lon="6.525273">
<ele>36</ele>
<time>2013-03-03T13:22:46.000Z</time>
</trkpt>
<trkpt lat="51.259244" lon="6.525199">
<ele>35.7</ele>
<time>2013-03-03T13:22:47.000Z</time>
</trkpt>
<trkpt lat="51.25921" lon="6.525142">
<ele>35.2</ele>
<time>2013-03-03T13:22:48.000Z</time>
</trkpt>
<trkpt lat="51.259177" lon="6.525075">
<ele>34.4</ele>
<time>2013-03-03T13:22:49.000Z</time>
</trkpt>
<trkpt lat="51.259117" lon="6.524987">
<ele>34.2</ele>
<time>2013-03-03T13:22:51.000Z</time>
</trkpt>
<trkpt lat="51.259064" lon="6.524949">
<ele>34.5</ele>
<time>2013-03-03T13:22:52.000Z</time>
</trkpt>
<trkpt lat="51.259023" lon="6.524885">
<ele>34.7</ele>
<time>2013-03-03T13:22:53.000Z</time>
</trkpt>
<trkpt lat="51.258971" lon="6.524851">
<ele>35.3</ele>
<time>2013-03-03T13:22:54.000Z</time>
</trkpt>
<trkpt lat="51.258938" lon="6.524794">
<ele>34.9</ele>
<time>2013-03-03T13:22:55.000Z</time>
</trkpt>
<trkpt lat="51.258902" lon="6.524723">
<ele>34.7</ele>
<time>2013-03-03T13:22:56.000Z</time>
</trkpt>
<trkpt lat="51.258826" lon="6.524623">
<ele>34</ele>
<time>2013-03-03T13:22:58.000Z</time>
</trkpt>
<trkpt lat="51.258772" lon="6.524562">
<ele>34.2</ele>
<time>2013-03-03T13:22:59.000Z</time>
</trkpt>
<trkpt lat="51.258727" lon="6.524501">
<ele>33.8</ele>
<time>2013-03-03T13:23:00.000Z</time>
</trkpt>
<trkpt lat="51.25869" lon="6.524441">
<ele>34.3</ele>
<time>2013-03-03T13:23:01.000Z</time>
</trkpt>
<trkpt lat="51.258633" lon="6.524378">
<ele>34.5</ele>
<time>2013-03-03T13:23:02.000Z</time>
</trkpt>
<trkpt lat="51.258582" lon="6.524314">
<ele>34.8</ele>
<time>2013-03-03T13:23:03.000Z</time>
</trkpt>
<trkpt lat="51.258527" lon="6.524254">
<ele>35.2</ele>
<time>2013-03-03T13:23:04.000Z</time>
</trkpt>
<trkpt lat="51.258486" lon="6.52419">
<ele>35</ele>
<time>2013-03-03T13:23:05.000Z</time>
</trkpt>
<trkpt lat="51.258437" lon="6.524125">
<ele>35.2</ele>
<time>2013-03-03T13:23:06.000Z</time>
</trkpt>
<trkpt lat="51.258398" lon="6.524064">
<ele>34.5</ele>
<time>2013-03-03T13:23:07.000Z</time>
</trkpt>
<trkpt lat="51.258354" lon="6.523996">
<ele>35.1</ele>
<time>2013-03-03T13:23:08.000Z</time>
</trkpt>
<trkpt lat="51.258318" lon="6.523934">
<ele>35.2</ele>
<time>2013-03-03T13:23:09.000Z</time>
</trkpt>
<trkpt lat="51.258275" lon="6.523861">
<ele>34.3</ele>
<time>2013-03-03T13:23:10.000Z</time>
</trkpt>
<trkpt lat="51.258242" lon="6.523777">
<ele>33.6</ele>
<time>2013-03-03T13:23:11.000Z</time>
</trkpt>
<trkpt lat="51.258214" lon="6.523704">
<ele>33.4</ele>
<time>2013-03-03T13:23:12.000Z</time>
</trkpt>
<trkpt lat="51.258185" lon="6.523621">
<ele>33.6</ele>
<time>2013-03-03T13:23:13.000Z</time>
</trkpt>
<trkpt lat="51.258153" lon="6.52355">
<ele>33.3</ele>
<time>2013-03-03T13:23:14.000Z</time>
</trkpt>
<trkpt lat="51.258126" lon="6.523484">
<ele>31.4</ele>
<time>2013-03-03T13:23:15.000Z</time>
</trkpt>
<trkpt lat="51.258066" lon="6.523356">
<ele>29.5</ele>
<time>2013-03-03T13:23:17.000Z</time>
</trkpt>
<trkpt lat="51.258032" lon="6.523287">
<ele>30.2</ele>
<time>2013-03-03T13:23:18.000Z</time>
</trkpt>
<trkpt lat="51.257994" lon="6.523217">
<ele>30.5</ele>
<time>2013-03-03T13:23:19.000Z</time>
</trkpt>
<trkpt lat="51.257951" lon="6.523159">
<ele>30.7</ele>
<time>2013-03-03T13:23:20.000Z</time>
</trkpt>
<trkpt lat="51.257914" lon="6.523109">
<ele>31.8</ele>
<time>2013-03-03T13:23:21.000Z</time>
</trkpt>
<trkpt lat="51.257849" lon="6.523012">
<ele>32.7</ele>
<time>2013-03-03T13:23:23.000Z</time>
</trkpt>
<trkpt lat="51.257819" lon="6.522946">
<ele>33.1</ele>
<time>2013-03-03T13:23:24.000Z</time>
</trkpt>
<trkpt lat="51.257791" lon="6.522885">
<ele>33.4</ele>
<time>2013-03-03T13:23:25.000Z</time>
</trkpt>
<trkpt lat="51.257741" lon="6.522777">
<ele>32</ele>
<time>2013-03-03T13:23:27.000Z</time>
</trkpt>
<trkpt lat="51.25767" lon="6.52269">
<ele>31.5</ele>
<time>2013-03-03T13:23:29.000Z</time>
</trkpt>
<trkpt lat="51.257623" lon="6.522663">
<ele>31.1</ele>
<time>2013-03-03T13:23:30.000Z</time>
</trkpt>
<trkpt lat="51.257559" lon="6.522589">
<ele>30.5</ele>
<time>2013-03-03T13:23:32.000Z</time>
</trkpt>
<trkpt lat="51.257479" lon="6.522544">
<ele>31.7</ele>
<time>2013-03-03T13:23:34.000Z</time>
</trkpt>
<trkpt lat="51.257407" lon="6.522465">
<ele>33.1</ele>
<time>2013-03-03T13:23:36.000Z</time>
</trkpt>
<trkpt lat="51.257338" lon="6.522344">
<ele>34</ele>
<time>2013-03-03T13:23:38.000Z</time>
</trkpt>
<trkpt lat="51.257317" lon="6.522198">
<ele>33.5</ele>
<time>2013-03-03T13:23:40.000Z</time>
</trkpt>
<trkpt lat="51.257316" lon="6.522119">
<ele>34.2</ele>
<time>2013-03-03T13:23:41.000Z</time>
</trkpt>
<trkpt lat="51.25732" lon="6.522045">
<ele>32.8</ele>
<time>2013-03-03T13:23:42.000Z</time>
</trkpt>
<trkpt lat="51.257315" lon="6.52197">
<ele>33.7</ele>
<time>2013-03-03T13:23:43.000Z</time>
</trkpt>
<trkpt lat="51.257286" lon="6.521895">
<ele>34.1</ele>
<time>2013-03-03T13:23:44.000Z</time>
</trkpt>
<trkpt lat="51.25725" lon="6.521838">
<ele>33.1</ele>
<time>2013-03-03T13:23:45.000Z</time>
</trkpt>
<trkpt lat="51.257187" lon="6.52172">
<ele>32.7</ele>
<time>2013-03-03T13:23:47.000Z</time>
</trkpt>
<trkpt lat="51.257149" lon="6.521658">
<ele>33.3</ele>
<time>2013-03-03T13:23:48.000Z</time>
</trkpt>
<trkpt lat="51.257114" lon="6.521596">
<ele>33.5</ele>
<time>2013-03-03T13:23:49.000Z</time>
</trkpt>
<trkpt lat="51.257081" lon="6.521538">
<ele>33.5</ele>
<time>2013-03-03T13:23:50.000Z</time>
</trkpt>
<trkpt lat="51.257049" lon="6.521476">
<ele>33.8</ele>
<time>2013-03-03T13:23:51.000Z</time>
</trkpt>
<trkpt lat="51.257007" lon="6.521408">
<ele>34</ele>
<time>2013-03-03T13:23:52.000Z</time>
</trkpt>
<trkpt lat="51.256975" lon="6.521343">
<ele>34</ele>
<time>2013-03-03T13:23:53.000Z</time>
</trkpt>
<trkpt lat="51.256943" lon="6.52128">
<ele>34.4</ele>
<time>2013-03-03T13:23:54.000Z</time>
</trkpt>
<trkpt lat="51.256912" lon="6.521216">
<ele>34.2</ele>
<time>2013-03-03T13:23:55.000Z</time>
</trkpt>
<trkpt lat="51.256878" lon="6.521158">
<ele>35.8</ele>
<time>2013-03-03T13:23:56.000Z</time>
</trkpt>
<trkpt lat="51.256831" lon="6.521098">
<ele>34.4</ele>
<time>2013-03-03T13:23:57.000Z</time>
</trkpt>
<trkpt lat="51.256797" lon="6.521049">
<ele>35.5</ele>
<time>2013-03-03T13:23:58.000Z</time>
</trkpt>
<trkpt lat="51.256768" lon="6.520983">
<ele>34.8</ele>
<time>2013-03-03T13:23:59.000Z</time>
</trkpt>
<trkpt lat="51.256743" lon="6.52091">
<ele>35.2</ele>
<time>2013-03-03T13:24:00.000Z</time>
</trkpt>
<trkpt lat="51.256707" lon="6.520849">
<ele>35.8</ele>
<time>2013-03-03T13:24:01.000Z</time>
</trkpt>
<trkpt lat="51.256666" lon="6.52078">
<ele>36.3</ele>
<time>2013-03-03T13:24:02.000Z</time>
</trkpt>
<trkpt lat="51.256601" lon="6.520679">
<ele>34.1</ele>
<time>2013-03-03T13:24:04.000Z</time>
</trkpt>
<trkpt lat="51.256555" lon="6.520616">
<ele>33.1</ele>
<time>2013-03-03T13:24:05.000Z</time>
</trkpt>
<trkpt lat="51.25652" lon="6.520557">
<ele>32.9</ele>
<time>2013-03-03T13:24:06.000Z</time>
</trkpt>
<trkpt lat="51.256483" lon="6.520497">
<ele>32.8</ele>
<time>2013-03-03T13:24:07.000Z</time>
</trkpt>
<trkpt lat="51.256442" lon="6.520431">
<ele>33</ele>
<time>2013-03-03T13:24:08.000Z</time>
</trkpt>
<trkpt lat="51.256387" lon="6.520391">
<ele>33.6</ele>
<time>2013-03-03T13:24:09.000Z</time>
</trkpt>
<trkpt lat="51.256352" lon="6.520339">
<ele>35.5</ele>
<time>2013-03-03T13:24:10.000Z</time>
</trkpt>
<trkpt lat="51.256303" lon="6.520262">
<ele>35.1</ele>
<time>2013-03-03T13:24:11.000Z</time>
</trkpt>
<trkpt lat="51.256266" lon="6.520206">
<ele>34.7</ele>
<time>2013-03-03T13:24:12.000Z</time>
</trkpt>
<trkpt lat="51.256229" lon="6.520153">
<ele>34.1</ele>
<time>2013-03-03T13:24:13.000Z</time>
</trkpt>
<trkpt lat="51.256184" lon="6.52009">
<ele>34</ele>
<time>2013-03-03T13:24:14.000Z</time>
</trkpt>
<trkpt lat="51.256131" lon="6.520016">
<ele>33.5</ele>
<time>2013-03-03T13:24:15.000Z</time>
</trkpt>
<trkpt lat="51.256087" lon="6.519959">
<ele>33.2</ele>
<time>2013-03-03T13:24:16.000Z</time>
</trkpt>
<trkpt lat="51.256045" lon="6.51991">
<ele>30.5</ele>
<time>2013-03-03T13:24:17.000Z</time>
</trkpt>
<trkpt lat="51.256004" lon="6.519847">
<ele>31.2</ele>
<time>2013-03-03T13:24:18.000Z</time>
</trkpt>
<trkpt lat="51.255973" lon="6.519786">
<ele>31.1</ele>
<time>2013-03-03T13:24:19.000Z</time>
</trkpt>
<trkpt lat="51.255944" lon="6.519708">
<ele>32.4</ele>
<time>2013-03-03T13:24:20.000Z</time>
</trkpt>
<trkpt lat="51.255908" lon="6.51965">
<ele>32.6</ele>
<time>2013-03-03T13:24:21.000Z</time>
</trkpt>
<trkpt lat="51.255875" lon="6.519587">
<ele>33.3</ele>
<time>2013-03-03T13:24:22.000Z</time>
</trkpt>
<trkpt lat="51.255838" lon="6.519531">
<ele>34.1</ele>
<time>2013-03-03T13:24:23.000Z</time>
</trkpt>
<trkpt lat="51.255811" lon="6.519467">
<ele>34.4</ele>
<time>2013-03-03T13:24:24.000Z</time>
</trkpt>
<trkpt lat="51.255789" lon="6.519399">
<ele>33.6</ele>
<time>2013-03-03T13:24:25.000Z</time>
</trkpt>
<trkpt lat="51.255729" lon="6.519268">
<ele>34.6</ele>
<time>2013-03-03T13:24:27.000Z</time>
</trkpt>
<trkpt lat="51.255707" lon="6.519196">
<ele>33.7</ele>
<time>2013-03-03T13:24:28.000Z</time>
</trkpt>
<trkpt lat="51.255668" lon="6.519128">
<ele>32.9</ele>
<time>2013-03-03T13:24:29.000Z</time>
</trkpt>
<trkpt lat="51.255629" lon="6.519075">
<ele>34</ele>
<time>2013-03-03T13:24:30.000Z</time>
</trkpt>
<trkpt lat="51.255592" lon="6.519023">
<ele>34.6</ele>
<time>2013-03-03T13:24:31.000Z</time>
</trkpt>
<trkpt lat="51.255548" lon="6.518978">
<ele>34.3</ele>
<time>2013-03-03T13:24:32.000Z</time>
</trkpt>
<trkpt lat="51.255509" lon="6.518914">
<ele>33.9</ele>
<time>2013-03-03T13:24:33.000Z</time>
</trkpt>
<trkpt lat="51.255476" lon="6.518851">
<ele>34.2</ele>
<time>2013-03-03T13:24:34.000Z</time>
</trkpt>
<trkpt lat="51.255438" lon="6.518789">
<ele>33.2</ele>
<time>2013-03-03T13:24:35.000Z</time>
</trkpt>
<trkpt lat="51.255353" lon="6.518681">
<ele>34.9</ele>
<time>2013-03-03T13:24:37.000Z</time>
</trkpt>
<trkpt lat="51.255312" lon="6.518633">
<ele>35.1</ele>
<time>2013-03-03T13:24:38.000Z</time>
</trkpt>
<trkpt lat="51.255278" lon="6.518565">
<ele>33.4</ele>
<time>2013-03-03T13:24:39.000Z</time>
</trkpt>
<trkpt lat="51.255229" lon="6.518508">
<ele>32.4</ele>
<time>2013-03-03T13:24:40.000Z</time>
</trkpt>
<trkpt lat="51.25518" lon="6.518448">
<ele>31.4</ele>
<time>2013-03-03T13:24:41.000Z</time>
</trkpt>
<trkpt lat="51.25514" lon="6.518385">
<ele>31.4</ele>
<time>2013-03-03T13:24:42.000Z</time>
</trkpt>
<trkpt lat="51.255099" lon="6.518324">
<ele>32</ele>
<time>2013-03-03T13:24:43.000Z</time>
</trkpt>
<trkpt lat="51.255026" lon="6.518218">
<ele>30.5</ele>
<time>2013-03-03T13:24:45.000Z</time>
</trkpt>
<trkpt lat="51.254968" lon="6.518113">
<ele>31.2</ele>
<time>2013-03-03T13:24:47.000Z</time>
</trkpt>
<trkpt lat="51.254933" lon="6.518037">
<ele>30.7</ele>
<time>2013-03-03T13:24:48.000Z</time>
</trkpt>
<trkpt lat="51.254899" lon="6.517985">
<ele>30.6</ele>
<time>2013-03-03T13:24:49.000Z</time>
</trkpt>
<trkpt lat="51.254868" lon="6.517929">
<ele>30.6</ele>
<time>2013-03-03T13:24:50.000Z</time>
</trkpt>
<trkpt lat="51.254849" lon="6.517857">
<ele>30.9</ele>
<time>2013-03-03T13:24:51.000Z</time>
</trkpt>
<trkpt lat="51.25479" lon="6.51777">
<ele>31.9</ele>
<time>2013-03-03T13:24:52.000Z</time>
</trkpt>
<trkpt lat="51.254757" lon="6.517713">
<ele>33.4</ele>
<time>2013-03-03T13:24:53.000Z</time>
</trkpt>
<trkpt lat="51.254686" lon="6.517659">
<ele>34.4</ele>
<time>2013-03-03T13:24:54.000Z</time>
</trkpt>
<trkpt lat="51.254633" lon="6.51762">
<ele>33.4</ele>
<time>2013-03-03T13:24:55.000Z</time>
</trkpt>
<trkpt lat="51.254595" lon="6.517491">
<ele>31.2</ele>
<time>2013-03-03T13:24:57.000Z</time>
</trkpt>
<trkpt lat="51.254585" lon="6.517384">
<ele>29.5</ele>
<time>2013-03-03T13:24:59.000Z</time>
</trkpt>
<trkpt lat="51.254542" lon="6.517311">
<ele>30.8</ele>
<time>2013-03-03T13:25:01.000Z</time>
</trkpt>
<trkpt lat="51.254483" lon="6.517281">
<ele>30</ele>
<time>2013-03-03T13:25:03.000Z</time>
</trkpt>
<trkpt lat="51.254438" lon="6.517217">
<ele>30.8</ele>
<time>2013-03-03T13:25:05.000Z</time>
</trkpt>
<trkpt lat="51.254395" lon="6.517128">
<ele>33.2</ele>
<time>2013-03-03T13:25:08.000Z</time>
</trkpt>
<trkpt lat="51.254359" lon="6.517046">
<ele>34.7</ele>
<time>2013-03-03T13:25:10.000Z</time>
</trkpt>
<trkpt lat="51.254315" lon="6.516953">
<ele>35.4</ele>
<time>2013-03-03T13:25:12.000Z</time>
</trkpt>
<trkpt lat="51.254267" lon="6.51686">
<ele>35</ele>
<time>2013-03-03T13:25:14.000Z</time>
</trkpt>
<trkpt lat="51.254219" lon="6.516757">
<ele>37</ele>
<time>2013-03-03T13:25:16.000Z</time>
</trkpt>
<trkpt lat="51.254194" lon="6.516694">
<ele>36.1</ele>
<time>2013-03-03T13:25:17.000Z</time>
</trkpt>
<trkpt lat="51.254129" lon="6.516578">
<ele>36.2</ele>
<time>2013-03-03T13:25:18.000Z</time>
</trkpt>
<trkpt lat="51.254062" lon="6.516465">
<ele>34.2</ele>
<time>2013-03-03T13:25:20.000Z</time>
</trkpt>
<trkpt lat="51.254015" lon="6.516384">
<ele>34.2</ele>
<time>2013-03-03T13:25:21.000Z</time>
</trkpt>
<trkpt lat="51.253988" lon="6.516324">
<ele>34</ele>
<time>2013-03-03T13:25:22.000Z</time>
</trkpt>
<trkpt lat="51.25395" lon="6.516273">
<ele>34.3</ele>
<time>2013-03-03T13:25:23.000Z</time>
</trkpt>
<trkpt lat="51.253909" lon="6.516232">
<ele>34.8</ele>
<time>2013-03-03T13:25:24.000Z</time>
</trkpt>
<trkpt lat="51.253836" lon="6.516119">
<ele>36.3</ele>
<time>2013-03-03T13:25:26.000Z</time>
</trkpt>
<trkpt lat="51.253796" lon="6.516042">
<ele>37</ele>
<time>2013-03-03T13:25:27.000Z</time>
</trkpt>
<trkpt lat="51.253762" lon="6.515989">
<ele>37.3</ele>
<time>2013-03-03T13:25:28.000Z</time>
</trkpt>
<trkpt lat="51.253734" lon="6.515911">
<ele>38.2</ele>
<time>2013-03-03T13:25:29.000Z</time>
</trkpt>
<trkpt lat="51.253676" lon="6.515801">
<ele>39</ele>
<time>2013-03-03T13:25:31.000Z</time>
</trkpt>
<trkpt lat="51.253621" lon="6.515716">
<ele>39.1</ele>
<time>2013-03-03T13:25:33.000Z</time>
</trkpt>
<trkpt lat="51.253585" lon="6.515663">
<ele>38.6</ele>
<time>2013-03-03T13:25:34.000Z</time>
</trkpt>
<trkpt lat="51.253521" lon="6.515575">
<ele>38.6</ele>
<time>2013-03-03T13:25:36.000Z</time>
</trkpt>
<trkpt lat="51.253454" lon="6.515502">
<ele>38.4</ele>
<time>2013-03-03T13:25:38.000Z</time>
</trkpt>
<trkpt lat="51.253391" lon="6.515409">
<ele>37.6</ele>
<time>2013-03-03T13:25:40.000Z</time>
</trkpt>
<trkpt lat="51.253329" lon="6.515309">
<ele>39.2</ele>
<time>2013-03-03T13:25:42.000Z</time>
</trkpt>
<trkpt lat="51.253261" lon="6.51518">
<ele>39.3</ele>
<time>2013-03-03T13:25:44.000Z</time>
</trkpt>
<trkpt lat="51.253187" lon="6.515155">
<ele>41.3</ele>
<time>2013-03-03T13:25:46.000Z</time>
</trkpt>
<trkpt lat="51.253158" lon="6.515087">
<ele>41.6</ele>
<time>2013-03-03T13:25:47.000Z</time>
</trkpt>
<trkpt lat="51.2531" lon="6.515081">
<ele>40.2</ele>
<time>2013-03-03T13:25:48.000Z</time>
</trkpt>
<trkpt lat="51.253077" lon="6.515018">
<ele>39.5</ele>
<time>2013-03-03T13:25:49.000Z</time>
</trkpt>
<trkpt lat="51.253049" lon="6.514919">
<ele>39.2</ele>
<time>2013-03-03T13:25:51.000Z</time>
</trkpt>
<trkpt lat="51.252996" lon="6.514837">
<ele>37.9</ele>
<time>2013-03-03T13:25:53.000Z</time>
</trkpt>
<trkpt lat="51.25295" lon="6.514786">
<ele>37.9</ele>
<time>2013-03-03T13:25:54.000Z</time>
</trkpt>
<trkpt lat="51.252899" lon="6.514676">
<ele>38.4</ele>
<time>2013-03-03T13:25:56.000Z</time>
</trkpt>
<trkpt lat="51.252853" lon="6.51463">
<ele>38.3</ele>
<time>2013-03-03T13:25:57.000Z</time>
</trkpt>
<trkpt lat="51.252822" lon="6.514573">
<ele>38.5</ele>
<time>2013-03-03T13:25:58.000Z</time>
</trkpt>
<trkpt lat="51.252793" lon="6.51451">
<ele>38.2</ele>
<time>2013-03-03T13:25:59.000Z</time>
</trkpt>
<trkpt lat="51.252734" lon="6.514382">
<ele>36.9</ele>
<time>2013-03-03T13:26:01.000Z</time>
</trkpt>
<trkpt lat="51.25268" lon="6.514272">
<ele>36.5</ele>
<time>2013-03-03T13:26:03.000Z</time>
</trkpt>
<trkpt lat="51.252645" lon="6.514209">
<ele>36.9</ele>
<time>2013-03-03T13:26:04.000Z</time>
</trkpt>
<trkpt lat="51.252619" lon="6.51414">
<ele>37.4</ele>
<time>2013-03-03T13:26:05.000Z</time>
</trkpt>
<trkpt lat="51.252587" lon="6.514079">
<ele>38.9</ele>
<time>2013-03-03T13:26:06.000Z</time>
</trkpt>
<trkpt lat="51.252531" lon="6.513975">
<ele>38.2</ele>
<time>2013-03-03T13:26:08.000Z</time>
</trkpt>
<trkpt lat="51.252495" lon="6.513923">
<ele>38</ele>
<time>2013-03-03T13:26:09.000Z</time>
</trkpt>
<trkpt lat="51.252463" lon="6.513856">
<ele>37.7</ele>
<time>2013-03-03T13:26:10.000Z</time>
</trkpt>
<trkpt lat="51.252425" lon="6.513787">
<ele>38.1</ele>
<time>2013-03-03T13:26:11.000Z</time>
</trkpt>
<trkpt lat="51.25239" lon="6.513717">
<ele>37.6</ele>
<time>2013-03-03T13:26:12.000Z</time>
</trkpt>
<trkpt lat="51.252355" lon="6.513655">
<ele>38</ele>
<time>2013-03-03T13:26:13.000Z</time>
</trkpt>
<trkpt lat="51.252315" lon="6.513595">
<ele>37.6</ele>
<time>2013-03-03T13:26:14.000Z</time>
</trkpt>
<trkpt lat="51.252281" lon="6.513536">
<ele>37.3</ele>
<time>2013-03-03T13:26:15.000Z</time>
</trkpt>
<trkpt lat="51.252251" lon="6.513476">
<ele>37.1</ele>
<time>2013-03-03T13:26:16.000Z</time>
</trkpt>
<trkpt lat="51.252213" lon="6.513428">
<ele>37.6</ele>
<time>2013-03-03T13:26:17.000Z</time>
</trkpt>
<trkpt lat="51.252177" lon="6.51336">
<ele>37.4</ele>
<time>2013-03-03T13:26:18.000Z</time>
</trkpt>
<trkpt lat="51.252108" lon="6.513258">
<ele>37.5</ele>
<time>2013-03-03T13:26:20.000Z</time>
</trkpt>
<trkpt lat="51.252074" lon="6.513208">
<ele>37.7</ele>
<time>2013-03-03T13:26:21.000Z</time>
</trkpt>
<trkpt lat="51.25203" lon="6.513142">
<ele>37.2</ele>
<time>2013-03-03T13:26:22.000Z</time>
</trkpt>
<trkpt lat="51.251993" lon="6.513084">
<ele>37.6</ele>
<time>2013-03-03T13:26:23.000Z</time>
</trkpt>
<trkpt lat="51.251951" lon="6.513031">
<ele>36.7</ele>
<time>2013-03-03T13:26:24.000Z</time>
</trkpt>
<trkpt lat="51.251908" lon="6.512974">
<ele>36.6</ele>
<time>2013-03-03T13:26:25.000Z</time>
</trkpt>
<trkpt lat="51.251866" lon="6.512925">
<ele>36.8</ele>
<time>2013-03-03T13:26:26.000Z</time>
</trkpt>
<trkpt lat="51.251822" lon="6.512871">
<ele>36.9</ele>
<time>2013-03-03T13:26:27.000Z</time>
</trkpt>
<trkpt lat="51.251784" lon="6.512802">
<ele>36.3</ele>
<time>2013-03-03T13:26:28.000Z</time>
</trkpt>
<trkpt lat="51.251746" lon="6.512748">
<ele>36.1</ele>
<time>2013-03-03T13:26:29.000Z</time>
</trkpt>
<trkpt lat="51.251685" lon="6.512626">
<ele>36.3</ele>
<time>2013-03-03T13:26:31.000Z</time>
</trkpt>
<trkpt lat="51.251649" lon="6.512563">
<ele>36</ele>
<time>2013-03-03T13:26:32.000Z</time>
</trkpt>
<trkpt lat="51.251613" lon="6.512499">
<ele>36</ele>
<time>2013-03-03T13:26:33.000Z</time>
</trkpt>
<trkpt lat="51.251582" lon="6.512445">
<ele>35.2</ele>
<time>2013-03-03T13:26:34.000Z</time>
</trkpt>
<trkpt lat="51.251549" lon="6.512381">
<ele>34.9</ele>
<time>2013-03-03T13:26:35.000Z</time>
</trkpt>
<trkpt lat="51.251509" lon="6.512311">
<ele>34.8</ele>
<time>2013-03-03T13:26:36.000Z</time>
</trkpt>
<trkpt lat="51.251468" lon="6.512253">
<ele>34.8</ele>
<time>2013-03-03T13:26:37.000Z</time>
</trkpt>
<trkpt lat="51.251424" lon="6.512193">
<ele>34.6</ele>
<time>2013-03-03T13:26:38.000Z</time>
</trkpt>
<trkpt lat="51.251388" lon="6.512131">
<ele>35.1</ele>
<time>2013-03-03T13:26:39.000Z</time>
</trkpt>
<trkpt lat="51.251345" lon="6.512075">
<ele>35</ele>
<time>2013-03-03T13:26:40.000Z</time>
</trkpt>
<trkpt lat="51.251313" lon="6.512005">
<ele>34.9</ele>
<time>2013-03-03T13:26:41.000Z</time>
</trkpt>
<trkpt lat="51.251279" lon="6.511931">
<ele>34.2</ele>
<time>2013-03-03T13:26:42.000Z</time>
</trkpt>
<trkpt lat="51.25123" lon="6.51182">
<ele>34.9</ele>
<time>2013-03-03T13:26:44.000Z</time>
</trkpt>
<trkpt lat="51.251182" lon="6.511756">
<ele>34.7</ele>
<time>2013-03-03T13:26:45.000Z</time>
</trkpt>
<trkpt lat="51.251136" lon="6.511698">
<ele>34.3</ele>
<time>2013-03-03T13:26:46.000Z</time>
</trkpt>
<trkpt lat="51.25108" lon="6.51164">
<ele>34.2</ele>
<time>2013-03-03T13:26:47.000Z</time>
</trkpt>
<trkpt lat="51.251014" lon="6.511525">
<ele>34.9</ele>
<time>2013-03-03T13:26:49.000Z</time>
</trkpt>
<trkpt lat="51.250988" lon="6.511438">
<ele>34.1</ele>
<time>2013-03-03T13:26:50.000Z</time>
</trkpt>
<trkpt lat="51.250937" lon="6.51138">
<ele>33.5</ele>
<time>2013-03-03T13:26:51.000Z</time>
</trkpt>
<trkpt lat="51.250914" lon="6.511302">
<ele>32.8</ele>
<time>2013-03-03T13:26:52.000Z</time>
</trkpt>
<trkpt lat="51.250878" lon="6.511225">
<ele>32.2</ele>
<time>2013-03-03T13:26:53.000Z</time>
</trkpt>
<trkpt lat="51.25084" lon="6.511151">
<ele>31.8</ele>
<time>2013-03-03T13:26:54.000Z</time>
</trkpt>
<trkpt lat="51.250808" lon="6.51107">
<ele>31.6</ele>
<time>2013-03-03T13:26:55.000Z</time>
</trkpt>
<trkpt lat="51.250766" lon="6.511017">
<ele>32.4</ele>
<time>2013-03-03T13:26:56.000Z</time>
</trkpt>
<trkpt lat="51.250732" lon="6.510942">
<ele>32.3</ele>
<time>2013-03-03T13:26:57.000Z</time>
</trkpt>
<trkpt lat="51.25067" lon="6.510888">
<ele>32.4</ele>
<time>2013-03-03T13:26:58.000Z</time>
</trkpt>
<trkpt lat="51.250599" lon="6.510788">
<ele>32.8</ele>
<time>2013-03-03T13:27:00.000Z</time>
</trkpt>
<trkpt lat="51.25054" lon="6.510722">
<ele>32.1</ele>
<time>2013-03-03T13:27:01.000Z</time>
</trkpt>
<trkpt lat="51.250507" lon="6.510652">
<ele>31.7</ele>
<time>2013-03-03T13:27:02.000Z</time>
</trkpt>
<trkpt lat="51.250456" lon="6.510582">
<ele>31.5</ele>
<time>2013-03-03T13:27:03.000Z</time>
</trkpt>
<trkpt lat="51.250411" lon="6.510497">
<ele>33.1</ele>
<time>2013-03-03T13:27:04.000Z</time>
</trkpt>
<trkpt lat="51.250336" lon="6.510378">
<ele>31.7</ele>
<time>2013-03-03T13:27:06.000Z</time>
</trkpt>
<trkpt lat="51.250291" lon="6.510296">
<ele>31.4</ele>
<time>2013-03-03T13:27:07.000Z</time>
</trkpt>
<trkpt lat="51.250233" lon="6.510217">
<ele>32.6</ele>
<time>2013-03-03T13:27:08.000Z</time>
</trkpt>
<trkpt lat="51.25019" lon="6.510159">
<ele>31.8</ele>
<time>2013-03-03T13:27:09.000Z</time>
</trkpt>
<trkpt lat="51.250148" lon="6.510071">
<ele>31.2</ele>
<time>2013-03-03T13:27:10.000Z</time>
</trkpt>
<trkpt lat="51.250115" lon="6.50998">
<ele>31</ele>
<time>2013-03-03T13:27:11.000Z</time>
</trkpt>
<trkpt lat="51.250084" lon="6.509901">
<ele>31.3</ele>
<time>2013-03-03T13:27:12.000Z</time>
</trkpt>
<trkpt lat="51.250037" lon="6.509836">
<ele>32.1</ele>
<time>2013-03-03T13:27:13.000Z</time>
</trkpt>
<trkpt lat="51.249999" lon="6.509774">
<ele>31.7</ele>
<time>2013-03-03T13:27:14.000Z</time>
</trkpt>
<trkpt lat="51.249961" lon="6.509707">
<ele>32.5</ele>
<time>2013-03-03T13:27:15.000Z</time>
</trkpt>
<trkpt lat="51.24992" lon="6.509635">
<ele>32.3</ele>
<time>2013-03-03T13:27:16.000Z</time>
</trkpt>
<trkpt lat="51.249876" lon="6.50956">
<ele>32.1</ele>
<time>2013-03-03T13:27:17.000Z</time>
</trkpt>
<trkpt lat="51.249834" lon="6.509486">
<ele>32.5</ele>
<time>2013-03-03T13:27:18.000Z</time>
</trkpt>
<trkpt lat="51.249792" lon="6.509429">
<ele>32.8</ele>
<time>2013-03-03T13:27:19.000Z</time>
</trkpt>
<trkpt lat="51.249751" lon="6.509355">
<ele>33.6</ele>
<time>2013-03-03T13:27:20.000Z</time>
</trkpt>
<trkpt lat="51.249713" lon="6.509309">
<ele>33.9</ele>
<time>2013-03-03T13:27:21.000Z</time>
</trkpt>
<trkpt lat="51.249666" lon="6.509238">
<ele>36.1</ele>
<time>2013-03-03T13:27:23.000Z</time>
</trkpt>
<trkpt lat="51.24962" lon="6.509166">
<ele>34.9</ele>
<time>2013-03-03T13:27:26.000Z</time>
</trkpt>
<trkpt lat="51.249573" lon="6.509114">
<ele>33.9</ele>
<time>2013-03-03T13:27:30.000Z</time>
</trkpt>
<trkpt lat="51.249558" lon="6.50902">
<ele>34</ele>
<time>2013-03-03T13:27:33.000Z</time>
</trkpt>
<trkpt lat="51.249509" lon="6.508957">
<ele>34.3</ele>
<time>2013-03-03T13:27:36.000Z</time>
</trkpt>
<trkpt lat="51.249466" lon="6.508916">
<ele>35.3</ele>
<time>2013-03-03T13:27:39.000Z</time>
</trkpt>
<trkpt lat="51.24943" lon="6.508862">
<ele>35.7</ele>
<time>2013-03-03T13:27:52.000Z</time>
</trkpt>
<trkpt lat="51.2494" lon="6.508788">
<ele>33.8</ele>
<time>2013-03-03T13:27:55.000Z</time>
</trkpt>
<trkpt lat="51.249364" lon="6.508742">
<ele>34.9</ele>
<time>2013-03-03T13:27:58.000Z</time>
</trkpt>
<trkpt lat="51.249312" lon="6.508682">
<ele>35.2</ele>
<time>2013-03-03T13:28:01.000Z</time>
</trkpt>
<trkpt lat="51.249268" lon="6.508625">
<ele>35.3</ele>
<time>2013-03-03T13:28:03.000Z</time>
</trkpt>
<trkpt lat="51.249221" lon="6.508551">
<ele>36.1</ele>
<time>2013-03-03T13:28:05.000Z</time>
</trkpt>
<trkpt lat="51.249171" lon="6.508463">
<ele>36.1</ele>
<time>2013-03-03T13:28:07.000Z</time>
</trkpt>
<trkpt lat="51.249115" lon="6.50837">
<ele>34.9</ele>
<time>2013-03-03T13:28:09.000Z</time>
</trkpt>
<trkpt lat="51.249069" lon="6.508315">
<ele>34.7</ele>
<time>2013-03-03T13:28:10.000Z</time>
</trkpt>
<trkpt lat="51.249003" lon="6.508254">
<ele>31.7</ele>
<time>2013-03-03T13:28:12.000Z</time>
</trkpt>
<trkpt lat="51.248968" lon="6.508202">
<ele>32.4</ele>
<time>2013-03-03T13:28:13.000Z</time>
</trkpt>
<trkpt lat="51.248933" lon="6.50815">
<ele>32.3</ele>
<time>2013-03-03T13:28:14.000Z</time>
</trkpt>
<trkpt lat="51.248875" lon="6.508062">
<ele>32.7</ele>
<time>2013-03-03T13:28:16.000Z</time>
</trkpt>
<trkpt lat="51.248801" lon="6.507979">
<ele>33.8</ele>
<time>2013-03-03T13:28:18.000Z</time>
</trkpt>
<trkpt lat="51.248757" lon="6.507934">
<ele>33.5</ele>
<time>2013-03-03T13:28:19.000Z</time>
</trkpt>
<trkpt lat="51.248719" lon="6.507859">
<ele>33.4</ele>
<time>2013-03-03T13:28:20.000Z</time>
</trkpt>
<trkpt lat="51.248682" lon="6.507814">
<ele>33.6</ele>
<time>2013-03-03T13:28:21.000Z</time>
</trkpt>
<trkpt lat="51.248633" lon="6.507761">
<ele>32.7</ele>
<time>2013-03-03T13:28:22.000Z</time>
</trkpt>
<trkpt lat="51.248605" lon="6.507697">
<ele>33</ele>
<time>2013-03-03T13:28:23.000Z</time>
</trkpt>
<trkpt lat="51.248573" lon="6.507634">
<ele>33.3</ele>
<time>2013-03-03T13:28:24.000Z</time>
</trkpt>
<trkpt lat="51.248543" lon="6.507562">
<ele>34.2</ele>
<time>2013-03-03T13:28:25.000Z</time>
</trkpt>
<trkpt lat="51.248506" lon="6.507495">
<ele>34.7</ele>
<time>2013-03-03T13:28:26.000Z</time>
</trkpt>
<trkpt lat="51.248473" lon="6.507418">
<ele>34.5</ele>
<time>2013-03-03T13:28:27.000Z</time>
</trkpt>
<trkpt lat="51.248442" lon="6.507339">
<ele>34.7</ele>
<time>2013-03-03T13:28:28.000Z</time>
</trkpt>
<trkpt lat="51.248397" lon="6.507282">
<ele>33.8</ele>
<time>2013-03-03T13:28:29.000Z</time>
</trkpt>
<trkpt lat="51.248358" lon="6.507221">
<ele>33.5</ele>
<time>2013-03-03T13:28:30.000Z</time>
</trkpt>
<trkpt lat="51.248326" lon="6.507155">
<ele>33.9</ele>
<time>2013-03-03T13:28:31.000Z</time>
</trkpt>
<trkpt lat="51.248278" lon="6.507105">
<ele>34.8</ele>
<time>2013-03-03T13:28:32.000Z</time>
</trkpt>
<trkpt lat="51.248245" lon="6.507033">
<ele>35.6</ele>
<time>2013-03-03T13:28:33.000Z</time>
</trkpt>
<trkpt lat="51.248211" lon="6.50697">
<ele>35.9</ele>
<time>2013-03-03T13:28:34.000Z</time>
</trkpt>
<trkpt lat="51.248161" lon="6.506917">
<ele>35.1</ele>
<time>2013-03-03T13:28:35.000Z</time>
</trkpt>
<trkpt lat="51.24813" lon="6.506861">
<ele>35.9</ele>
<time>2013-03-03T13:28:36.000Z</time>
</trkpt>
<trkpt lat="51.248091" lon="6.506799">
<ele>35.6</ele>
<time>2013-03-03T13:28:37.000Z</time>
</trkpt>
<trkpt lat="51.248062" lon="6.506733">
<ele>35.9</ele>
<time>2013-03-03T13:28:38.000Z</time>
</trkpt>
<trkpt lat="51.247969" lon="6.506559">
<ele>34.2</ele>
<time>2013-03-03T13:28:41.000Z</time>
</trkpt>
<trkpt lat="51.247931" lon="6.506487">
<ele>34.6</ele>
<time>2013-03-03T13:28:42.000Z</time>
</trkpt>
<trkpt lat="51.247908" lon="6.506417">
<ele>35.6</ele>
<time>2013-03-03T13:28:43.000Z</time>
</trkpt>
<trkpt lat="51.247856" lon="6.506349">
<ele>34.3</ele>
<time>2013-03-03T13:28:44.000Z</time>
</trkpt>
<trkpt lat="51.247819" lon="6.506307">
<ele>35.1</ele>
<time>2013-03-03T13:28:45.000Z</time>
</trkpt>
<trkpt lat="51.24779" lon="6.506247">
<ele>35.7</ele>
<time>2013-03-03T13:28:46.000Z</time>
</trkpt>
<trkpt lat="51.247765" lon="6.506183">
<ele>36</ele>
<time>2013-03-03T13:28:47.000Z</time>
</trkpt>
<trkpt lat="51.247726" lon="6.506127">
<ele>35.8</ele>
<time>2013-03-03T13:28:48.000Z</time>
</trkpt>
<trkpt lat="51.247664" lon="6.506012">
<ele>34</ele>
<time>2013-03-03T13:28:50.000Z</time>
</trkpt>
<trkpt lat="51.247635" lon="6.505956">
<ele>34</ele>
<time>2013-03-03T13:28:51.000Z</time>
</trkpt>
<trkpt lat="51.247602" lon="6.505896">
<ele>35</ele>
<time>2013-03-03T13:28:52.000Z</time>
</trkpt>
<trkpt lat="51.247567" lon="6.50584">
<ele>35.1</ele>
<time>2013-03-03T13:28:53.000Z</time>
</trkpt>
<trkpt lat="51.247531" lon="6.505783">
<ele>34.8</ele>
<time>2013-03-03T13:28:54.000Z</time>
</trkpt>
<trkpt lat="51.247496" lon="6.505724">
<ele>34.4</ele>
<time>2013-03-03T13:28:55.000Z</time>
</trkpt>
<trkpt lat="51.247441" lon="6.505625">
<ele>33</ele>
<time>2013-03-03T13:28:57.000Z</time>
</trkpt>
<trkpt lat="51.247404" lon="6.505576">
<ele>32.2</ele>
<time>2013-03-03T13:28:58.000Z</time>
</trkpt>
<trkpt lat="51.247359" lon="6.505481">
<ele>33.8</ele>
<time>2013-03-03T13:29:00.000Z</time>
</trkpt>
<trkpt lat="51.247292" lon="6.505384">
<ele>33.2</ele>
<time>2013-03-03T13:29:02.000Z</time>
</trkpt>
<trkpt lat="51.247219" lon="6.505288">
<ele>33.1</ele>
<time>2013-03-03T13:29:04.000Z</time>
</trkpt>
<trkpt lat="51.247181" lon="6.505237">
<ele>32.7</ele>
<time>2013-03-03T13:29:05.000Z</time>
</trkpt>
<trkpt lat="51.24714" lon="6.505175">
<ele>33.2</ele>
<time>2013-03-03T13:29:06.000Z</time>
</trkpt>
<trkpt lat="51.247105" lon="6.505127">
<ele>33.6</ele>
<time>2013-03-03T13:29:07.000Z</time>
</trkpt>
<trkpt lat="51.24707" lon="6.505071">
<ele>32.8</ele>
<time>2013-03-03T13:29:08.000Z</time>
</trkpt>
<trkpt lat="51.247033" lon="6.505029">
<ele>32.7</ele>
<time>2013-03-03T13:29:09.000Z</time>
</trkpt>
<trkpt lat="51.246997" lon="6.504974">
<ele>33.1</ele>
<time>2013-03-03T13:29:10.000Z</time>
</trkpt>
<trkpt lat="51.246957" lon="6.504921">
<ele>33</ele>
<time>2013-03-03T13:29:11.000Z</time>
</trkpt>
<trkpt lat="51.246922" lon="6.504871">
<ele>32.1</ele>
<time>2013-03-03T13:29:12.000Z</time>
</trkpt>
<trkpt lat="51.246897" lon="6.504799">
<ele>32.6</ele>
<time>2013-03-03T13:29:13.000Z</time>
</trkpt>
<trkpt lat="51.246867" lon="6.504728">
<ele>32.2</ele>
<time>2013-03-03T13:29:14.000Z</time>
</trkpt>
<trkpt lat="51.246823" lon="6.504666">
<ele>30.9</ele>
<time>2013-03-03T13:29:15.000Z</time>
</trkpt>
<trkpt lat="51.24681" lon="6.504584">
<ele>31</ele>
<time>2013-03-03T13:29:16.000Z</time>
</trkpt>
<trkpt lat="51.246815" lon="6.504425">
<ele>32.3</ele>
<time>2013-03-03T13:29:18.000Z</time>
</trkpt>
<trkpt lat="51.246797" lon="6.50435">
<ele>32.4</ele>
<time>2013-03-03T13:29:19.000Z</time>
</trkpt>
<trkpt lat="51.246781" lon="6.504276">
<ele>32.4</ele>
<time>2013-03-03T13:29:20.000Z</time>
</trkpt>
<trkpt lat="51.246735" lon="6.504234">
<ele>33</ele>
<time>2013-03-03T13:29:21.000Z</time>
</trkpt>
<trkpt lat="51.246675" lon="6.504117">
<ele>33</ele>
<time>2013-03-03T13:29:23.000Z</time>
</trkpt>
<trkpt lat="51.246642" lon="6.504056">
<ele>33.4</ele>
<time>2013-03-03T13:29:24.000Z</time>
</trkpt>
<trkpt lat="51.246603" lon="6.503996">
<ele>32.9</ele>
<time>2013-03-03T13:29:25.000Z</time>
</trkpt>
<trkpt lat="51.246522" lon="6.503889">
<ele>32.3</ele>
<time>2013-03-03T13:29:27.000Z</time>
</trkpt>
<trkpt lat="51.246486" lon="6.503831">
<ele>32.3</ele>
<time>2013-03-03T13:29:28.000Z</time>
</trkpt>
<trkpt lat="51.246452" lon="6.50378">
<ele>31.3</ele>
<time>2013-03-03T13:29:29.000Z</time>
</trkpt>
<trkpt lat="51.2464" lon="6.503675">
<ele>31</ele>
<time>2013-03-03T13:29:31.000Z</time>
</trkpt>
<trkpt lat="51.246357" lon="6.503615">
<ele>31.2</ele>
<time>2013-03-03T13:29:32.000Z</time>
</trkpt>
<trkpt lat="51.246299" lon="6.503522">
<ele>31.1</ele>
<time>2013-03-03T13:29:34.000Z</time>
</trkpt>
<trkpt lat="51.246267" lon="6.50347">
<ele>31.2</ele>
<time>2013-03-03T13:29:35.000Z</time>
</trkpt>
<trkpt lat="51.246232" lon="6.503418">
<ele>31.7</ele>
<time>2013-03-03T13:29:36.000Z</time>
</trkpt>
<trkpt lat="51.246175" lon="6.503332">
<ele>29.9</ele>
<time>2013-03-03T13:29:38.000Z</time>
</trkpt>
<trkpt lat="51.246139" lon="6.503276">
<ele>29.6</ele>
<time>2013-03-03T13:29:39.000Z</time>
</trkpt>
<trkpt lat="51.246109" lon="6.503219">
<ele>29.9</ele>
<time>2013-03-03T13:29:40.000Z</time>
</trkpt>
<trkpt lat="51.246077" lon="6.503153">
<ele>30.6</ele>
<time>2013-03-03T13:29:41.000Z</time>
</trkpt>
<trkpt lat="51.246053" lon="6.503087">
<ele>32.3</ele>
<time>2013-03-03T13:29:42.000Z</time>
</trkpt>
<trkpt lat="51.246026" lon="6.503024">
<ele>32.6</ele>
<time>2013-03-03T13:29:43.000Z</time>
</trkpt>
<trkpt lat="51.245995" lon="6.502964">
<ele>32.1</ele>
<time>2013-03-03T13:29:44.000Z</time>
</trkpt>
<trkpt lat="51.245959" lon="6.502918">
<ele>31.2</ele>
<time>2013-03-03T13:29:45.000Z</time>
</trkpt>
<trkpt lat="51.245916" lon="6.502869">
<ele>30.9</ele>
<time>2013-03-03T13:29:46.000Z</time>
</trkpt>
<trkpt lat="51.245874" lon="6.502803">
<ele>30.9</ele>
<time>2013-03-03T13:29:47.000Z</time>
</trkpt>
<trkpt lat="51.245837" lon="6.50276">
<ele>30.7</ele>
<time>2013-03-03T13:29:48.000Z</time>
</trkpt>
<trkpt lat="51.245784" lon="6.502679">
<ele>29.5</ele>
<time>2013-03-03T13:29:50.000Z</time>
</trkpt>
<trkpt lat="51.245755" lon="6.502606">
<ele>30.1</ele>
<time>2013-03-03T13:29:51.000Z</time>
</trkpt>
<trkpt lat="51.245717" lon="6.502538">
<ele>29.6</ele>
<time>2013-03-03T13:29:52.000Z</time>
</trkpt>
<trkpt lat="51.245674" lon="6.502488">
<ele>29.4</ele>
<time>2013-03-03T13:29:53.000Z</time>
</trkpt>
<trkpt lat="51.245636" lon="6.502424">
<ele>29.4</ele>
<time>2013-03-03T13:29:54.000Z</time>
</trkpt>
<trkpt lat="51.245599" lon="6.502363">
<ele>30.6</ele>
<time>2013-03-03T13:29:55.000Z</time>
</trkpt>
<trkpt lat="51.245567" lon="6.502292">
<ele>30.2</ele>
<time>2013-03-03T13:29:56.000Z</time>
</trkpt>
<trkpt lat="51.245537" lon="6.50223">
<ele>31.8</ele>
<time>2013-03-03T13:29:57.000Z</time>
</trkpt>
<trkpt lat="51.245491" lon="6.502169">
<ele>31.9</ele>
<time>2013-03-03T13:29:58.000Z</time>
</trkpt>
<trkpt lat="51.245438" lon="6.502097">
<ele>32.6</ele>
<time>2013-03-03T13:29:59.000Z</time>
</trkpt>
<trkpt lat="51.245402" lon="6.502025">
<ele>33.3</ele>
<time>2013-03-03T13:30:00.000Z</time>
</trkpt>
<trkpt lat="51.245359" lon="6.501966">
<ele>34.2</ele>
<time>2013-03-03T13:30:01.000Z</time>
</trkpt>
<trkpt lat="51.245319" lon="6.501902">
<ele>34.6</ele>
<time>2013-03-03T13:30:02.000Z</time>
</trkpt>
<trkpt lat="51.245276" lon="6.501847">
<ele>33.1</ele>
<time>2013-03-03T13:30:03.000Z</time>
</trkpt>
<trkpt lat="51.245228" lon="6.501792">
<ele>33.2</ele>
<time>2013-03-03T13:30:04.000Z</time>
</trkpt>
<trkpt lat="51.245188" lon="6.501734">
<ele>33.3</ele>
<time>2013-03-03T13:30:05.000Z</time>
</trkpt>
<trkpt lat="51.245148" lon="6.50167">
<ele>33.2</ele>
<time>2013-03-03T13:30:06.000Z</time>
</trkpt>
<trkpt lat="51.245104" lon="6.501607">
<ele>33.1</ele>
<time>2013-03-03T13:30:07.000Z</time>
</trkpt>
<trkpt lat="51.245057" lon="6.501543">
<ele>33.1</ele>
<time>2013-03-03T13:30:08.000Z</time>
</trkpt>
<trkpt lat="51.245023" lon="6.501486">
<ele>33</ele>
<time>2013-03-03T13:30:09.000Z</time>
</trkpt>
<trkpt lat="51.244987" lon="6.501425">
<ele>33</ele>
<time>2013-03-03T13:30:10.000Z</time>
</trkpt>
<trkpt lat="51.244953" lon="6.501363">
<ele>32.4</ele>
<time>2013-03-03T13:30:11.000Z</time>
</trkpt>
<trkpt lat="51.244914" lon="6.501277">
<ele>32.5</ele>
<time>2013-03-03T13:30:12.000Z</time>
</trkpt>
<trkpt lat="51.24487" lon="6.501217">
<ele>32.3</ele>
<time>2013-03-03T13:30:13.000Z</time>
</trkpt>
<trkpt lat="51.24483" lon="6.501162">
<ele>32.1</ele>
<time>2013-03-03T13:30:14.000Z</time>
</trkpt>
<trkpt lat="51.244803" lon="6.501077">
<ele>32.3</ele>
<time>2013-03-03T13:30:15.000Z</time>
</trkpt>
<trkpt lat="51.244762" lon="6.500998">
<ele>33.3</ele>
<time>2013-03-03T13:30:16.000Z</time>
</trkpt>
<trkpt lat="51.244731" lon="6.500928">
<ele>35.4</ele>
<time>2013-03-03T13:30:17.000Z</time>
</trkpt>
<trkpt lat="51.244672" lon="6.500774">
<ele>35.6</ele>
<time>2013-03-03T13:30:19.000Z</time>
</trkpt>
<trkpt lat="51.244608" lon="6.50069">
<ele>38.8</ele>
<time>2013-03-03T13:30:20.000Z</time>
</trkpt>
<trkpt lat="51.244566" lon="6.500638">
<ele>38.6</ele>
<time>2013-03-03T13:30:21.000Z</time>
</trkpt>
<trkpt lat="51.244523" lon="6.500604">
<ele>37.9</ele>
<time>2013-03-03T13:30:22.000Z</time>
</trkpt>
<trkpt lat="51.244464" lon="6.500535">
<ele>38.1</ele>
<time>2013-03-03T13:30:23.000Z</time>
</trkpt>
<trkpt lat="51.244415" lon="6.500461">
<ele>37.2</ele>
<time>2013-03-03T13:30:24.000Z</time>
</trkpt>
<trkpt lat="51.244379" lon="6.500393">
<ele>37.1</ele>
<time>2013-03-03T13:30:25.000Z</time>
</trkpt>
<trkpt lat="51.244314" lon="6.500295">
<ele>38.5</ele>
<time>2013-03-03T13:30:26.000Z</time>
</trkpt>
<trkpt lat="51.244274" lon="6.500219">
<ele>36</ele>
<time>2013-03-03T13:30:27.000Z</time>
</trkpt>
<trkpt lat="51.244251" lon="6.500142">
<ele>36</ele>
<time>2013-03-03T13:30:28.000Z</time>
</trkpt>
<trkpt lat="51.244199" lon="6.500082">
<ele>34.8</ele>
<time>2013-03-03T13:30:29.000Z</time>
</trkpt>
<trkpt lat="51.244169" lon="6.500015">
<ele>35.8</ele>
<time>2013-03-03T13:30:30.000Z</time>
</trkpt>
<trkpt lat="51.244111" lon="6.499916">
<ele>35.9</ele>
<time>2013-03-03T13:30:31.000Z</time>
</trkpt>
<trkpt lat="51.244079" lon="6.499829">
<ele>35.1</ele>
<time>2013-03-03T13:30:32.000Z</time>
</trkpt>
<trkpt lat="51.244037" lon="6.499744">
<ele>35.1</ele>
<time>2013-03-03T13:30:33.000Z</time>
</trkpt>
<trkpt lat="51.244003" lon="6.499681">
<ele>34.2</ele>
<time>2013-03-03T13:30:34.000Z</time>
</trkpt>
<trkpt lat="51.243928" lon="6.499583">
<ele>29.4</ele>
<time>2013-03-03T13:30:36.000Z</time>
</trkpt>
<trkpt lat="51.243889" lon="6.499506">
<ele>29.4</ele>
<time>2013-03-03T13:30:37.000Z</time>
</trkpt>
<trkpt lat="51.24385" lon="6.499434">
<ele>28.9</ele>
<time>2013-03-03T13:30:38.000Z</time>
</trkpt>
<trkpt lat="51.243819" lon="6.499375">
<ele>27.2</ele>
<time>2013-03-03T13:30:39.000Z</time>
</trkpt>
<trkpt lat="51.243793" lon="6.499303">
<ele>26.8</ele>
<time>2013-03-03T13:30:40.000Z</time>
</trkpt>
<trkpt lat="51.243771" lon="6.49921">
<ele>28.3</ele>
<time>2013-03-03T13:30:41.000Z</time>
</trkpt>
<trkpt lat="51.243742" lon="6.499141">
<ele>28.7</ele>
<time>2013-03-03T13:30:42.000Z</time>
</trkpt>
<trkpt lat="51.243699" lon="6.499079">
<ele>27.4</ele>
<time>2013-03-03T13:30:43.000Z</time>
</trkpt>
<trkpt lat="51.243668" lon="6.499001">
<ele>28.3</ele>
<time>2013-03-03T13:30:44.000Z</time>
</trkpt>
<trkpt lat="51.243619" lon="6.498868">
<ele>27.4</ele>
<time>2013-03-03T13:30:46.000Z</time>
</trkpt>
<trkpt lat="51.243591" lon="6.4988">
<ele>27.7</ele>
<time>2013-03-03T13:30:47.000Z</time>
</trkpt>
<trkpt lat="51.243554" lon="6.498732">
<ele>28.7</ele>
<time>2013-03-03T13:30:48.000Z</time>
</trkpt>
<trkpt lat="51.243512" lon="6.498687">
<ele>28.8</ele>
<time>2013-03-03T13:30:49.000Z</time>
</trkpt>
<trkpt lat="51.243421" lon="6.498649">
<ele>30.2</ele>
<time>2013-03-03T13:30:51.000Z</time>
</trkpt>
<trkpt lat="51.243354" lon="6.498572">
<ele>30.5</ele>
<time>2013-03-03T13:30:53.000Z</time>
</trkpt>
<trkpt lat="51.243305" lon="6.498444">
<ele>31.4</ele>
<time>2013-03-03T13:30:55.000Z</time>
</trkpt>
<trkpt lat="51.243252" lon="6.498326">
<ele>31.4</ele>
<time>2013-03-03T13:30:57.000Z</time>
</trkpt>
<trkpt lat="51.243224" lon="6.498254">
<ele>31.5</ele>
<time>2013-03-03T13:30:58.000Z</time>
</trkpt>
<trkpt lat="51.243179" lon="6.498135">
<ele>31.7</ele>
<time>2013-03-03T13:31:00.000Z</time>
</trkpt>
<trkpt lat="51.243155" lon="6.498059">
<ele>32.1</ele>
<time>2013-03-03T13:31:01.000Z</time>
</trkpt>
<trkpt lat="51.24313" lon="6.497988">
<ele>32</ele>
<time>2013-03-03T13:31:02.000Z</time>
</trkpt>
<trkpt lat="51.243101" lon="6.497921">
<ele>31.5</ele>
<time>2013-03-03T13:31:03.000Z</time>
</trkpt>
<trkpt lat="51.243073" lon="6.497857">
<ele>31.3</ele>
<time>2013-03-03T13:31:04.000Z</time>
</trkpt>
<trkpt lat="51.243043" lon="6.497802">
<ele>30.3</ele>
<time>2013-03-03T13:31:05.000Z</time>
</trkpt>
<trkpt lat="51.243023" lon="6.497736">
<ele>30.1</ele>
<time>2013-03-03T13:31:06.000Z</time>
</trkpt>
<trkpt lat="51.242999" lon="6.497662">
<ele>30.2</ele>
<time>2013-03-03T13:31:07.000Z</time>
</trkpt>
<trkpt lat="51.242971" lon="6.497594">
<ele>30.2</ele>
<time>2013-03-03T13:31:08.000Z</time>
</trkpt>
<trkpt lat="51.242941" lon="6.497522">
<ele>30.4</ele>
<time>2013-03-03T13:31:09.000Z</time>
</trkpt>
<trkpt lat="51.242909" lon="6.497455">
<ele>30.2</ele>
<time>2013-03-03T13:31:10.000Z</time>
</trkpt>
<trkpt lat="51.242856" lon="6.497319">
<ele>32.2</ele>
<time>2013-03-03T13:31:12.000Z</time>
</trkpt>
<trkpt lat="51.242821" lon="6.497248">
<ele>32.5</ele>
<time>2013-03-03T13:31:13.000Z</time>
</trkpt>
<trkpt lat="51.242787" lon="6.497143">
<ele>29.5</ele>
<time>2013-03-03T13:31:15.000Z</time>
</trkpt>
<trkpt lat="51.242757" lon="6.497076">
<ele>29.4</ele>
<time>2013-03-03T13:31:16.000Z</time>
</trkpt>
<trkpt lat="51.242735" lon="6.497001">
<ele>30.3</ele>
<time>2013-03-03T13:31:17.000Z</time>
</trkpt>
<trkpt lat="51.24271" lon="6.496921">
<ele>29.9</ele>
<time>2013-03-03T13:31:18.000Z</time>
</trkpt>
<trkpt lat="51.242686" lon="6.496843">
<ele>30.4</ele>
<time>2013-03-03T13:31:19.000Z</time>
</trkpt>
<trkpt lat="51.242653" lon="6.496764">
<ele>30</ele>
<time>2013-03-03T13:31:20.000Z</time>
</trkpt>
<trkpt lat="51.242623" lon="6.496679">
<ele>30.1</ele>
<time>2013-03-03T13:31:21.000Z</time>
</trkpt>
<trkpt lat="51.242597" lon="6.496602">
<ele>30</ele>
<time>2013-03-03T13:31:22.000Z</time>
</trkpt>
<trkpt lat="51.242566" lon="6.496516">
<ele>31</ele>
<time>2013-03-03T13:31:23.000Z</time>
</trkpt>
<trkpt lat="51.242542" lon="6.496437">
<ele>30.5</ele>
<time>2013-03-03T13:31:24.000Z</time>
</trkpt>
<trkpt lat="51.242509" lon="6.496361">
<ele>31</ele>
<time>2013-03-03T13:31:25.000Z</time>
</trkpt>
<trkpt lat="51.242481" lon="6.496288">
<ele>31.2</ele>
<time>2013-03-03T13:31:26.000Z</time>
</trkpt>
<trkpt lat="51.242453" lon="6.496208">
<ele>30.7</ele>
<time>2013-03-03T13:31:27.000Z</time>
</trkpt>
<trkpt lat="51.242423" lon="6.496143">
<ele>30.1</ele>
<time>2013-03-03T13:31:28.000Z</time>
</trkpt>
<trkpt lat="51.242395" lon="6.496065">
<ele>29.8</ele>
<time>2013-03-03T13:31:29.000Z</time>
</trkpt>
<trkpt lat="51.242366" lon="6.495985">
<ele>29.4</ele>
<time>2013-03-03T13:31:30.000Z</time>
</trkpt>
<trkpt lat="51.242345" lon="6.4959">
<ele>30</ele>
<time>2013-03-03T13:31:31.000Z</time>
</trkpt>
<trkpt lat="51.242329" lon="6.495815">
<ele>29.9</ele>
<time>2013-03-03T13:31:32.000Z</time>
</trkpt>
<trkpt lat="51.242307" lon="6.495747">
<ele>29.5</ele>
<time>2013-03-03T13:31:33.000Z</time>
</trkpt>
<trkpt lat="51.242281" lon="6.495675">
<ele>29</ele>
<time>2013-03-03T13:31:34.000Z</time>
</trkpt>
<trkpt lat="51.242257" lon="6.495604">
<ele>26.6</ele>
<time>2013-03-03T13:31:35.000Z</time>
</trkpt>
<trkpt lat="51.242233" lon="6.495528">
<ele>26.6</ele>
<time>2013-03-03T13:31:36.000Z</time>
</trkpt>
<trkpt lat="51.242204" lon="6.495445">
<ele>26.9</ele>
<time>2013-03-03T13:31:37.000Z</time>
</trkpt>
<trkpt lat="51.242174" lon="6.495359">
<ele>28.6</ele>
<time>2013-03-03T13:31:38.000Z</time>
</trkpt>
<trkpt lat="51.242143" lon="6.495278">
<ele>30.1</ele>
<time>2013-03-03T13:31:39.000Z</time>
</trkpt>
<trkpt lat="51.242112" lon="6.495202">
<ele>31.5</ele>
<time>2013-03-03T13:31:40.000Z</time>
</trkpt>
<trkpt lat="51.242094" lon="6.495117">
<ele>32.5</ele>
<time>2013-03-03T13:31:41.000Z</time>
</trkpt>
<trkpt lat="51.242076" lon="6.49503">
<ele>33.5</ele>
<time>2013-03-03T13:31:42.000Z</time>
</trkpt>
<trkpt lat="51.242051" lon="6.494943">
<ele>36.9</ele>
<time>2013-03-03T13:31:43.000Z</time>
</trkpt>
<trkpt lat="51.242026" lon="6.49486">
<ele>38.8</ele>
<time>2013-03-03T13:31:44.000Z</time>
</trkpt>
<trkpt lat="51.242" lon="6.49477">
<ele>39.3</ele>
<time>2013-03-03T13:31:45.000Z</time>
</trkpt>
<trkpt lat="51.241974" lon="6.494687">
<ele>38.6</ele>
<time>2013-03-03T13:31:46.000Z</time>
</trkpt>
<trkpt lat="51.241954" lon="6.494604">
<ele>38.8</ele>
<time>2013-03-03T13:31:47.000Z</time>
</trkpt>
<trkpt lat="51.241934" lon="6.494538">
<ele>37.9</ele>
<time>2013-03-03T13:31:48.000Z</time>
</trkpt>
<trkpt lat="51.241915" lon="6.494462">
<ele>36.9</ele>
<time>2013-03-03T13:31:49.000Z</time>
</trkpt>
<trkpt lat="51.241902" lon="6.494391">
<ele>36.2</ele>
<time>2013-03-03T13:31:50.000Z</time>
</trkpt>
<trkpt lat="51.241883" lon="6.494319">
<ele>36.1</ele>
<time>2013-03-03T13:31:51.000Z</time>
</trkpt>
<trkpt lat="51.241856" lon="6.49425">
<ele>36.1</ele>
<time>2013-03-03T13:31:52.000Z</time>
</trkpt>
<trkpt lat="51.241838" lon="6.494181">
<ele>35.9</ele>
<time>2013-03-03T13:31:53.000Z</time>
</trkpt>
<trkpt lat="51.241816" lon="6.494105">
<ele>35.8</ele>
<time>2013-03-03T13:31:54.000Z</time>
</trkpt>
<trkpt lat="51.24176" lon="6.494094">
<ele>35.6</ele>
<time>2013-03-03T13:31:55.000Z</time>
</trkpt>
<trkpt lat="51.241706" lon="6.49402">
<ele>35.3</ele>
<time>2013-03-03T13:31:56.000Z</time>
</trkpt>
<trkpt lat="51.241664" lon="6.493962">
<ele>34.9</ele>
<time>2013-03-03T13:31:57.000Z</time>
</trkpt>
<trkpt lat="51.241635" lon="6.493815">
<ele>34.3</ele>
<time>2013-03-03T13:31:58.000Z</time>
</trkpt>
<trkpt lat="51.24168" lon="6.493787">
<ele>35</ele>
<time>2013-03-03T13:31:59.000Z</time>
</trkpt>
<trkpt lat="51.241658" lon="6.493684">
<ele>36</ele>
<time>2013-03-03T13:32:00.000Z</time>
</trkpt>
<trkpt lat="51.241611" lon="6.493563">
<ele>36.1</ele>
<time>2013-03-03T13:32:01.000Z</time>
</trkpt>
<trkpt lat="51.241576" lon="6.493448">
<ele>36.4</ele>
<time>2013-03-03T13:32:02.000Z</time>
</trkpt>
<trkpt lat="51.241562" lon="6.493364">
<ele>36.3</ele>
<time>2013-03-03T13:32:03.000Z</time>
</trkpt>
<trkpt lat="51.241532" lon="6.493302">
<ele>34.8</ele>
<time>2013-03-03T13:32:04.000Z</time>
</trkpt>
<trkpt lat="51.241503" lon="6.493214">
<ele>34.7</ele>
<time>2013-03-03T13:32:05.000Z</time>
</trkpt>
<trkpt lat="51.241463" lon="6.493161">
<ele>32.2</ele>
<time>2013-03-03T13:32:06.000Z</time>
</trkpt>
<trkpt lat="51.241459" lon="6.493067">
<ele>33.4</ele>
<time>2013-03-03T13:32:07.000Z</time>
</trkpt>
<trkpt lat="51.241431" lon="6.492931">
<ele>36</ele>
<time>2013-03-03T13:32:09.000Z</time>
</trkpt>
<trkpt lat="51.241408" lon="6.492859">
<ele>35.2</ele>
<time>2013-03-03T13:32:10.000Z</time>
</trkpt>
<trkpt lat="51.241376" lon="6.492782">
<ele>34.7</ele>
<time>2013-03-03T13:32:11.000Z</time>
</trkpt>
<trkpt lat="51.241348" lon="6.492713">
<ele>34.2</ele>
<time>2013-03-03T13:32:12.000Z</time>
</trkpt>
<trkpt lat="51.241324" lon="6.492648">
<ele>33.1</ele>
<time>2013-03-03T13:32:13.000Z</time>
</trkpt>
<trkpt lat="51.241293" lon="6.49255">
<ele>33.2</ele>
<time>2013-03-03T13:32:14.000Z</time>
</trkpt>
<trkpt lat="51.241273" lon="6.492463">
<ele>33.8</ele>
<time>2013-03-03T13:32:15.000Z</time>
</trkpt>
<trkpt lat="51.241232" lon="6.492325">
<ele>33.8</ele>
<time>2013-03-03T13:32:17.000Z</time>
</trkpt>
<trkpt lat="51.241205" lon="6.492252">
<ele>33.3</ele>
<time>2013-03-03T13:32:18.000Z</time>
</trkpt>
<trkpt lat="51.241171" lon="6.492172">
<ele>33.9</ele>
<time>2013-03-03T13:32:19.000Z</time>
</trkpt>
<trkpt lat="51.241141" lon="6.492093">
<ele>32.6</ele>
<time>2013-03-03T13:32:20.000Z</time>
</trkpt>
<trkpt lat="51.241106" lon="6.49202">
<ele>32.4</ele>
<time>2013-03-03T13:32:21.000Z</time>
</trkpt>
<trkpt lat="51.241085" lon="6.491953">
<ele>31.2</ele>
<time>2013-03-03T13:32:22.000Z</time>
</trkpt>
<trkpt lat="51.241069" lon="6.491879">
<ele>31.4</ele>
<time>2013-03-03T13:32:23.000Z</time>
</trkpt>
<trkpt lat="51.24105" lon="6.491798">
<ele>32.6</ele>
<time>2013-03-03T13:32:24.000Z</time>
</trkpt>
<trkpt lat="51.241024" lon="6.491728">
<ele>32</ele>
<time>2013-03-03T13:32:25.000Z</time>
</trkpt>
<trkpt lat="51.241001" lon="6.49166">
<ele>31.9</ele>
<time>2013-03-03T13:32:26.000Z</time>
</trkpt>
<trkpt lat="51.240984" lon="6.491592">
<ele>31.5</ele>
<time>2013-03-03T13:32:27.000Z</time>
</trkpt>
<trkpt lat="51.240958" lon="6.491517">
<ele>31.1</ele>
<time>2013-03-03T13:32:28.000Z</time>
</trkpt>
<trkpt lat="51.240941" lon="6.491404">
<ele>30.6</ele>
<time>2013-03-03T13:32:30.000Z</time>
</trkpt>
<trkpt lat="51.240922" lon="6.491327">
<ele>32.1</ele>
<time>2013-03-03T13:32:31.000Z</time>
</trkpt>
<trkpt lat="51.240921" lon="6.491242">
<ele>33.4</ele>
<time>2013-03-03T13:32:32.000Z</time>
</trkpt>
<trkpt lat="51.240891" lon="6.491104">
<ele>34.1</ele>
<time>2013-03-03T13:32:34.000Z</time>
</trkpt>
<trkpt lat="51.240861" lon="6.490978">
<ele>33.2</ele>
<time>2013-03-03T13:32:36.000Z</time>
</trkpt>
<trkpt lat="51.240853" lon="6.490907">
<ele>34.7</ele>
<time>2013-03-03T13:32:37.000Z</time>
</trkpt>
<trkpt lat="51.240814" lon="6.490784">
<ele>32.9</ele>
<time>2013-03-03T13:32:39.000Z</time>
</trkpt>
<trkpt lat="51.240789" lon="6.490709">
<ele>33.7</ele>
<time>2013-03-03T13:32:40.000Z</time>
</trkpt>
<trkpt lat="51.240763" lon="6.490568">
<ele>34.2</ele>
<time>2013-03-03T13:32:42.000Z</time>
</trkpt>
<trkpt lat="51.240721" lon="6.490437">
<ele>34</ele>
<time>2013-03-03T13:32:44.000Z</time>
</trkpt>
<trkpt lat="51.240696" lon="6.490367">
<ele>34.2</ele>
<time>2013-03-03T13:32:45.000Z</time>
</trkpt>
<trkpt lat="51.240667" lon="6.490287">
<ele>34.1</ele>
<time>2013-03-03T13:32:46.000Z</time>
</trkpt>
<trkpt lat="51.240641" lon="6.490215">
<ele>33.9</ele>
<time>2013-03-03T13:32:47.000Z</time>
</trkpt>
<trkpt lat="51.240629" lon="6.490144">
<ele>33.7</ele>
<time>2013-03-03T13:32:48.000Z</time>
</trkpt>
<trkpt lat="51.240601" lon="6.49007">
<ele>33.8</ele>
<time>2013-03-03T13:32:49.000Z</time>
</trkpt>
<trkpt lat="51.24057" lon="6.490001">
<ele>32.6</ele>
<time>2013-03-03T13:32:50.000Z</time>
</trkpt>
<trkpt lat="51.240538" lon="6.48994">
<ele>31.6</ele>
<time>2013-03-03T13:32:51.000Z</time>
</trkpt>
<trkpt lat="51.240513" lon="6.489863">
<ele>31.7</ele>
<time>2013-03-03T13:32:52.000Z</time>
</trkpt>
<trkpt lat="51.240491" lon="6.489786">
<ele>32.4</ele>
<time>2013-03-03T13:32:53.000Z</time>
</trkpt>
<trkpt lat="51.240477" lon="6.489712">
<ele>31.7</ele>
<time>2013-03-03T13:32:54.000Z</time>
</trkpt>
<trkpt lat="51.240445" lon="6.489601">
<ele>28.1</ele>
<time>2013-03-03T13:32:56.000Z</time>
</trkpt>
<trkpt lat="51.240421" lon="6.489525">
<ele>28.2</ele>
<time>2013-03-03T13:32:57.000Z</time>
</trkpt>
<trkpt lat="51.240394" lon="6.489447">
<ele>28.9</ele>
<time>2013-03-03T13:32:58.000Z</time>
</trkpt>
<trkpt lat="51.240369" lon="6.48937">
<ele>29.1</ele>
<time>2013-03-03T13:32:59.000Z</time>
</trkpt>
<trkpt lat="51.240344" lon="6.489303">
<ele>28.5</ele>
<time>2013-03-03T13:33:00.000Z</time>
</trkpt>
<trkpt lat="51.240306" lon="6.489164">
<ele>29.3</ele>
<time>2013-03-03T13:33:02.000Z</time>
</trkpt>
<trkpt lat="51.240281" lon="6.489098">
<ele>29.7</ele>
<time>2013-03-03T13:33:03.000Z</time>
</trkpt>
<trkpt lat="51.24026" lon="6.489022">
<ele>30.4</ele>
<time>2013-03-03T13:33:04.000Z</time>
</trkpt>
<trkpt lat="51.240223" lon="6.488899">
<ele>31</ele>
<time>2013-03-03T13:33:06.000Z</time>
</trkpt>
<trkpt lat="51.240205" lon="6.488828">
<ele>31.9</ele>
<time>2013-03-03T13:33:07.000Z</time>
</trkpt>
<trkpt lat="51.240186" lon="6.488761">
<ele>32.6</ele>
<time>2013-03-03T13:33:08.000Z</time>
</trkpt>
<trkpt lat="51.240169" lon="6.488693">
<ele>32.3</ele>
<time>2013-03-03T13:33:09.000Z</time>
</trkpt>
<trkpt lat="51.240131" lon="6.488562">
<ele>33.2</ele>
<time>2013-03-03T13:33:11.000Z</time>
</trkpt>
<trkpt lat="51.240104" lon="6.488498">
<ele>32.3</ele>
<time>2013-03-03T13:33:12.000Z</time>
</trkpt>
<trkpt lat="51.24008" lon="6.48843">
<ele>32.4</ele>
<time>2013-03-03T13:33:13.000Z</time>
</trkpt>
<trkpt lat="51.240061" lon="6.488362">
<ele>33</ele>
<time>2013-03-03T13:33:14.000Z</time>
</trkpt>
<trkpt lat="51.240016" lon="6.48824">
<ele>33</ele>
<time>2013-03-03T13:33:16.000Z</time>
</trkpt>
<trkpt lat="51.239996" lon="6.488166">
<ele>32.8</ele>
<time>2013-03-03T13:33:17.000Z</time>
</trkpt>
<trkpt lat="51.23997" lon="6.48809">
<ele>33.6</ele>
<time>2013-03-03T13:33:18.000Z</time>
</trkpt>
<trkpt lat="51.239946" lon="6.488028">
<ele>32.7</ele>
<time>2013-03-03T13:33:19.000Z</time>
</trkpt>
<trkpt lat="51.239923" lon="6.487961">
<ele>32.4</ele>
<time>2013-03-03T13:33:20.000Z</time>
</trkpt>
<trkpt lat="51.239897" lon="6.48789">
<ele>31.8</ele>
<time>2013-03-03T13:33:21.000Z</time>
</trkpt>
<trkpt lat="51.239874" lon="6.487827">
<ele>32</ele>
<time>2013-03-03T13:33:22.000Z</time>
</trkpt>
<trkpt lat="51.23984" lon="6.487695">
<ele>31.3</ele>
<time>2013-03-03T13:33:24.000Z</time>
</trkpt>
<trkpt lat="51.239825" lon="6.487618">
<ele>31.3</ele>
<time>2013-03-03T13:33:25.000Z</time>
</trkpt>
<trkpt lat="51.2398" lon="6.487552">
<ele>31.5</ele>
<time>2013-03-03T13:33:26.000Z</time>
</trkpt>
<trkpt lat="51.239774" lon="6.48748">
<ele>31.3</ele>
<time>2013-03-03T13:33:27.000Z</time>
</trkpt>
<trkpt lat="51.239727" lon="6.487344">
<ele>30.5</ele>
<time>2013-03-03T13:33:29.000Z</time>
</trkpt>
<trkpt lat="51.239708" lon="6.487277">
<ele>29.9</ele>
<time>2013-03-03T13:33:30.000Z</time>
</trkpt>
<trkpt lat="51.239681" lon="6.487214">
<ele>29.7</ele>
<time>2013-03-03T13:33:31.000Z</time>
</trkpt>
<trkpt lat="51.23964" lon="6.48711">
<ele>27.1</ele>
<time>2013-03-03T13:33:33.000Z</time>
</trkpt>
<trkpt lat="51.23961" lon="6.487049">
<ele>26.8</ele>
<time>2013-03-03T13:33:34.000Z</time>
</trkpt>
<trkpt lat="51.239554" lon="6.486931">
<ele>26</ele>
<time>2013-03-03T13:33:36.000Z</time>
</trkpt>
<trkpt lat="51.239528" lon="6.486862">
<ele>26.4</ele>
<time>2013-03-03T13:33:37.000Z</time>
</trkpt>
<trkpt lat="51.239509" lon="6.486782">
<ele>28</ele>
<time>2013-03-03T13:33:38.000Z</time>
</trkpt>
<trkpt lat="51.239479" lon="6.48672">
<ele>27.8</ele>
<time>2013-03-03T13:33:39.000Z</time>
</trkpt>
<trkpt lat="51.239447" lon="6.486659">
<ele>28.5</ele>
<time>2013-03-03T13:33:40.000Z</time>
</trkpt>
<trkpt lat="51.239417" lon="6.486603">
<ele>28.4</ele>
<time>2013-03-03T13:33:41.000Z</time>
</trkpt>
<trkpt lat="51.239388" lon="6.486547">
<ele>28.4</ele>
<time>2013-03-03T13:33:42.000Z</time>
</trkpt>
<trkpt lat="51.239371" lon="6.486421">
<ele>27.9</ele>
<time>2013-03-03T13:33:44.000Z</time>
</trkpt>
<trkpt lat="51.239329" lon="6.486389">
<ele>27.8</ele>
<time>2013-03-03T13:33:45.000Z</time>
</trkpt>
<trkpt lat="51.23928" lon="6.486234">
<ele>26.8</ele>
<time>2013-03-03T13:33:47.000Z</time>
</trkpt>
<trkpt lat="51.239232" lon="6.486144">
<ele>26.4</ele>
<time>2013-03-03T13:33:48.000Z</time>
</trkpt>
<trkpt lat="51.239157" lon="6.486063">
<ele>26.3</ele>
<time>2013-03-03T13:33:49.000Z</time>
</trkpt>
<trkpt lat="51.239113" lon="6.48598">
<ele>26.4</ele>
<time>2013-03-03T13:33:50.000Z</time>
</trkpt>
<trkpt lat="51.239066" lon="6.485896">
<ele>26.4</ele>
<time>2013-03-03T13:33:51.000Z</time>
</trkpt>
<trkpt lat="51.239116" lon="6.485809">
<ele>29.1</ele>
<time>2013-03-03T13:33:52.000Z</time>
</trkpt>
<trkpt lat="51.239102" lon="6.485737">
<ele>32.3</ele>
<time>2013-03-03T13:33:54.000Z</time>
</trkpt>
<trkpt lat="51.23908" lon="6.485624">
<ele>30.4</ele>
<time>2013-03-03T13:33:56.000Z</time>
</trkpt>
<trkpt lat="51.239049" lon="6.485547">
<ele>32</ele>
<time>2013-03-03T13:33:58.000Z</time>
</trkpt>
<trkpt lat="51.239035" lon="6.485451">
<ele>30.6</ele>
<time>2013-03-03T13:34:00.000Z</time>
</trkpt>
<trkpt lat="51.239019" lon="6.485342">
<ele>29.1</ele>
<time>2013-03-03T13:34:02.000Z</time>
</trkpt>
<trkpt lat="51.238989" lon="6.485224">
<ele>28.7</ele>
<time>2013-03-03T13:34:04.000Z</time>
</trkpt>
<trkpt lat="51.238979" lon="6.485153">
<ele>29.6</ele>
<time>2013-03-03T13:34:05.000Z</time>
</trkpt>
<trkpt lat="51.238969" lon="6.485081">
<ele>29.1</ele>
<time>2013-03-03T13:34:06.000Z</time>
</trkpt>
<trkpt lat="51.238955" lon="6.48501">
<ele>29.1</ele>
<time>2013-03-03T13:34:07.000Z</time>
</trkpt>
<trkpt lat="51.23893" lon="6.484887">
<ele>28.7</ele>
<time>2013-03-03T13:34:09.000Z</time>
</trkpt>
<trkpt lat="51.238897" lon="6.484786">
<ele>26</ele>
<time>2013-03-03T13:34:11.000Z</time>
</trkpt>
<trkpt lat="51.238861" lon="6.484702">
<ele>26.1</ele>
<time>2013-03-03T13:34:13.000Z</time>
</trkpt>
<trkpt lat="51.238815" lon="6.484626">
<ele>25.6</ele>
<time>2013-03-03T13:34:15.000Z</time>
</trkpt>
<trkpt lat="51.238772" lon="6.484551">
<ele>26.3</ele>
<time>2013-03-03T13:34:17.000Z</time>
</trkpt>
<trkpt lat="51.238744" lon="6.484472">
<ele>26.7</ele>
<time>2013-03-03T13:34:19.000Z</time>
</trkpt>
<trkpt lat="51.238773" lon="6.484383">
<ele>25.9</ele>
<time>2013-03-03T13:34:22.000Z</time>
</trkpt>
<trkpt lat="51.23883" lon="6.484364">
<ele>25.5</ele>
<time>2013-03-03T13:34:24.000Z</time>
</trkpt>
<trkpt lat="51.238883" lon="6.484347">
<ele>25.1</ele>
<time>2013-03-03T13:34:27.000Z</time>
</trkpt>
<trkpt lat="51.238885" lon="6.484269">
<ele>26.5</ele>
<time>2013-03-03T13:34:38.000Z</time>
</trkpt>
<trkpt lat="51.238864" lon="6.484197">
<ele>25.9</ele>
<time>2013-03-03T13:34:40.000Z</time>
</trkpt>
<trkpt lat="51.238829" lon="6.484089">
<ele>26.9</ele>
<time>2013-03-03T13:34:42.000Z</time>
</trkpt>
<trkpt lat="51.238781" lon="6.483904">
<ele>27.3</ele>
<time>2013-03-03T13:34:44.000Z</time>
</trkpt>
<trkpt lat="51.238763" lon="6.483829">
<ele>27.8</ele>
<time>2013-03-03T13:34:45.000Z</time>
</trkpt>
<trkpt lat="51.238742" lon="6.483759">
<ele>28</ele>
<time>2013-03-03T13:34:46.000Z</time>
</trkpt>
<trkpt lat="51.238719" lon="6.483684">
<ele>28.3</ele>
<time>2013-03-03T13:34:47.000Z</time>
</trkpt>
<trkpt lat="51.238698" lon="6.483606">
<ele>28.2</ele>
<time>2013-03-03T13:34:48.000Z</time>
</trkpt>
<trkpt lat="51.238679" lon="6.483521">
<ele>28.4</ele>
<time>2013-03-03T13:34:49.000Z</time>
</trkpt>
<trkpt lat="51.238656" lon="6.483447">
<ele>28.6</ele>
<time>2013-03-03T13:34:50.000Z</time>
</trkpt>
<trkpt lat="51.238635" lon="6.483369">
<ele>28.9</ele>
<time>2013-03-03T13:34:51.000Z</time>
</trkpt>
<trkpt lat="51.238606" lon="6.483287">
<ele>28.7</ele>
<time>2013-03-03T13:34:52.000Z</time>
</trkpt>
<trkpt lat="51.238575" lon="6.483213">
<ele>27.6</ele>
<time>2013-03-03T13:34:53.000Z</time>
</trkpt>
<trkpt lat="51.238546" lon="6.48314">
<ele>27.7</ele>
<time>2013-03-03T13:34:54.000Z</time>
</trkpt>
<trkpt lat="51.23852" lon="6.483056">
<ele>26.9</ele>
<time>2013-03-03T13:34:55.000Z</time>
</trkpt>
<trkpt lat="51.238472" lon="6.482907">
<ele>24.1</ele>
<time>2013-03-03T13:34:57.000Z</time>
</trkpt>
<trkpt lat="51.238445" lon="6.482815">
<ele>24.2</ele>
<time>2013-03-03T13:34:58.000Z</time>
</trkpt>
<trkpt lat="51.238414" lon="6.482723">
<ele>24.6</ele>
<time>2013-03-03T13:34:59.000Z</time>
</trkpt>
<trkpt lat="51.238384" lon="6.482635">
<ele>22.9</ele>
<time>2013-03-03T13:35:00.000Z</time>
</trkpt>
<trkpt lat="51.238353" lon="6.482539">
<ele>22.9</ele>
<time>2013-03-03T13:35:01.000Z</time>
</trkpt>
<trkpt lat="51.238331" lon="6.482427">
<ele>24.6</ele>
<time>2013-03-03T13:35:02.000Z</time>
</trkpt>
<trkpt lat="51.238302" lon="6.482325">
<ele>25.3</ele>
<time>2013-03-03T13:35:03.000Z</time>
</trkpt>
<trkpt lat="51.238265" lon="6.482227">
<ele>25.6</ele>
<time>2013-03-03T13:35:04.000Z</time>
</trkpt>
<trkpt lat="51.238232" lon="6.482133">
<ele>25.2</ele>
<time>2013-03-03T13:35:05.000Z</time>
</trkpt>
<trkpt lat="51.238201" lon="6.482047">
<ele>24.8</ele>
<time>2013-03-03T13:35:06.000Z</time>
</trkpt>
<trkpt lat="51.238162" lon="6.481952">
<ele>25</ele>
<time>2013-03-03T13:35:07.000Z</time>
</trkpt>
<trkpt lat="51.238137" lon="6.481863">
<ele>26.4</ele>
<time>2013-03-03T13:35:08.000Z</time>
</trkpt>
<trkpt lat="51.238112" lon="6.481785">
<ele>27.8</ele>
<time>2013-03-03T13:35:09.000Z</time>
</trkpt>
<trkpt lat="51.238086" lon="6.481708">
<ele>27.5</ele>
<time>2013-03-03T13:35:10.000Z</time>
</trkpt>
<trkpt lat="51.23805" lon="6.48162">
<ele>28.1</ele>
<time>2013-03-03T13:35:11.000Z</time>
</trkpt>
<trkpt lat="51.238013" lon="6.481526">
<ele>28.8</ele>
<time>2013-03-03T13:35:12.000Z</time>
</trkpt>
<trkpt lat="51.237981" lon="6.481462">
<ele>28.8</ele>
<time>2013-03-03T13:35:13.000Z</time>
</trkpt>
<trkpt lat="51.23795" lon="6.481388">
<ele>28.5</ele>
<time>2013-03-03T13:35:14.000Z</time>
</trkpt>
<trkpt lat="51.237921" lon="6.481322">
<ele>27.7</ele>
<time>2013-03-03T13:35:15.000Z</time>
</trkpt>
<trkpt lat="51.237894" lon="6.481251">
<ele>28.7</ele>
<time>2013-03-03T13:35:16.000Z</time>
</trkpt>
<trkpt lat="51.237867" lon="6.481192">
<ele>27.7</ele>
<time>2013-03-03T13:35:17.000Z</time>
</trkpt>
<trkpt lat="51.23784" lon="6.48113">
<ele>26.2</ele>
<time>2013-03-03T13:35:18.000Z</time>
</trkpt>
<trkpt lat="51.237807" lon="6.481067">
<ele>25.7</ele>
<time>2013-03-03T13:35:19.000Z</time>
</trkpt>
<trkpt lat="51.237788" lon="6.481">
<ele>24.7</ele>
<time>2013-03-03T13:35:20.000Z</time>
</trkpt>
<trkpt lat="51.237739" lon="6.480907">
<ele>25.5</ele>
<time>2013-03-03T13:35:22.000Z</time>
</trkpt>
<trkpt lat="51.23769" lon="6.4808">
<ele>24.9</ele>
<time>2013-03-03T13:35:24.000Z</time>
</trkpt>
<trkpt lat="51.237656" lon="6.480694">
<ele>23.8</ele>
<time>2013-03-03T13:35:26.000Z</time>
</trkpt>
<trkpt lat="51.237611" lon="6.480566">
<ele>25.6</ele>
<time>2013-03-03T13:35:28.000Z</time>
</trkpt>
<trkpt lat="51.237564" lon="6.48045">
<ele>24.4</ele>
<time>2013-03-03T13:35:30.000Z</time>
</trkpt>
<trkpt lat="51.237539" lon="6.480377">
<ele>24.4</ele>
<time>2013-03-03T13:35:31.000Z</time>
</trkpt>
<trkpt lat="51.237504" lon="6.480304">
<ele>25.8</ele>
<time>2013-03-03T13:35:32.000Z</time>
</trkpt>
<trkpt lat="51.237475" lon="6.480239">
<ele>26.8</ele>
<time>2013-03-03T13:35:33.000Z</time>
</trkpt>
<trkpt lat="51.237446" lon="6.480161">
<ele>27</ele>
<time>2013-03-03T13:35:34.000Z</time>
</trkpt>
<trkpt lat="51.23741" lon="6.4801">
<ele>26.9</ele>
<time>2013-03-03T13:35:35.000Z</time>
</trkpt>
<trkpt lat="51.237374" lon="6.480049">
<ele>26.5</ele>
<time>2013-03-03T13:35:36.000Z</time>
</trkpt>
<trkpt lat="51.23735" lon="6.479974">
<ele>27.2</ele>
<time>2013-03-03T13:35:37.000Z</time>
</trkpt>
<trkpt lat="51.237317" lon="6.479914">
<ele>26.9</ele>
<time>2013-03-03T13:35:38.000Z</time>
</trkpt>
<trkpt lat="51.23726" lon="6.479796">
<ele>28.8</ele>
<time>2013-03-03T13:35:40.000Z</time>
</trkpt>
<trkpt lat="51.237228" lon="6.479742">
<ele>27.6</ele>
<time>2013-03-03T13:35:41.000Z</time>
</trkpt>
<trkpt lat="51.237177" lon="6.479636">
<ele>26.5</ele>
<time>2013-03-03T13:35:43.000Z</time>
</trkpt>
<trkpt lat="51.237147" lon="6.479571">
<ele>26.2</ele>
<time>2013-03-03T13:35:44.000Z</time>
</trkpt>
<trkpt lat="51.237114" lon="6.47951">
<ele>26.5</ele>
<time>2013-03-03T13:35:45.000Z</time>
</trkpt>
<trkpt lat="51.237076" lon="6.479462">
<ele>25.5</ele>
<time>2013-03-03T13:35:46.000Z</time>
</trkpt>
<trkpt lat="51.237045" lon="6.479408">
<ele>25.9</ele>
<time>2013-03-03T13:35:47.000Z</time>
</trkpt>
<trkpt lat="51.237012" lon="6.479342">
<ele>25.7</ele>
<time>2013-03-03T13:35:48.000Z</time>
</trkpt>
<trkpt lat="51.236975" lon="6.479287">
<ele>24.7</ele>
<time>2013-03-03T13:35:49.000Z</time>
</trkpt>
<trkpt lat="51.236939" lon="6.479238">
<ele>24.8</ele>
<time>2013-03-03T13:35:50.000Z</time>
</trkpt>
<trkpt lat="51.23688" lon="6.479126">
<ele>25</ele>
<time>2013-03-03T13:35:52.000Z</time>
</trkpt>
<trkpt lat="51.236846" lon="6.47906">
<ele>25</ele>
<time>2013-03-03T13:35:53.000Z</time>
</trkpt>
<trkpt lat="51.236813" lon="6.479007">
<ele>24.8</ele>
<time>2013-03-03T13:35:54.000Z</time>
</trkpt>
<trkpt lat="51.236756" lon="6.478908">
<ele>25.5</ele>
<time>2013-03-03T13:35:56.000Z</time>
</trkpt>
<trkpt lat="51.23672" lon="6.478863">
<ele>22.6</ele>
<time>2013-03-03T13:35:57.000Z</time>
</trkpt>
<trkpt lat="51.236658" lon="6.478801">
<ele>19.8</ele>
<time>2013-03-03T13:35:59.000Z</time>
</trkpt>
<trkpt lat="51.2366" lon="6.478689">
<ele>18.4</ele>
<time>2013-03-03T13:36:01.000Z</time>
</trkpt>
<trkpt lat="51.236566" lon="6.478624">
<ele>17.9</ele>
<time>2013-03-03T13:36:02.000Z</time>
</trkpt>
<trkpt lat="51.23653" lon="6.478535">
<ele>18.4</ele>
<time>2013-03-03T13:36:04.000Z</time>
</trkpt>
<trkpt lat="51.236474" lon="6.478408">
<ele>19.9</ele>
<time>2013-03-03T13:36:06.000Z</time>
</trkpt>
<trkpt lat="51.236419" lon="6.478309">
<ele>20</ele>
<time>2013-03-03T13:36:08.000Z</time>
</trkpt>
<trkpt lat="51.2364" lon="6.478241">
<ele>20.8</ele>
<time>2013-03-03T13:36:09.000Z</time>
</trkpt>
<trkpt lat="51.23635" lon="6.47813">
<ele>21.5</ele>
<time>2013-03-03T13:36:11.000Z</time>
</trkpt>
<trkpt lat="51.236327" lon="6.478031">
<ele>21.3</ele>
<time>2013-03-03T13:36:13.000Z</time>
</trkpt>
<trkpt lat="51.236287" lon="6.477909">
<ele>24.8</ele>
<time>2013-03-03T13:36:15.000Z</time>
</trkpt>
<trkpt lat="51.236248" lon="6.477814">
<ele>26.4</ele>
<time>2013-03-03T13:36:17.000Z</time>
</trkpt>
<trkpt lat="51.236218" lon="6.477745">
<ele>28</ele>
<time>2013-03-03T13:36:19.000Z</time>
</trkpt>
<trkpt lat="51.236148" lon="6.477746">
<ele>30.2</ele>
<time>2013-03-03T13:36:22.000Z</time>
</trkpt>
<trkpt lat="51.236084" lon="6.477791">
<ele>29.9</ele>
<time>2013-03-03T13:36:24.000Z</time>
</trkpt>
<trkpt lat="51.236021" lon="6.477821">
<ele>30</ele>
<time>2013-03-03T13:36:26.000Z</time>
</trkpt>
<trkpt lat="51.235961" lon="6.477826">
<ele>27.8</ele>
<time>2013-03-03T13:36:28.000Z</time>
</trkpt>
<trkpt lat="51.235908" lon="6.477847">
<ele>28.5</ele>
<time>2013-03-03T13:36:30.000Z</time>
</trkpt>
<trkpt lat="51.235864" lon="6.477895">
<ele>31.1</ele>
<time>2013-03-03T13:36:32.000Z</time>
</trkpt>
<trkpt lat="51.235854" lon="6.477966">
<ele>33.2</ele>
<time>2013-03-03T13:36:34.000Z</time>
</trkpt>
<trkpt lat="51.23587" lon="6.478053">
<ele>33.1</ele>
<time>2013-03-03T13:36:36.000Z</time>
</trkpt>
<trkpt lat="51.235905" lon="6.478148">
<ele>33.3</ele>
<time>2013-03-03T13:36:38.000Z</time>
</trkpt>
<trkpt lat="51.23595" lon="6.478243">
<ele>33.5</ele>
<time>2013-03-03T13:36:40.000Z</time>
</trkpt>
<trkpt lat="51.235954" lon="6.478343">
<ele>28.5</ele>
<time>2013-03-03T13:36:42.000Z</time>
</trkpt>
<trkpt lat="51.235935" lon="6.478449">
<ele>28.9</ele>
<time>2013-03-03T13:36:44.000Z</time>
</trkpt>
<trkpt lat="51.235879" lon="6.478547">
<ele>29</ele>
<time>2013-03-03T13:36:46.000Z</time>
</trkpt>
<trkpt lat="51.235843" lon="6.478599">
<ele>28.9</ele>
<time>2013-03-03T13:36:47.000Z</time>
</trkpt>
<trkpt lat="51.235801" lon="6.478649">
<ele>28</ele>
<time>2013-03-03T13:36:48.000Z</time>
</trkpt>
<trkpt lat="51.23571" lon="6.478735">
<ele>29.1</ele>
<time>2013-03-03T13:36:49.000Z</time>
</trkpt>
<trkpt lat="51.235666" lon="6.478807">
<ele>28.8</ele>
<time>2013-03-03T13:36:50.000Z</time>
</trkpt>
<trkpt lat="51.235632" lon="6.478857">
<ele>29.1</ele>
<time>2013-03-03T13:36:51.000Z</time>
</trkpt>
<trkpt lat="51.235566" lon="6.478922">
<ele>26.1</ele>
<time>2013-03-03T13:36:53.000Z</time>
</trkpt>
<trkpt lat="51.235515" lon="6.478974">
<ele>26.1</ele>
<time>2013-03-03T13:36:54.000Z</time>
</trkpt>
<trkpt lat="51.235471" lon="6.479025">
<ele>25.8</ele>
<time>2013-03-03T13:36:55.000Z</time>
</trkpt>
<trkpt lat="51.235433" lon="6.47909">
<ele>25.9</ele>
<time>2013-03-03T13:36:56.000Z</time>
</trkpt>
<trkpt lat="51.235389" lon="6.479145">
<ele>25.9</ele>
<time>2013-03-03T13:36:57.000Z</time>
</trkpt>
<trkpt lat="51.235355" lon="6.479203">
<ele>26</ele>
<time>2013-03-03T13:36:58.000Z</time>
</trkpt>
<trkpt lat="51.235311" lon="6.479258">
<ele>25.3</ele>
<time>2013-03-03T13:36:59.000Z</time>
</trkpt>
<trkpt lat="51.235282" lon="6.479316">
<ele>24.5</ele>
<time>2013-03-03T13:37:00.000Z</time>
</trkpt>
<trkpt lat="51.235247" lon="6.479377">
<ele>25.2</ele>
<time>2013-03-03T13:37:01.000Z</time>
</trkpt>
<trkpt lat="51.23521" lon="6.479428">
<ele>25</ele>
<time>2013-03-03T13:37:02.000Z</time>
</trkpt>
<trkpt lat="51.235176" lon="6.47949">
<ele>24.9</ele>
<time>2013-03-03T13:37:03.000Z</time>
</trkpt>
<trkpt lat="51.235158" lon="6.479568">
<ele>25.7</ele>
<time>2013-03-03T13:37:04.000Z</time>
</trkpt>
<trkpt lat="51.235127" lon="6.479673">
<ele>25.1</ele>
<time>2013-03-03T13:37:06.000Z</time>
</trkpt>
<trkpt lat="51.235098" lon="6.479744">
<ele>24</ele>
<time>2013-03-03T13:37:08.000Z</time>
</trkpt>
<trkpt lat="51.235062" lon="6.479891">
<ele>22.3</ele>
<time>2013-03-03T13:37:10.000Z</time>
</trkpt>
<trkpt lat="51.235001" lon="6.479973">
<ele>23.3</ele>
<time>2013-03-03T13:37:11.000Z</time>
</trkpt>
<trkpt lat="51.234948" lon="6.480054">
<ele>22.5</ele>
<time>2013-03-03T13:37:12.000Z</time>
</trkpt>
<trkpt lat="51.234856" lon="6.480175">
<ele>22.6</ele>
<time>2013-03-03T13:37:14.000Z</time>
</trkpt>
<trkpt lat="51.234791" lon="6.480254">
<ele>21.9</ele>
<time>2013-03-03T13:37:15.000Z</time>
</trkpt>
<trkpt lat="51.234757" lon="6.480308">
<ele>23</ele>
<time>2013-03-03T13:37:16.000Z</time>
</trkpt>
<trkpt lat="51.234705" lon="6.480439">
<ele>26</ele>
<time>2013-03-03T13:37:18.000Z</time>
</trkpt>
<trkpt lat="51.234645" lon="6.480558">
<ele>26.2</ele>
<time>2013-03-03T13:37:20.000Z</time>
</trkpt>
<trkpt lat="51.234611" lon="6.480624">
<ele>26</ele>
<time>2013-03-03T13:37:21.000Z</time>
</trkpt>
<trkpt lat="51.234576" lon="6.480712">
<ele>27.1</ele>
<time>2013-03-03T13:37:22.000Z</time>
</trkpt>
<trkpt lat="51.234549" lon="6.480817">
<ele>26.9</ele>
<time>2013-03-03T13:37:24.000Z</time>
</trkpt>
<trkpt lat="51.23455" lon="6.480905">
<ele>28.1</ele>
<time>2013-03-03T13:37:25.000Z</time>
</trkpt>
<trkpt lat="51.23448" lon="6.481009">
<ele>27.2</ele>
<time>2013-03-03T13:37:27.000Z</time>
</trkpt>
<trkpt lat="51.234449" lon="6.481076">
<ele>27.8</ele>
<time>2013-03-03T13:37:28.000Z</time>
</trkpt>
<trkpt lat="51.234377" lon="6.481221">
<ele>27.3</ele>
<time>2013-03-03T13:37:30.000Z</time>
</trkpt>
<trkpt lat="51.234342" lon="6.481282">
<ele>27.7</ele>
<time>2013-03-03T13:37:31.000Z</time>
</trkpt>
<trkpt lat="51.234318" lon="6.481349">
<ele>27.8</ele>
<time>2013-03-03T13:37:32.000Z</time>
</trkpt>
<trkpt lat="51.234282" lon="6.481401">
<ele>28.1</ele>
<time>2013-03-03T13:37:33.000Z</time>
</trkpt>
<trkpt lat="51.23425" lon="6.481461">
<ele>28.7</ele>
<time>2013-03-03T13:37:34.000Z</time>
</trkpt>
<trkpt lat="51.234206" lon="6.481523">
<ele>28.8</ele>
<time>2013-03-03T13:37:35.000Z</time>
</trkpt>
<trkpt lat="51.234184" lon="6.481668">
<ele>31</ele>
<time>2013-03-03T13:37:37.000Z</time>
</trkpt>
<trkpt lat="51.234123" lon="6.481778">
<ele>29.4</ele>
<time>2013-03-03T13:37:39.000Z</time>
</trkpt>
<trkpt lat="51.234097" lon="6.48185">
<ele>31</ele>
<time>2013-03-03T13:37:40.000Z</time>
</trkpt>
<trkpt lat="51.234059" lon="6.481956">
<ele>32.7</ele>
<time>2013-03-03T13:37:42.000Z</time>
</trkpt>
<trkpt lat="51.233999" lon="6.482054">
<ele>32.2</ele>
<time>2013-03-03T13:37:44.000Z</time>
</trkpt>
<trkpt lat="51.233967" lon="6.48212">
<ele>32.9</ele>
<time>2013-03-03T13:37:45.000Z</time>
</trkpt>
<trkpt lat="51.233935" lon="6.482195">
<ele>33.5</ele>
<time>2013-03-03T13:37:46.000Z</time>
</trkpt>
<trkpt lat="51.233904" lon="6.48229">
<ele>33.4</ele>
<time>2013-03-03T13:37:47.000Z</time>
</trkpt>
<trkpt lat="51.233876" lon="6.482352">
<ele>32.2</ele>
<time>2013-03-03T13:37:48.000Z</time>
</trkpt>
<trkpt lat="51.233847" lon="6.482415">
<ele>32</ele>
<time>2013-03-03T13:37:49.000Z</time>
</trkpt>
<trkpt lat="51.233798" lon="6.482514">
<ele>31.9</ele>
<time>2013-03-03T13:37:51.000Z</time>
</trkpt>
<trkpt lat="51.233768" lon="6.482574">
<ele>32.1</ele>
<time>2013-03-03T13:37:52.000Z</time>
</trkpt>
<trkpt lat="51.233735" lon="6.482636">
<ele>32.7</ele>
<time>2013-03-03T13:37:53.000Z</time>
</trkpt>
<trkpt lat="51.233667" lon="6.482745">
<ele>33.1</ele>
<time>2013-03-03T13:37:55.000Z</time>
</trkpt>
<trkpt lat="51.233633" lon="6.48282">
<ele>33.5</ele>
<time>2013-03-03T13:37:56.000Z</time>
</trkpt>
<trkpt lat="51.233595" lon="6.482886">
<ele>33.6</ele>
<time>2013-03-03T13:37:57.000Z</time>
</trkpt>
<trkpt lat="51.233564" lon="6.482967">
<ele>33.1</ele>
<time>2013-03-03T13:37:58.000Z</time>
</trkpt>
<trkpt lat="51.233528" lon="6.483022">
<ele>32.8</ele>
<time>2013-03-03T13:37:59.000Z</time>
</trkpt>
<trkpt lat="51.233506" lon="6.483105">
<ele>31.6</ele>
<time>2013-03-03T13:38:00.000Z</time>
</trkpt>
<trkpt lat="51.233476" lon="6.483173">
<ele>31.5</ele>
<time>2013-03-03T13:38:01.000Z</time>
</trkpt>
<trkpt lat="51.233448" lon="6.483246">
<ele>31.2</ele>
<time>2013-03-03T13:38:02.000Z</time>
</trkpt>
<trkpt lat="51.233439" lon="6.483327">
<ele>31.3</ele>
<time>2013-03-03T13:38:03.000Z</time>
</trkpt>
<trkpt lat="51.233395" lon="6.483451">
<ele>31.9</ele>
<time>2013-03-03T13:38:05.000Z</time>
</trkpt>
<trkpt lat="51.23337" lon="6.483519">
<ele>32.7</ele>
<time>2013-03-03T13:38:06.000Z</time>
</trkpt>
<trkpt lat="51.23334" lon="6.48359">
<ele>33.3</ele>
<time>2013-03-03T13:38:07.000Z</time>
</trkpt>
<trkpt lat="51.233313" lon="6.48365">
<ele>33.3</ele>
<time>2013-03-03T13:38:08.000Z</time>
</trkpt>
<trkpt lat="51.233275" lon="6.483715">
<ele>33.5</ele>
<time>2013-03-03T13:38:09.000Z</time>
</trkpt>
<trkpt lat="51.233229" lon="6.483782">
<ele>33.4</ele>
<time>2013-03-03T13:38:10.000Z</time>
</trkpt>
<trkpt lat="51.233175" lon="6.48388">
<ele>33.6</ele>
<time>2013-03-03T13:38:12.000Z</time>
</trkpt>
<trkpt lat="51.233144" lon="6.483934">
<ele>33.8</ele>
<time>2013-03-03T13:38:13.000Z</time>
</trkpt>
<trkpt lat="51.233105" lon="6.484002">
<ele>33.8</ele>
<time>2013-03-03T13:38:14.000Z</time>
</trkpt>
<trkpt lat="51.23308" lon="6.484064">
<ele>31.3</ele>
<time>2013-03-03T13:38:15.000Z</time>
</trkpt>
<trkpt lat="51.233042" lon="6.484175">
<ele>30.6</ele>
<time>2013-03-03T13:38:17.000Z</time>
</trkpt>
<trkpt lat="51.233006" lon="6.484334">
<ele>30.9</ele>
<time>2013-03-03T13:38:19.000Z</time>
</trkpt>
<trkpt lat="51.232942" lon="6.484429">
<ele>32.7</ele>
<time>2013-03-03T13:38:20.000Z</time>
</trkpt>
<trkpt lat="51.232896" lon="6.484503">
<ele>32.4</ele>
<time>2013-03-03T13:38:21.000Z</time>
</trkpt>
<trkpt lat="51.232859" lon="6.484583">
<ele>32.8</ele>
<time>2013-03-03T13:38:23.000Z</time>
</trkpt>
<trkpt lat="51.23282" lon="6.484673">
<ele>33.8</ele>
<time>2013-03-03T13:38:25.000Z</time>
</trkpt>
<trkpt lat="51.232782" lon="6.484781">
<ele>33.2</ele>
<time>2013-03-03T13:38:27.000Z</time>
</trkpt>
<trkpt lat="51.232742" lon="6.484872">
<ele>31.7</ele>
<time>2013-03-03T13:38:29.000Z</time>
</trkpt>
<trkpt lat="51.232706" lon="6.484924">
<ele>31.9</ele>
<time>2013-03-03T13:38:31.000Z</time>
</trkpt>
<trkpt lat="51.232667" lon="6.484878">
<ele>29.2</ele>
<time>2013-03-03T13:38:41.000Z</time>
</trkpt>
<trkpt lat="51.232626" lon="6.484842">
<ele>27.9</ele>
<time>2013-03-03T13:38:45.000Z</time>
</trkpt>
<trkpt lat="51.232577" lon="6.484824">
<ele>25.1</ele>
<time>2013-03-03T13:38:48.000Z</time>
</trkpt>
<trkpt lat="51.232525" lon="6.484791">
<ele>23.6</ele>
<time>2013-03-03T13:38:52.000Z</time>
</trkpt>
<trkpt lat="51.232481" lon="6.484753">
<ele>24.3</ele>
<time>2013-03-03T13:38:56.000Z</time>
</trkpt>
<trkpt lat="51.232429" lon="6.484731">
<ele>23.2</ele>
<time>2013-03-03T13:39:01.000Z</time>
</trkpt>
<trkpt lat="51.23238" lon="6.484673">
<ele>23.3</ele>
<time>2013-03-03T13:39:10.000Z</time>
</trkpt>
<trkpt lat="51.232329" lon="6.484595">
<ele>23.1</ele>
<time>2013-03-03T13:39:13.000Z</time>
</trkpt>
<trkpt lat="51.232285" lon="6.484539">
<ele>24</ele>
<time>2013-03-03T13:39:15.000Z</time>
</trkpt>
<trkpt lat="51.232239" lon="6.484482">
<ele>21.8</ele>
<time>2013-03-03T13:39:17.000Z</time>
</trkpt>
<trkpt lat="51.232197" lon="6.484422">
<ele>22.2</ele>
<time>2013-03-03T13:39:19.000Z</time>
</trkpt>
<trkpt lat="51.232167" lon="6.484355">
<ele>25.1</ele>
<time>2013-03-03T13:39:21.000Z</time>
</trkpt>
<trkpt lat="51.232147" lon="6.484286">
<ele>24.4</ele>
<time>2013-03-03T13:39:23.000Z</time>
</trkpt>
<trkpt lat="51.232107" lon="6.484235">
<ele>25.2</ele>
<time>2013-03-03T13:39:25.000Z</time>
</trkpt>
<trkpt lat="51.232056" lon="6.484188">
<ele>25.5</ele>
<time>2013-03-03T13:39:28.000Z</time>
</trkpt>
<trkpt lat="51.232025" lon="6.484129">
<ele>27.2</ele>
<time>2013-03-03T13:39:35.000Z</time>
</trkpt>
<trkpt lat="51.232027" lon="6.484052">
<ele>26.3</ele>
<time>2013-03-03T13:39:40.000Z</time>
</trkpt>
<trkpt lat="51.231986" lon="6.484008">
<ele>31.5</ele>
<time>2013-03-03T13:40:12.000Z</time>
</trkpt>
<trkpt lat="51.231958" lon="6.484075">
<ele>30.6</ele>
<time>2013-03-03T13:40:15.000Z</time>
</trkpt>
<trkpt lat="51.231978" lon="6.48416">
<ele>32.4</ele>
<time>2013-03-03T13:40:18.000Z</time>
</trkpt>
<trkpt lat="51.232019" lon="6.484208">
<ele>33.1</ele>
<time>2013-03-03T13:40:20.000Z</time>
</trkpt>
<trkpt lat="51.232066" lon="6.484255">
<ele>35.4</ele>
<time>2013-03-03T13:40:22.000Z</time>
</trkpt>
<trkpt lat="51.232121" lon="6.484307">
<ele>36.6</ele>
<time>2013-03-03T13:40:24.000Z</time>
</trkpt>
<trkpt lat="51.232173" lon="6.484351">
<ele>37.7</ele>
<time>2013-03-03T13:40:26.000Z</time>
</trkpt>
<trkpt lat="51.232215" lon="6.48439">
<ele>37.2</ele>
<time>2013-03-03T13:40:28.000Z</time>
</trkpt>
<trkpt lat="51.232259" lon="6.484441">
<ele>34.4</ele>
<time>2013-03-03T13:40:31.000Z</time>
</trkpt>
<trkpt lat="51.232305" lon="6.484488">
<ele>35.6</ele>
<time>2013-03-03T13:40:34.000Z</time>
</trkpt>
<trkpt lat="51.232348" lon="6.484529">
<ele>34.8</ele>
<time>2013-03-03T13:40:36.000Z</time>
</trkpt>
<trkpt lat="51.232397" lon="6.484576">
<ele>35.6</ele>
<time>2013-03-03T13:40:38.000Z</time>
</trkpt>
<trkpt lat="51.23244" lon="6.484631">
<ele>34.7</ele>
<time>2013-03-03T13:40:40.000Z</time>
</trkpt>
<trkpt lat="51.232472" lon="6.484691">
<ele>33.8</ele>
<time>2013-03-03T13:40:42.000Z</time>
</trkpt>
<trkpt lat="51.23246" lon="6.484795">
<ele>31.4</ele>
<time>2013-03-03T13:40:45.000Z</time>
</trkpt>
<trkpt lat="51.23243" lon="6.484888">
<ele>31.7</ele>
<time>2013-03-03T13:40:47.000Z</time>
</trkpt>
<trkpt lat="51.2324" lon="6.48498">
<ele>31.6</ele>
<time>2013-03-03T13:40:49.000Z</time>
</trkpt>
<trkpt lat="51.23236" lon="6.485055">
<ele>30</ele>
<time>2013-03-03T13:40:51.000Z</time>
</trkpt>
<trkpt lat="51.232322" lon="6.485134">
<ele>32.3</ele>
<time>2013-03-03T13:40:53.000Z</time>
</trkpt>
<trkpt lat="51.232292" lon="6.485204">
<ele>29.4</ele>
<time>2013-03-03T13:40:55.000Z</time>
</trkpt>
<trkpt lat="51.232253" lon="6.485258">
<ele>27.8</ele>
<time>2013-03-03T13:40:57.000Z</time>
</trkpt>
<trkpt lat="51.232211" lon="6.4853">
<ele>26.2</ele>
<time>2013-03-03T13:40:59.000Z</time>
</trkpt>
<trkpt lat="51.23217" lon="6.485353">
<ele>26.5</ele>
<time>2013-03-03T13:41:01.000Z</time>
</trkpt>
<trkpt lat="51.232122" lon="6.485437">
<ele>26.5</ele>
<time>2013-03-03T13:41:03.000Z</time>
</trkpt>
<trkpt lat="51.232067" lon="6.485546">
<ele>27.8</ele>
<time>2013-03-03T13:41:05.000Z</time>
</trkpt>
<trkpt lat="51.232017" lon="6.485663">
<ele>27.7</ele>
<time>2013-03-03T13:41:07.000Z</time>
</trkpt>
<trkpt lat="51.231977" lon="6.485767">
<ele>28.5</ele>
<time>2013-03-03T13:41:09.000Z</time>
</trkpt>
<trkpt lat="51.231941" lon="6.485852">
<ele>30</ele>
<time>2013-03-03T13:41:11.000Z</time>
</trkpt>
<trkpt lat="51.231901" lon="6.48595">
<ele>34</ele>
<time>2013-03-03T13:41:13.000Z</time>
</trkpt>
<trkpt lat="51.231854" lon="6.486056">
<ele>31.3</ele>
<time>2013-03-03T13:41:15.000Z</time>
</trkpt>
<trkpt lat="51.231806" lon="6.486137">
<ele>28.5</ele>
<time>2013-03-03T13:41:17.000Z</time>
</trkpt>
<trkpt lat="51.231773" lon="6.486196">
<ele>30.5</ele>
<time>2013-03-03T13:41:19.000Z</time>
</trkpt>
<trkpt lat="51.231734" lon="6.486299">
<ele>32.2</ele>
<time>2013-03-03T13:41:22.000Z</time>
</trkpt>
<trkpt lat="51.231695" lon="6.486382">
<ele>30</ele>
<time>2013-03-03T13:41:24.000Z</time>
</trkpt>
<trkpt lat="51.231652" lon="6.486448">
<ele>29</ele>
<time>2013-03-03T13:41:26.000Z</time>
</trkpt>
<trkpt lat="51.231613" lon="6.486519">
<ele>29.5</ele>
<time>2013-03-03T13:41:28.000Z</time>
</trkpt>
<trkpt lat="51.231584" lon="6.486613">
<ele>33.6</ele>
<time>2013-03-03T13:41:30.000Z</time>
</trkpt>
<trkpt lat="51.231561" lon="6.48671">
<ele>33.9</ele>
<time>2013-03-03T13:41:32.000Z</time>
</trkpt>
<trkpt lat="51.231517" lon="6.486823">
<ele>34.1</ele>
<time>2013-03-03T13:41:34.000Z</time>
</trkpt>
<trkpt lat="51.231484" lon="6.486882">
<ele>32.2</ele>
<time>2013-03-03T13:41:35.000Z</time>
</trkpt>
<trkpt lat="51.231442" lon="6.486989">
<ele>35</ele>
<time>2013-03-03T13:41:37.000Z</time>
</trkpt>
<trkpt lat="51.231412" lon="6.487081">
<ele>33.8</ele>
<time>2013-03-03T13:41:39.000Z</time>
</trkpt>
<trkpt lat="51.231363" lon="6.487177">
<ele>32</ele>
<time>2013-03-03T13:41:41.000Z</time>
</trkpt>
<trkpt lat="51.231333" lon="6.487232">
<ele>31.2</ele>
<time>2013-03-03T13:41:42.000Z</time>
</trkpt>
<trkpt lat="51.231302" lon="6.487288">
<ele>31.7</ele>
<time>2013-03-03T13:41:43.000Z</time>
</trkpt>
<trkpt lat="51.231264" lon="6.487346">
<ele>31.5</ele>
<time>2013-03-03T13:41:44.000Z</time>
</trkpt>
<trkpt lat="51.231227" lon="6.487404">
<ele>30.4</ele>
<time>2013-03-03T13:41:45.000Z</time>
</trkpt>
<trkpt lat="51.231173" lon="6.487504">
<ele>25.7</ele>
<time>2013-03-03T13:41:47.000Z</time>
</trkpt>
<trkpt lat="51.231125" lon="6.4876">
<ele>24.9</ele>
<time>2013-03-03T13:41:49.000Z</time>
</trkpt>
<trkpt lat="51.231071" lon="6.487724">
<ele>25</ele>
<time>2013-03-03T13:41:51.000Z</time>
</trkpt>
<trkpt lat="51.23098" lon="6.487865">
<ele>26.4</ele>
<time>2013-03-03T13:41:52.000Z</time>
</trkpt>
<trkpt lat="51.230943" lon="6.48793">
<ele>27.8</ele>
<time>2013-03-03T13:41:54.000Z</time>
</trkpt>
<trkpt lat="51.23094" lon="6.488015">
<ele>31.1</ele>
<time>2013-03-03T13:41:55.000Z</time>
</trkpt>
<trkpt lat="51.230895" lon="6.488069">
<ele>30.6</ele>
<time>2013-03-03T13:41:56.000Z</time>
</trkpt>
<trkpt lat="51.230861" lon="6.488197">
<ele>31.7</ele>
<time>2013-03-03T13:41:58.000Z</time>
</trkpt>
<trkpt lat="51.230818" lon="6.488232">
<ele>29</ele>
<time>2013-03-03T13:42:00.000Z</time>
</trkpt>
<trkpt lat="51.230783" lon="6.488317">
<ele>28.1</ele>
<time>2013-03-03T13:42:02.000Z</time>
</trkpt>
<trkpt lat="51.230745" lon="6.488372">
<ele>28.5</ele>
<time>2013-03-03T13:42:04.000Z</time>
</trkpt>
<trkpt lat="51.230722" lon="6.488441">
<ele>28.7</ele>
<time>2013-03-03T13:42:06.000Z</time>
</trkpt>
<trkpt lat="51.230766" lon="6.488492">
<ele>25.7</ele>
<time>2013-03-03T13:42:09.000Z</time>
</trkpt>
<trkpt lat="51.230823" lon="6.488475">
<ele>24.1</ele>
<time>2013-03-03T13:42:11.000Z</time>
</trkpt>
<trkpt lat="51.230882" lon="6.488449">
<ele>24.5</ele>
<time>2013-03-03T13:42:13.000Z</time>
</trkpt>
<trkpt lat="51.230941" lon="6.488446">
<ele>23.1</ele>
<time>2013-03-03T13:42:15.000Z</time>
</trkpt>
<trkpt lat="51.231" lon="6.488437">
<ele>21.5</ele>
<time>2013-03-03T13:42:17.000Z</time>
</trkpt>
<trkpt lat="51.23106" lon="6.488422">
<ele>18.8</ele>
<time>2013-03-03T13:42:19.000Z</time>
</trkpt>
<trkpt lat="51.231119" lon="6.488402">
<ele>17.5</ele>
<time>2013-03-03T13:42:21.000Z</time>
</trkpt>
<trkpt lat="51.231171" lon="6.488383">
<ele>17.8</ele>
<time>2013-03-03T13:42:23.000Z</time>
</trkpt>
<trkpt lat="51.231222" lon="6.488351">
<ele>18.2</ele>
<time>2013-03-03T13:42:25.000Z</time>
</trkpt>
<trkpt lat="51.231273" lon="6.488307">
<ele>18.4</ele>
<time>2013-03-03T13:42:27.000Z</time>
</trkpt>
<trkpt lat="51.231327" lon="6.488248">
<ele>20.2</ele>
<time>2013-03-03T13:42:29.000Z</time>
</trkpt>
<trkpt lat="51.231387" lon="6.488187">
<ele>23</ele>
<time>2013-03-03T13:42:31.000Z</time>
</trkpt>
<trkpt lat="51.231454" lon="6.488135">
<ele>23.5</ele>
<time>2013-03-03T13:42:33.000Z</time>
</trkpt>
<trkpt lat="51.231526" lon="6.488099">
<ele>23.3</ele>
<time>2013-03-03T13:42:35.000Z</time>
</trkpt>
<trkpt lat="51.231608" lon="6.488063">
<ele>25.2</ele>
<time>2013-03-03T13:42:37.000Z</time>
</trkpt>
<trkpt lat="51.231652" lon="6.488049">
<ele>24.5</ele>
<time>2013-03-03T13:42:38.000Z</time>
</trkpt>
<trkpt lat="51.231732" lon="6.487976">
<ele>29.1</ele>
<time>2013-03-03T13:42:40.000Z</time>
</trkpt>
<trkpt lat="51.231805" lon="6.487916">
<ele>30.3</ele>
<time>2013-03-03T13:42:42.000Z</time>
</trkpt>
<trkpt lat="51.231854" lon="6.487916">
<ele>27.4</ele>
<time>2013-03-03T13:42:43.000Z</time>
</trkpt>
<trkpt lat="51.231932" lon="6.487874">
<ele>26.5</ele>
<time>2013-03-03T13:42:45.000Z</time>
</trkpt>
<trkpt lat="51.232009" lon="6.487841">
<ele>24.3</ele>
<time>2013-03-03T13:42:47.000Z</time>
</trkpt>
<trkpt lat="51.232048" lon="6.487796">
<ele>24.7</ele>
<time>2013-03-03T13:42:48.000Z</time>
</trkpt>
<trkpt lat="51.232096" lon="6.487757">
<ele>23.9</ele>
<time>2013-03-03T13:42:49.000Z</time>
</trkpt>
<trkpt lat="51.232145" lon="6.487744">
<ele>23.5</ele>
<time>2013-03-03T13:42:50.000Z</time>
</trkpt>
<trkpt lat="51.232203" lon="6.487735">
<ele>22.8</ele>
<time>2013-03-03T13:42:51.000Z</time>
</trkpt>
<trkpt lat="51.232284" lon="6.487693">
<ele>21.4</ele>
<time>2013-03-03T13:42:53.000Z</time>
</trkpt>
<trkpt lat="51.232375" lon="6.487622">
<ele>21.4</ele>
<time>2013-03-03T13:42:55.000Z</time>
</trkpt>
<trkpt lat="51.232434" lon="6.487577">
<ele>23.2</ele>
<time>2013-03-03T13:42:56.000Z</time>
</trkpt>
<trkpt lat="51.232479" lon="6.487595">
<ele>22.8</ele>
<time>2013-03-03T13:42:57.000Z</time>
</trkpt>
<trkpt lat="51.232501" lon="6.487521">
<ele>25.5</ele>
<time>2013-03-03T13:42:59.000Z</time>
</trkpt>
<trkpt lat="51.232581" lon="6.487492">
<ele>27.5</ele>
<time>2013-03-03T13:43:01.000Z</time>
</trkpt>
<trkpt lat="51.232642" lon="6.487407">
<ele>33.4</ele>
<time>2013-03-03T13:43:03.000Z</time>
</trkpt>
<trkpt lat="51.232714" lon="6.48732">
<ele>33.2</ele>
<time>2013-03-03T13:43:05.000Z</time>
</trkpt>
<trkpt lat="51.232763" lon="6.487266">
<ele>34.3</ele>
<time>2013-03-03T13:43:06.000Z</time>
</trkpt>
<trkpt lat="51.232836" lon="6.487209">
<ele>34.9</ele>
<time>2013-03-03T13:43:08.000Z</time>
</trkpt>
<trkpt lat="51.23291" lon="6.48719">
<ele>36.3</ele>
<time>2013-03-03T13:43:09.000Z</time>
</trkpt>
<trkpt lat="51.232957" lon="6.487158">
<ele>36.9</ele>
<time>2013-03-03T13:43:10.000Z</time>
</trkpt>
<trkpt lat="51.233034" lon="6.487179">
<ele>34.6</ele>
<time>2013-03-03T13:43:11.000Z</time>
</trkpt>
<trkpt lat="51.233087" lon="6.487164">
<ele>34.6</ele>
<time>2013-03-03T13:43:12.000Z</time>
</trkpt>
<trkpt lat="51.233154" lon="6.487163">
<ele>34.8</ele>
<time>2013-03-03T13:43:13.000Z</time>
</trkpt>
<trkpt lat="51.233241" lon="6.487104">
<ele>38.1</ele>
<time>2013-03-03T13:43:15.000Z</time>
</trkpt>
<trkpt lat="51.233319" lon="6.487057">
<ele>38.5</ele>
<time>2013-03-03T13:43:17.000Z</time>
</trkpt>
<trkpt lat="51.233366" lon="6.487045">
<ele>38.9</ele>
<time>2013-03-03T13:43:18.000Z</time>
</trkpt>
<trkpt lat="51.233404" lon="6.486998">
<ele>39.1</ele>
<time>2013-03-03T13:43:19.000Z</time>
</trkpt>
<trkpt lat="51.233461" lon="6.486981">
<ele>40</ele>
<time>2013-03-03T13:43:20.000Z</time>
</trkpt>
<trkpt lat="51.233522" lon="6.486951">
<ele>39.3</ele>
<time>2013-03-03T13:43:21.000Z</time>
</trkpt>
<trkpt lat="51.233574" lon="6.486924">
<ele>38.3</ele>
<time>2013-03-03T13:43:22.000Z</time>
</trkpt>
<trkpt lat="51.23363" lon="6.486889">
<ele>37.7</ele>
<time>2013-03-03T13:43:23.000Z</time>
</trkpt>
<trkpt lat="51.233726" lon="6.486854">
<ele>36.1</ele>
<time>2013-03-03T13:43:25.000Z</time>
</trkpt>
<trkpt lat="51.2338" lon="6.48688">
<ele>35.6</ele>
<time>2013-03-03T13:43:26.000Z</time>
</trkpt>
<trkpt lat="51.233849" lon="6.486869">
<ele>34.8</ele>
<time>2013-03-03T13:43:27.000Z</time>
</trkpt>
<trkpt lat="51.233916" lon="6.486815">
<ele>35.5</ele>
<time>2013-03-03T13:43:29.000Z</time>
</trkpt>
<trkpt lat="51.233981" lon="6.486757">
<ele>36.1</ele>
<time>2013-03-03T13:43:30.000Z</time>
</trkpt>
<trkpt lat="51.234059" lon="6.486759">
<ele>33.7</ele>
<time>2013-03-03T13:43:32.000Z</time>
</trkpt>
<trkpt lat="51.234173" lon="6.48669">
<ele>32.5</ele>
<time>2013-03-03T13:43:34.000Z</time>
</trkpt>
<trkpt lat="51.23423" lon="6.486622">
<ele>32.2</ele>
<time>2013-03-03T13:43:35.000Z</time>
</trkpt>
<trkpt lat="51.234279" lon="6.486627">
<ele>30.7</ele>
<time>2013-03-03T13:43:36.000Z</time>
</trkpt>
<trkpt lat="51.234345" lon="6.486658">
<ele>28.9</ele>
<time>2013-03-03T13:43:37.000Z</time>
</trkpt>
<trkpt lat="51.234404" lon="6.486605">
<ele>30.4</ele>
<time>2013-03-03T13:43:39.000Z</time>
</trkpt>
<trkpt lat="51.234484" lon="6.486539">
<ele>28.8</ele>
<time>2013-03-03T13:43:41.000Z</time>
</trkpt>
<trkpt lat="51.234544" lon="6.486473">
<ele>29.8</ele>
<time>2013-03-03T13:43:42.000Z</time>
</trkpt>
<trkpt lat="51.234589" lon="6.486443">
<ele>29.7</ele>
<time>2013-03-03T13:43:43.000Z</time>
</trkpt>
<trkpt lat="51.234648" lon="6.486398">
<ele>28.9</ele>
<time>2013-03-03T13:43:44.000Z</time>
</trkpt>
<trkpt lat="51.234689" lon="6.486356">
<ele>28.2</ele>
<time>2013-03-03T13:43:45.000Z</time>
</trkpt>
<trkpt lat="51.234731" lon="6.486333">
<ele>29</ele>
<time>2013-03-03T13:43:46.000Z</time>
</trkpt>
<trkpt lat="51.23485" lon="6.486297">
<ele>29.2</ele>
<time>2013-03-03T13:43:48.000Z</time>
</trkpt>
<trkpt lat="51.234914" lon="6.48626">
<ele>28.3</ele>
<time>2013-03-03T13:43:49.000Z</time>
</trkpt>
<trkpt lat="51.234958" lon="6.486243">
<ele>29.6</ele>
<time>2013-03-03T13:43:50.000Z</time>
</trkpt>
<trkpt lat="51.235031" lon="6.486192">
<ele>28.2</ele>
<time>2013-03-03T13:43:52.000Z</time>
</trkpt>
<trkpt lat="51.235082" lon="6.48618">
<ele>28.7</ele>
<time>2013-03-03T13:43:53.000Z</time>
</trkpt>
<trkpt lat="51.235128" lon="6.486157">
<ele>28.3</ele>
<time>2013-03-03T13:43:54.000Z</time>
</trkpt>
<trkpt lat="51.235179" lon="6.486114">
<ele>29</ele>
<time>2013-03-03T13:43:55.000Z</time>
</trkpt>
<trkpt lat="51.235254" lon="6.486037">
<ele>30.1</ele>
<time>2013-03-03T13:43:57.000Z</time>
</trkpt>
<trkpt lat="51.235358" lon="6.486036">
<ele>25.6</ele>
<time>2013-03-03T13:43:59.000Z</time>
</trkpt>
<trkpt lat="51.235441" lon="6.485996">
<ele>23.4</ele>
<time>2013-03-03T13:44:01.000Z</time>
</trkpt>
<trkpt lat="51.235485" lon="6.48597">
<ele>23.8</ele>
<time>2013-03-03T13:44:02.000Z</time>
</trkpt>
<trkpt lat="51.235527" lon="6.485943">
<ele>24</ele>
<time>2013-03-03T13:44:03.000Z</time>
</trkpt>
<trkpt lat="51.235576" lon="6.485919">
<ele>23.5</ele>
<time>2013-03-03T13:44:04.000Z</time>
</trkpt>
<trkpt lat="51.235622" lon="6.48591">
<ele>22.8</ele>
<time>2013-03-03T13:44:05.000Z</time>
</trkpt>
<trkpt lat="51.235699" lon="6.485846">
<ele>27.5</ele>
<time>2013-03-03T13:44:07.000Z</time>
</trkpt>
<trkpt lat="51.235747" lon="6.485805">
<ele>28.4</ele>
<time>2013-03-03T13:44:08.000Z</time>
</trkpt>
<trkpt lat="51.235803" lon="6.485807">
<ele>27.6</ele>
<time>2013-03-03T13:44:09.000Z</time>
</trkpt>
<trkpt lat="51.235848" lon="6.48579">
<ele>26.7</ele>
<time>2013-03-03T13:44:10.000Z</time>
</trkpt>
<trkpt lat="51.235893" lon="6.485769">
<ele>26.9</ele>
<time>2013-03-03T13:44:11.000Z</time>
</trkpt>
<trkpt lat="51.235948" lon="6.485757">
<ele>29.1</ele>
<time>2013-03-03T13:44:12.000Z</time>
</trkpt>
<trkpt lat="51.236019" lon="6.485692">
<ele>29.3</ele>
<time>2013-03-03T13:44:14.000Z</time>
</trkpt>
<trkpt lat="51.236091" lon="6.485635">
<ele>29.9</ele>
<time>2013-03-03T13:44:16.000Z</time>
</trkpt>
<trkpt lat="51.236161" lon="6.485586">
<ele>28.9</ele>
<time>2013-03-03T13:44:18.000Z</time>
</trkpt>
<trkpt lat="51.236237" lon="6.485573">
<ele>27.1</ele>
<time>2013-03-03T13:44:20.000Z</time>
</trkpt>
<trkpt lat="51.236283" lon="6.485585">
<ele>25.4</ele>
<time>2013-03-03T13:44:21.000Z</time>
</trkpt>
<trkpt lat="51.236327" lon="6.485562">
<ele>25.4</ele>
<time>2013-03-03T13:44:22.000Z</time>
</trkpt>
<trkpt lat="51.236407" lon="6.485523">
<ele>25.7</ele>
<time>2013-03-03T13:44:24.000Z</time>
</trkpt>
<trkpt lat="51.236447" lon="6.485489">
<ele>26.3</ele>
<time>2013-03-03T13:44:25.000Z</time>
</trkpt>
<trkpt lat="51.236499" lon="6.48547">
<ele>24.9</ele>
<time>2013-03-03T13:44:26.000Z</time>
</trkpt>
<trkpt lat="51.236551" lon="6.485464">
<ele>23.4</ele>
<time>2013-03-03T13:44:27.000Z</time>
</trkpt>
<trkpt lat="51.236622" lon="6.485422">
<ele>20.9</ele>
<time>2013-03-03T13:44:29.000Z</time>
</trkpt>
<trkpt lat="51.236708" lon="6.485378">
<ele>20.7</ele>
<time>2013-03-03T13:44:31.000Z</time>
</trkpt>
<trkpt lat="51.2368" lon="6.485338">
<ele>21.1</ele>
<time>2013-03-03T13:44:33.000Z</time>
</trkpt>
<trkpt lat="51.236886" lon="6.485295">
<ele>20.1</ele>
<time>2013-03-03T13:44:35.000Z</time>
</trkpt>
<trkpt lat="51.236991" lon="6.485258">
<ele>18.3</ele>
<time>2013-03-03T13:44:37.000Z</time>
</trkpt>
<trkpt lat="51.237038" lon="6.48524">
<ele>17.5</ele>
<time>2013-03-03T13:44:38.000Z</time>
</trkpt>
<trkpt lat="51.237081" lon="6.485214">
<ele>16.7</ele>
<time>2013-03-03T13:44:39.000Z</time>
</trkpt>
<trkpt lat="51.23712" lon="6.485181">
<ele>16.7</ele>
<time>2013-03-03T13:44:40.000Z</time>
</trkpt>
<trkpt lat="51.237165" lon="6.485163">
<ele>15.8</ele>
<time>2013-03-03T13:44:41.000Z</time>
</trkpt>
<trkpt lat="51.237213" lon="6.485158">
<ele>15.2</ele>
<time>2013-03-03T13:44:42.000Z</time>
</trkpt>
<trkpt lat="51.237318" lon="6.48513">
<ele>18.5</ele>
<time>2013-03-03T13:44:44.000Z</time>
</trkpt>
<trkpt lat="51.237391" lon="6.4851">
<ele>19</ele>
<time>2013-03-03T13:44:46.000Z</time>
</trkpt>
<trkpt lat="51.237455" lon="6.485">
<ele>21.6</ele>
<time>2013-03-03T13:44:48.000Z</time>
</trkpt>
<trkpt lat="51.237545" lon="6.485009">
<ele>20.4</ele>
<time>2013-03-03T13:44:50.000Z</time>
</trkpt>
<trkpt lat="51.237614" lon="6.485029">
<ele>17.9</ele>
<time>2013-03-03T13:44:51.000Z</time>
</trkpt>
<trkpt lat="51.237679" lon="6.484945">
<ele>20.9</ele>
<time>2013-03-03T13:44:53.000Z</time>
</trkpt>
<trkpt lat="51.237714" lon="6.484897">
<ele>21.9</ele>
<time>2013-03-03T13:44:54.000Z</time>
</trkpt>
<trkpt lat="51.237795" lon="6.484829">
<ele>25.1</ele>
<time>2013-03-03T13:44:56.000Z</time>
</trkpt>
<trkpt lat="51.23784" lon="6.484808">
<ele>25.3</ele>
<time>2013-03-03T13:44:57.000Z</time>
</trkpt>
<trkpt lat="51.237887" lon="6.484799">
<ele>24.8</ele>
<time>2013-03-03T13:44:58.000Z</time>
</trkpt>
<trkpt lat="51.237965" lon="6.484773">
<ele>27.4</ele>
<time>2013-03-03T13:44:59.000Z</time>
</trkpt>
<trkpt lat="51.238013" lon="6.484738">
<ele>27.8</ele>
<time>2013-03-03T13:45:00.000Z</time>
</trkpt>
<trkpt lat="51.238062" lon="6.48472">
<ele>26.7</ele>
<time>2013-03-03T13:45:01.000Z</time>
</trkpt>
<trkpt lat="51.238115" lon="6.484694">
<ele>26.2</ele>
<time>2013-03-03T13:45:02.000Z</time>
</trkpt>
<trkpt lat="51.238167" lon="6.484685">
<ele>24.2</ele>
<time>2013-03-03T13:45:03.000Z</time>
</trkpt>
<trkpt lat="51.238211" lon="6.484666">
<ele>23.5</ele>
<time>2013-03-03T13:45:04.000Z</time>
</trkpt>
<trkpt lat="51.238256" lon="6.484636">
<ele>23.8</ele>
<time>2013-03-03T13:45:05.000Z</time>
</trkpt>
<trkpt lat="51.238301" lon="6.484591">
<ele>25.5</ele>
<time>2013-03-03T13:45:06.000Z</time>
</trkpt>
<trkpt lat="51.238358" lon="6.484605">
<ele>21.8</ele>
<time>2013-03-03T13:45:07.000Z</time>
</trkpt>
<trkpt lat="51.238394" lon="6.484562">
<ele>22.9</ele>
<time>2013-03-03T13:45:08.000Z</time>
</trkpt>
<trkpt lat="51.238484" lon="6.484528">
<ele>24.2</ele>
<time>2013-03-03T13:45:10.000Z</time>
</trkpt>
<trkpt lat="51.238528" lon="6.484499">
<ele>24.7</ele>
<time>2013-03-03T13:45:11.000Z</time>
</trkpt>
<trkpt lat="51.238609" lon="6.484451">
<ele>26.7</ele>
<time>2013-03-03T13:45:13.000Z</time>
</trkpt>
<trkpt lat="51.23868" lon="6.484416">
<ele>26.1</ele>
<time>2013-03-03T13:45:15.000Z</time>
</trkpt>
<trkpt lat="51.238744" lon="6.484409">
<ele>26.1</ele>
<time>2013-03-03T13:45:17.000Z</time>
</trkpt>
<trkpt lat="51.238696" lon="6.484446">
<ele>28.9</ele>
<time>2013-03-03T13:45:28.000Z</time>
</trkpt>
<trkpt lat="51.238683" lon="6.484516">
<ele>28</ele>
<time>2013-03-03T13:45:31.000Z</time>
</trkpt>
<trkpt lat="51.238718" lon="6.484586">
<ele>28.6</ele>
<time>2013-03-03T13:45:33.000Z</time>
</trkpt>
<trkpt lat="51.238769" lon="6.484653">
<ele>30.1</ele>
<time>2013-03-03T13:45:35.000Z</time>
</trkpt>
<trkpt lat="51.238808" lon="6.484719">
<ele>29.3</ele>
<time>2013-03-03T13:45:37.000Z</time>
</trkpt>
<trkpt lat="51.238838" lon="6.484807">
<ele>29.4</ele>
<time>2013-03-03T13:45:40.000Z</time>
</trkpt>
<trkpt lat="51.238863" lon="6.484887">
<ele>30.1</ele>
<time>2013-03-03T13:45:42.000Z</time>
</trkpt>
<trkpt lat="51.238905" lon="6.484977">
<ele>30.8</ele>
<time>2013-03-03T13:45:44.000Z</time>
</trkpt>
<trkpt lat="51.238949" lon="6.485071">
<ele>32.6</ele>
<time>2013-03-03T13:45:46.000Z</time>
</trkpt>
<trkpt lat="51.238992" lon="6.485176">
<ele>33.1</ele>
<time>2013-03-03T13:45:48.000Z</time>
</trkpt>
<trkpt lat="51.23903" lon="6.485283">
<ele>31.5</ele>
<time>2013-03-03T13:45:50.000Z</time>
</trkpt>
<trkpt lat="51.239058" lon="6.485395">
<ele>32.9</ele>
<time>2013-03-03T13:45:52.000Z</time>
</trkpt>
<trkpt lat="51.239077" lon="6.48551">
<ele>33.3</ele>
<time>2013-03-03T13:45:54.000Z</time>
</trkpt>
<trkpt lat="51.239102" lon="6.485623">
<ele>31</ele>
<time>2013-03-03T13:45:56.000Z</time>
</trkpt>
<trkpt lat="51.239141" lon="6.485736">
<ele>29.5</ele>
<time>2013-03-03T13:45:58.000Z</time>
</trkpt>
<trkpt lat="51.239185" lon="6.485851">
<ele>29.6</ele>
<time>2013-03-03T13:46:00.000Z</time>
</trkpt>
<trkpt lat="51.239228" lon="6.485964">
<ele>29.7</ele>
<time>2013-03-03T13:46:02.000Z</time>
</trkpt>
<trkpt lat="51.239271" lon="6.486077">
<ele>30.1</ele>
<time>2013-03-03T13:46:04.000Z</time>
</trkpt>
<trkpt lat="51.239318" lon="6.486194">
<ele>31</ele>
<time>2013-03-03T13:46:06.000Z</time>
</trkpt>
<trkpt lat="51.239343" lon="6.486254">
<ele>31.3</ele>
<time>2013-03-03T13:46:07.000Z</time>
</trkpt>
<trkpt lat="51.239373" lon="6.486365">
<ele>31.7</ele>
<time>2013-03-03T13:46:09.000Z</time>
</trkpt>
<trkpt lat="51.239402" lon="6.486445">
<ele>29.8</ele>
<time>2013-03-03T13:46:12.000Z</time>
</trkpt>
<trkpt lat="51.239384" lon="6.486633">
<ele>33.2</ele>
<time>2013-03-03T13:46:13.000Z</time>
</trkpt>
<trkpt lat="51.239437" lon="6.486697">
<ele>31</ele>
<time>2013-03-03T13:46:14.000Z</time>
</trkpt>
<trkpt lat="51.239451" lon="6.486771">
<ele>32.1</ele>
<time>2013-03-03T13:46:15.000Z</time>
</trkpt>
<trkpt lat="51.239475" lon="6.486836">
<ele>32.4</ele>
<time>2013-03-03T13:46:16.000Z</time>
</trkpt>
<trkpt lat="51.239505" lon="6.486922">
<ele>33.6</ele>
<time>2013-03-03T13:46:17.000Z</time>
</trkpt>
<trkpt lat="51.239537" lon="6.486981">
<ele>33.1</ele>
<time>2013-03-03T13:46:18.000Z</time>
</trkpt>
<trkpt lat="51.239576" lon="6.487101">
<ele>30.4</ele>
<time>2013-03-03T13:46:20.000Z</time>
</trkpt>
<trkpt lat="51.239611" lon="6.487174">
<ele>30.7</ele>
<time>2013-03-03T13:46:21.000Z</time>
</trkpt>
<trkpt lat="51.23965" lon="6.487278">
<ele>31.1</ele>
<time>2013-03-03T13:46:23.000Z</time>
</trkpt>
<trkpt lat="51.239703" lon="6.487401">
<ele>28.6</ele>
<time>2013-03-03T13:46:25.000Z</time>
</trkpt>
<trkpt lat="51.239725" lon="6.487473">
<ele>29.2</ele>
<time>2013-03-03T13:46:26.000Z</time>
</trkpt>
<trkpt lat="51.239747" lon="6.487546">
<ele>29.1</ele>
<time>2013-03-03T13:46:27.000Z</time>
</trkpt>
<trkpt lat="51.239776" lon="6.487654">
<ele>30.8</ele>
<time>2013-03-03T13:46:29.000Z</time>
</trkpt>
<trkpt lat="51.239813" lon="6.487797">
<ele>31.5</ele>
<time>2013-03-03T13:46:31.000Z</time>
</trkpt>
<trkpt lat="51.239846" lon="6.487913">
<ele>30.3</ele>
<time>2013-03-03T13:46:33.000Z</time>
</trkpt>
<trkpt lat="51.239897" lon="6.488057">
<ele>32.4</ele>
<time>2013-03-03T13:46:35.000Z</time>
</trkpt>
<trkpt lat="51.239947" lon="6.488174">
<ele>32.4</ele>
<time>2013-03-03T13:46:37.000Z</time>
</trkpt>
<trkpt lat="51.239987" lon="6.488305">
<ele>33.1</ele>
<time>2013-03-03T13:46:39.000Z</time>
</trkpt>
<trkpt lat="51.240019" lon="6.488366">
<ele>33.3</ele>
<time>2013-03-03T13:46:40.000Z</time>
</trkpt>
<trkpt lat="51.240048" lon="6.488462">
<ele>33.2</ele>
<time>2013-03-03T13:46:42.000Z</time>
</trkpt>
<trkpt lat="51.240054" lon="6.488539">
<ele>32</ele>
<time>2013-03-03T13:46:43.000Z</time>
</trkpt>
<trkpt lat="51.240073" lon="6.488609">
<ele>32.1</ele>
<time>2013-03-03T13:46:44.000Z</time>
</trkpt>
<trkpt lat="51.240084" lon="6.48868">
<ele>30.2</ele>
<time>2013-03-03T13:46:45.000Z</time>
</trkpt>
<trkpt lat="51.240132" lon="6.488806">
<ele>30.4</ele>
<time>2013-03-03T13:46:47.000Z</time>
</trkpt>
<trkpt lat="51.240158" lon="6.488877">
<ele>30.7</ele>
<time>2013-03-03T13:46:48.000Z</time>
</trkpt>
<trkpt lat="51.240183" lon="6.488944">
<ele>31.7</ele>
<time>2013-03-03T13:46:49.000Z</time>
</trkpt>
<trkpt lat="51.24022" lon="6.48905">
<ele>30.9</ele>
<time>2013-03-03T13:46:51.000Z</time>
</trkpt>
<trkpt lat="51.240241" lon="6.489122">
<ele>31</ele>
<time>2013-03-03T13:46:52.000Z</time>
</trkpt>
<trkpt lat="51.240256" lon="6.489199">
<ele>30.4</ele>
<time>2013-03-03T13:46:53.000Z</time>
</trkpt>
<trkpt lat="51.240281" lon="6.489276">
<ele>30.9</ele>
<time>2013-03-03T13:46:54.000Z</time>
</trkpt>
<trkpt lat="51.240305" lon="6.489338">
<ele>31.5</ele>
<time>2013-03-03T13:46:55.000Z</time>
</trkpt>
<trkpt lat="51.240328" lon="6.489407">
<ele>31.6</ele>
<time>2013-03-03T13:46:56.000Z</time>
</trkpt>
<trkpt lat="51.240344" lon="6.489483">
<ele>32.2</ele>
<time>2013-03-03T13:46:57.000Z</time>
</trkpt>
<trkpt lat="51.240368" lon="6.489548">
<ele>31.8</ele>
<time>2013-03-03T13:46:58.000Z</time>
</trkpt>
<trkpt lat="51.240397" lon="6.489625">
<ele>33</ele>
<time>2013-03-03T13:46:59.000Z</time>
</trkpt>
<trkpt lat="51.240427" lon="6.48974">
<ele>33.2</ele>
<time>2013-03-03T13:47:01.000Z</time>
</trkpt>
<trkpt lat="51.240447" lon="6.489808">
<ele>32.9</ele>
<time>2013-03-03T13:47:02.000Z</time>
</trkpt>
<trkpt lat="51.24048" lon="6.489911">
<ele>32.9</ele>
<time>2013-03-03T13:47:04.000Z</time>
</trkpt>
<trkpt lat="51.240502" lon="6.489984">
<ele>32.9</ele>
<time>2013-03-03T13:47:05.000Z</time>
</trkpt>
<trkpt lat="51.240531" lon="6.490102">
<ele>33.1</ele>
<time>2013-03-03T13:47:07.000Z</time>
</trkpt>
<trkpt lat="51.240568" lon="6.490216">
<ele>33.4</ele>
<time>2013-03-03T13:47:09.000Z</time>
</trkpt>
<trkpt lat="51.240595" lon="6.490328">
<ele>32.4</ele>
<time>2013-03-03T13:47:11.000Z</time>
</trkpt>
<trkpt lat="51.240619" lon="6.490431">
<ele>32.6</ele>
<time>2013-03-03T13:47:13.000Z</time>
</trkpt>
<trkpt lat="51.240656" lon="6.490531">
<ele>33.2</ele>
<time>2013-03-03T13:47:15.000Z</time>
</trkpt>
<trkpt lat="51.240707" lon="6.490632">
<ele>33.3</ele>
<time>2013-03-03T13:47:17.000Z</time>
</trkpt>
<trkpt lat="51.240751" lon="6.490731">
<ele>34.5</ele>
<time>2013-03-03T13:47:19.000Z</time>
</trkpt>
<trkpt lat="51.240783" lon="6.490826">
<ele>35.4</ele>
<time>2013-03-03T13:47:21.000Z</time>
</trkpt>
<trkpt lat="51.240806" lon="6.49092">
<ele>35.2</ele>
<time>2013-03-03T13:47:23.000Z</time>
</trkpt>
<trkpt lat="51.240827" lon="6.491015">
<ele>35.6</ele>
<time>2013-03-03T13:47:25.000Z</time>
</trkpt>
<trkpt lat="51.24085" lon="6.491114">
<ele>36.4</ele>
<time>2013-03-03T13:47:27.000Z</time>
</trkpt>
<trkpt lat="51.240873" lon="6.49122">
<ele>35.4</ele>
<time>2013-03-03T13:47:29.000Z</time>
</trkpt>
<trkpt lat="51.240899" lon="6.491327">
<ele>35.5</ele>
<time>2013-03-03T13:47:31.000Z</time>
</trkpt>
<trkpt lat="51.240937" lon="6.491431">
<ele>34.8</ele>
<time>2013-03-03T13:47:33.000Z</time>
</trkpt>
<trkpt lat="51.240961" lon="6.491491">
<ele>33.7</ele>
<time>2013-03-03T13:47:34.000Z</time>
</trkpt>
<trkpt lat="51.240989" lon="6.491552">
<ele>33.4</ele>
<time>2013-03-03T13:47:35.000Z</time>
</trkpt>
<trkpt lat="51.241016" lon="6.491615">
<ele>33.6</ele>
<time>2013-03-03T13:47:36.000Z</time>
</trkpt>
<trkpt lat="51.241042" lon="6.491681">
<ele>34.2</ele>
<time>2013-03-03T13:47:37.000Z</time>
</trkpt>
<trkpt lat="51.241069" lon="6.491743">
<ele>34.5</ele>
<time>2013-03-03T13:47:38.000Z</time>
</trkpt>
<trkpt lat="51.241092" lon="6.491806">
<ele>33.2</ele>
<time>2013-03-03T13:47:39.000Z</time>
</trkpt>
<trkpt lat="51.24113" lon="6.491931">
<ele>34.1</ele>
<time>2013-03-03T13:47:41.000Z</time>
</trkpt>
<trkpt lat="51.241147" lon="6.491997">
<ele>34.1</ele>
<time>2013-03-03T13:47:42.000Z</time>
</trkpt>
<trkpt lat="51.241185" lon="6.492147">
<ele>35.4</ele>
<time>2013-03-03T13:47:44.000Z</time>
</trkpt>
<trkpt lat="51.241225" lon="6.492266">
<ele>36.1</ele>
<time>2013-03-03T13:47:46.000Z</time>
</trkpt>
<trkpt lat="51.24124" lon="6.492335">
<ele>37.6</ele>
<time>2013-03-03T13:47:47.000Z</time>
</trkpt>
<trkpt lat="51.241269" lon="6.492395">
<ele>37.3</ele>
<time>2013-03-03T13:47:48.000Z</time>
</trkpt>
<trkpt lat="51.241293" lon="6.492459">
<ele>38.2</ele>
<time>2013-03-03T13:47:49.000Z</time>
</trkpt>
<trkpt lat="51.241307" lon="6.492547">
<ele>38.4</ele>
<time>2013-03-03T13:47:50.000Z</time>
</trkpt>
<trkpt lat="51.241325" lon="6.492639">
<ele>38.4</ele>
<time>2013-03-03T13:47:51.000Z</time>
</trkpt>
<trkpt lat="51.241348" lon="6.492711">
<ele>38.2</ele>
<time>2013-03-03T13:47:52.000Z</time>
</trkpt>
<trkpt lat="51.241392" lon="6.492809">
<ele>38.5</ele>
<time>2013-03-03T13:47:54.000Z</time>
</trkpt>
<trkpt lat="51.241438" lon="6.492892">
<ele>39.9</ele>
<time>2013-03-03T13:47:55.000Z</time>
</trkpt>
<trkpt lat="51.241469" lon="6.492981">
<ele>39.3</ele>
<time>2013-03-03T13:47:56.000Z</time>
</trkpt>
<trkpt lat="51.241502" lon="6.493051">
<ele>39.4</ele>
<time>2013-03-03T13:47:57.000Z</time>
</trkpt>
<trkpt lat="51.241513" lon="6.493162">
<ele>36.9</ele>
<time>2013-03-03T13:47:59.000Z</time>
</trkpt>
<trkpt lat="51.241525" lon="6.493231">
<ele>38.3</ele>
<time>2013-03-03T13:48:00.000Z</time>
</trkpt>
<trkpt lat="51.24155" lon="6.493294">
<ele>37.8</ele>
<time>2013-03-03T13:48:01.000Z</time>
</trkpt>
<trkpt lat="51.241567" lon="6.493373">
<ele>37.7</ele>
<time>2013-03-03T13:48:02.000Z</time>
</trkpt>
<trkpt lat="51.241593" lon="6.493445">
<ele>38.8</ele>
<time>2013-03-03T13:48:03.000Z</time>
</trkpt>
<trkpt lat="51.241652" lon="6.493591">
<ele>38.4</ele>
<time>2013-03-03T13:48:05.000Z</time>
</trkpt>
<trkpt lat="51.241674" lon="6.493654">
<ele>39.2</ele>
<time>2013-03-03T13:48:06.000Z</time>
</trkpt>
<trkpt lat="51.241698" lon="6.493729">
<ele>39.3</ele>
<time>2013-03-03T13:48:07.000Z</time>
</trkpt>
<trkpt lat="51.241732" lon="6.493833">
<ele>39.3</ele>
<time>2013-03-03T13:48:09.000Z</time>
</trkpt>
<trkpt lat="51.241764" lon="6.49389">
<ele>38.4</ele>
<time>2013-03-03T13:48:10.000Z</time>
</trkpt>
<trkpt lat="51.241779" lon="6.493973">
<ele>38.5</ele>
<time>2013-03-03T13:48:11.000Z</time>
</trkpt>
<trkpt lat="51.241906" lon="6.494131">
<ele>40.1</ele>
<time>2013-03-03T13:48:13.000Z</time>
</trkpt>
<trkpt lat="51.24193" lon="6.494235">
<ele>40.4</ele>
<time>2013-03-03T13:48:15.000Z</time>
</trkpt>
<trkpt lat="51.241986" lon="6.494275">
<ele>42.2</ele>
<time>2013-03-03T13:48:16.000Z</time>
</trkpt>
<trkpt lat="51.242013" lon="6.494347">
<ele>42.8</ele>
<time>2013-03-03T13:48:17.000Z</time>
</trkpt>
<trkpt lat="51.242027" lon="6.494435">
<ele>42.9</ele>
<time>2013-03-03T13:48:18.000Z</time>
</trkpt>
<trkpt lat="51.242033" lon="6.49456">
<ele>37.4</ele>
<time>2013-03-03T13:48:20.000Z</time>
</trkpt>
<trkpt lat="51.241986" lon="6.494679">
<ele>36.1</ele>
<time>2013-03-03T13:48:21.000Z</time>
</trkpt>
<trkpt lat="51.241984" lon="6.494767">
<ele>34.1</ele>
<time>2013-03-03T13:48:22.000Z</time>
</trkpt>
<trkpt lat="51.241996" lon="6.494921">
<ele>33.5</ele>
<time>2013-03-03T13:48:24.000Z</time>
</trkpt>
<trkpt lat="51.24201" lon="6.495011">
<ele>32.9</ele>
<time>2013-03-03T13:48:25.000Z</time>
</trkpt>
<trkpt lat="51.242041" lon="6.495069">
<ele>34.1</ele>
<time>2013-03-03T13:48:26.000Z</time>
</trkpt>
<trkpt lat="51.242106" lon="6.495147">
<ele>34.6</ele>
<time>2013-03-03T13:48:27.000Z</time>
</trkpt>
<trkpt lat="51.242115" lon="6.495229">
<ele>33.7</ele>
<time>2013-03-03T13:48:28.000Z</time>
</trkpt>
<trkpt lat="51.242117" lon="6.495365">
<ele>32.5</ele>
<time>2013-03-03T13:48:30.000Z</time>
</trkpt>
<trkpt lat="51.242119" lon="6.49551">
<ele>33.1</ele>
<time>2013-03-03T13:48:32.000Z</time>
</trkpt>
<trkpt lat="51.242122" lon="6.495596">
<ele>32.9</ele>
<time>2013-03-03T13:48:33.000Z</time>
</trkpt>
<trkpt lat="51.242136" lon="6.495665">
<ele>34.4</ele>
<time>2013-03-03T13:48:34.000Z</time>
</trkpt>
<trkpt lat="51.24215" lon="6.495773">
<ele>34.8</ele>
<time>2013-03-03T13:48:35.000Z</time>
</trkpt>
<trkpt lat="51.242187" lon="6.495854">
<ele>34.7</ele>
<time>2013-03-03T13:48:36.000Z</time>
</trkpt>
<trkpt lat="51.242219" lon="6.495923">
<ele>34</ele>
<time>2013-03-03T13:48:37.000Z</time>
</trkpt>
<trkpt lat="51.242264" lon="6.495991">
<ele>35.2</ele>
<time>2013-03-03T13:48:38.000Z</time>
</trkpt>
<trkpt lat="51.242324" lon="6.496037">
<ele>34.2</ele>
<time>2013-03-03T13:48:39.000Z</time>
</trkpt>
<trkpt lat="51.242374" lon="6.49613">
<ele>34.5</ele>
<time>2013-03-03T13:48:41.000Z</time>
</trkpt>
<trkpt lat="51.242404" lon="6.496214">
<ele>33.8</ele>
<time>2013-03-03T13:48:42.000Z</time>
</trkpt>
<trkpt lat="51.242445" lon="6.496333">
<ele>32.2</ele>
<time>2013-03-03T13:48:44.000Z</time>
</trkpt>
<trkpt lat="51.24247" lon="6.496393">
<ele>30.9</ele>
<time>2013-03-03T13:48:45.000Z</time>
</trkpt>
<trkpt lat="51.242497" lon="6.496465">
<ele>32</ele>
<time>2013-03-03T13:48:46.000Z</time>
</trkpt>
<trkpt lat="51.242518" lon="6.496538">
<ele>31.5</ele>
<time>2013-03-03T13:48:47.000Z</time>
</trkpt>
<trkpt lat="51.242524" lon="6.496614">
<ele>29.5</ele>
<time>2013-03-03T13:48:48.000Z</time>
</trkpt>
<trkpt lat="51.24255" lon="6.496679">
<ele>30.6</ele>
<time>2013-03-03T13:48:49.000Z</time>
</trkpt>
<trkpt lat="51.242565" lon="6.496754">
<ele>30.9</ele>
<time>2013-03-03T13:48:50.000Z</time>
</trkpt>
<trkpt lat="51.242588" lon="6.496819">
<ele>29.7</ele>
<time>2013-03-03T13:48:51.000Z</time>
</trkpt>
<trkpt lat="51.242604" lon="6.496888">
<ele>30.1</ele>
<time>2013-03-03T13:48:52.000Z</time>
</trkpt>
<trkpt lat="51.242635" lon="6.49696">
<ele>31.4</ele>
<time>2013-03-03T13:48:53.000Z</time>
</trkpt>
<trkpt lat="51.242668" lon="6.497027">
<ele>31.3</ele>
<time>2013-03-03T13:48:54.000Z</time>
</trkpt>
<trkpt lat="51.242694" lon="6.497093">
<ele>31.4</ele>
<time>2013-03-03T13:48:55.000Z</time>
</trkpt>
<trkpt lat="51.24272" lon="6.497157">
<ele>31.4</ele>
<time>2013-03-03T13:48:56.000Z</time>
</trkpt>
<trkpt lat="51.242738" lon="6.497244">
<ele>31.3</ele>
<time>2013-03-03T13:48:57.000Z</time>
</trkpt>
<trkpt lat="51.242752" lon="6.497324">
<ele>30.2</ele>
<time>2013-03-03T13:48:58.000Z</time>
</trkpt>
<trkpt lat="51.242778" lon="6.497392">
<ele>31.1</ele>
<time>2013-03-03T13:48:59.000Z</time>
</trkpt>
<trkpt lat="51.242802" lon="6.497461">
<ele>31.5</ele>
<time>2013-03-03T13:49:00.000Z</time>
</trkpt>
<trkpt lat="51.242837" lon="6.497526">
<ele>31.7</ele>
<time>2013-03-03T13:49:01.000Z</time>
</trkpt>
<trkpt lat="51.242869" lon="6.497591">
<ele>32.1</ele>
<time>2013-03-03T13:49:02.000Z</time>
</trkpt>
<trkpt lat="51.242916" lon="6.4977">
<ele>32.2</ele>
<time>2013-03-03T13:49:04.000Z</time>
</trkpt>
<trkpt lat="51.242935" lon="6.497781">
<ele>33.2</ele>
<time>2013-03-03T13:49:05.000Z</time>
</trkpt>
<trkpt lat="51.242971" lon="6.497895">
<ele>33.8</ele>
<time>2013-03-03T13:49:07.000Z</time>
</trkpt>
<trkpt lat="51.24299" lon="6.497962">
<ele>35</ele>
<time>2013-03-03T13:49:08.000Z</time>
</trkpt>
<trkpt lat="51.24304" lon="6.49806">
<ele>34.2</ele>
<time>2013-03-03T13:49:09.000Z</time>
</trkpt>
<trkpt lat="51.243076" lon="6.498146">
<ele>34</ele>
<time>2013-03-03T13:49:10.000Z</time>
</trkpt>
<trkpt lat="51.243136" lon="6.498265">
<ele>34.6</ele>
<time>2013-03-03T13:49:12.000Z</time>
</trkpt>
<trkpt lat="51.243172" lon="6.498317">
<ele>34.5</ele>
<time>2013-03-03T13:49:13.000Z</time>
</trkpt>
<trkpt lat="51.24322" lon="6.498381">
<ele>34.3</ele>
<time>2013-03-03T13:49:14.000Z</time>
</trkpt>
<trkpt lat="51.243252" lon="6.498435">
<ele>34.5</ele>
<time>2013-03-03T13:49:15.000Z</time>
</trkpt>
<trkpt lat="51.243249" lon="6.498518">
<ele>32.7</ele>
<time>2013-03-03T13:49:16.000Z</time>
</trkpt>
<trkpt lat="51.243325" lon="6.498605">
<ele>34.1</ele>
<time>2013-03-03T13:49:18.000Z</time>
</trkpt>
<trkpt lat="51.2434" lon="6.498639">
<ele>35.4</ele>
<time>2013-03-03T13:49:20.000Z</time>
</trkpt>
<trkpt lat="51.243478" lon="6.498688">
<ele>33.6</ele>
<time>2013-03-03T13:49:22.000Z</time>
</trkpt>
<trkpt lat="51.243529" lon="6.498747">
<ele>34</ele>
<time>2013-03-03T13:49:23.000Z</time>
</trkpt>
<trkpt lat="51.243549" lon="6.498818">
<ele>33</ele>
<time>2013-03-03T13:49:24.000Z</time>
</trkpt>
<trkpt lat="51.243576" lon="6.498888">
<ele>32.6</ele>
<time>2013-03-03T13:49:25.000Z</time>
</trkpt>
<trkpt lat="51.243611" lon="6.499016">
<ele>33.4</ele>
<time>2013-03-03T13:49:27.000Z</time>
</trkpt>
<trkpt lat="51.243649" lon="6.499085">
<ele>34.3</ele>
<time>2013-03-03T13:49:28.000Z</time>
</trkpt>
<trkpt lat="51.243675" lon="6.499149">
<ele>34.8</ele>
<time>2013-03-03T13:49:29.000Z</time>
</trkpt>
<trkpt lat="51.243743" lon="6.499258">
<ele>34.2</ele>
<time>2013-03-03T13:49:31.000Z</time>
</trkpt>
<trkpt lat="51.243785" lon="6.499318">
<ele>33.8</ele>
<time>2013-03-03T13:49:32.000Z</time>
</trkpt>
<trkpt lat="51.243838" lon="6.499432">
<ele>34.5</ele>
<time>2013-03-03T13:49:34.000Z</time>
</trkpt>
<trkpt lat="51.243891" lon="6.499488">
<ele>34.2</ele>
<time>2013-03-03T13:49:35.000Z</time>
</trkpt>
<trkpt lat="51.243921" lon="6.499566">
<ele>33.2</ele>
<time>2013-03-03T13:49:36.000Z</time>
</trkpt>
<trkpt lat="51.243965" lon="6.499599">
<ele>33.8</ele>
<time>2013-03-03T13:49:37.000Z</time>
</trkpt>
<trkpt lat="51.243986" lon="6.49972">
<ele>34.6</ele>
<time>2013-03-03T13:49:39.000Z</time>
</trkpt>
<trkpt lat="51.244029" lon="6.499823">
<ele>34.7</ele>
<time>2013-03-03T13:49:41.000Z</time>
</trkpt>
<trkpt lat="51.244061" lon="6.499879">
<ele>36</ele>
<time>2013-03-03T13:49:42.000Z</time>
</trkpt>
<trkpt lat="51.244076" lon="6.499958">
<ele>36.9</ele>
<time>2013-03-03T13:49:43.000Z</time>
</trkpt>
<trkpt lat="51.244121" lon="6.500036">
<ele>34.6</ele>
<time>2013-03-03T13:49:45.000Z</time>
</trkpt>
<trkpt lat="51.244163" lon="6.50011">
<ele>30.9</ele>
<time>2013-03-03T13:49:46.000Z</time>
</trkpt>
<trkpt lat="51.244193" lon="6.500168">
<ele>29.3</ele>
<time>2013-03-03T13:49:47.000Z</time>
</trkpt>
<trkpt lat="51.244226" lon="6.500223">
<ele>29.9</ele>
<time>2013-03-03T13:49:48.000Z</time>
</trkpt>
<trkpt lat="51.24426" lon="6.500278">
<ele>29.9</ele>
<time>2013-03-03T13:49:49.000Z</time>
</trkpt>
<trkpt lat="51.244293" lon="6.500327">
<ele>31</ele>
<time>2013-03-03T13:49:50.000Z</time>
</trkpt>
<trkpt lat="51.244332" lon="6.500369">
<ele>31.3</ele>
<time>2013-03-03T13:49:51.000Z</time>
</trkpt>
<trkpt lat="51.244405" lon="6.500453">
<ele>29.6</ele>
<time>2013-03-03T13:49:53.000Z</time>
</trkpt>
<trkpt lat="51.244472" lon="6.500547">
<ele>28.7</ele>
<time>2013-03-03T13:49:55.000Z</time>
</trkpt>
<trkpt lat="51.244556" lon="6.500704">
<ele>29.8</ele>
<time>2013-03-03T13:49:58.000Z</time>
</trkpt>
<trkpt lat="51.244606" lon="6.500805">
<ele>31.3</ele>
<time>2013-03-03T13:50:00.000Z</time>
</trkpt>
<trkpt lat="51.244646" lon="6.500848">
<ele>32.5</ele>
<time>2013-03-03T13:50:01.000Z</time>
</trkpt>
<trkpt lat="51.244697" lon="6.500943">
<ele>34.4</ele>
<time>2013-03-03T13:50:03.000Z</time>
</trkpt>
<trkpt lat="51.24473" lon="6.501046">
<ele>33.9</ele>
<time>2013-03-03T13:50:05.000Z</time>
</trkpt>
<trkpt lat="51.244763" lon="6.501149">
<ele>34.1</ele>
<time>2013-03-03T13:50:07.000Z</time>
</trkpt>
<trkpt lat="51.244805" lon="6.501236">
<ele>36.4</ele>
<time>2013-03-03T13:50:09.000Z</time>
</trkpt>
<trkpt lat="51.244862" lon="6.501325">
<ele>35.7</ele>
<time>2013-03-03T13:50:11.000Z</time>
</trkpt>
<trkpt lat="51.244905" lon="6.501414">
<ele>35.9</ele>
<time>2013-03-03T13:50:13.000Z</time>
</trkpt>
<trkpt lat="51.244956" lon="6.501504">
<ele>36</ele>
<time>2013-03-03T13:50:15.000Z</time>
</trkpt>
<trkpt lat="51.245022" lon="6.50159">
<ele>36.4</ele>
<time>2013-03-03T13:50:17.000Z</time>
</trkpt>
<trkpt lat="51.245088" lon="6.501681">
<ele>37.4</ele>
<time>2013-03-03T13:50:19.000Z</time>
</trkpt>
<trkpt lat="51.245151" lon="6.501772">
<ele>36.7</ele>
<time>2013-03-03T13:50:21.000Z</time>
</trkpt>
<trkpt lat="51.245192" lon="6.501818">
<ele>37</ele>
<time>2013-03-03T13:50:22.000Z</time>
</trkpt>
<trkpt lat="51.245231" lon="6.501876">
<ele>38.2</ele>
<time>2013-03-03T13:50:23.000Z</time>
</trkpt>
<trkpt lat="51.245266" lon="6.501926">
<ele>39.3</ele>
<time>2013-03-03T13:50:24.000Z</time>
</trkpt>
<trkpt lat="51.245296" lon="6.501983">
<ele>39.7</ele>
<time>2013-03-03T13:50:25.000Z</time>
</trkpt>
<trkpt lat="51.245318" lon="6.502055">
<ele>38.7</ele>
<time>2013-03-03T13:50:26.000Z</time>
</trkpt>
<trkpt lat="51.245382" lon="6.502161">
<ele>36.8</ele>
<time>2013-03-03T13:50:28.000Z</time>
</trkpt>
<trkpt lat="51.245439" lon="6.502264">
<ele>37.4</ele>
<time>2013-03-03T13:50:30.000Z</time>
</trkpt>
<trkpt lat="51.245498" lon="6.502361">
<ele>37.3</ele>
<time>2013-03-03T13:50:32.000Z</time>
</trkpt>
<trkpt lat="51.245525" lon="6.502423">
<ele>36.1</ele>
<time>2013-03-03T13:50:33.000Z</time>
</trkpt>
<trkpt lat="51.245584" lon="6.502515">
<ele>35.6</ele>
<time>2013-03-03T13:50:35.000Z</time>
</trkpt>
<trkpt lat="51.245638" lon="6.502602">
<ele>36.8</ele>
<time>2013-03-03T13:50:37.000Z</time>
</trkpt>
<trkpt lat="51.245676" lon="6.502646">
<ele>37</ele>
<time>2013-03-03T13:50:38.000Z</time>
</trkpt>
<trkpt lat="51.245731" lon="6.502742">
<ele>37.2</ele>
<time>2013-03-03T13:50:40.000Z</time>
</trkpt>
<trkpt lat="51.245766" lon="6.502794">
<ele>37.3</ele>
<time>2013-03-03T13:50:41.000Z</time>
</trkpt>
<trkpt lat="51.245821" lon="6.502886">
<ele>37.6</ele>
<time>2013-03-03T13:50:43.000Z</time>
</trkpt>
<trkpt lat="51.245888" lon="6.502991">
<ele>37</ele>
<time>2013-03-03T13:50:45.000Z</time>
</trkpt>
<trkpt lat="51.245946" lon="6.50309">
<ele>36.6</ele>
<time>2013-03-03T13:50:47.000Z</time>
</trkpt>
<trkpt lat="51.24598" lon="6.503147">
<ele>36.5</ele>
<time>2013-03-03T13:50:48.000Z</time>
</trkpt>
<trkpt lat="51.246011" lon="6.503198">
<ele>36.8</ele>
<time>2013-03-03T13:50:49.000Z</time>
</trkpt>
<trkpt lat="51.24607" lon="6.503292">
<ele>36.4</ele>
<time>2013-03-03T13:50:51.000Z</time>
</trkpt>
<trkpt lat="51.246106" lon="6.503351">
<ele>36.5</ele>
<time>2013-03-03T13:50:52.000Z</time>
</trkpt>
<trkpt lat="51.246171" lon="6.503451">
<ele>35.8</ele>
<time>2013-03-03T13:50:54.000Z</time>
</trkpt>
<trkpt lat="51.246208" lon="6.503511">
<ele>36.1</ele>
<time>2013-03-03T13:50:55.000Z</time>
</trkpt>
<trkpt lat="51.246252" lon="6.503565">
<ele>36.3</ele>
<time>2013-03-03T13:50:56.000Z</time>
</trkpt>
<trkpt lat="51.246288" lon="6.503608">
<ele>36.6</ele>
<time>2013-03-03T13:50:57.000Z</time>
</trkpt>
<trkpt lat="51.246347" lon="6.50372">
<ele>36.2</ele>
<time>2013-03-03T13:50:59.000Z</time>
</trkpt>
<trkpt lat="51.246382" lon="6.503779">
<ele>35.8</ele>
<time>2013-03-03T13:51:00.000Z</time>
</trkpt>
<trkpt lat="51.246454" lon="6.503892">
<ele>34.1</ele>
<time>2013-03-03T13:51:02.000Z</time>
</trkpt>
<trkpt lat="51.246515" lon="6.503983">
<ele>32.4</ele>
<time>2013-03-03T13:51:04.000Z</time>
</trkpt>
<trkpt lat="51.246558" lon="6.50403">
<ele>31.7</ele>
<time>2013-03-03T13:51:05.000Z</time>
</trkpt>
<trkpt lat="51.246599" lon="6.504081">
<ele>31.6</ele>
<time>2013-03-03T13:51:06.000Z</time>
</trkpt>
<trkpt lat="51.24664" lon="6.50414">
<ele>29.9</ele>
<time>2013-03-03T13:51:07.000Z</time>
</trkpt>
<trkpt lat="51.246659" lon="6.504245">
<ele>31.6</ele>
<time>2013-03-03T13:51:09.000Z</time>
</trkpt>
<trkpt lat="51.246689" lon="6.504305">
<ele>31.5</ele>
<time>2013-03-03T13:51:10.000Z</time>
</trkpt>
<trkpt lat="51.246725" lon="6.504362">
<ele>31.3</ele>
<time>2013-03-03T13:51:11.000Z</time>
</trkpt>
<trkpt lat="51.246755" lon="6.504494">
<ele>33</ele>
<time>2013-03-03T13:51:13.000Z</time>
</trkpt>
<trkpt lat="51.246745" lon="6.504566">
<ele>34</ele>
<time>2013-03-03T13:51:14.000Z</time>
</trkpt>
<trkpt lat="51.246734" lon="6.504641">
<ele>33.8</ele>
<time>2013-03-03T13:51:15.000Z</time>
</trkpt>
<trkpt lat="51.246751" lon="6.504713">
<ele>32.9</ele>
<time>2013-03-03T13:51:16.000Z</time>
</trkpt>
<trkpt lat="51.2468" lon="6.504828">
<ele>33.6</ele>
<time>2013-03-03T13:51:18.000Z</time>
</trkpt>
<trkpt lat="51.246863" lon="6.504913">
<ele>32.6</ele>
<time>2013-03-03T13:51:20.000Z</time>
</trkpt>
<trkpt lat="51.246903" lon="6.504953">
<ele>32.3</ele>
<time>2013-03-03T13:51:21.000Z</time>
</trkpt>
<trkpt lat="51.246966" lon="6.505054">
<ele>33.1</ele>
<time>2013-03-03T13:51:23.000Z</time>
</trkpt>
<trkpt lat="51.246999" lon="6.505109">
<ele>33.1</ele>
<time>2013-03-03T13:51:24.000Z</time>
</trkpt>
<trkpt lat="51.247034" lon="6.505155">
<ele>33.1</ele>
<time>2013-03-03T13:51:25.000Z</time>
</trkpt>
<trkpt lat="51.247074" lon="6.505206">
<ele>32.7</ele>
<time>2013-03-03T13:51:26.000Z</time>
</trkpt>
<trkpt lat="51.247114" lon="6.505257">
<ele>32.6</ele>
<time>2013-03-03T13:51:27.000Z</time>
</trkpt>
<trkpt lat="51.247148" lon="6.505307">
<ele>32.6</ele>
<time>2013-03-03T13:51:28.000Z</time>
</trkpt>
<trkpt lat="51.247174" lon="6.505365">
<ele>31.7</ele>
<time>2013-03-03T13:51:29.000Z</time>
</trkpt>
<trkpt lat="51.247243" lon="6.505471">
<ele>31.9</ele>
<time>2013-03-03T13:51:31.000Z</time>
</trkpt>
<trkpt lat="51.247284" lon="6.505523">
<ele>33.1</ele>
<time>2013-03-03T13:51:32.000Z</time>
</trkpt>
<trkpt lat="51.24733" lon="6.505585">
<ele>32.5</ele>
<time>2013-03-03T13:51:34.000Z</time>
</trkpt>
<trkpt lat="51.247382" lon="6.505632">
<ele>34.8</ele>
<time>2013-03-03T13:51:35.000Z</time>
</trkpt>
<trkpt lat="51.247424" lon="6.505698">
<ele>34.3</ele>
<time>2013-03-03T13:51:37.000Z</time>
</trkpt>
<trkpt lat="51.247462" lon="6.505772">
<ele>33.6</ele>
<time>2013-03-03T13:51:39.000Z</time>
</trkpt>
<trkpt lat="51.247501" lon="6.505838">
<ele>32.9</ele>
<time>2013-03-03T13:51:41.000Z</time>
</trkpt>
<trkpt lat="51.247538" lon="6.505899">
<ele>32.9</ele>
<time>2013-03-03T13:51:43.000Z</time>
</trkpt>
<trkpt lat="51.247579" lon="6.50597">
<ele>34.2</ele>
<time>2013-03-03T13:51:45.000Z</time>
</trkpt>
<trkpt lat="51.24762" lon="6.506043">
<ele>33.5</ele>
<time>2013-03-03T13:51:47.000Z</time>
</trkpt>
<trkpt lat="51.247665" lon="6.506114">
<ele>32.3</ele>
<time>2013-03-03T13:51:49.000Z</time>
</trkpt>
<trkpt lat="51.247707" lon="6.506189">
<ele>30.6</ele>
<time>2013-03-03T13:51:51.000Z</time>
</trkpt>
<trkpt lat="51.247755" lon="6.506277">
<ele>29.4</ele>
<time>2013-03-03T13:51:53.000Z</time>
</trkpt>
<trkpt lat="51.247805" lon="6.506376">
<ele>29.6</ele>
<time>2013-03-03T13:51:55.000Z</time>
</trkpt>
<trkpt lat="51.24786" lon="6.506468">
<ele>30.9</ele>
<time>2013-03-03T13:51:57.000Z</time>
</trkpt>
<trkpt lat="51.247918" lon="6.50655">
<ele>32.9</ele>
<time>2013-03-03T13:51:59.000Z</time>
</trkpt>
<trkpt lat="51.247983" lon="6.506628">
<ele>34.7</ele>
<time>2013-03-03T13:52:01.000Z</time>
</trkpt>
<trkpt lat="51.248047" lon="6.506714">
<ele>34.4</ele>
<time>2013-03-03T13:52:03.000Z</time>
</trkpt>
<trkpt lat="51.248111" lon="6.506807">
<ele>34.1</ele>
<time>2013-03-03T13:52:05.000Z</time>
</trkpt>
<trkpt lat="51.248168" lon="6.506905">
<ele>34.3</ele>
<time>2013-03-03T13:52:07.000Z</time>
</trkpt>
<trkpt lat="51.248233" lon="6.507006">
<ele>32.8</ele>
<time>2013-03-03T13:52:09.000Z</time>
</trkpt>
<trkpt lat="51.248266" lon="6.507059">
<ele>31.5</ele>
<time>2013-03-03T13:52:10.000Z</time>
</trkpt>
<trkpt lat="51.248296" lon="6.507113">
<ele>31.4</ele>
<time>2013-03-03T13:52:11.000Z</time>
</trkpt>
<trkpt lat="51.24835" lon="6.507218">
<ele>29.9</ele>
<time>2013-03-03T13:52:13.000Z</time>
</trkpt>
<trkpt lat="51.248395" lon="6.507314">
<ele>29.1</ele>
<time>2013-03-03T13:52:15.000Z</time>
</trkpt>
<trkpt lat="51.248445" lon="6.507405">
<ele>30.3</ele>
<time>2013-03-03T13:52:17.000Z</time>
</trkpt>
<trkpt lat="51.248503" lon="6.507492">
<ele>30.1</ele>
<time>2013-03-03T13:52:18.000Z</time>
</trkpt>
<trkpt lat="51.248558" lon="6.507595">
<ele>29.8</ele>
<time>2013-03-03T13:52:20.000Z</time>
</trkpt>
<trkpt lat="51.248601" lon="6.507647">
<ele>30.7</ele>
<time>2013-03-03T13:52:21.000Z</time>
</trkpt>
<trkpt lat="51.248639" lon="6.507688">
<ele>31.8</ele>
<time>2013-03-03T13:52:22.000Z</time>
</trkpt>
<trkpt lat="51.248678" lon="6.507743">
<ele>32.7</ele>
<time>2013-03-03T13:52:23.000Z</time>
</trkpt>
<trkpt lat="51.248726" lon="6.50779">
<ele>32.6</ele>
<time>2013-03-03T13:52:24.000Z</time>
</trkpt>
<trkpt lat="51.248757" lon="6.507847">
<ele>33.3</ele>
<time>2013-03-03T13:52:25.000Z</time>
</trkpt>
<trkpt lat="51.248824" lon="6.507956">
<ele>33.4</ele>
<time>2013-03-03T13:52:27.000Z</time>
</trkpt>
<trkpt lat="51.248866" lon="6.508028">
<ele>33.2</ele>
<time>2013-03-03T13:52:28.000Z</time>
</trkpt>
<trkpt lat="51.24891" lon="6.508138">
<ele>32.5</ele>
<time>2013-03-03T13:52:30.000Z</time>
</trkpt>
<trkpt lat="51.248983" lon="6.508163">
<ele>32.4</ele>
<time>2013-03-03T13:52:31.000Z</time>
</trkpt>
<trkpt lat="51.249031" lon="6.508197">
<ele>33.4</ele>
<time>2013-03-03T13:52:32.000Z</time>
</trkpt>
<trkpt lat="51.249048" lon="6.508316">
<ele>33.6</ele>
<time>2013-03-03T13:52:34.000Z</time>
</trkpt>
<trkpt lat="51.249091" lon="6.508346">
<ele>33.7</ele>
<time>2013-03-03T13:52:35.000Z</time>
</trkpt>
<trkpt lat="51.249156" lon="6.508417">
<ele>34.8</ele>
<time>2013-03-03T13:52:37.000Z</time>
</trkpt>
<trkpt lat="51.249203" lon="6.508495">
<ele>35</ele>
<time>2013-03-03T13:52:39.000Z</time>
</trkpt>
<trkpt lat="51.249256" lon="6.508573">
<ele>35.1</ele>
<time>2013-03-03T13:52:41.000Z</time>
</trkpt>
<trkpt lat="51.249308" lon="6.508656">
<ele>33.6</ele>
<time>2013-03-03T13:52:43.000Z</time>
</trkpt>
<trkpt lat="51.249349" lon="6.50873">
<ele>32.5</ele>
<time>2013-03-03T13:52:45.000Z</time>
</trkpt>
<trkpt lat="51.249384" lon="6.508789">
<ele>33.7</ele>
<time>2013-03-03T13:52:47.000Z</time>
</trkpt>
<trkpt lat="51.24943" lon="6.508844">
<ele>32.7</ele>
<time>2013-03-03T13:52:50.000Z</time>
</trkpt>
<trkpt lat="51.249462" lon="6.508905">
<ele>32.2</ele>
<time>2013-03-03T13:52:59.000Z</time>
</trkpt>
<trkpt lat="51.249498" lon="6.508997">
<ele>29.8</ele>
<time>2013-03-03T13:53:02.000Z</time>
</trkpt>
<trkpt lat="51.249523" lon="6.509066">
<ele>28.1</ele>
<time>2013-03-03T13:53:04.000Z</time>
</trkpt>
<trkpt lat="51.249555" lon="6.50913">
<ele>28.6</ele>
<time>2013-03-03T13:53:06.000Z</time>
</trkpt>
<trkpt lat="51.249588" lon="6.509185">
<ele>26.6</ele>
<time>2013-03-03T13:53:09.000Z</time>
</trkpt>
<trkpt lat="51.249637" lon="6.509229">
<ele>27.6</ele>
<time>2013-03-03T13:53:13.000Z</time>
</trkpt>
<trkpt lat="51.249679" lon="6.509315">
<ele>28.4</ele>
<time>2013-03-03T13:53:16.000Z</time>
</trkpt>
<trkpt lat="51.249709" lon="6.509383">
<ele>28.5</ele>
<time>2013-03-03T13:53:18.000Z</time>
</trkpt>
<trkpt lat="51.249745" lon="6.509456">
<ele>29</ele>
<time>2013-03-03T13:53:20.000Z</time>
</trkpt>
<trkpt lat="51.249794" lon="6.509531">
<ele>29.2</ele>
<time>2013-03-03T13:53:22.000Z</time>
</trkpt>
<trkpt lat="51.249847" lon="6.509613">
<ele>29.6</ele>
<time>2013-03-03T13:53:24.000Z</time>
</trkpt>
<trkpt lat="51.249902" lon="6.5097">
<ele>30.4</ele>
<time>2013-03-03T13:53:26.000Z</time>
</trkpt>
<trkpt lat="51.24996" lon="6.509788">
<ele>30.3</ele>
<time>2013-03-03T13:53:28.000Z</time>
</trkpt>
<trkpt lat="51.250017" lon="6.509878">
<ele>30.1</ele>
<time>2013-03-03T13:53:30.000Z</time>
</trkpt>
<trkpt lat="51.250075" lon="6.509978">
<ele>30.2</ele>
<time>2013-03-03T13:53:32.000Z</time>
</trkpt>
<trkpt lat="51.250131" lon="6.510105">
<ele>29.5</ele>
<time>2013-03-03T13:53:34.000Z</time>
</trkpt>
<trkpt lat="51.250163" lon="6.510167">
<ele>29.1</ele>
<time>2013-03-03T13:53:35.000Z</time>
</trkpt>
<trkpt lat="51.250224" lon="6.510279">
<ele>29</ele>
<time>2013-03-03T13:53:37.000Z</time>
</trkpt>
<trkpt lat="51.250256" lon="6.510335">
<ele>29.4</ele>
<time>2013-03-03T13:53:38.000Z</time>
</trkpt>
<trkpt lat="51.250292" lon="6.510396">
<ele>29.7</ele>
<time>2013-03-03T13:53:39.000Z</time>
</trkpt>
<trkpt lat="51.250329" lon="6.510451">
<ele>29.9</ele>
<time>2013-03-03T13:53:40.000Z</time>
</trkpt>
<trkpt lat="51.250363" lon="6.510505">
<ele>29.5</ele>
<time>2013-03-03T13:53:41.000Z</time>
</trkpt>
<trkpt lat="51.250398" lon="6.510562">
<ele>29.7</ele>
<time>2013-03-03T13:53:42.000Z</time>
</trkpt>
<trkpt lat="51.250437" lon="6.510621">
<ele>30.3</ele>
<time>2013-03-03T13:53:43.000Z</time>
</trkpt>
<trkpt lat="51.250468" lon="6.510682">
<ele>30.3</ele>
<time>2013-03-03T13:53:44.000Z</time>
</trkpt>
<trkpt lat="51.250505" lon="6.510741">
<ele>30.1</ele>
<time>2013-03-03T13:53:45.000Z</time>
</trkpt>
<trkpt lat="51.250537" lon="6.5108">
<ele>29.9</ele>
<time>2013-03-03T13:53:46.000Z</time>
</trkpt>
<trkpt lat="51.250567" lon="6.510862">
<ele>30.4</ele>
<time>2013-03-03T13:53:47.000Z</time>
</trkpt>
<trkpt lat="51.250616" lon="6.510951">
<ele>28.5</ele>
<time>2013-03-03T13:53:49.000Z</time>
</trkpt>
<trkpt lat="51.250653" lon="6.510993">
<ele>27.1</ele>
<time>2013-03-03T13:53:50.000Z</time>
</trkpt>
<trkpt lat="51.250701" lon="6.511048">
<ele>27.6</ele>
<time>2013-03-03T13:53:51.000Z</time>
</trkpt>
<trkpt lat="51.250762" lon="6.511142">
<ele>26.9</ele>
<time>2013-03-03T13:53:53.000Z</time>
</trkpt>
<trkpt lat="51.250802" lon="6.511199">
<ele>26.9</ele>
<time>2013-03-03T13:53:54.000Z</time>
</trkpt>
<trkpt lat="51.250834" lon="6.511256">
<ele>26.8</ele>
<time>2013-03-03T13:53:55.000Z</time>
</trkpt>
<trkpt lat="51.250886" lon="6.511365">
<ele>25.3</ele>
<time>2013-03-03T13:53:57.000Z</time>
</trkpt>
<trkpt lat="51.250913" lon="6.511431">
<ele>25.7</ele>
<time>2013-03-03T13:53:58.000Z</time>
</trkpt>
<trkpt lat="51.250941" lon="6.5115">
<ele>25.7</ele>
<time>2013-03-03T13:53:59.000Z</time>
</trkpt>
<trkpt lat="51.251007" lon="6.511611">
<ele>26.5</ele>
<time>2013-03-03T13:54:01.000Z</time>
</trkpt>
<trkpt lat="51.251048" lon="6.511669">
<ele>26.8</ele>
<time>2013-03-03T13:54:02.000Z</time>
</trkpt>
<trkpt lat="51.251091" lon="6.51172">
<ele>27.2</ele>
<time>2013-03-03T13:54:03.000Z</time>
</trkpt>
<trkpt lat="51.251146" lon="6.511838">
<ele>30.2</ele>
<time>2013-03-03T13:54:05.000Z</time>
</trkpt>
<trkpt lat="51.251191" lon="6.511898">
<ele>31.2</ele>
<time>2013-03-03T13:54:06.000Z</time>
</trkpt>
<trkpt lat="51.251233" lon="6.511936">
<ele>31.4</ele>
<time>2013-03-03T13:54:07.000Z</time>
</trkpt>
<trkpt lat="51.251274" lon="6.512008">
<ele>31.8</ele>
<time>2013-03-03T13:54:08.000Z</time>
</trkpt>
<trkpt lat="51.251315" lon="6.512053">
<ele>30.7</ele>
<time>2013-03-03T13:54:09.000Z</time>
</trkpt>
<trkpt lat="51.251347" lon="6.512113">
<ele>31.1</ele>
<time>2013-03-03T13:54:10.000Z</time>
</trkpt>
<trkpt lat="51.251384" lon="6.512168">
<ele>31.2</ele>
<time>2013-03-03T13:54:11.000Z</time>
</trkpt>
<trkpt lat="51.251413" lon="6.512239">
<ele>32</ele>
<time>2013-03-03T13:54:12.000Z</time>
</trkpt>
<trkpt lat="51.251443" lon="6.512298">
<ele>32.8</ele>
<time>2013-03-03T13:54:13.000Z</time>
</trkpt>
<trkpt lat="51.251477" lon="6.51236">
<ele>32.8</ele>
<time>2013-03-03T13:54:14.000Z</time>
</trkpt>
<trkpt lat="51.251504" lon="6.512423">
<ele>33.2</ele>
<time>2013-03-03T13:54:15.000Z</time>
</trkpt>
<trkpt lat="51.251573" lon="6.512527">
<ele>32.7</ele>
<time>2013-03-03T13:54:17.000Z</time>
</trkpt>
<trkpt lat="51.251605" lon="6.512592">
<ele>31.6</ele>
<time>2013-03-03T13:54:18.000Z</time>
</trkpt>
<trkpt lat="51.251635" lon="6.512652">
<ele>30.7</ele>
<time>2013-03-03T13:54:19.000Z</time>
</trkpt>
<trkpt lat="51.251669" lon="6.512702">
<ele>30.8</ele>
<time>2013-03-03T13:54:20.000Z</time>
</trkpt>
<trkpt lat="51.251702" lon="6.512766">
<ele>30.3</ele>
<time>2013-03-03T13:54:21.000Z</time>
</trkpt>
<trkpt lat="51.251735" lon="6.512826">
<ele>30.4</ele>
<time>2013-03-03T13:54:22.000Z</time>
</trkpt>
<trkpt lat="51.251788" lon="6.512934">
<ele>30.7</ele>
<time>2013-03-03T13:54:24.000Z</time>
</trkpt>
<trkpt lat="51.251856" lon="6.513033">
<ele>31.2</ele>
<time>2013-03-03T13:54:26.000Z</time>
</trkpt>
<trkpt lat="51.251896" lon="6.513093">
<ele>31.5</ele>
<time>2013-03-03T13:54:27.000Z</time>
</trkpt>
<trkpt lat="51.251932" lon="6.513159">
<ele>31.2</ele>
<time>2013-03-03T13:54:28.000Z</time>
</trkpt>
<trkpt lat="51.251963" lon="6.513221">
<ele>31.3</ele>
<time>2013-03-03T13:54:29.000Z</time>
</trkpt>
<trkpt lat="51.252" lon="6.513266">
<ele>30.8</ele>
<time>2013-03-03T13:54:30.000Z</time>
</trkpt>
<trkpt lat="51.252032" lon="6.513316">
<ele>30.6</ele>
<time>2013-03-03T13:54:31.000Z</time>
</trkpt>
<trkpt lat="51.252084" lon="6.513371">
<ele>30.9</ele>
<time>2013-03-03T13:54:32.000Z</time>
</trkpt>
<trkpt lat="51.252119" lon="6.513433">
<ele>32.2</ele>
<time>2013-03-03T13:54:33.000Z</time>
</trkpt>
<trkpt lat="51.252152" lon="6.513483">
<ele>31.1</ele>
<time>2013-03-03T13:54:34.000Z</time>
</trkpt>
<trkpt lat="51.252182" lon="6.513542">
<ele>29.5</ele>
<time>2013-03-03T13:54:35.000Z</time>
</trkpt>
<trkpt lat="51.252245" lon="6.513645">
<ele>29.9</ele>
<time>2013-03-03T13:54:37.000Z</time>
</trkpt>
<trkpt lat="51.252276" lon="6.513698">
<ele>30.6</ele>
<time>2013-03-03T13:54:38.000Z</time>
</trkpt>
<trkpt lat="51.252308" lon="6.51375">
<ele>30.3</ele>
<time>2013-03-03T13:54:39.000Z</time>
</trkpt>
<trkpt lat="51.252343" lon="6.513799">
<ele>30.5</ele>
<time>2013-03-03T13:54:40.000Z</time>
</trkpt>
<trkpt lat="51.252412" lon="6.513946">
<ele>32.2</ele>
<time>2013-03-03T13:54:42.000Z</time>
</trkpt>
<trkpt lat="51.252484" lon="6.514012">
<ele>31.8</ele>
<time>2013-03-03T13:54:44.000Z</time>
</trkpt>
<trkpt lat="51.252533" lon="6.514103">
<ele>32</ele>
<time>2013-03-03T13:54:46.000Z</time>
</trkpt>
<trkpt lat="51.252572" lon="6.51416">
<ele>30.9</ele>
<time>2013-03-03T13:54:47.000Z</time>
</trkpt>
<trkpt lat="51.252617" lon="6.514223">
<ele>29.8</ele>
<time>2013-03-03T13:54:48.000Z</time>
</trkpt>
<trkpt lat="51.252679" lon="6.514331">
<ele>29.4</ele>
<time>2013-03-03T13:54:50.000Z</time>
</trkpt>
<trkpt lat="51.252712" lon="6.514385">
<ele>29</ele>
<time>2013-03-03T13:54:51.000Z</time>
</trkpt>
<trkpt lat="51.252742" lon="6.514443">
<ele>28.9</ele>
<time>2013-03-03T13:54:52.000Z</time>
</trkpt>
<trkpt lat="51.252773" lon="6.5145">
<ele>28.4</ele>
<time>2013-03-03T13:54:53.000Z</time>
</trkpt>
<trkpt lat="51.252806" lon="6.514547">
<ele>27.4</ele>
<time>2013-03-03T13:54:54.000Z</time>
</trkpt>
<trkpt lat="51.252832" lon="6.514608">
<ele>27.3</ele>
<time>2013-03-03T13:54:55.000Z</time>
</trkpt>
<trkpt lat="51.252873" lon="6.514733">
<ele>27.7</ele>
<time>2013-03-03T13:54:57.000Z</time>
</trkpt>
<trkpt lat="51.252911" lon="6.514774">
<ele>28</ele>
<time>2013-03-03T13:54:58.000Z</time>
</trkpt>
<trkpt lat="51.252959" lon="6.514815">
<ele>28.7</ele>
<time>2013-03-03T13:54:59.000Z</time>
</trkpt>
<trkpt lat="51.252986" lon="6.514925">
<ele>29.9</ele>
<time>2013-03-03T13:55:01.000Z</time>
</trkpt>
<trkpt lat="51.253028" lon="6.51499">
<ele>29.5</ele>
<time>2013-03-03T13:55:02.000Z</time>
</trkpt>
<trkpt lat="51.253069" lon="6.515041">
<ele>30.2</ele>
<time>2013-03-03T13:55:03.000Z</time>
</trkpt>
<trkpt lat="51.253111" lon="6.515089">
<ele>31</ele>
<time>2013-03-03T13:55:04.000Z</time>
</trkpt>
<trkpt lat="51.253153" lon="6.515171">
<ele>33.1</ele>
<time>2013-03-03T13:55:06.000Z</time>
</trkpt>
<trkpt lat="51.253202" lon="6.515261">
<ele>33.9</ele>
<time>2013-03-03T13:55:08.000Z</time>
</trkpt>
<trkpt lat="51.253243" lon="6.515319">
<ele>34.3</ele>
<time>2013-03-03T13:55:09.000Z</time>
</trkpt>
<trkpt lat="51.253275" lon="6.515393">
<ele>34.5</ele>
<time>2013-03-03T13:55:10.000Z</time>
</trkpt>
<trkpt lat="51.253309" lon="6.515459">
<ele>33.9</ele>
<time>2013-03-03T13:55:11.000Z</time>
</trkpt>
<trkpt lat="51.253348" lon="6.515519">
<ele>33.8</ele>
<time>2013-03-03T13:55:12.000Z</time>
</trkpt>
<trkpt lat="51.25337" lon="6.51559">
<ele>35.7</ele>
<time>2013-03-03T13:55:13.000Z</time>
</trkpt>
<trkpt lat="51.253407" lon="6.515634">
<ele>35.8</ele>
<time>2013-03-03T13:55:14.000Z</time>
</trkpt>
<trkpt lat="51.253438" lon="6.515689">
<ele>34.9</ele>
<time>2013-03-03T13:55:15.000Z</time>
</trkpt>
<trkpt lat="51.253497" lon="6.515787">
<ele>35.3</ele>
<time>2013-03-03T13:55:17.000Z</time>
</trkpt>
<trkpt lat="51.253531" lon="6.515832">
<ele>35.2</ele>
<time>2013-03-03T13:55:18.000Z</time>
</trkpt>
<trkpt lat="51.253572" lon="6.51589">
<ele>35.1</ele>
<time>2013-03-03T13:55:19.000Z</time>
</trkpt>
<trkpt lat="51.253603" lon="6.515945">
<ele>35.2</ele>
<time>2013-03-03T13:55:20.000Z</time>
</trkpt>
<trkpt lat="51.253657" lon="6.516037">
<ele>34.6</ele>
<time>2013-03-03T13:55:22.000Z</time>
</trkpt>
<trkpt lat="51.253691" lon="6.516096">
<ele>35.4</ele>
<time>2013-03-03T13:55:23.000Z</time>
</trkpt>
<trkpt lat="51.253756" lon="6.516178">
<ele>36.1</ele>
<time>2013-03-03T13:55:25.000Z</time>
</trkpt>
<trkpt lat="51.253795" lon="6.516235">
<ele>37</ele>
<time>2013-03-03T13:55:26.000Z</time>
</trkpt>
<trkpt lat="51.253831" lon="6.516291">
<ele>37.8</ele>
<time>2013-03-03T13:55:27.000Z</time>
</trkpt>
<trkpt lat="51.253858" lon="6.516402">
<ele>34.5</ele>
<time>2013-03-03T13:55:29.000Z</time>
</trkpt>
<trkpt lat="51.25389" lon="6.51646">
<ele>34.9</ele>
<time>2013-03-03T13:55:30.000Z</time>
</trkpt>
<trkpt lat="51.253936" lon="6.516537">
<ele>33.8</ele>
<time>2013-03-03T13:55:31.000Z</time>
</trkpt>
<trkpt lat="51.253975" lon="6.516574">
<ele>34.3</ele>
<time>2013-03-03T13:55:32.000Z</time>
</trkpt>
<trkpt lat="51.254033" lon="6.516624">
<ele>34.2</ele>
<time>2013-03-03T13:55:33.000Z</time>
</trkpt>
<trkpt lat="51.254104" lon="6.516693">
<ele>32.6</ele>
<time>2013-03-03T13:55:34.000Z</time>
</trkpt>
<trkpt lat="51.254165" lon="6.516781">
<ele>32.9</ele>
<time>2013-03-03T13:55:36.000Z</time>
</trkpt>
<trkpt lat="51.254232" lon="6.516867">
<ele>31.8</ele>
<time>2013-03-03T13:55:38.000Z</time>
</trkpt>
<trkpt lat="51.254268" lon="6.516921">
<ele>32.1</ele>
<time>2013-03-03T13:55:39.000Z</time>
</trkpt>
<trkpt lat="51.2543" lon="6.516978">
<ele>32.5</ele>
<time>2013-03-03T13:55:40.000Z</time>
</trkpt>
<trkpt lat="51.254328" lon="6.517058">
<ele>33.1</ele>
<time>2013-03-03T13:55:41.000Z</time>
</trkpt>
<trkpt lat="51.254371" lon="6.517116">
<ele>32.7</ele>
<time>2013-03-03T13:55:42.000Z</time>
</trkpt>
<trkpt lat="51.254474" lon="6.517193">
<ele>36.3</ele>
<time>2013-03-03T13:55:44.000Z</time>
</trkpt>
<trkpt lat="51.254465" lon="6.517288">
<ele>37.5</ele>
<time>2013-03-03T13:55:46.000Z</time>
</trkpt>
<trkpt lat="51.254421" lon="6.517252">
<ele>32</ele>
<time>2013-03-03T13:55:47.000Z</time>
</trkpt>
<trkpt lat="51.25436" lon="6.517262">
<ele>30.7</ele>
<time>2013-03-03T13:55:49.000Z</time>
</trkpt>
<trkpt lat="51.254313" lon="6.517287">
<ele>32.8</ele>
<time>2013-03-03T13:55:51.000Z</time>
</trkpt>
<trkpt lat="51.254256" lon="6.517283">
<ele>33.2</ele>
<time>2013-03-03T13:55:53.000Z</time>
</trkpt>
<trkpt lat="51.254163" lon="6.517302">
<ele>34.1</ele>
<time>2013-03-03T13:55:55.000Z</time>
</trkpt>
<trkpt lat="51.254076" lon="6.517306">
<ele>33.8</ele>
<time>2013-03-03T13:55:57.000Z</time>
</trkpt>
<trkpt lat="51.254031" lon="6.51731">
<ele>33.5</ele>
<time>2013-03-03T13:55:58.000Z</time>
</trkpt>
<trkpt lat="51.253945" lon="6.517301">
<ele>31.2</ele>
<time>2013-03-03T13:56:00.000Z</time>
</trkpt>
<trkpt lat="51.253891" lon="6.517309">
<ele>31.5</ele>
<time>2013-03-03T13:56:01.000Z</time>
</trkpt>
<trkpt lat="51.253799" lon="6.517343">
<ele>30.8</ele>
<time>2013-03-03T13:56:03.000Z</time>
</trkpt>
<trkpt lat="51.253741" lon="6.517372">
<ele>31.2</ele>
<time>2013-03-03T13:56:04.000Z</time>
</trkpt>
<trkpt lat="51.253694" lon="6.517399">
<ele>30.1</ele>
<time>2013-03-03T13:56:05.000Z</time>
</trkpt>
<trkpt lat="51.253598" lon="6.517464">
<ele>28.2</ele>
<time>2013-03-03T13:56:07.000Z</time>
</trkpt>
<trkpt lat="51.253557" lon="6.517506">
<ele>27.8</ele>
<time>2013-03-03T13:56:08.000Z</time>
</trkpt>
<trkpt lat="51.253519" lon="6.51756">
<ele>27.8</ele>
<time>2013-03-03T13:56:09.000Z</time>
</trkpt>
<trkpt lat="51.253473" lon="6.517619">
<ele>26.7</ele>
<time>2013-03-03T13:56:10.000Z</time>
</trkpt>
<trkpt lat="51.253455" lon="6.517698">
<ele>27.2</ele>
<time>2013-03-03T13:56:11.000Z</time>
</trkpt>
<trkpt lat="51.253424" lon="6.517776">
<ele>26.9</ele>
<time>2013-03-03T13:56:12.000Z</time>
</trkpt>
<trkpt lat="51.253396" lon="6.517845">
<ele>26.4</ele>
<time>2013-03-03T13:56:13.000Z</time>
</trkpt>
<trkpt lat="51.253367" lon="6.517909">
<ele>27.5</ele>
<time>2013-03-03T13:56:14.000Z</time>
</trkpt>
<trkpt lat="51.25333" lon="6.517965">
<ele>27.4</ele>
<time>2013-03-03T13:56:15.000Z</time>
</trkpt>
<trkpt lat="51.253293" lon="6.518022">
<ele>27.2</ele>
<time>2013-03-03T13:56:16.000Z</time>
</trkpt>
<trkpt lat="51.253255" lon="6.518084">
<ele>27.5</ele>
<time>2013-03-03T13:56:17.000Z</time>
</trkpt>
<trkpt lat="51.253172" lon="6.51819">
<ele>28.4</ele>
<time>2013-03-03T13:56:19.000Z</time>
</trkpt>
<trkpt lat="51.253135" lon="6.518254">
<ele>28.2</ele>
<time>2013-03-03T13:56:20.000Z</time>
</trkpt>
<trkpt lat="51.253105" lon="6.51831">
<ele>27.3</ele>
<time>2013-03-03T13:56:21.000Z</time>
</trkpt>
<trkpt lat="51.253037" lon="6.518401">
<ele>27</ele>
<time>2013-03-03T13:56:23.000Z</time>
</trkpt>
<trkpt lat="51.253004" lon="6.51846">
<ele>26.7</ele>
<time>2013-03-03T13:56:24.000Z</time>
</trkpt>
<trkpt lat="51.252985" lon="6.518525">
<ele>26.5</ele>
<time>2013-03-03T13:56:25.000Z</time>
</trkpt>
<trkpt lat="51.252961" lon="6.518603">
<ele>26.6</ele>
<time>2013-03-03T13:56:26.000Z</time>
</trkpt>
<trkpt lat="51.252929" lon="6.518679">
<ele>25.3</ele>
<time>2013-03-03T13:56:27.000Z</time>
</trkpt>
<trkpt lat="51.252913" lon="6.518829">
<ele>25.2</ele>
<time>2013-03-03T13:56:29.000Z</time>
</trkpt>
<trkpt lat="51.252934" lon="6.518936">
<ele>23.8</ele>
<time>2013-03-03T13:56:31.000Z</time>
</trkpt>
<trkpt lat="51.252917" lon="6.519038">
<ele>23.6</ele>
<time>2013-03-03T13:56:32.000Z</time>
</trkpt>
<trkpt lat="51.252911" lon="6.519153">
<ele>24.2</ele>
<time>2013-03-03T13:56:34.000Z</time>
</trkpt>
<trkpt lat="51.252904" lon="6.519232">
<ele>24.9</ele>
<time>2013-03-03T13:56:35.000Z</time>
</trkpt>
<trkpt lat="51.252899" lon="6.519365">
<ele>26.2</ele>
<time>2013-03-03T13:56:37.000Z</time>
</trkpt>
<trkpt lat="51.252897" lon="6.519489">
<ele>25.2</ele>
<time>2013-03-03T13:56:39.000Z</time>
</trkpt>
<trkpt lat="51.252879" lon="6.519562">
<ele>26.6</ele>
<time>2013-03-03T13:56:40.000Z</time>
</trkpt>
<trkpt lat="51.252881" lon="6.51967">
<ele>25.4</ele>
<time>2013-03-03T13:56:42.000Z</time>
</trkpt>
<trkpt lat="51.252878" lon="6.519788">
<ele>24.7</ele>
<time>2013-03-03T13:56:44.000Z</time>
</trkpt>
<trkpt lat="51.252874" lon="6.519912">
<ele>24.7</ele>
<time>2013-03-03T13:56:46.000Z</time>
</trkpt>
<trkpt lat="51.252868" lon="6.520052">
<ele>23.5</ele>
<time>2013-03-03T13:56:48.000Z</time>
</trkpt>
<trkpt lat="51.252858" lon="6.520193">
<ele>23.8</ele>
<time>2013-03-03T13:56:50.000Z</time>
</trkpt>
<trkpt lat="51.252856" lon="6.520265">
<ele>23.2</ele>
<time>2013-03-03T13:56:51.000Z</time>
</trkpt>
<trkpt lat="51.252842" lon="6.520428">
<ele>23.4</ele>
<time>2013-03-03T13:56:53.000Z</time>
</trkpt>
<trkpt lat="51.252834" lon="6.520512">
<ele>23.9</ele>
<time>2013-03-03T13:56:54.000Z</time>
</trkpt>
<trkpt lat="51.252838" lon="6.520587">
<ele>24.5</ele>
<time>2013-03-03T13:56:55.000Z</time>
</trkpt>
<trkpt lat="51.252848" lon="6.520677">
<ele>25.1</ele>
<time>2013-03-03T13:56:56.000Z</time>
</trkpt>
<trkpt lat="51.252841" lon="6.520811">
<ele>24.1</ele>
<time>2013-03-03T13:56:58.000Z</time>
</trkpt>
<trkpt lat="51.252831" lon="6.520953">
<ele>24</ele>
<time>2013-03-03T13:57:00.000Z</time>
</trkpt>
<trkpt lat="51.252818" lon="6.521026">
<ele>24.9</ele>
<time>2013-03-03T13:57:01.000Z</time>
</trkpt>
<trkpt lat="51.252812" lon="6.521097">
<ele>26</ele>
<time>2013-03-03T13:57:02.000Z</time>
</trkpt>
<trkpt lat="51.252801" lon="6.521175">
<ele>26.4</ele>
<time>2013-03-03T13:57:03.000Z</time>
</trkpt>
<trkpt lat="51.252788" lon="6.521255">
<ele>25.7</ele>
<time>2013-03-03T13:57:04.000Z</time>
</trkpt>
<trkpt lat="51.252775" lon="6.521331">
<ele>25.5</ele>
<time>2013-03-03T13:57:05.000Z</time>
</trkpt>
<trkpt lat="51.252762" lon="6.521406">
<ele>25.6</ele>
<time>2013-03-03T13:57:06.000Z</time>
</trkpt>
<trkpt lat="51.252733" lon="6.521529">
<ele>25.1</ele>
<time>2013-03-03T13:57:08.000Z</time>
</trkpt>
<trkpt lat="51.252716" lon="6.521671">
<ele>25</ele>
<time>2013-03-03T13:57:10.000Z</time>
</trkpt>
<trkpt lat="51.252698" lon="6.521812">
<ele>24.2</ele>
<time>2013-03-03T13:57:12.000Z</time>
</trkpt>
<trkpt lat="51.252665" lon="6.521951">
<ele>23.4</ele>
<time>2013-03-03T13:57:14.000Z</time>
</trkpt>
<trkpt lat="51.252645" lon="6.52208">
<ele>23.5</ele>
<time>2013-03-03T13:57:16.000Z</time>
</trkpt>
<trkpt lat="51.252632" lon="6.52215">
<ele>24</ele>
<time>2013-03-03T13:57:17.000Z</time>
</trkpt>
<trkpt lat="51.252614" lon="6.522283">
<ele>24.4</ele>
<time>2013-03-03T13:57:19.000Z</time>
</trkpt>
<trkpt lat="51.252603" lon="6.522356">
<ele>25.6</ele>
<time>2013-03-03T13:57:20.000Z</time>
</trkpt>
<trkpt lat="51.252576" lon="6.522499">
<ele>26.1</ele>
<time>2013-03-03T13:57:22.000Z</time>
</trkpt>
<trkpt lat="51.252568" lon="6.52257">
<ele>26.5</ele>
<time>2013-03-03T13:57:23.000Z</time>
</trkpt>
<trkpt lat="51.252547" lon="6.522705">
<ele>27.4</ele>
<time>2013-03-03T13:57:25.000Z</time>
</trkpt>
<trkpt lat="51.252532" lon="6.522777">
<ele>27.5</ele>
<time>2013-03-03T13:57:26.000Z</time>
</trkpt>
<trkpt lat="51.252519" lon="6.52285">
<ele>27.5</ele>
<time>2013-03-03T13:57:27.000Z</time>
</trkpt>
<trkpt lat="51.252501" lon="6.52299">
<ele>28.2</ele>
<time>2013-03-03T13:57:29.000Z</time>
</trkpt>
<trkpt lat="51.252496" lon="6.523062">
<ele>28.2</ele>
<time>2013-03-03T13:57:30.000Z</time>
</trkpt>
<trkpt lat="51.252474" lon="6.523194">
<ele>28.2</ele>
<time>2013-03-03T13:57:32.000Z</time>
</trkpt>
<trkpt lat="51.252463" lon="6.523321">
<ele>27.8</ele>
<time>2013-03-03T13:57:34.000Z</time>
</trkpt>
<trkpt lat="51.25245" lon="6.523399">
<ele>28</ele>
<time>2013-03-03T13:57:35.000Z</time>
</trkpt>
<trkpt lat="51.252449" lon="6.523475">
<ele>28.1</ele>
<time>2013-03-03T13:57:36.000Z</time>
</trkpt>
<trkpt lat="51.252441" lon="6.523616">
<ele>28.1</ele>
<time>2013-03-03T13:57:38.000Z</time>
</trkpt>
<trkpt lat="51.252433" lon="6.523687">
<ele>28.3</ele>
<time>2013-03-03T13:57:39.000Z</time>
</trkpt>
<trkpt lat="51.252436" lon="6.523758">
<ele>28</ele>
<time>2013-03-03T13:57:40.000Z</time>
</trkpt>
<trkpt lat="51.252437" lon="6.523834">
<ele>28.2</ele>
<time>2013-03-03T13:57:41.000Z</time>
</trkpt>
<trkpt lat="51.252434" lon="6.523971">
<ele>27.9</ele>
<time>2013-03-03T13:57:43.000Z</time>
</trkpt>
<trkpt lat="51.252434" lon="6.524119">
<ele>29.3</ele>
<time>2013-03-03T13:57:45.000Z</time>
</trkpt>
<trkpt lat="51.252431" lon="6.524248">
<ele>28.8</ele>
<time>2013-03-03T13:57:47.000Z</time>
</trkpt>
<trkpt lat="51.252432" lon="6.524373">
<ele>29</ele>
<time>2013-03-03T13:57:49.000Z</time>
</trkpt>
<trkpt lat="51.252434" lon="6.524489">
<ele>31.3</ele>
<time>2013-03-03T13:57:51.000Z</time>
</trkpt>
<trkpt lat="51.252443" lon="6.524627">
<ele>33.6</ele>
<time>2013-03-03T13:57:53.000Z</time>
</trkpt>
<trkpt lat="51.252429" lon="6.524696">
<ele>34</ele>
<time>2013-03-03T13:57:54.000Z</time>
</trkpt>
<trkpt lat="51.252399" lon="6.524826">
<ele>33.2</ele>
<time>2013-03-03T13:57:56.000Z</time>
</trkpt>
<trkpt lat="51.252407" lon="6.524937">
<ele>32.7</ele>
<time>2013-03-03T13:57:58.000Z</time>
</trkpt>
<trkpt lat="51.252475" lon="6.524958">
<ele>31.7</ele>
<time>2013-03-03T13:58:00.000Z</time>
</trkpt>
<trkpt lat="51.252539" lon="6.524965">
<ele>31.1</ele>
<time>2013-03-03T13:58:02.000Z</time>
</trkpt>
<trkpt lat="51.252611" lon="6.524982">
<ele>28.9</ele>
<time>2013-03-03T13:58:04.000Z</time>
</trkpt>
<trkpt lat="51.252679" lon="6.524998">
<ele>29.4</ele>
<time>2013-03-03T13:58:06.000Z</time>
</trkpt>
<trkpt lat="51.252755" lon="6.525012">
<ele>29.4</ele>
<time>2013-03-03T13:58:08.000Z</time>
</trkpt>
<trkpt lat="51.25283" lon="6.525023">
<ele>28.4</ele>
<time>2013-03-03T13:58:10.000Z</time>
</trkpt>
<trkpt lat="51.252906" lon="6.525028">
<ele>29.2</ele>
<time>2013-03-03T13:58:12.000Z</time>
</trkpt>
<trkpt lat="51.252978" lon="6.525033">
<ele>29.9</ele>
<time>2013-03-03T13:58:14.000Z</time>
</trkpt>
<trkpt lat="51.253035" lon="6.525044">
<ele>31.8</ele>
<time>2013-03-03T13:58:16.000Z</time>
</trkpt>
<trkpt lat="51.253092" lon="6.525062">
<ele>32.5</ele>
<time>2013-03-03T13:58:18.000Z</time>
</trkpt>
<trkpt lat="51.253161" lon="6.525072">
<ele>31.6</ele>
<time>2013-03-03T13:58:20.000Z</time>
</trkpt>
<trkpt lat="51.25324" lon="6.525085">
<ele>31.9</ele>
<time>2013-03-03T13:58:22.000Z</time>
</trkpt>
<trkpt lat="51.253323" lon="6.525102">
<ele>31.7</ele>
<time>2013-03-03T13:58:24.000Z</time>
</trkpt>
<trkpt lat="51.253397" lon="6.52512">
<ele>31.1</ele>
<time>2013-03-03T13:58:26.000Z</time>
</trkpt>
<trkpt lat="51.253479" lon="6.525144">
<ele>29.2</ele>
<time>2013-03-03T13:58:28.000Z</time>
</trkpt>
<trkpt lat="51.253566" lon="6.525164">
<ele>29.5</ele>
<time>2013-03-03T13:58:30.000Z</time>
</trkpt>
<trkpt lat="51.253611" lon="6.525171">
<ele>30.1</ele>
<time>2013-03-03T13:58:31.000Z</time>
</trkpt>
<trkpt lat="51.253656" lon="6.525175">
<ele>30</ele>
<time>2013-03-03T13:58:32.000Z</time>
</trkpt>
<trkpt lat="51.253701" lon="6.525173">
<ele>29.5</ele>
<time>2013-03-03T13:58:33.000Z</time>
</trkpt>
<trkpt lat="51.253786" lon="6.525177">
<ele>30.6</ele>
<time>2013-03-03T13:58:35.000Z</time>
</trkpt>
<trkpt lat="51.253872" lon="6.525185">
<ele>30.6</ele>
<time>2013-03-03T13:58:37.000Z</time>
</trkpt>
<trkpt lat="51.253994" lon="6.525192">
<ele>32</ele>
<time>2013-03-03T13:58:40.000Z</time>
</trkpt>
<trkpt lat="51.25407" lon="6.525198">
<ele>31.1</ele>
<time>2013-03-03T13:58:42.000Z</time>
</trkpt>
<trkpt lat="51.254139" lon="6.525194">
<ele>31.6</ele>
<time>2013-03-03T13:58:44.000Z</time>
</trkpt>
<trkpt lat="51.254206" lon="6.525188">
<ele>30.9</ele>
<time>2013-03-03T13:58:46.000Z</time>
</trkpt>
<trkpt lat="51.254267" lon="6.525183">
<ele>32.8</ele>
<time>2013-03-03T13:58:48.000Z</time>
</trkpt>
<trkpt lat="51.254334" lon="6.525178">
<ele>32.2</ele>
<time>2013-03-03T13:58:50.000Z</time>
</trkpt>
<trkpt lat="51.254395" lon="6.525189">
<ele>30.3</ele>
<time>2013-03-03T13:58:52.000Z</time>
</trkpt>
<trkpt lat="51.254447" lon="6.525229">
<ele>30.7</ele>
<time>2013-03-03T13:58:54.000Z</time>
</trkpt>
<trkpt lat="51.254486" lon="6.52529">
<ele>32.7</ele>
<time>2013-03-03T13:58:56.000Z</time>
</trkpt>
<trkpt lat="51.254474" lon="6.52538">
<ele>35.1</ele>
<time>2013-03-03T13:58:58.000Z</time>
</trkpt>
<trkpt lat="51.254447" lon="6.525488">
<ele>34</ele>
<time>2013-03-03T13:59:00.000Z</time>
</trkpt>
<trkpt lat="51.25443" lon="6.525601">
<ele>34.1</ele>
<time>2013-03-03T13:59:02.000Z</time>
</trkpt>
<trkpt lat="51.254431" lon="6.525719">
<ele>35.1</ele>
<time>2013-03-03T13:59:04.000Z</time>
</trkpt>
<trkpt lat="51.254432" lon="6.52584">
<ele>34.9</ele>
<time>2013-03-03T13:59:06.000Z</time>
</trkpt>
<trkpt lat="51.254428" lon="6.525966">
<ele>33.3</ele>
<time>2013-03-03T13:59:08.000Z</time>
</trkpt>
<trkpt lat="51.254421" lon="6.52609">
<ele>33.3</ele>
<time>2013-03-03T13:59:10.000Z</time>
</trkpt>
<trkpt lat="51.254415" lon="6.52622">
<ele>34</ele>
<time>2013-03-03T13:59:12.000Z</time>
</trkpt>
<trkpt lat="51.254414" lon="6.526355">
<ele>33.9</ele>
<time>2013-03-03T13:59:14.000Z</time>
</trkpt>
<trkpt lat="51.254416" lon="6.52649">
<ele>33.3</ele>
<time>2013-03-03T13:59:16.000Z</time>
</trkpt>
<trkpt lat="51.254414" lon="6.526628">
<ele>33.3</ele>
<time>2013-03-03T13:59:18.000Z</time>
</trkpt>
<trkpt lat="51.2544" lon="6.526761">
<ele>32.8</ele>
<time>2013-03-03T13:59:20.000Z</time>
</trkpt>
<trkpt lat="51.254402" lon="6.526833">
<ele>33</ele>
<time>2013-03-03T13:59:21.000Z</time>
</trkpt>
<trkpt lat="51.254405" lon="6.526969">
<ele>32.1</ele>
<time>2013-03-03T13:59:23.000Z</time>
</trkpt>
<trkpt lat="51.254405" lon="6.527095">
<ele>31.7</ele>
<time>2013-03-03T13:59:25.000Z</time>
</trkpt>
<trkpt lat="51.25441" lon="6.527215">
<ele>31.5</ele>
<time>2013-03-03T13:59:27.000Z</time>
</trkpt>
<trkpt lat="51.254424" lon="6.527327">
<ele>32</ele>
<time>2013-03-03T13:59:29.000Z</time>
</trkpt>
<trkpt lat="51.254481" lon="6.527402">
<ele>32.7</ele>
<time>2013-03-03T13:59:31.000Z</time>
</trkpt>
<trkpt lat="51.254532" lon="6.527482">
<ele>31.4</ele>
<time>2013-03-03T13:59:33.000Z</time>
</trkpt>
<trkpt lat="51.254548" lon="6.52758">
<ele>31.4</ele>
<time>2013-03-03T13:59:35.000Z</time>
</trkpt>
<trkpt lat="51.25453" lon="6.52769">
<ele>31.2</ele>
<time>2013-03-03T13:59:37.000Z</time>
</trkpt>
<trkpt lat="51.254506" lon="6.527797">
<ele>31.7</ele>
<time>2013-03-03T13:59:39.000Z</time>
</trkpt>
<trkpt lat="51.254486" lon="6.527916">
<ele>31.5</ele>
<time>2013-03-03T13:59:41.000Z</time>
</trkpt>
<trkpt lat="51.254475" lon="6.528035">
<ele>31.6</ele>
<time>2013-03-03T13:59:43.000Z</time>
</trkpt>
<trkpt lat="51.254469" lon="6.528139">
<ele>31.4</ele>
<time>2013-03-03T13:59:45.000Z</time>
</trkpt>
<trkpt lat="51.254482" lon="6.528214">
<ele>30.4</ele>
<time>2013-03-03T13:59:47.000Z</time>
</trkpt>
<trkpt lat="51.254517" lon="6.528267">
<ele>30.6</ele>
<time>2013-03-03T13:59:49.000Z</time>
</trkpt>
<trkpt lat="51.254567" lon="6.528299">
<ele>29.9</ele>
<time>2013-03-03T13:59:51.000Z</time>
</trkpt>
<trkpt lat="51.254628" lon="6.528313">
<ele>29.5</ele>
<time>2013-03-03T13:59:53.000Z</time>
</trkpt>
<trkpt lat="51.254694" lon="6.528316">
<ele>29.1</ele>
<time>2013-03-03T13:59:55.000Z</time>
</trkpt>
<trkpt lat="51.254762" lon="6.528312">
<ele>29.7</ele>
<time>2013-03-03T13:59:57.000Z</time>
</trkpt>
<trkpt lat="51.254828" lon="6.528302">
<ele>28.6</ele>
<time>2013-03-03T13:59:59.000Z</time>
</trkpt>
<trkpt lat="51.254891" lon="6.528288">
<ele>27.7</ele>
<time>2013-03-03T14:00:01.000Z</time>
</trkpt>
<trkpt lat="51.254954" lon="6.528287">
<ele>25.3</ele>
<time>2013-03-03T14:00:03.000Z</time>
</trkpt>
<trkpt lat="51.25502" lon="6.528293">
<ele>25.5</ele>
<time>2013-03-03T14:00:05.000Z</time>
</trkpt>
<trkpt lat="51.255088" lon="6.528292">
<ele>26.3</ele>
<time>2013-03-03T14:00:07.000Z</time>
</trkpt>
<trkpt lat="51.255155" lon="6.528289">
<ele>27.2</ele>
<time>2013-03-03T14:00:09.000Z</time>
</trkpt>
<trkpt lat="51.255217" lon="6.528302">
<ele>27.3</ele>
<time>2013-03-03T14:00:11.000Z</time>
</trkpt>
<trkpt lat="51.25528" lon="6.528329">
<ele>27.4</ele>
<time>2013-03-03T14:00:13.000Z</time>
</trkpt>
<trkpt lat="51.25535" lon="6.528374">
<ele>28.1</ele>
<time>2013-03-03T14:00:15.000Z</time>
</trkpt>
<trkpt lat="51.255421" lon="6.52843">
<ele>27.6</ele>
<time>2013-03-03T14:00:17.000Z</time>
</trkpt>
<trkpt lat="51.255486" lon="6.528487">
<ele>28</ele>
<time>2013-03-03T14:00:19.000Z</time>
</trkpt>
<trkpt lat="51.25555" lon="6.528546">
<ele>29</ele>
<time>2013-03-03T14:00:21.000Z</time>
</trkpt>
<trkpt lat="51.255606" lon="6.528604">
<ele>29.4</ele>
<time>2013-03-03T14:00:23.000Z</time>
</trkpt>
<trkpt lat="51.255623" lon="6.528672">
<ele>29.2</ele>
<time>2013-03-03T14:00:25.000Z</time>
</trkpt>
<trkpt lat="51.2556" lon="6.528737">
<ele>29.1</ele>
<time>2013-03-03T14:00:27.000Z</time>
</trkpt>
<trkpt lat="51.255559" lon="6.528805">
<ele>30.6</ele>
<time>2013-03-03T14:00:29.000Z</time>
</trkpt>
<trkpt lat="51.255522" lon="6.528879">
<ele>30.7</ele>
<time>2013-03-03T14:00:31.000Z</time>
</trkpt>
<trkpt lat="51.255488" lon="6.528966">
<ele>31.6</ele>
<time>2013-03-03T14:00:33.000Z</time>
</trkpt>
<trkpt lat="51.255455" lon="6.529058">
<ele>33</ele>
<time>2013-03-03T14:00:35.000Z</time>
</trkpt>
<trkpt lat="51.255421" lon="6.529145">
<ele>32.8</ele>
<time>2013-03-03T14:00:37.000Z</time>
</trkpt>
<trkpt lat="51.255395" lon="6.529229">
<ele>33.4</ele>
<time>2013-03-03T14:00:39.000Z</time>
</trkpt>
<trkpt lat="51.255382" lon="6.529299">
<ele>31.9</ele>
<time>2013-03-03T14:00:41.000Z</time>
</trkpt>
<trkpt lat="51.255412" lon="6.529388">
<ele>31</ele>
<time>2013-03-03T14:00:44.000Z</time>
</trkpt>
<trkpt lat="51.255453" lon="6.52944">
<ele>31.7</ele>
<time>2013-03-03T14:00:46.000Z</time>
</trkpt>
<trkpt lat="51.255499" lon="6.529481">
<ele>32.3</ele>
<time>2013-03-03T14:00:48.000Z</time>
</trkpt>
<trkpt lat="51.25555" lon="6.529511">
<ele>32.7</ele>
<time>2013-03-03T14:00:50.000Z</time>
</trkpt>
<trkpt lat="51.25561" lon="6.529545">
<ele>30.5</ele>
<time>2013-03-03T14:00:52.000Z</time>
</trkpt>
<trkpt lat="51.255667" lon="6.529604">
<ele>29.7</ele>
<time>2013-03-03T14:00:54.000Z</time>
</trkpt>
<trkpt lat="51.255714" lon="6.529673">
<ele>31.5</ele>
<time>2013-03-03T14:00:56.000Z</time>
</trkpt>
<trkpt lat="51.255761" lon="6.529731">
<ele>32.9</ele>
<time>2013-03-03T14:00:58.000Z</time>
</trkpt>
<trkpt lat="51.255834" lon="6.529767">
<ele>31</ele>
<time>2013-03-03T14:01:00.000Z</time>
</trkpt>
<trkpt lat="51.255898" lon="6.529778">
<ele>30.6</ele>
<time>2013-03-03T14:01:02.000Z</time>
</trkpt>
<trkpt lat="51.25596" lon="6.529812">
<ele>30.8</ele>
<time>2013-03-03T14:01:04.000Z</time>
</trkpt>
<trkpt lat="51.256011" lon="6.52987">
<ele>30.6</ele>
<time>2013-03-03T14:01:06.000Z</time>
</trkpt>
<trkpt lat="51.256055" lon="6.52994">
<ele>29.2</ele>
<time>2013-03-03T14:01:08.000Z</time>
</trkpt>
<trkpt lat="51.256088" lon="6.530016">
<ele>31.1</ele>
<time>2013-03-03T14:01:10.000Z</time>
</trkpt>
<trkpt lat="51.256109" lon="6.530116">
<ele>31.5</ele>
<time>2013-03-03T14:01:12.000Z</time>
</trkpt>
<trkpt lat="51.256132" lon="6.530216">
<ele>30.9</ele>
<time>2013-03-03T14:01:14.000Z</time>
</trkpt>
<trkpt lat="51.256164" lon="6.530309">
<ele>31.9</ele>
<time>2013-03-03T14:01:16.000Z</time>
</trkpt>
<trkpt lat="51.2562" lon="6.530395">
<ele>32</ele>
<time>2013-03-03T14:01:18.000Z</time>
</trkpt>
<trkpt lat="51.256243" lon="6.530482">
<ele>33.3</ele>
<time>2013-03-03T14:01:20.000Z</time>
</trkpt>
<trkpt lat="51.256284" lon="6.53056">
<ele>33.2</ele>
<time>2013-03-03T14:01:22.000Z</time>
</trkpt>
<trkpt lat="51.256308" lon="6.530645">
<ele>33.9</ele>
<time>2013-03-03T14:01:24.000Z</time>
</trkpt>
<trkpt lat="51.256331" lon="6.530723">
<ele>35.4</ele>
<time>2013-03-03T14:01:26.000Z</time>
</trkpt>
<trkpt lat="51.256356" lon="6.530794">
<ele>33</ele>
<time>2013-03-03T14:01:28.000Z</time>
</trkpt>
<trkpt lat="51.256386" lon="6.530867">
<ele>33.1</ele>
<time>2013-03-03T14:01:30.000Z</time>
</trkpt>
<trkpt lat="51.256425" lon="6.530993">
<ele>34.5</ele>
<time>2013-03-03T14:01:33.000Z</time>
</trkpt>
<trkpt lat="51.256462" lon="6.531088">
<ele>35.1</ele>
<time>2013-03-03T14:01:35.000Z</time>
</trkpt>
<trkpt lat="51.256499" lon="6.531186">
<ele>36.1</ele>
<time>2013-03-03T14:01:37.000Z</time>
</trkpt>
<trkpt lat="51.256528" lon="6.531272">
<ele>34.7</ele>
<time>2013-03-03T14:01:39.000Z</time>
</trkpt>
<trkpt lat="51.256558" lon="6.531358">
<ele>35.5</ele>
<time>2013-03-03T14:01:41.000Z</time>
</trkpt>
<trkpt lat="51.256593" lon="6.53144">
<ele>36.4</ele>
<time>2013-03-03T14:01:43.000Z</time>
</trkpt>
<trkpt lat="51.256639" lon="6.531509">
<ele>36.8</ele>
<time>2013-03-03T14:01:45.000Z</time>
</trkpt>
<trkpt lat="51.256697" lon="6.531556">
<ele>35.9</ele>
<time>2013-03-03T14:01:47.000Z</time>
</trkpt>
<trkpt lat="51.256757" lon="6.531604">
<ele>32.6</ele>
<time>2013-03-03T14:01:49.000Z</time>
</trkpt>
<trkpt lat="51.256801" lon="6.531677">
<ele>33.1</ele>
<time>2013-03-03T14:01:51.000Z</time>
</trkpt>
<trkpt lat="51.256823" lon="6.531763">
<ele>32</ele>
<time>2013-03-03T14:01:53.000Z</time>
</trkpt>
<trkpt lat="51.256797" lon="6.531855">
<ele>31.6</ele>
<time>2013-03-03T14:01:55.000Z</time>
</trkpt>
<trkpt lat="51.256754" lon="6.53195">
<ele>33.3</ele>
<time>2013-03-03T14:01:57.000Z</time>
</trkpt>
<trkpt lat="51.256711" lon="6.532053">
<ele>32</ele>
<time>2013-03-03T14:01:59.000Z</time>
</trkpt>
<trkpt lat="51.256671" lon="6.532161">
<ele>32.2</ele>
<time>2013-03-03T14:02:01.000Z</time>
</trkpt>
<trkpt lat="51.256632" lon="6.532253">
<ele>33.8</ele>
<time>2013-03-03T14:02:03.000Z</time>
</trkpt>
<trkpt lat="51.256595" lon="6.532347">
<ele>33.2</ele>
<time>2013-03-03T14:02:05.000Z</time>
</trkpt>
<trkpt lat="51.256558" lon="6.532434">
<ele>32.5</ele>
<time>2013-03-03T14:02:07.000Z</time>
</trkpt>
<trkpt lat="51.256523" lon="6.532531">
<ele>30.4</ele>
<time>2013-03-03T14:02:09.000Z</time>
</trkpt>
<trkpt lat="51.256485" lon="6.532635">
<ele>31</ele>
<time>2013-03-03T14:02:11.000Z</time>
</trkpt>
<trkpt lat="51.256449" lon="6.532739">
<ele>30.4</ele>
<time>2013-03-03T14:02:13.000Z</time>
</trkpt>
<trkpt lat="51.256414" lon="6.532837">
<ele>30.3</ele>
<time>2013-03-03T14:02:15.000Z</time>
</trkpt>
<trkpt lat="51.256411" lon="6.532919">
<ele>30</ele>
<time>2013-03-03T14:02:17.000Z</time>
</trkpt>
<trkpt lat="51.256465" lon="6.532974">
<ele>29.7</ele>
<time>2013-03-03T14:02:19.000Z</time>
</trkpt>
<trkpt lat="51.256549" lon="6.533016">
<ele>29</ele>
<time>2013-03-03T14:02:21.000Z</time>
</trkpt>
<trkpt lat="51.256624" lon="6.533081">
<ele>30.1</ele>
<time>2013-03-03T14:02:23.000Z</time>
</trkpt>
<trkpt lat="51.256674" lon="6.533174">
<ele>29.2</ele>
<time>2013-03-03T14:02:25.000Z</time>
</trkpt>
<trkpt lat="51.256707" lon="6.533283">
<ele>29.5</ele>
<time>2013-03-03T14:02:27.000Z</time>
</trkpt>
<trkpt lat="51.256725" lon="6.533393">
<ele>29.4</ele>
<time>2013-03-03T14:02:29.000Z</time>
</trkpt>
<trkpt lat="51.25673" lon="6.533493">
<ele>28</ele>
<time>2013-03-03T14:02:31.000Z</time>
</trkpt>
<trkpt lat="51.256735" lon="6.533585">
<ele>28.4</ele>
<time>2013-03-03T14:02:33.000Z</time>
</trkpt>
<trkpt lat="51.256732" lon="6.533682">
<ele>27.2</ele>
<time>2013-03-03T14:02:35.000Z</time>
</trkpt>
<trkpt lat="51.256716" lon="6.533783">
<ele>28.2</ele>
<time>2013-03-03T14:02:37.000Z</time>
</trkpt>
<trkpt lat="51.2567" lon="6.533884">
<ele>28</ele>
<time>2013-03-03T14:02:39.000Z</time>
</trkpt>
<trkpt lat="51.256685" lon="6.53398">
<ele>27.9</ele>
<time>2013-03-03T14:02:41.000Z</time>
</trkpt>
<trkpt lat="51.256669" lon="6.534077">
<ele>27.7</ele>
<time>2013-03-03T14:02:43.000Z</time>
</trkpt>
<trkpt lat="51.256648" lon="6.534176">
<ele>28.2</ele>
<time>2013-03-03T14:02:45.000Z</time>
</trkpt>
<trkpt lat="51.256624" lon="6.534283">
<ele>30</ele>
<time>2013-03-03T14:02:47.000Z</time>
</trkpt>
<trkpt lat="51.256605" lon="6.534394">
<ele>31.5</ele>
<time>2013-03-03T14:02:49.000Z</time>
</trkpt>
<trkpt lat="51.256586" lon="6.534502">
<ele>31.4</ele>
<time>2013-03-03T14:02:51.000Z</time>
</trkpt>
<trkpt lat="51.256563" lon="6.534614">
<ele>30.1</ele>
<time>2013-03-03T14:02:53.000Z</time>
</trkpt>
<trkpt lat="51.256541" lon="6.534731">
<ele>31.3</ele>
<time>2013-03-03T14:02:55.000Z</time>
</trkpt>
<trkpt lat="51.256499" lon="6.53491">
<ele>31.8</ele>
<time>2013-03-03T14:02:58.000Z</time>
</trkpt>
<trkpt lat="51.256475" lon="6.535044">
<ele>31.7</ele>
<time>2013-03-03T14:03:00.000Z</time>
</trkpt>
<trkpt lat="51.256457" lon="6.535176">
<ele>29.9</ele>
<time>2013-03-03T14:03:02.000Z</time>
</trkpt>
<trkpt lat="51.256443" lon="6.535309">
<ele>29.9</ele>
<time>2013-03-03T14:03:04.000Z</time>
</trkpt>
<trkpt lat="51.256428" lon="6.535434">
<ele>29.5</ele>
<time>2013-03-03T14:03:06.000Z</time>
</trkpt>
<trkpt lat="51.256412" lon="6.535556">
<ele>29.4</ele>
<time>2013-03-03T14:03:08.000Z</time>
</trkpt>
<trkpt lat="51.256398" lon="6.535682">
<ele>29.4</ele>
<time>2013-03-03T14:03:10.000Z</time>
</trkpt>
<trkpt lat="51.256368" lon="6.535787">
<ele>27.2</ele>
<time>2013-03-03T14:03:12.000Z</time>
</trkpt>
<trkpt lat="51.256346" lon="6.535905">
<ele>27</ele>
<time>2013-03-03T14:03:14.000Z</time>
</trkpt>
<trkpt lat="51.256333" lon="6.536033">
<ele>26.3</ele>
<time>2013-03-03T14:03:16.000Z</time>
</trkpt>
<trkpt lat="51.256319" lon="6.536168">
<ele>26.4</ele>
<time>2013-03-03T14:03:18.000Z</time>
</trkpt>
<trkpt lat="51.256298" lon="6.536296">
<ele>26.2</ele>
<time>2013-03-03T14:03:20.000Z</time>
</trkpt>
<trkpt lat="51.256273" lon="6.536427">
<ele>26.5</ele>
<time>2013-03-03T14:03:22.000Z</time>
</trkpt>
<trkpt lat="51.256247" lon="6.536555">
<ele>27.1</ele>
<time>2013-03-03T14:03:24.000Z</time>
</trkpt>
<trkpt lat="51.256221" lon="6.536679">
<ele>26.6</ele>
<time>2013-03-03T14:03:26.000Z</time>
</trkpt>
<trkpt lat="51.256203" lon="6.536796">
<ele>26.1</ele>
<time>2013-03-03T14:03:28.000Z</time>
</trkpt>
<trkpt lat="51.25619" lon="6.536907">
<ele>24.5</ele>
<time>2013-03-03T14:03:30.000Z</time>
</trkpt>
<trkpt lat="51.256183" lon="6.537009">
<ele>22.7</ele>
<time>2013-03-03T14:03:32.000Z</time>
</trkpt>
<trkpt lat="51.256182" lon="6.53711">
<ele>23.7</ele>
<time>2013-03-03T14:03:34.000Z</time>
</trkpt>
<trkpt lat="51.256182" lon="6.537222">
<ele>22.6</ele>
<time>2013-03-03T14:03:36.000Z</time>
</trkpt>
<trkpt lat="51.256189" lon="6.53731">
<ele>22.5</ele>
<time>2013-03-03T14:03:38.000Z</time>
</trkpt>
<trkpt lat="51.256217" lon="6.537384">
<ele>25</ele>
<time>2013-03-03T14:03:40.000Z</time>
</trkpt>
<trkpt lat="51.256266" lon="6.537433">
<ele>27.1</ele>
<time>2013-03-03T14:03:44.000Z</time>
</trkpt>
<trkpt lat="51.256319" lon="6.537436">
<ele>28.8</ele>
<time>2013-03-03T14:03:46.000Z</time>
</trkpt>
<trkpt lat="51.256393" lon="6.53745">
<ele>28.4</ele>
<time>2013-03-03T14:03:48.000Z</time>
</trkpt>
<trkpt lat="51.256468" lon="6.537467">
<ele>29.2</ele>
<time>2013-03-03T14:03:50.000Z</time>
</trkpt>
<trkpt lat="51.256522" lon="6.537474">
<ele>30.6</ele>
<time>2013-03-03T14:03:52.000Z</time>
</trkpt>
<trkpt lat="51.256728" lon="6.537495">
<ele>42.5</ele>
<time>2013-03-03T14:03:53.000Z</time>
</trkpt>
<trkpt lat="51.256753" lon="6.537557">
<ele>49.3</ele>
<time>2013-03-03T14:03:55.000Z</time>
</trkpt>
<trkpt lat="51.25673" lon="6.537652">
<ele>49.8</ele>
<time>2013-03-03T14:03:57.000Z</time>
</trkpt>
<trkpt lat="51.256728" lon="6.537727">
<ele>49</ele>
<time>2013-03-03T14:03:58.000Z</time>
</trkpt>
<trkpt lat="51.256708" lon="6.537811">
<ele>49.8</ele>
<time>2013-03-03T14:04:00.000Z</time>
</trkpt>
<trkpt lat="51.256682" lon="6.537894">
<ele>48.7</ele>
<time>2013-03-03T14:04:01.000Z</time>
</trkpt>
<trkpt lat="51.256668" lon="6.538">
<ele>48.9</ele>
<time>2013-03-03T14:04:03.000Z</time>
</trkpt>
<trkpt lat="51.25665" lon="6.538112">
<ele>48.2</ele>
<time>2013-03-03T14:04:05.000Z</time>
</trkpt>
<trkpt lat="51.256629" lon="6.538216">
<ele>48.5</ele>
<time>2013-03-03T14:04:07.000Z</time>
</trkpt>
<trkpt lat="51.256603" lon="6.538328">
<ele>48.1</ele>
<time>2013-03-03T14:04:09.000Z</time>
</trkpt>
<trkpt lat="51.256581" lon="6.538439">
<ele>48.6</ele>
<time>2013-03-03T14:04:11.000Z</time>
</trkpt>
<trkpt lat="51.256563" lon="6.538547">
<ele>49.4</ele>
<time>2013-03-03T14:04:13.000Z</time>
</trkpt>
<trkpt lat="51.256546" lon="6.538656">
<ele>47.5</ele>
<time>2013-03-03T14:04:15.000Z</time>
</trkpt>
<trkpt lat="51.256528" lon="6.538758">
<ele>47.8</ele>
<time>2013-03-03T14:04:17.000Z</time>
</trkpt>
<trkpt lat="51.256514" lon="6.538858">
<ele>47.6</ele>
<time>2013-03-03T14:04:19.000Z</time>
</trkpt>
<trkpt lat="51.2565" lon="6.538962">
<ele>47.6</ele>
<time>2013-03-03T14:04:21.000Z</time>
</trkpt>
<trkpt lat="51.256479" lon="6.539068">
<ele>43.9</ele>
<time>2013-03-03T14:04:23.000Z</time>
</trkpt>
<trkpt lat="51.256451" lon="6.539179">
<ele>41.3</ele>
<time>2013-03-03T14:04:25.000Z</time>
</trkpt>
<trkpt lat="51.256425" lon="6.539282">
<ele>39.5</ele>
<time>2013-03-03T14:04:27.000Z</time>
</trkpt>
<trkpt lat="51.256402" lon="6.539383">
<ele>38.9</ele>
<time>2013-03-03T14:04:29.000Z</time>
</trkpt>
<trkpt lat="51.256385" lon="6.539482">
<ele>37.6</ele>
<time>2013-03-03T14:04:31.000Z</time>
</trkpt>
<trkpt lat="51.256372" lon="6.539578">
<ele>37</ele>
<time>2013-03-03T14:04:33.000Z</time>
</trkpt>
<trkpt lat="51.256358" lon="6.539671">
<ele>36.6</ele>
<time>2013-03-03T14:04:35.000Z</time>
</trkpt>
<trkpt lat="51.256342" lon="6.539761">
<ele>36.9</ele>
<time>2013-03-03T14:04:37.000Z</time>
</trkpt>
<trkpt lat="51.256325" lon="6.539863">
<ele>36.2</ele>
<time>2013-03-03T14:04:39.000Z</time>
</trkpt>
<trkpt lat="51.25631" lon="6.539979">
<ele>34.5</ele>
<time>2013-03-03T14:04:41.000Z</time>
</trkpt>
<trkpt lat="51.256295" lon="6.540098">
<ele>36.9</ele>
<time>2013-03-03T14:04:43.000Z</time>
</trkpt>
<trkpt lat="51.256281" lon="6.540216">
<ele>37.6</ele>
<time>2013-03-03T14:04:45.000Z</time>
</trkpt>
<trkpt lat="51.256273" lon="6.540334">
<ele>37.6</ele>
<time>2013-03-03T14:04:47.000Z</time>
</trkpt>
<trkpt lat="51.25628" lon="6.540465">
<ele>42</ele>
<time>2013-03-03T14:04:49.000Z</time>
</trkpt>
<trkpt lat="51.256293" lon="6.540599">
<ele>41.5</ele>
<time>2013-03-03T14:04:51.000Z</time>
</trkpt>
<trkpt lat="51.256292" lon="6.54072">
<ele>39.3</ele>
<time>2013-03-03T14:04:53.000Z</time>
</trkpt>
<trkpt lat="51.256403" lon="6.540829">
<ele>39</ele>
<time>2013-03-03T14:04:55.000Z</time>
</trkpt>
<trkpt lat="51.256468" lon="6.540887">
<ele>37.9</ele>
<time>2013-03-03T14:04:57.000Z</time>
</trkpt>
<trkpt lat="51.256552" lon="6.540883">
<ele>34.7</ele>
<time>2013-03-03T14:04:59.000Z</time>
</trkpt>
<trkpt lat="51.256577" lon="6.540784">
<ele>32.8</ele>
<time>2013-03-03T14:05:01.000Z</time>
</trkpt>
<trkpt lat="51.256509" lon="6.540693">
<ele>32</ele>
<time>2013-03-03T14:05:03.000Z</time>
</trkpt>
<trkpt lat="51.256447" lon="6.540652">
<ele>30.3</ele>
<time>2013-03-03T14:05:05.000Z</time>
</trkpt>
<trkpt lat="51.256369" lon="6.540663">
<ele>31.4</ele>
<time>2013-03-03T14:05:07.000Z</time>
</trkpt>
<trkpt lat="51.256291" lon="6.540673">
<ele>33.2</ele>
<time>2013-03-03T14:05:09.000Z</time>
</trkpt>
<trkpt lat="51.256231" lon="6.540707">
<ele>32</ele>
<time>2013-03-03T14:05:11.000Z</time>
</trkpt>
<trkpt lat="51.256183" lon="6.540755">
<ele>33.2</ele>
<time>2013-03-03T14:05:13.000Z</time>
</trkpt>
<trkpt lat="51.256153" lon="6.540819">
<ele>33.2</ele>
<time>2013-03-03T14:05:15.000Z</time>
</trkpt>
<trkpt lat="51.256134" lon="6.540889">
<ele>33.4</ele>
<time>2013-03-03T14:05:17.000Z</time>
</trkpt>
<trkpt lat="51.256124" lon="6.540993">
<ele>32.1</ele>
<time>2013-03-03T14:05:20.000Z</time>
</trkpt>
<trkpt lat="51.256124" lon="6.541096">
<ele>32.9</ele>
<time>2013-03-03T14:05:23.000Z</time>
</trkpt>
<trkpt lat="51.256131" lon="6.541179">
<ele>33.1</ele>
<time>2013-03-03T14:05:25.000Z</time>
</trkpt>
<trkpt lat="51.256149" lon="6.541267">
<ele>34</ele>
<time>2013-03-03T14:05:27.000Z</time>
</trkpt>
<trkpt lat="51.256172" lon="6.541371">
<ele>33.5</ele>
<time>2013-03-03T14:05:29.000Z</time>
</trkpt>
<trkpt lat="51.256194" lon="6.541466">
<ele>32.6</ele>
<time>2013-03-03T14:05:31.000Z</time>
</trkpt>
<trkpt lat="51.25622" lon="6.541533">
<ele>31.4</ele>
<time>2013-03-03T14:05:33.000Z</time>
</trkpt>
<trkpt lat="51.256254" lon="6.541587">
<ele>31.7</ele>
<time>2013-03-03T14:05:35.000Z</time>
</trkpt>
<trkpt lat="51.256302" lon="6.54164">
<ele>34.5</ele>
<time>2013-03-03T14:05:37.000Z</time>
</trkpt>
<trkpt lat="51.256374" lon="6.541646">
<ele>33.4</ele>
<time>2013-03-03T14:05:38.000Z</time>
</trkpt>
<trkpt lat="51.25642" lon="6.541664">
<ele>34.3</ele>
<time>2013-03-03T14:05:39.000Z</time>
</trkpt>
<trkpt lat="51.256509" lon="6.541637">
<ele>34.5</ele>
<time>2013-03-03T14:05:41.000Z</time>
</trkpt>
<trkpt lat="51.25658" lon="6.541623">
<ele>32.2</ele>
<time>2013-03-03T14:05:43.000Z</time>
</trkpt>
<trkpt lat="51.256642" lon="6.541633">
<ele>32.9</ele>
<time>2013-03-03T14:05:46.000Z</time>
</trkpt>
<trkpt lat="51.256592" lon="6.54165">
<ele>33</ele>
<time>2013-03-03T14:05:50.000Z</time>
</trkpt>
<trkpt lat="51.25664" lon="6.541666">
<ele>33</ele>
<time>2013-03-03T14:05:57.000Z</time>
</trkpt>
<trkpt lat="51.256694" lon="6.541703">
<ele>34.2</ele>
<time>2013-03-03T14:06:01.000Z</time>
</trkpt>
<trkpt lat="51.256748" lon="6.541732">
<ele>34.1</ele>
<time>2013-03-03T14:06:03.000Z</time>
</trkpt>
<trkpt lat="51.256836" lon="6.541759">
<ele>35.1</ele>
<time>2013-03-03T14:06:05.000Z</time>
</trkpt>
<trkpt lat="51.256885" lon="6.541774">
<ele>34.9</ele>
<time>2013-03-03T14:06:06.000Z</time>
</trkpt>
<trkpt lat="51.25693" lon="6.541795">
<ele>32.3</ele>
<time>2013-03-03T14:06:07.000Z</time>
</trkpt>
<trkpt lat="51.256998" lon="6.541828">
<ele>31.6</ele>
<time>2013-03-03T14:06:09.000Z</time>
</trkpt>
<trkpt lat="51.257056" lon="6.541852">
<ele>31.4</ele>
<time>2013-03-03T14:06:11.000Z</time>
</trkpt>
<trkpt lat="51.257126" lon="6.541872">
<ele>32.4</ele>
<time>2013-03-03T14:06:13.000Z</time>
</trkpt>
<trkpt lat="51.257202" lon="6.541916">
<ele>32.3</ele>
<time>2013-03-03T14:06:15.000Z</time>
</trkpt>
<trkpt lat="51.257281" lon="6.541954">
<ele>29.4</ele>
<time>2013-03-03T14:06:17.000Z</time>
</trkpt>
<trkpt lat="51.257367" lon="6.541979">
<ele>29.3</ele>
<time>2013-03-03T14:06:19.000Z</time>
</trkpt>
<trkpt lat="51.257446" lon="6.541994">
<ele>33.5</ele>
<time>2013-03-03T14:06:21.000Z</time>
</trkpt>
<trkpt lat="51.257513" lon="6.542001">
<ele>34.8</ele>
<time>2013-03-03T14:06:23.000Z</time>
</trkpt>
<trkpt lat="51.257576" lon="6.542017">
<ele>36.6</ele>
<time>2013-03-03T14:06:25.000Z</time>
</trkpt>
<trkpt lat="51.257638" lon="6.542043">
<ele>36.8</ele>
<time>2013-03-03T14:06:27.000Z</time>
</trkpt>
<trkpt lat="51.257707" lon="6.542073">
<ele>35.9</ele>
<time>2013-03-03T14:06:29.000Z</time>
</trkpt>
<trkpt lat="51.257777" lon="6.542106">
<ele>35.4</ele>
<time>2013-03-03T14:06:31.000Z</time>
</trkpt>
<trkpt lat="51.25786" lon="6.542145">
<ele>35.3</ele>
<time>2013-03-03T14:06:33.000Z</time>
</trkpt>
<trkpt lat="51.257902" lon="6.542173">
<ele>35</ele>
<time>2013-03-03T14:06:34.000Z</time>
</trkpt>
<trkpt lat="51.257962" lon="6.542298">
<ele>36.3</ele>
<time>2013-03-03T14:06:36.000Z</time>
</trkpt>
<trkpt lat="51.257976" lon="6.54238">
<ele>35.9</ele>
<time>2013-03-03T14:06:37.000Z</time>
</trkpt>
<trkpt lat="51.257967" lon="6.542468">
<ele>36</ele>
<time>2013-03-03T14:06:38.000Z</time>
</trkpt>
<trkpt lat="51.257961" lon="6.542566">
<ele>37.6</ele>
<time>2013-03-03T14:06:39.000Z</time>
</trkpt>
<trkpt lat="51.257934" lon="6.542646">
<ele>36.4</ele>
<time>2013-03-03T14:06:40.000Z</time>
</trkpt>
<trkpt lat="51.257904" lon="6.54276">
<ele>35.7</ele>
<time>2013-03-03T14:06:41.000Z</time>
</trkpt>
<trkpt lat="51.257888" lon="6.542866">
<ele>34.6</ele>
<time>2013-03-03T14:06:42.000Z</time>
</trkpt>
<trkpt lat="51.257875" lon="6.542992">
<ele>34.1</ele>
<time>2013-03-03T14:06:43.000Z</time>
</trkpt>
<trkpt lat="51.257868" lon="6.543105">
<ele>33.8</ele>
<time>2013-03-03T14:06:44.000Z</time>
</trkpt>
<trkpt lat="51.257869" lon="6.543223">
<ele>33.4</ele>
<time>2013-03-03T14:06:45.000Z</time>
</trkpt>
<trkpt lat="51.257888" lon="6.543328">
<ele>32.9</ele>
<time>2013-03-03T14:06:46.000Z</time>
</trkpt>
<trkpt lat="51.257949" lon="6.54343">
<ele>31.9</ele>
<time>2013-03-03T14:06:47.000Z</time>
</trkpt>
<trkpt lat="51.257982" lon="6.543521">
<ele>31.7</ele>
<time>2013-03-03T14:06:48.000Z</time>
</trkpt>
<trkpt lat="51.258017" lon="6.543595">
<ele>31.9</ele>
<time>2013-03-03T14:06:49.000Z</time>
</trkpt>
<trkpt lat="51.258054" lon="6.543669">
<ele>32.3</ele>
<time>2013-03-03T14:06:50.000Z</time>
</trkpt>
<trkpt lat="51.258087" lon="6.543731">
<ele>33</ele>
<time>2013-03-03T14:06:51.000Z</time>
</trkpt>
<trkpt lat="51.258124" lon="6.543785">
<ele>33.9</ele>
<time>2013-03-03T14:06:52.000Z</time>
</trkpt>
<trkpt lat="51.258148" lon="6.543854">
<ele>34.3</ele>
<time>2013-03-03T14:06:53.000Z</time>
</trkpt>
<trkpt lat="51.258188" lon="6.543924">
<ele>34.4</ele>
<time>2013-03-03T14:06:54.000Z</time>
</trkpt>
<trkpt lat="51.258191" lon="6.544087">
<ele>34</ele>
<time>2013-03-03T14:06:57.000Z</time>
</trkpt>
<trkpt lat="51.258153" lon="6.544179">
<ele>33.7</ele>
<time>2013-03-03T14:06:59.000Z</time>
</trkpt>
<trkpt lat="51.258119" lon="6.544274">
<ele>32.8</ele>
<time>2013-03-03T14:07:01.000Z</time>
</trkpt>
<trkpt lat="51.258089" lon="6.544374">
<ele>31.5</ele>
<time>2013-03-03T14:07:03.000Z</time>
</trkpt>
<trkpt lat="51.258068" lon="6.544484">
<ele>31.5</ele>
<time>2013-03-03T14:07:05.000Z</time>
</trkpt>
<trkpt lat="51.25805" lon="6.544603">
<ele>32.4</ele>
<time>2013-03-03T14:07:07.000Z</time>
</trkpt>
<trkpt lat="51.258047" lon="6.544716">
<ele>31.4</ele>
<time>2013-03-03T14:07:09.000Z</time>
</trkpt>
<trkpt lat="51.258075" lon="6.544821">
<ele>30.7</ele>
<time>2013-03-03T14:07:11.000Z</time>
</trkpt>
<trkpt lat="51.258106" lon="6.544924">
<ele>30.4</ele>
<time>2013-03-03T14:07:13.000Z</time>
</trkpt>
<trkpt lat="51.258101" lon="6.54501">
<ele>28.8</ele>
<time>2013-03-03T14:07:15.000Z</time>
</trkpt>
<trkpt lat="51.258064" lon="6.545086">
<ele>29.1</ele>
<time>2013-03-03T14:07:17.000Z</time>
</trkpt>
<trkpt lat="51.258025" lon="6.545165">
<ele>29</ele>
<time>2013-03-03T14:07:19.000Z</time>
</trkpt>
<trkpt lat="51.258003" lon="6.545243">
<ele>30.9</ele>
<time>2013-03-03T14:07:21.000Z</time>
</trkpt>
<trkpt lat="51.257988" lon="6.545334">
<ele>32</ele>
<time>2013-03-03T14:07:24.000Z</time>
</trkpt>
<trkpt lat="51.258021" lon="6.545422">
<ele>32.4</ele>
<time>2013-03-03T14:07:27.000Z</time>
</trkpt>
<trkpt lat="51.258068" lon="6.545484">
<ele>30.8</ele>
<time>2013-03-03T14:07:29.000Z</time>
</trkpt>
<trkpt lat="51.258113" lon="6.545539">
<ele>28.8</ele>
<time>2013-03-03T14:07:31.000Z</time>
</trkpt>
<trkpt lat="51.258163" lon="6.545594">
<ele>32.2</ele>
<time>2013-03-03T14:07:33.000Z</time>
</trkpt>
<trkpt lat="51.258214" lon="6.545637">
<ele>33.5</ele>
<time>2013-03-03T14:07:35.000Z</time>
</trkpt>
<trkpt lat="51.258257" lon="6.545692">
<ele>35</ele>
<time>2013-03-03T14:07:37.000Z</time>
</trkpt>
<trkpt lat="51.258298" lon="6.545759">
<ele>37.4</ele>
<time>2013-03-03T14:07:39.000Z</time>
</trkpt>
<trkpt lat="51.258334" lon="6.545815">
<ele>36.9</ele>
<time>2013-03-03T14:07:41.000Z</time>
</trkpt>
<trkpt lat="51.258358" lon="6.545905">
<ele>37.8</ele>
<time>2013-03-03T14:07:44.000Z</time>
</trkpt>
<trkpt lat="51.25836" lon="6.546011">
<ele>38.8</ele>
<time>2013-03-03T14:07:47.000Z</time>
</trkpt>
<trkpt lat="51.258365" lon="6.546117">
<ele>37</ele>
<time>2013-03-03T14:07:50.000Z</time>
</trkpt>
<trkpt lat="51.258368" lon="6.546217">
<ele>36.8</ele>
<time>2013-03-03T14:07:52.000Z</time>
</trkpt>
<trkpt lat="51.258364" lon="6.54634">
<ele>36.1</ele>
<time>2013-03-03T14:07:54.000Z</time>
</trkpt>
<trkpt lat="51.25836" lon="6.54647">
<ele>35.3</ele>
<time>2013-03-03T14:07:56.000Z</time>
</trkpt>
<trkpt lat="51.25836" lon="6.546609">
<ele>36.1</ele>
<time>2013-03-03T14:07:58.000Z</time>
</trkpt>
<trkpt lat="51.258351" lon="6.546691">
<ele>36.3</ele>
<time>2013-03-03T14:07:59.000Z</time>
</trkpt>
<trkpt lat="51.258363" lon="6.546822">
<ele>35.8</ele>
<time>2013-03-03T14:08:01.000Z</time>
</trkpt>
<trkpt lat="51.258385" lon="6.546893">
<ele>35.9</ele>
<time>2013-03-03T14:08:02.000Z</time>
</trkpt>
<trkpt lat="51.258461" lon="6.546989">
<ele>37.4</ele>
<time>2013-03-03T14:08:04.000Z</time>
</trkpt>
<trkpt lat="51.258546" lon="6.54699">
<ele>38.2</ele>
<time>2013-03-03T14:08:06.000Z</time>
</trkpt>
<trkpt lat="51.258591" lon="6.54699">
<ele>36.4</ele>
<time>2013-03-03T14:08:07.000Z</time>
</trkpt>
<trkpt lat="51.258676" lon="6.547">
<ele>36</ele>
<time>2013-03-03T14:08:09.000Z</time>
</trkpt>
<trkpt lat="51.25877" lon="6.547027">
<ele>35.4</ele>
<time>2013-03-03T14:08:11.000Z</time>
</trkpt>
<trkpt lat="51.258831" lon="6.547045">
<ele>34.7</ele>
<time>2013-03-03T14:08:12.000Z</time>
</trkpt>
<trkpt lat="51.258884" lon="6.54703">
<ele>34.2</ele>
<time>2013-03-03T14:08:13.000Z</time>
</trkpt>
<trkpt lat="51.258929" lon="6.547036">
<ele>35</ele>
<time>2013-03-03T14:08:14.000Z</time>
</trkpt>
<trkpt lat="51.258979" lon="6.547094">
<ele>35.3</ele>
<time>2013-03-03T14:08:15.000Z</time>
</trkpt>
<trkpt lat="51.259029" lon="6.547086">
<ele>34.9</ele>
<time>2013-03-03T14:08:16.000Z</time>
</trkpt>
<trkpt lat="51.259081" lon="6.547141">
<ele>30.2</ele>
<time>2013-03-03T14:08:17.000Z</time>
</trkpt>
<trkpt lat="51.259149" lon="6.547103">
<ele>32.3</ele>
<time>2013-03-03T14:08:19.000Z</time>
</trkpt>
<trkpt lat="51.259233" lon="6.547083">
<ele>33.7</ele>
<time>2013-03-03T14:08:21.000Z</time>
</trkpt>
<trkpt lat="51.259274" lon="6.547049">
<ele>34.5</ele>
<time>2013-03-03T14:08:22.000Z</time>
</trkpt>
<trkpt lat="51.259332" lon="6.547042">
<ele>34.1</ele>
<time>2013-03-03T14:08:23.000Z</time>
</trkpt>
<trkpt lat="51.259385" lon="6.547072">
<ele>26.7</ele>
<time>2013-03-03T14:08:24.000Z</time>
</trkpt>
<trkpt lat="51.259464" lon="6.547026">
<ele>24.9</ele>
<time>2013-03-03T14:08:26.000Z</time>
</trkpt>
<trkpt lat="51.259532" lon="6.546955">
<ele>24.8</ele>
<time>2013-03-03T14:08:28.000Z</time>
</trkpt>
<trkpt lat="51.259585" lon="6.546878">
<ele>25.1</ele>
<time>2013-03-03T14:08:30.000Z</time>
</trkpt>
<trkpt lat="51.25963" lon="6.546814">
<ele>25.2</ele>
<time>2013-03-03T14:08:31.000Z</time>
</trkpt>
<trkpt lat="51.259664" lon="6.546763">
<ele>26.3</ele>
<time>2013-03-03T14:08:32.000Z</time>
</trkpt>
<trkpt lat="51.259718" lon="6.546754">
<ele>27.1</ele>
<time>2013-03-03T14:08:33.000Z</time>
</trkpt>
<trkpt lat="51.259766" lon="6.546732">
<ele>27</ele>
<time>2013-03-03T14:08:34.000Z</time>
</trkpt>
<trkpt lat="51.25981" lon="6.54671">
<ele>26.2</ele>
<time>2013-03-03T14:08:35.000Z</time>
</trkpt>
<trkpt lat="51.259893" lon="6.54667">
<ele>28.7</ele>
<time>2013-03-03T14:08:37.000Z</time>
</trkpt>
<trkpt lat="51.259971" lon="6.546627">
<ele>29.1</ele>
<time>2013-03-03T14:08:39.000Z</time>
</trkpt>
<trkpt lat="51.260049" lon="6.546581">
<ele>29.8</ele>
<time>2013-03-03T14:08:41.000Z</time>
</trkpt>
<trkpt lat="51.260092" lon="6.546563">
<ele>29.5</ele>
<time>2013-03-03T14:08:42.000Z</time>
</trkpt>
<trkpt lat="51.260135" lon="6.546546">
<ele>30</ele>
<time>2013-03-03T14:08:43.000Z</time>
</trkpt>
<trkpt lat="51.260215" lon="6.546513">
<ele>30.2</ele>
<time>2013-03-03T14:08:45.000Z</time>
</trkpt>
<trkpt lat="51.260287" lon="6.546472">
<ele>29.9</ele>
<time>2013-03-03T14:08:47.000Z</time>
</trkpt>
<trkpt lat="51.260353" lon="6.546422">
<ele>31.8</ele>
<time>2013-03-03T14:08:49.000Z</time>
</trkpt>
<trkpt lat="51.260414" lon="6.54638">
<ele>32.8</ele>
<time>2013-03-03T14:08:51.000Z</time>
</trkpt>
<trkpt lat="51.260472" lon="6.546353">
<ele>34.3</ele>
<time>2013-03-03T14:08:53.000Z</time>
</trkpt>
<trkpt lat="51.260529" lon="6.546351">
<ele>34.9</ele>
<time>2013-03-03T14:08:55.000Z</time>
</trkpt>
<trkpt lat="51.260588" lon="6.54639">
<ele>35</ele>
<time>2013-03-03T14:08:57.000Z</time>
</trkpt>
<trkpt lat="51.26062" lon="6.546489">
<ele>36.5</ele>
<time>2013-03-03T14:08:59.000Z</time>
</trkpt>
<trkpt lat="51.260637" lon="6.546619">
<ele>36</ele>
<time>2013-03-03T14:09:01.000Z</time>
</trkpt>
<trkpt lat="51.260646" lon="6.546689">
<ele>35.6</ele>
<time>2013-03-03T14:09:02.000Z</time>
</trkpt>
<trkpt lat="51.260655" lon="6.546758">
<ele>35.2</ele>
<time>2013-03-03T14:09:03.000Z</time>
</trkpt>
<trkpt lat="51.260668" lon="6.546826">
<ele>35</ele>
<time>2013-03-03T14:09:04.000Z</time>
</trkpt>
<trkpt lat="51.260693" lon="6.546958">
<ele>34.9</ele>
<time>2013-03-03T14:09:06.000Z</time>
</trkpt>
<trkpt lat="51.260717" lon="6.547083">
<ele>34.2</ele>
<time>2013-03-03T14:09:08.000Z</time>
</trkpt>
<trkpt lat="51.260739" lon="6.547205">
<ele>32.9</ele>
<time>2013-03-03T14:09:10.000Z</time>
</trkpt>
<trkpt lat="51.260765" lon="6.547322">
<ele>31.5</ele>
<time>2013-03-03T14:09:12.000Z</time>
</trkpt>
<trkpt lat="51.260791" lon="6.547446">
<ele>32.7</ele>
<time>2013-03-03T14:09:14.000Z</time>
</trkpt>
<trkpt lat="51.260819" lon="6.547574">
<ele>32.4</ele>
<time>2013-03-03T14:09:16.000Z</time>
</trkpt>
<trkpt lat="51.260847" lon="6.547702">
<ele>30.7</ele>
<time>2013-03-03T14:09:18.000Z</time>
</trkpt>
<trkpt lat="51.260872" lon="6.547828">
<ele>30.9</ele>
<time>2013-03-03T14:09:20.000Z</time>
</trkpt>
<trkpt lat="51.260897" lon="6.547945">
<ele>31.3</ele>
<time>2013-03-03T14:09:22.000Z</time>
</trkpt>
<trkpt lat="51.260919" lon="6.548074">
<ele>30.5</ele>
<time>2013-03-03T14:09:24.000Z</time>
</trkpt>
<trkpt lat="51.260945" lon="6.548202">
<ele>30.2</ele>
<time>2013-03-03T14:09:26.000Z</time>
</trkpt>
<trkpt lat="51.260973" lon="6.548321">
<ele>24.8</ele>
<time>2013-03-03T14:09:28.000Z</time>
</trkpt>
<trkpt lat="51.260996" lon="6.548411">
<ele>23.4</ele>
<time>2013-03-03T14:09:30.000Z</time>
</trkpt>
<trkpt lat="51.261039" lon="6.548466">
<ele>27</ele>
<time>2013-03-03T14:09:39.000Z</time>
</trkpt>
<trkpt lat="51.261097" lon="6.548441">
<ele>27.6</ele>
<time>2013-03-03T14:09:41.000Z</time>
</trkpt>
<trkpt lat="51.26116" lon="6.548403">
<ele>28.6</ele>
<time>2013-03-03T14:09:43.000Z</time>
</trkpt>
<trkpt lat="51.261225" lon="6.548369">
<ele>28.9</ele>
<time>2013-03-03T14:09:45.000Z</time>
</trkpt>
<trkpt lat="51.261292" lon="6.548337">
<ele>30</ele>
<time>2013-03-03T14:09:47.000Z</time>
</trkpt>
<trkpt lat="51.261359" lon="6.548309">
<ele>30.5</ele>
<time>2013-03-03T14:09:49.000Z</time>
</trkpt>
<trkpt lat="51.261429" lon="6.548271">
<ele>29</ele>
<time>2013-03-03T14:09:51.000Z</time>
</trkpt>
<trkpt lat="51.261502" lon="6.548236">
<ele>28</ele>
<time>2013-03-03T14:09:53.000Z</time>
</trkpt>
<trkpt lat="51.261571" lon="6.548206">
<ele>26.6</ele>
<time>2013-03-03T14:09:55.000Z</time>
</trkpt>
<trkpt lat="51.261637" lon="6.54817">
<ele>27.7</ele>
<time>2013-03-03T14:09:57.000Z</time>
</trkpt>
<trkpt lat="51.261707" lon="6.548115">
<ele>30.6</ele>
<time>2013-03-03T14:09:59.000Z</time>
</trkpt>
<trkpt lat="51.261778" lon="6.548055">
<ele>32.9</ele>
<time>2013-03-03T14:10:01.000Z</time>
</trkpt>
<trkpt lat="51.261853" lon="6.547997">
<ele>32.7</ele>
<time>2013-03-03T14:10:03.000Z</time>
</trkpt>
<trkpt lat="51.261936" lon="6.547942">
<ele>32.8</ele>
<time>2013-03-03T14:10:05.000Z</time>
</trkpt>
<trkpt lat="51.262008" lon="6.547884">
<ele>34.2</ele>
<time>2013-03-03T14:10:07.000Z</time>
</trkpt>
<trkpt lat="51.262077" lon="6.547859">
<ele>34</ele>
<time>2013-03-03T14:10:09.000Z</time>
</trkpt>
<trkpt lat="51.262137" lon="6.547902">
<ele>33.1</ele>
<time>2013-03-03T14:10:11.000Z</time>
</trkpt>
<trkpt lat="51.262172" lon="6.548006">
<ele>32.4</ele>
<time>2013-03-03T14:10:13.000Z</time>
</trkpt>
<trkpt lat="51.262189" lon="6.548127">
<ele>31.9</ele>
<time>2013-03-03T14:10:15.000Z</time>
</trkpt>
<trkpt lat="51.262208" lon="6.548256">
<ele>31.3</ele>
<time>2013-03-03T14:10:17.000Z</time>
</trkpt>
<trkpt lat="51.262235" lon="6.548373">
<ele>32.2</ele>
<time>2013-03-03T14:10:19.000Z</time>
</trkpt>
<trkpt lat="51.262277" lon="6.548491">
<ele>32.9</ele>
<time>2013-03-03T14:10:21.000Z</time>
</trkpt>
<trkpt lat="51.262299" lon="6.548556">
<ele>32.8</ele>
<time>2013-03-03T14:10:22.000Z</time>
</trkpt>
<trkpt lat="51.262338" lon="6.548678">
<ele>32.5</ele>
<time>2013-03-03T14:10:24.000Z</time>
</trkpt>
<trkpt lat="51.262391" lon="6.548797">
<ele>42</ele>
<time>2013-03-03T14:10:26.000Z</time>
</trkpt>
<trkpt lat="51.262418" lon="6.548856">
<ele>41.5</ele>
<time>2013-03-03T14:10:27.000Z</time>
</trkpt>
<trkpt lat="51.262471" lon="6.548958">
<ele>43.4</ele>
<time>2013-03-03T14:10:29.000Z</time>
</trkpt>
<trkpt lat="51.262522" lon="6.549045">
<ele>41.3</ele>
<time>2013-03-03T14:10:31.000Z</time>
</trkpt>
<trkpt lat="51.262567" lon="6.549124">
<ele>41.1</ele>
<time>2013-03-03T14:10:33.000Z</time>
</trkpt>
<trkpt lat="51.262605" lon="6.549207">
<ele>41.4</ele>
<time>2013-03-03T14:10:35.000Z</time>
</trkpt>
<trkpt lat="51.262625" lon="6.549303">
<ele>41.2</ele>
<time>2013-03-03T14:10:37.000Z</time>
</trkpt>
<trkpt lat="51.26264" lon="6.549393">
<ele>41.3</ele>
<time>2013-03-03T14:10:39.000Z</time>
</trkpt>
<trkpt lat="51.262663" lon="6.549474">
<ele>37.9</ele>
<time>2013-03-03T14:10:41.000Z</time>
</trkpt>
<trkpt lat="51.262696" lon="6.549552">
<ele>35.9</ele>
<time>2013-03-03T14:10:43.000Z</time>
</trkpt>
<trkpt lat="51.262733" lon="6.549633">
<ele>34.8</ele>
<time>2013-03-03T14:10:45.000Z</time>
</trkpt>
<trkpt lat="51.262759" lon="6.549715">
<ele>33.7</ele>
<time>2013-03-03T14:10:47.000Z</time>
</trkpt>
<trkpt lat="51.262781" lon="6.549799">
<ele>35.1</ele>
<time>2013-03-03T14:10:49.000Z</time>
</trkpt>
<trkpt lat="51.262815" lon="6.549863">
<ele>35.2</ele>
<time>2013-03-03T14:10:51.000Z</time>
</trkpt>
<trkpt lat="51.262848" lon="6.549919">
<ele>36.2</ele>
<time>2013-03-03T14:10:53.000Z</time>
</trkpt>
<trkpt lat="51.262862" lon="6.549994">
<ele>36.9</ele>
<time>2013-03-03T14:10:57.000Z</time>
</trkpt>
<trkpt lat="51.26292" lon="6.549977">
<ele>36.4</ele>
<time>2013-03-03T14:11:00.000Z</time>
</trkpt>
<trkpt lat="51.262967" lon="6.549941">
<ele>36.1</ele>
<time>2013-03-03T14:11:02.000Z</time>
</trkpt>
<trkpt lat="51.26302" lon="6.54991">
<ele>36</ele>
<time>2013-03-03T14:11:03.000Z</time>
</trkpt>
<trkpt lat="51.263062" lon="6.549884">
<ele>36.2</ele>
<time>2013-03-03T14:11:04.000Z</time>
</trkpt>
<trkpt lat="51.263104" lon="6.549856">
<ele>36.7</ele>
<time>2013-03-03T14:11:05.000Z</time>
</trkpt>
<trkpt lat="51.263172" lon="6.549814">
<ele>38.9</ele>
<time>2013-03-03T14:11:07.000Z</time>
</trkpt>
<trkpt lat="51.263212" lon="6.549753">
<ele>47.7</ele>
<time>2013-03-03T14:11:09.000Z</time>
</trkpt>
<trkpt lat="51.263266" lon="6.549736">
<ele>47.3</ele>
<time>2013-03-03T14:11:12.000Z</time>
</trkpt>
<trkpt lat="51.263307" lon="6.549796">
<ele>43.3</ele>
<time>2013-03-03T14:11:16.000Z</time>
</trkpt>
<trkpt lat="51.26334" lon="6.549846">
<ele>42.5</ele>
<time>2013-03-03T14:11:18.000Z</time>
</trkpt>
<trkpt lat="51.263377" lon="6.549898">
<ele>40.3</ele>
<time>2013-03-03T14:11:20.000Z</time>
</trkpt>
<trkpt lat="51.263436" lon="6.549981">
<ele>38.1</ele>
<time>2013-03-03T14:11:23.000Z</time>
</trkpt>
<trkpt lat="51.263475" lon="6.550057">
<ele>37.8</ele>
<time>2013-03-03T14:11:25.000Z</time>
</trkpt>
<trkpt lat="51.263513" lon="6.550142">
<ele>36</ele>
<time>2013-03-03T14:11:27.000Z</time>
</trkpt>
<trkpt lat="51.263563" lon="6.550221">
<ele>36.8</ele>
<time>2013-03-03T14:11:29.000Z</time>
</trkpt>
<trkpt lat="51.263603" lon="6.550302">
<ele>32.7</ele>
<time>2013-03-03T14:11:31.000Z</time>
</trkpt>
<trkpt lat="51.263634" lon="6.550376">
<ele>29.1</ele>
<time>2013-03-03T14:11:33.000Z</time>
</trkpt>
<trkpt lat="51.263666" lon="6.550435">
<ele>29.8</ele>
<time>2013-03-03T14:11:35.000Z</time>
</trkpt>
<trkpt lat="51.263714" lon="6.550488">
<ele>30.2</ele>
<time>2013-03-03T14:11:37.000Z</time>
</trkpt>
<trkpt lat="51.263778" lon="6.550552">
<ele>31.8</ele>
<time>2013-03-03T14:11:39.000Z</time>
</trkpt>
<trkpt lat="51.263822" lon="6.550574">
<ele>34.2</ele>
<time>2013-03-03T14:11:44.000Z</time>
</trkpt>
<trkpt lat="51.263873" lon="6.550633">
<ele>38.6</ele>
<time>2013-03-03T14:11:50.000Z</time>
</trkpt>
<trkpt lat="51.263916" lon="6.550678">
<ele>38.7</ele>
<time>2013-03-03T14:11:52.000Z</time>
</trkpt>
<trkpt lat="51.263968" lon="6.550743">
<ele>41.6</ele>
<time>2013-03-03T14:11:54.000Z</time>
</trkpt>
<trkpt lat="51.264024" lon="6.550819">
<ele>43.1</ele>
<time>2013-03-03T14:11:56.000Z</time>
</trkpt>
<trkpt lat="51.264068" lon="6.550906">
<ele>42.6</ele>
<time>2013-03-03T14:11:58.000Z</time>
</trkpt>
<trkpt lat="51.264103" lon="6.551">
<ele>41.7</ele>
<time>2013-03-03T14:12:00.000Z</time>
</trkpt>
<trkpt lat="51.264131" lon="6.5511">
<ele>42.2</ele>
<time>2013-03-03T14:12:02.000Z</time>
</trkpt>
<trkpt lat="51.264152" lon="6.551205">
<ele>42.6</ele>
<time>2013-03-03T14:12:04.000Z</time>
</trkpt>
<trkpt lat="51.264174" lon="6.551305">
<ele>42</ele>
<time>2013-03-03T14:12:06.000Z</time>
</trkpt>
<trkpt lat="51.264184" lon="6.551402">
<ele>41.7</ele>
<time>2013-03-03T14:12:08.000Z</time>
</trkpt>
<trkpt lat="51.264185" lon="6.551492">
<ele>41.5</ele>
<time>2013-03-03T14:12:10.000Z</time>
</trkpt>
<trkpt lat="51.264189" lon="6.551583">
<ele>41.6</ele>
<time>2013-03-03T14:12:12.000Z</time>
</trkpt>
<trkpt lat="51.26419" lon="6.551667">
<ele>43.2</ele>
<time>2013-03-03T14:12:14.000Z</time>
</trkpt>
<trkpt lat="51.264198" lon="6.551762">
<ele>43.6</ele>
<time>2013-03-03T14:12:16.000Z</time>
</trkpt>
<trkpt lat="51.264206" lon="6.551862">
<ele>42.4</ele>
<time>2013-03-03T14:12:18.000Z</time>
</trkpt>
<trkpt lat="51.264215" lon="6.551958">
<ele>40.7</ele>
<time>2013-03-03T14:12:20.000Z</time>
</trkpt>
<trkpt lat="51.264223" lon="6.552056">
<ele>41.1</ele>
<time>2013-03-03T14:12:22.000Z</time>
</trkpt>
<trkpt lat="51.264226" lon="6.552152">
<ele>36.3</ele>
<time>2013-03-03T14:12:24.000Z</time>
</trkpt>
<trkpt lat="51.26424" lon="6.552253">
<ele>34.5</ele>
<time>2013-03-03T14:12:26.000Z</time>
</trkpt>
<trkpt lat="51.264261" lon="6.55236">
<ele>35</ele>
<time>2013-03-03T14:12:28.000Z</time>
</trkpt>
<trkpt lat="51.26428" lon="6.552469">
<ele>35.3</ele>
<time>2013-03-03T14:12:30.000Z</time>
</trkpt>
<trkpt lat="51.264291" lon="6.552573">
<ele>35.8</ele>
<time>2013-03-03T14:12:32.000Z</time>
</trkpt>
<trkpt lat="51.2643" lon="6.552681">
<ele>35.5</ele>
<time>2013-03-03T14:12:34.000Z</time>
</trkpt>
<trkpt lat="51.264319" lon="6.552796">
<ele>34.3</ele>
<time>2013-03-03T14:12:36.000Z</time>
</trkpt>
<trkpt lat="51.264338" lon="6.552897">
<ele>36.8</ele>
<time>2013-03-03T14:12:38.000Z</time>
</trkpt>
<trkpt lat="51.264371" lon="6.552978">
<ele>47.3</ele>
<time>2013-03-03T14:12:40.000Z</time>
</trkpt>
<trkpt lat="51.264408" lon="6.553022">
<ele>51.2</ele>
<time>2013-03-03T14:12:41.000Z</time>
</trkpt>
<trkpt lat="51.264638" lon="6.553101">
<ele>50.8</ele>
<time>2013-03-03T14:12:42.000Z</time>
</trkpt>
<trkpt lat="51.264637" lon="6.553197">
<ele>47.6</ele>
<time>2013-03-03T14:12:45.000Z</time>
</trkpt>
<trkpt lat="51.264632" lon="6.553282">
<ele>43.6</ele>
<time>2013-03-03T14:12:47.000Z</time>
</trkpt>
<trkpt lat="51.264627" lon="6.553382">
<ele>40.4</ele>
<time>2013-03-03T14:12:49.000Z</time>
</trkpt>
<trkpt lat="51.264619" lon="6.55349">
<ele>39.2</ele>
<time>2013-03-03T14:12:51.000Z</time>
</trkpt>
<trkpt lat="51.264607" lon="6.553601">
<ele>36</ele>
<time>2013-03-03T14:12:53.000Z</time>
</trkpt>
<trkpt lat="51.264579" lon="6.553673">
<ele>37.1</ele>
<time>2013-03-03T14:12:55.000Z</time>
</trkpt>
<trkpt lat="51.264531" lon="6.553703">
<ele>35.5</ele>
<time>2013-03-03T14:12:57.000Z</time>
</trkpt>
<trkpt lat="51.264464" lon="6.553713">
<ele>34.4</ele>
<time>2013-03-03T14:12:59.000Z</time>
</trkpt>
<trkpt lat="51.264391" lon="6.553728">
<ele>33</ele>
<time>2013-03-03T14:13:01.000Z</time>
</trkpt>
<trkpt lat="51.264315" lon="6.553752">
<ele>31.6</ele>
<time>2013-03-03T14:13:03.000Z</time>
</trkpt>
<trkpt lat="51.264239" lon="6.553785">
<ele>31.8</ele>
<time>2013-03-03T14:13:05.000Z</time>
</trkpt>
<trkpt lat="51.264165" lon="6.553827">
<ele>31.9</ele>
<time>2013-03-03T14:13:07.000Z</time>
</trkpt>
<trkpt lat="51.264091" lon="6.553857">
<ele>30.3</ele>
<time>2013-03-03T14:13:09.000Z</time>
</trkpt>
<trkpt lat="51.264018" lon="6.553885">
<ele>29.6</ele>
<time>2013-03-03T14:13:11.000Z</time>
</trkpt>
<trkpt lat="51.263942" lon="6.553922">
<ele>29.7</ele>
<time>2013-03-03T14:13:13.000Z</time>
</trkpt>
<trkpt lat="51.263862" lon="6.553959">
<ele>28.1</ele>
<time>2013-03-03T14:13:15.000Z</time>
</trkpt>
<trkpt lat="51.263778" lon="6.553982">
<ele>28.1</ele>
<time>2013-03-03T14:13:17.000Z</time>
</trkpt>
<trkpt lat="51.263692" lon="6.553993">
<ele>25.9</ele>
<time>2013-03-03T14:13:19.000Z</time>
</trkpt>
<trkpt lat="51.263608" lon="6.554004">
<ele>25.5</ele>
<time>2013-03-03T14:13:21.000Z</time>
</trkpt>
<trkpt lat="51.263529" lon="6.554028">
<ele>25.6</ele>
<time>2013-03-03T14:13:23.000Z</time>
</trkpt>
<trkpt lat="51.263441" lon="6.554102">
<ele>25.2</ele>
<time>2013-03-03T14:13:25.000Z</time>
</trkpt>
<trkpt lat="51.263391" lon="6.554127">
<ele>25.2</ele>
<time>2013-03-03T14:13:26.000Z</time>
</trkpt>
<trkpt lat="51.263343" lon="6.554151">
<ele>25.3</ele>
<time>2013-03-03T14:13:27.000Z</time>
</trkpt>
<trkpt lat="51.263292" lon="6.55416">
<ele>24.7</ele>
<time>2013-03-03T14:13:28.000Z</time>
</trkpt>
<trkpt lat="51.263247" lon="6.554192">
<ele>24.6</ele>
<time>2013-03-03T14:13:29.000Z</time>
</trkpt>
<trkpt lat="51.2632" lon="6.554227">
<ele>23.8</ele>
<time>2013-03-03T14:13:30.000Z</time>
</trkpt>
<trkpt lat="51.26316" lon="6.554264">
<ele>22.6</ele>
<time>2013-03-03T14:13:31.000Z</time>
</trkpt>
<trkpt lat="51.263141" lon="6.554392">
<ele>21.8</ele>
<time>2013-03-03T14:13:33.000Z</time>
</trkpt>
<trkpt lat="51.26315" lon="6.554463">
<ele>22.4</ele>
<time>2013-03-03T14:13:34.000Z</time>
</trkpt>
<trkpt lat="51.263156" lon="6.554538">
<ele>22.4</ele>
<time>2013-03-03T14:13:35.000Z</time>
</trkpt>
<trkpt lat="51.26316" lon="6.554609">
<ele>22.9</ele>
<time>2013-03-03T14:13:36.000Z</time>
</trkpt>
<trkpt lat="51.263169" lon="6.554681">
<ele>23.6</ele>
<time>2013-03-03T14:13:37.000Z</time>
</trkpt>
<trkpt lat="51.263193" lon="6.554813">
<ele>24.3</ele>
<time>2013-03-03T14:13:39.000Z</time>
</trkpt>
<trkpt lat="51.263216" lon="6.554939">
<ele>25.3</ele>
<time>2013-03-03T14:13:41.000Z</time>
</trkpt>
<trkpt lat="51.263233" lon="6.55506">
<ele>26.6</ele>
<time>2013-03-03T14:13:43.000Z</time>
</trkpt>
<trkpt lat="51.263246" lon="6.555181">
<ele>27.6</ele>
<time>2013-03-03T14:13:45.000Z</time>
</trkpt>
<trkpt lat="51.263253" lon="6.555297">
<ele>27.6</ele>
<time>2013-03-03T14:13:47.000Z</time>
</trkpt>
<trkpt lat="51.263266" lon="6.555406">
<ele>28.9</ele>
<time>2013-03-03T14:13:49.000Z</time>
</trkpt>
<trkpt lat="51.263273" lon="6.555512">
<ele>29.8</ele>
<time>2013-03-03T14:13:51.000Z</time>
</trkpt>
<trkpt lat="51.263283" lon="6.555615">
<ele>29.7</ele>
<time>2013-03-03T14:13:53.000Z</time>
</trkpt>
<trkpt lat="51.263293" lon="6.555719">
<ele>30.7</ele>
<time>2013-03-03T14:13:55.000Z</time>
</trkpt>
<trkpt lat="51.263311" lon="6.55582">
<ele>31</ele>
<time>2013-03-03T14:13:57.000Z</time>
</trkpt>
<trkpt lat="51.263332" lon="6.555922">
<ele>30.5</ele>
<time>2013-03-03T14:13:59.000Z</time>
</trkpt>
<trkpt lat="51.263351" lon="6.556024">
<ele>31.4</ele>
<time>2013-03-03T14:14:01.000Z</time>
</trkpt>
<trkpt lat="51.263369" lon="6.556135">
<ele>32.3</ele>
<time>2013-03-03T14:14:03.000Z</time>
</trkpt>
<trkpt lat="51.263382" lon="6.556258">
<ele>33.7</ele>
<time>2013-03-03T14:14:05.000Z</time>
</trkpt>
<trkpt lat="51.263391" lon="6.556451">
<ele>32.6</ele>
<time>2013-03-03T14:14:08.000Z</time>
</trkpt>
<trkpt lat="51.263397" lon="6.556584">
<ele>33.9</ele>
<time>2013-03-03T14:14:10.000Z</time>
</trkpt>
<trkpt lat="51.263413" lon="6.556715">
<ele>33.3</ele>
<time>2013-03-03T14:14:12.000Z</time>
</trkpt>
<trkpt lat="51.263431" lon="6.556842">
<ele>33</ele>
<time>2013-03-03T14:14:14.000Z</time>
</trkpt>
<trkpt lat="51.263443" lon="6.556967">
<ele>34.2</ele>
<time>2013-03-03T14:14:16.000Z</time>
</trkpt>
<trkpt lat="51.263445" lon="6.557089">
<ele>35.2</ele>
<time>2013-03-03T14:14:18.000Z</time>
</trkpt>
<trkpt lat="51.263464" lon="6.557188">
<ele>35.2</ele>
<time>2013-03-03T14:14:20.000Z</time>
</trkpt>
<trkpt lat="51.263513" lon="6.557249">
<ele>34.5</ele>
<time>2013-03-03T14:14:22.000Z</time>
</trkpt>
<trkpt lat="51.263587" lon="6.557266">
<ele>33.5</ele>
<time>2013-03-03T14:14:24.000Z</time>
</trkpt>
<trkpt lat="51.263668" lon="6.557257">
<ele>31.5</ele>
<time>2013-03-03T14:14:26.000Z</time>
</trkpt>
<trkpt lat="51.263751" lon="6.557247">
<ele>29.8</ele>
<time>2013-03-03T14:14:28.000Z</time>
</trkpt>
<trkpt lat="51.263824" lon="6.557239">
<ele>29.3</ele>
<time>2013-03-03T14:14:30.000Z</time>
</trkpt>
<trkpt lat="51.263882" lon="6.557217">
<ele>27.9</ele>
<time>2013-03-03T14:14:32.000Z</time>
</trkpt>
<trkpt lat="51.263934" lon="6.557197">
<ele>28.2</ele>
<time>2013-03-03T14:14:34.000Z</time>
</trkpt>
<trkpt lat="51.263989" lon="6.557179">
<ele>29.8</ele>
<time>2013-03-03T14:14:36.000Z</time>
</trkpt>
<trkpt lat="51.264042" lon="6.557161">
<ele>27.3</ele>
<time>2013-03-03T14:14:38.000Z</time>
</trkpt>
<trkpt lat="51.26407" lon="6.557082">
<ele>27</ele>
<time>2013-03-03T14:14:41.000Z</time>
</trkpt>
<trkpt lat="51.264052" lon="6.556997">
<ele>29.8</ele>
<time>2013-03-03T14:14:43.000Z</time>
</trkpt>
<trkpt lat="51.26401" lon="6.556934">
<ele>29.7</ele>
<time>2013-03-03T14:14:45.000Z</time>
</trkpt>
<trkpt lat="51.263954" lon="6.556907">
<ele>30</ele>
<time>2013-03-03T14:14:47.000Z</time>
</trkpt>
<trkpt lat="51.263986" lon="6.556972">
<ele>34.1</ele>
<time>2013-03-03T14:15:47.000Z</time>
</trkpt>
<trkpt lat="51.263972" lon="6.557054">
<ele>35.2</ele>
<time>2013-03-03T14:15:49.000Z</time>
</trkpt>
<trkpt lat="51.26394" lon="6.55713">
<ele>30.1</ele>
<time>2013-03-03T14:15:51.000Z</time>
</trkpt>
<trkpt lat="51.26388" lon="6.557179">
<ele>29.4</ele>
<time>2013-03-03T14:15:53.000Z</time>
</trkpt>
<trkpt lat="51.26381" lon="6.55718">
<ele>23.9</ele>
<time>2013-03-03T14:15:55.000Z</time>
</trkpt>
<trkpt lat="51.263733" lon="6.557159">
<ele>21.5</ele>
<time>2013-03-03T14:15:57.000Z</time>
</trkpt>
<trkpt lat="51.263658" lon="6.557161">
<ele>19.3</ele>
<time>2013-03-03T14:15:59.000Z</time>
</trkpt>
<trkpt lat="51.263582" lon="6.557185">
<ele>19.4</ele>
<time>2013-03-03T14:16:01.000Z</time>
</trkpt>
<trkpt lat="51.263523" lon="6.557234">
<ele>21.6</ele>
<time>2013-03-03T14:16:03.000Z</time>
</trkpt>
<trkpt lat="51.263488" lon="6.557301">
<ele>21</ele>
<time>2013-03-03T14:16:05.000Z</time>
</trkpt>
<trkpt lat="51.263466" lon="6.557378">
<ele>23.2</ele>
<time>2013-03-03T14:16:07.000Z</time>
</trkpt>
<trkpt lat="51.263465" lon="6.557481">
<ele>23.2</ele>
<time>2013-03-03T14:16:09.000Z</time>
</trkpt>
<trkpt lat="51.263477" lon="6.557593">
<ele>25</ele>
<time>2013-03-03T14:16:11.000Z</time>
</trkpt>
<trkpt lat="51.263504" lon="6.557709">
<ele>25.9</ele>
<time>2013-03-03T14:16:13.000Z</time>
</trkpt>
<trkpt lat="51.263531" lon="6.557823">
<ele>27.4</ele>
<time>2013-03-03T14:16:15.000Z</time>
</trkpt>
<trkpt lat="51.26355" lon="6.557934">
<ele>28.3</ele>
<time>2013-03-03T14:16:17.000Z</time>
</trkpt>
<trkpt lat="51.263568" lon="6.558048">
<ele>28.9</ele>
<time>2013-03-03T14:16:19.000Z</time>
</trkpt>
<trkpt lat="51.263587" lon="6.558164">
<ele>30</ele>
<time>2013-03-03T14:16:21.000Z</time>
</trkpt>
<trkpt lat="51.263606" lon="6.558285">
<ele>30.5</ele>
<time>2013-03-03T14:16:23.000Z</time>
</trkpt>
<trkpt lat="51.263624" lon="6.558406">
<ele>31.5</ele>
<time>2013-03-03T14:16:25.000Z</time>
</trkpt>
<trkpt lat="51.26364" lon="6.558524">
<ele>32.4</ele>
<time>2013-03-03T14:16:27.000Z</time>
</trkpt>
<trkpt lat="51.263649" lon="6.558644">
<ele>32.8</ele>
<time>2013-03-03T14:16:29.000Z</time>
</trkpt>
<trkpt lat="51.263658" lon="6.558766">
<ele>33.1</ele>
<time>2013-03-03T14:16:31.000Z</time>
</trkpt>
<trkpt lat="51.263672" lon="6.55889">
<ele>33.1</ele>
<time>2013-03-03T14:16:33.000Z</time>
</trkpt>
<trkpt lat="51.263688" lon="6.559016">
<ele>33.3</ele>
<time>2013-03-03T14:16:35.000Z</time>
</trkpt>
<trkpt lat="51.263702" lon="6.559144">
<ele>34.1</ele>
<time>2013-03-03T14:16:37.000Z</time>
</trkpt>
<trkpt lat="51.263717" lon="6.559276">
<ele>33.8</ele>
<time>2013-03-03T14:16:39.000Z</time>
</trkpt>
<trkpt lat="51.263733" lon="6.55942">
<ele>34.4</ele>
<time>2013-03-03T14:16:41.000Z</time>
</trkpt>
<trkpt lat="51.263746" lon="6.559492">
<ele>34.1</ele>
<time>2013-03-03T14:16:42.000Z</time>
</trkpt>
<trkpt lat="51.263762" lon="6.559629">
<ele>34.1</ele>
<time>2013-03-03T14:16:44.000Z</time>
</trkpt>
<trkpt lat="51.263768" lon="6.559703">
<ele>34.7</ele>
<time>2013-03-03T14:16:45.000Z</time>
</trkpt>
<trkpt lat="51.263771" lon="6.559776">
<ele>35</ele>
<time>2013-03-03T14:16:46.000Z</time>
</trkpt>
<trkpt lat="51.263771" lon="6.559848">
<ele>34.7</ele>
<time>2013-03-03T14:16:47.000Z</time>
</trkpt>
<trkpt lat="51.263787" lon="6.559935">
<ele>35.5</ele>
<time>2013-03-03T14:16:48.000Z</time>
</trkpt>
<trkpt lat="51.263799" lon="6.560061">
<ele>34.8</ele>
<time>2013-03-03T14:16:50.000Z</time>
</trkpt>
<trkpt lat="51.263807" lon="6.560133">
<ele>34.4</ele>
<time>2013-03-03T14:16:51.000Z</time>
</trkpt>
<trkpt lat="51.263818" lon="6.560207">
<ele>34.3</ele>
<time>2013-03-03T14:16:52.000Z</time>
</trkpt>
<trkpt lat="51.263823" lon="6.560284">
<ele>34.7</ele>
<time>2013-03-03T14:16:53.000Z</time>
</trkpt>
<trkpt lat="51.263834" lon="6.560423">
<ele>34.2</ele>
<time>2013-03-03T14:16:55.000Z</time>
</trkpt>
<trkpt lat="51.263844" lon="6.560552">
<ele>33.9</ele>
<time>2013-03-03T14:16:57.000Z</time>
</trkpt>
<trkpt lat="51.263846" lon="6.560628">
<ele>34.2</ele>
<time>2013-03-03T14:16:58.000Z</time>
</trkpt>
<trkpt lat="51.263858" lon="6.56076">
<ele>34.5</ele>
<time>2013-03-03T14:17:00.000Z</time>
</trkpt>
<trkpt lat="51.263871" lon="6.560908">
<ele>34</ele>
<time>2013-03-03T14:17:02.000Z</time>
</trkpt>
<trkpt lat="51.263868" lon="6.56098">
<ele>33.5</ele>
<time>2013-03-03T14:17:03.000Z</time>
</trkpt>
<trkpt lat="51.263866" lon="6.561053">
<ele>32.8</ele>
<time>2013-03-03T14:17:04.000Z</time>
</trkpt>
<trkpt lat="51.263874" lon="6.561129">
<ele>32.9</ele>
<time>2013-03-03T14:17:05.000Z</time>
</trkpt>
<trkpt lat="51.263887" lon="6.561202">
<ele>33.6</ele>
<time>2013-03-03T14:17:06.000Z</time>
</trkpt>
<trkpt lat="51.263894" lon="6.561275">
<ele>33.9</ele>
<time>2013-03-03T14:17:07.000Z</time>
</trkpt>
<trkpt lat="51.263898" lon="6.561351">
<ele>33.5</ele>
<time>2013-03-03T14:17:08.000Z</time>
</trkpt>
<trkpt lat="51.263912" lon="6.561424">
<ele>34.4</ele>
<time>2013-03-03T14:17:09.000Z</time>
</trkpt>
<trkpt lat="51.263922" lon="6.561501">
<ele>35.5</ele>
<time>2013-03-03T14:17:10.000Z</time>
</trkpt>
<trkpt lat="51.263936" lon="6.561643">
<ele>35.9</ele>
<time>2013-03-03T14:17:12.000Z</time>
</trkpt>
<trkpt lat="51.263947" lon="6.561718">
<ele>36.3</ele>
<time>2013-03-03T14:17:13.000Z</time>
</trkpt>
<trkpt lat="51.263989" lon="6.56183">
<ele>34.1</ele>
<time>2013-03-03T14:17:15.000Z</time>
</trkpt>
<trkpt lat="51.263995" lon="6.561973">
<ele>34.9</ele>
<time>2013-03-03T14:17:17.000Z</time>
</trkpt>
<trkpt lat="51.264011" lon="6.562043">
<ele>35.4</ele>
<time>2013-03-03T14:17:18.000Z</time>
</trkpt>
<trkpt lat="51.264043" lon="6.562185">
<ele>35.3</ele>
<time>2013-03-03T14:17:20.000Z</time>
</trkpt>
<trkpt lat="51.264057" lon="6.562256">
<ele>35.3</ele>
<time>2013-03-03T14:17:21.000Z</time>
</trkpt>
<trkpt lat="51.264065" lon="6.562333">
<ele>35.4</ele>
<time>2013-03-03T14:17:22.000Z</time>
</trkpt>
<trkpt lat="51.264078" lon="6.562464">
<ele>34.7</ele>
<time>2013-03-03T14:17:24.000Z</time>
</trkpt>
<trkpt lat="51.264106" lon="6.562586">
<ele>32.7</ele>
<time>2013-03-03T14:17:26.000Z</time>
</trkpt>
<trkpt lat="51.26414" lon="6.562718">
<ele>32.6</ele>
<time>2013-03-03T14:17:28.000Z</time>
</trkpt>
<trkpt lat="51.264149" lon="6.562792">
<ele>32.6</ele>
<time>2013-03-03T14:17:29.000Z</time>
</trkpt>
<trkpt lat="51.264162" lon="6.562866">
<ele>33</ele>
<time>2013-03-03T14:17:30.000Z</time>
</trkpt>
<trkpt lat="51.264182" lon="6.562945">
<ele>33.2</ele>
<time>2013-03-03T14:17:31.000Z</time>
</trkpt>
<trkpt lat="51.26419" lon="6.56302">
<ele>33.2</ele>
<time>2013-03-03T14:17:32.000Z</time>
</trkpt>
<trkpt lat="51.264201" lon="6.563104">
<ele>34.1</ele>
<time>2013-03-03T14:17:33.000Z</time>
</trkpt>
<trkpt lat="51.264214" lon="6.563176">
<ele>34.7</ele>
<time>2013-03-03T14:17:34.000Z</time>
</trkpt>
<trkpt lat="51.264227" lon="6.563254">
<ele>35.4</ele>
<time>2013-03-03T14:17:35.000Z</time>
</trkpt>
<trkpt lat="51.264239" lon="6.563328">
<ele>35.4</ele>
<time>2013-03-03T14:17:36.000Z</time>
</trkpt>
<trkpt lat="51.264241" lon="6.563409">
<ele>35.9</ele>
<time>2013-03-03T14:17:37.000Z</time>
</trkpt>
<trkpt lat="51.264246" lon="6.563486">
<ele>36</ele>
<time>2013-03-03T14:17:38.000Z</time>
</trkpt>
<trkpt lat="51.264261" lon="6.563564">
<ele>36.8</ele>
<time>2013-03-03T14:17:39.000Z</time>
</trkpt>
<trkpt lat="51.264272" lon="6.563647">
<ele>37.6</ele>
<time>2013-03-03T14:17:40.000Z</time>
</trkpt>
<trkpt lat="51.264295" lon="6.563784">
<ele>36.5</ele>
<time>2013-03-03T14:17:42.000Z</time>
</trkpt>
<trkpt lat="51.264311" lon="6.563855">
<ele>36.1</ele>
<time>2013-03-03T14:17:43.000Z</time>
</trkpt>
<trkpt lat="51.264329" lon="6.563924">
<ele>35.3</ele>
<time>2013-03-03T14:17:44.000Z</time>
</trkpt>
<trkpt lat="51.26435" lon="6.564005">
<ele>36.1</ele>
<time>2013-03-03T14:17:45.000Z</time>
</trkpt>
<trkpt lat="51.26437" lon="6.564088">
<ele>36.4</ele>
<time>2013-03-03T14:17:46.000Z</time>
</trkpt>
<trkpt lat="51.264388" lon="6.564162">
<ele>36.1</ele>
<time>2013-03-03T14:17:47.000Z</time>
</trkpt>
<trkpt lat="51.264399" lon="6.564231">
<ele>35.7</ele>
<time>2013-03-03T14:17:48.000Z</time>
</trkpt>
<trkpt lat="51.26442" lon="6.564304">
<ele>35.7</ele>
<time>2013-03-03T14:17:49.000Z</time>
</trkpt>
<trkpt lat="51.26445" lon="6.564446">
<ele>35.6</ele>
<time>2013-03-03T14:17:51.000Z</time>
</trkpt>
<trkpt lat="51.264462" lon="6.56452">
<ele>35.7</ele>
<time>2013-03-03T14:17:52.000Z</time>
</trkpt>
<trkpt lat="51.264475" lon="6.564598">
<ele>36.4</ele>
<time>2013-03-03T14:17:53.000Z</time>
</trkpt>
<trkpt lat="51.264492" lon="6.564673">
<ele>35.8</ele>
<time>2013-03-03T14:17:54.000Z</time>
</trkpt>
<trkpt lat="51.264511" lon="6.564746">
<ele>35.7</ele>
<time>2013-03-03T14:17:55.000Z</time>
</trkpt>
<trkpt lat="51.264542" lon="6.564864">
<ele>34.2</ele>
<time>2013-03-03T14:17:57.000Z</time>
</trkpt>
<trkpt lat="51.264557" lon="6.564932">
<ele>34.3</ele>
<time>2013-03-03T14:17:58.000Z</time>
</trkpt>
<trkpt lat="51.264574" lon="6.565002">
<ele>34.1</ele>
<time>2013-03-03T14:17:59.000Z</time>
</trkpt>
<trkpt lat="51.264596" lon="6.565064">
<ele>33.4</ele>
<time>2013-03-03T14:18:00.000Z</time>
</trkpt>
<trkpt lat="51.264616" lon="6.565137">
<ele>33.3</ele>
<time>2013-03-03T14:18:01.000Z</time>
</trkpt>
<trkpt lat="51.264634" lon="6.565206">
<ele>33.5</ele>
<time>2013-03-03T14:18:02.000Z</time>
</trkpt>
<trkpt lat="51.264672" lon="6.565341">
<ele>34.1</ele>
<time>2013-03-03T14:18:04.000Z</time>
</trkpt>
<trkpt lat="51.264693" lon="6.565408">
<ele>34.4</ele>
<time>2013-03-03T14:18:05.000Z</time>
</trkpt>
<trkpt lat="51.264711" lon="6.56548">
<ele>34.7</ele>
<time>2013-03-03T14:18:06.000Z</time>
</trkpt>
<trkpt lat="51.264727" lon="6.565555">
<ele>34.6</ele>
<time>2013-03-03T14:18:07.000Z</time>
</trkpt>
<trkpt lat="51.264751" lon="6.565629">
<ele>34.6</ele>
<time>2013-03-03T14:18:08.000Z</time>
</trkpt>
<trkpt lat="51.264787" lon="6.565753">
<ele>32.7</ele>
<time>2013-03-03T14:18:10.000Z</time>
</trkpt>
<trkpt lat="51.264808" lon="6.56582">
<ele>33</ele>
<time>2013-03-03T14:18:11.000Z</time>
</trkpt>
<trkpt lat="51.264852" lon="6.565954">
<ele>33</ele>
<time>2013-03-03T14:18:13.000Z</time>
</trkpt>
<trkpt lat="51.264918" lon="6.566077">
<ele>31.8</ele>
<time>2013-03-03T14:18:15.000Z</time>
</trkpt>
<trkpt lat="51.264968" lon="6.56619">
<ele>31.2</ele>
<time>2013-03-03T14:18:17.000Z</time>
</trkpt>
<trkpt lat="51.264989" lon="6.566254">
<ele>31.4</ele>
<time>2013-03-03T14:18:18.000Z</time>
</trkpt>
<trkpt lat="51.265025" lon="6.566375">
<ele>31.8</ele>
<time>2013-03-03T14:18:20.000Z</time>
</trkpt>
<trkpt lat="51.265091" lon="6.566554">
<ele>32.2</ele>
<time>2013-03-03T14:18:23.000Z</time>
</trkpt>
<trkpt lat="51.265112" lon="6.566619">
<ele>32.4</ele>
<time>2013-03-03T14:18:24.000Z</time>
</trkpt>
<trkpt lat="51.265128" lon="6.566688">
<ele>32</ele>
<time>2013-03-03T14:18:25.000Z</time>
</trkpt>
<trkpt lat="51.265146" lon="6.566757">
<ele>32.5</ele>
<time>2013-03-03T14:18:26.000Z</time>
</trkpt>
<trkpt lat="51.265172" lon="6.566816">
<ele>32.7</ele>
<time>2013-03-03T14:18:27.000Z</time>
</trkpt>
<trkpt lat="51.265191" lon="6.566881">
<ele>33.4</ele>
<time>2013-03-03T14:18:28.000Z</time>
</trkpt>
<trkpt lat="51.265215" lon="6.566942">
<ele>33</ele>
<time>2013-03-03T14:18:29.000Z</time>
</trkpt>
<trkpt lat="51.265258" lon="6.567071">
<ele>32.1</ele>
<time>2013-03-03T14:18:31.000Z</time>
</trkpt>
<trkpt lat="51.265276" lon="6.567139">
<ele>32.1</ele>
<time>2013-03-03T14:18:32.000Z</time>
</trkpt>
<trkpt lat="51.265288" lon="6.567211">
<ele>32.7</ele>
<time>2013-03-03T14:18:33.000Z</time>
</trkpt>
<trkpt lat="51.265307" lon="6.567282">
<ele>33.2</ele>
<time>2013-03-03T14:18:34.000Z</time>
</trkpt>
<trkpt lat="51.26534" lon="6.567406">
<ele>33.4</ele>
<time>2013-03-03T14:18:36.000Z</time>
</trkpt>
<trkpt lat="51.265359" lon="6.56748">
<ele>33.3</ele>
<time>2013-03-03T14:18:37.000Z</time>
</trkpt>
<trkpt lat="51.265387" lon="6.567537">
<ele>33.3</ele>
<time>2013-03-03T14:18:38.000Z</time>
</trkpt>
<trkpt lat="51.265403" lon="6.567606">
<ele>32.8</ele>
<time>2013-03-03T14:18:39.000Z</time>
</trkpt>
<trkpt lat="51.265457" lon="6.567725">
<ele>32.2</ele>
<time>2013-03-03T14:18:41.000Z</time>
</trkpt>
<trkpt lat="51.26548" lon="6.567789">
<ele>32.9</ele>
<time>2013-03-03T14:18:42.000Z</time>
</trkpt>
<trkpt lat="51.265519" lon="6.567871">
<ele>32.9</ele>
<time>2013-03-03T14:18:43.000Z</time>
</trkpt>
<trkpt lat="51.265538" lon="6.567989">
<ele>32.8</ele>
<time>2013-03-03T14:18:45.000Z</time>
</trkpt>
<trkpt lat="51.265566" lon="6.568048">
<ele>32.6</ele>
<time>2013-03-03T14:18:46.000Z</time>
</trkpt>
<trkpt lat="51.265615" lon="6.568165">
<ele>32.2</ele>
<time>2013-03-03T14:18:48.000Z</time>
</trkpt>
<trkpt lat="51.265683" lon="6.568385">
<ele>35.5</ele>
<time>2013-03-03T14:18:50.000Z</time>
</trkpt>
<trkpt lat="51.265727" lon="6.568476">
<ele>37.1</ele>
<time>2013-03-03T14:18:52.000Z</time>
</trkpt>
<trkpt lat="51.265757" lon="6.568589">
<ele>36.2</ele>
<time>2013-03-03T14:18:54.000Z</time>
</trkpt>
<trkpt lat="51.265808" lon="6.568708">
<ele>37.2</ele>
<time>2013-03-03T14:18:56.000Z</time>
</trkpt>
<trkpt lat="51.26583" lon="6.568818">
<ele>37.3</ele>
<time>2013-03-03T14:18:58.000Z</time>
</trkpt>
<trkpt lat="51.265856" lon="6.568923">
<ele>36.2</ele>
<time>2013-03-03T14:19:00.000Z</time>
</trkpt>
<trkpt lat="51.265886" lon="6.56903">
<ele>36.2</ele>
<time>2013-03-03T14:19:02.000Z</time>
</trkpt>
<trkpt lat="51.26592" lon="6.569133">
<ele>36.2</ele>
<time>2013-03-03T14:19:04.000Z</time>
</trkpt>
<trkpt lat="51.265968" lon="6.569206">
<ele>36.9</ele>
<time>2013-03-03T14:19:06.000Z</time>
</trkpt>
<trkpt lat="51.266023" lon="6.569229">
<ele>37.9</ele>
<time>2013-03-03T14:19:08.000Z</time>
</trkpt>
<trkpt lat="51.266073" lon="6.569206">
<ele>36.8</ele>
<time>2013-03-03T14:19:10.000Z</time>
</trkpt>
<trkpt lat="51.266119" lon="6.569147">
<ele>36.6</ele>
<time>2013-03-03T14:19:12.000Z</time>
</trkpt>
<trkpt lat="51.266168" lon="6.569065">
<ele>35.9</ele>
<time>2013-03-03T14:19:14.000Z</time>
</trkpt>
<trkpt lat="51.266222" lon="6.568982">
<ele>35.3</ele>
<time>2013-03-03T14:19:16.000Z</time>
</trkpt>
<trkpt lat="51.266284" lon="6.568908">
<ele>35.7</ele>
<time>2013-03-03T14:19:18.000Z</time>
</trkpt>
<trkpt lat="51.266351" lon="6.568839">
<ele>34.8</ele>
<time>2013-03-03T14:19:20.000Z</time>
</trkpt>
<trkpt lat="51.266419" lon="6.56877">
<ele>35.4</ele>
<time>2013-03-03T14:19:22.000Z</time>
</trkpt>
<trkpt lat="51.266483" lon="6.568693">
<ele>35.4</ele>
<time>2013-03-03T14:19:24.000Z</time>
</trkpt>
<trkpt lat="51.266545" lon="6.568613">
<ele>35.3</ele>
<time>2013-03-03T14:19:26.000Z</time>
</trkpt>
<trkpt lat="51.266607" lon="6.568528">
<ele>35.9</ele>
<time>2013-03-03T14:19:28.000Z</time>
</trkpt>
<trkpt lat="51.266673" lon="6.568437">
<ele>35.6</ele>
<time>2013-03-03T14:19:30.000Z</time>
</trkpt>
<trkpt lat="51.266704" lon="6.568383">
<ele>35.8</ele>
<time>2013-03-03T14:19:31.000Z</time>
</trkpt>
<trkpt lat="51.266767" lon="6.56829">
<ele>35.5</ele>
<time>2013-03-03T14:19:33.000Z</time>
</trkpt>
<trkpt lat="51.266835" lon="6.568202">
<ele>35.5</ele>
<time>2013-03-03T14:19:35.000Z</time>
</trkpt>
<trkpt lat="51.266901" lon="6.568124">
<ele>36.1</ele>
<time>2013-03-03T14:19:37.000Z</time>
</trkpt>
<trkpt lat="51.266935" lon="6.568075">
<ele>36.3</ele>
<time>2013-03-03T14:19:38.000Z</time>
</trkpt>
<trkpt lat="51.267006" lon="6.567994">
<ele>36.4</ele>
<time>2013-03-03T14:19:40.000Z</time>
</trkpt>
<trkpt lat="51.26704" lon="6.56794">
<ele>36.6</ele>
<time>2013-03-03T14:19:41.000Z</time>
</trkpt>
<trkpt lat="51.267102" lon="6.56785">
<ele>37</ele>
<time>2013-03-03T14:19:43.000Z</time>
</trkpt>
<trkpt lat="51.26714" lon="6.5678">
<ele>36.9</ele>
<time>2013-03-03T14:19:44.000Z</time>
</trkpt>
<trkpt lat="51.267204" lon="6.567701">
<ele>36.3</ele>
<time>2013-03-03T14:19:46.000Z</time>
</trkpt>
<trkpt lat="51.267237" lon="6.567651">
<ele>36.9</ele>
<time>2013-03-03T14:19:47.000Z</time>
</trkpt>
<trkpt lat="51.267274" lon="6.567608">
<ele>36.8</ele>
<time>2013-03-03T14:19:48.000Z</time>
</trkpt>
<trkpt lat="51.267335" lon="6.567516">
<ele>36.9</ele>
<time>2013-03-03T14:19:50.000Z</time>
</trkpt>
<trkpt lat="51.267397" lon="6.567422">
<ele>36.4</ele>
<time>2013-03-03T14:19:52.000Z</time>
</trkpt>
<trkpt lat="51.26746" lon="6.567324">
<ele>36.4</ele>
<time>2013-03-03T14:19:54.000Z</time>
</trkpt>
<trkpt lat="51.267499" lon="6.56728">
<ele>36.7</ele>
<time>2013-03-03T14:19:55.000Z</time>
</trkpt>
<trkpt lat="51.26753" lon="6.567227">
<ele>36</ele>
<time>2013-03-03T14:19:56.000Z</time>
</trkpt>
<trkpt lat="51.267597" lon="6.567136">
<ele>35.8</ele>
<time>2013-03-03T14:19:58.000Z</time>
</trkpt>
<trkpt lat="51.267632" lon="6.567085">
<ele>35.3</ele>
<time>2013-03-03T14:19:59.000Z</time>
</trkpt>
<trkpt lat="51.267669" lon="6.567043">
<ele>35.5</ele>
<time>2013-03-03T14:20:00.000Z</time>
</trkpt>
<trkpt lat="51.26773" lon="6.56695">
<ele>35.6</ele>
<time>2013-03-03T14:20:02.000Z</time>
</trkpt>
<trkpt lat="51.267797" lon="6.566855">
<ele>35.9</ele>
<time>2013-03-03T14:20:04.000Z</time>
</trkpt>
<trkpt lat="51.26783" lon="6.566806">
<ele>36.1</ele>
<time>2013-03-03T14:20:05.000Z</time>
</trkpt>
<trkpt lat="51.267864" lon="6.566759">
<ele>35.5</ele>
<time>2013-03-03T14:20:06.000Z</time>
</trkpt>
<trkpt lat="51.267925" lon="6.566671">
<ele>36.7</ele>
<time>2013-03-03T14:20:08.000Z</time>
</trkpt>
<trkpt lat="51.267982" lon="6.566592">
<ele>36.4</ele>
<time>2013-03-03T14:20:10.000Z</time>
</trkpt>
<trkpt lat="51.26804" lon="6.566512">
<ele>35.5</ele>
<time>2013-03-03T14:20:12.000Z</time>
</trkpt>
<trkpt lat="51.268098" lon="6.566431">
<ele>35.9</ele>
<time>2013-03-03T14:20:14.000Z</time>
</trkpt>
<trkpt lat="51.268153" lon="6.566347">
<ele>35.6</ele>
<time>2013-03-03T14:20:16.000Z</time>
</trkpt>
<trkpt lat="51.268211" lon="6.566259">
<ele>35.4</ele>
<time>2013-03-03T14:20:18.000Z</time>
</trkpt>
<trkpt lat="51.268273" lon="6.566169">
<ele>35.7</ele>
<time>2013-03-03T14:20:20.000Z</time>
</trkpt>
<trkpt lat="51.268337" lon="6.566073">
<ele>34.6</ele>
<time>2013-03-03T14:20:22.000Z</time>
</trkpt>
<trkpt lat="51.268405" lon="6.565979">
<ele>34.6</ele>
<time>2013-03-03T14:20:24.000Z</time>
</trkpt>
<trkpt lat="51.268472" lon="6.565886">
<ele>34.7</ele>
<time>2013-03-03T14:20:26.000Z</time>
</trkpt>
<trkpt lat="51.268537" lon="6.565789">
<ele>34.3</ele>
<time>2013-03-03T14:20:28.000Z</time>
</trkpt>
<trkpt lat="51.268598" lon="6.56569">
<ele>34.8</ele>
<time>2013-03-03T14:20:30.000Z</time>
</trkpt>
<trkpt lat="51.268658" lon="6.565596">
<ele>33.6</ele>
<time>2013-03-03T14:20:32.000Z</time>
</trkpt>
<trkpt lat="51.268715" lon="6.565503">
<ele>33.9</ele>
<time>2013-03-03T14:20:34.000Z</time>
</trkpt>
<trkpt lat="51.268765" lon="6.565402">
<ele>33.4</ele>
<time>2013-03-03T14:20:36.000Z</time>
</trkpt>
<trkpt lat="51.268812" lon="6.565291">
<ele>33.7</ele>
<time>2013-03-03T14:20:38.000Z</time>
</trkpt>
<trkpt lat="51.268855" lon="6.565171">
<ele>33.7</ele>
<time>2013-03-03T14:20:40.000Z</time>
</trkpt>
<trkpt lat="51.268892" lon="6.565047">
<ele>33.6</ele>
<time>2013-03-03T14:20:42.000Z</time>
</trkpt>
<trkpt lat="51.26892" lon="6.564925">
<ele>33.5</ele>
<time>2013-03-03T14:20:44.000Z</time>
</trkpt>
<trkpt lat="51.268938" lon="6.564802">
<ele>32.8</ele>
<time>2013-03-03T14:20:46.000Z</time>
</trkpt>
<trkpt lat="51.26895" lon="6.564671">
<ele>33.1</ele>
<time>2013-03-03T14:20:48.000Z</time>
</trkpt>
<trkpt lat="51.268959" lon="6.564538">
<ele>33</ele>
<time>2013-03-03T14:20:50.000Z</time>
</trkpt>
<trkpt lat="51.268965" lon="6.5644">
<ele>33.5</ele>
<time>2013-03-03T14:20:52.000Z</time>
</trkpt>
<trkpt lat="51.268971" lon="6.564265">
<ele>32.8</ele>
<time>2013-03-03T14:20:54.000Z</time>
</trkpt>
<trkpt lat="51.26898" lon="6.564137">
<ele>32.8</ele>
<time>2013-03-03T14:20:56.000Z</time>
</trkpt>
<trkpt lat="51.26899" lon="6.564007">
<ele>32.7</ele>
<time>2013-03-03T14:20:58.000Z</time>
</trkpt>
<trkpt lat="51.269001" lon="6.563877">
<ele>32.7</ele>
<time>2013-03-03T14:21:00.000Z</time>
</trkpt>
<trkpt lat="51.269014" lon="6.56375">
<ele>31.7</ele>
<time>2013-03-03T14:21:02.000Z</time>
</trkpt>
<trkpt lat="51.269034" lon="6.563625">
<ele>31.7</ele>
<time>2013-03-03T14:21:04.000Z</time>
</trkpt>
<trkpt lat="51.269067" lon="6.563507">
<ele>32.1</ele>
<time>2013-03-03T14:21:06.000Z</time>
</trkpt>
<trkpt lat="51.269118" lon="6.563403">
<ele>32.4</ele>
<time>2013-03-03T14:21:08.000Z</time>
</trkpt>
<trkpt lat="51.269191" lon="6.563332">
<ele>32.2</ele>
<time>2013-03-03T14:21:10.000Z</time>
</trkpt>
<trkpt lat="51.269276" lon="6.563295">
<ele>32.3</ele>
<time>2013-03-03T14:21:12.000Z</time>
</trkpt>
<trkpt lat="51.269339" lon="6.563299">
<ele>32.5</ele>
<time>2013-03-03T14:21:13.000Z</time>
</trkpt>
<trkpt lat="51.269417" lon="6.563252">
<ele>33.2</ele>
<time>2013-03-03T14:21:15.000Z</time>
</trkpt>
<trkpt lat="51.269497" lon="6.563213">
<ele>33.3</ele>
<time>2013-03-03T14:21:17.000Z</time>
</trkpt>
<trkpt lat="51.269539" lon="6.563182">
<ele>33.7</ele>
<time>2013-03-03T14:21:18.000Z</time>
</trkpt>
<trkpt lat="51.269619" lon="6.563128">
<ele>34</ele>
<time>2013-03-03T14:21:20.000Z</time>
</trkpt>
<trkpt lat="51.269705" lon="6.563066">
<ele>33.8</ele>
<time>2013-03-03T14:21:22.000Z</time>
</trkpt>
<trkpt lat="51.269749" lon="6.563022">
<ele>33.2</ele>
<time>2013-03-03T14:21:23.000Z</time>
</trkpt>
<trkpt lat="51.269796" lon="6.562983">
<ele>32.8</ele>
<time>2013-03-03T14:21:24.000Z</time>
</trkpt>
<trkpt lat="51.269843" lon="6.562958">
<ele>32</ele>
<time>2013-03-03T14:21:25.000Z</time>
</trkpt>
<trkpt lat="51.269885" lon="6.562908">
<ele>32.4</ele>
<time>2013-03-03T14:21:26.000Z</time>
</trkpt>
<trkpt lat="51.269925" lon="6.562855">
<ele>32.4</ele>
<time>2013-03-03T14:21:27.000Z</time>
</trkpt>
<trkpt lat="51.269961" lon="6.562802">
<ele>32.7</ele>
<time>2013-03-03T14:21:28.000Z</time>
</trkpt>
<trkpt lat="51.269997" lon="6.562754">
<ele>32.7</ele>
<time>2013-03-03T14:21:29.000Z</time>
</trkpt>
<trkpt lat="51.27003" lon="6.562703">
<ele>32.6</ele>
<time>2013-03-03T14:21:30.000Z</time>
</trkpt>
<trkpt lat="51.270068" lon="6.562645">
<ele>32.8</ele>
<time>2013-03-03T14:21:31.000Z</time>
</trkpt>
<trkpt lat="51.270103" lon="6.562593">
<ele>33.1</ele>
<time>2013-03-03T14:21:32.000Z</time>
</trkpt>
<trkpt lat="51.270163" lon="6.562493">
<ele>33.2</ele>
<time>2013-03-03T14:21:34.000Z</time>
</trkpt>
<trkpt lat="51.270201" lon="6.562431">
<ele>33.3</ele>
<time>2013-03-03T14:21:35.000Z</time>
</trkpt>
<trkpt lat="51.270248" lon="6.562392">
<ele>32.9</ele>
<time>2013-03-03T14:21:36.000Z</time>
</trkpt>
<trkpt lat="51.27029" lon="6.562331">
<ele>32.3</ele>
<time>2013-03-03T14:21:37.000Z</time>
</trkpt>
<trkpt lat="51.27033" lon="6.562277">
<ele>32.8</ele>
<time>2013-03-03T14:21:38.000Z</time>
</trkpt>
<trkpt lat="51.270379" lon="6.562225">
<ele>32.8</ele>
<time>2013-03-03T14:21:39.000Z</time>
</trkpt>
<trkpt lat="51.270419" lon="6.56218">
<ele>33</ele>
<time>2013-03-03T14:21:40.000Z</time>
</trkpt>
<trkpt lat="51.270458" lon="6.562116">
<ele>33</ele>
<time>2013-03-03T14:21:41.000Z</time>
</trkpt>
<trkpt lat="51.270501" lon="6.562061">
<ele>32.6</ele>
<time>2013-03-03T14:21:42.000Z</time>
</trkpt>
<trkpt lat="51.270535" lon="6.562003">
<ele>32.7</ele>
<time>2013-03-03T14:21:43.000Z</time>
</trkpt>
<trkpt lat="51.270571" lon="6.561943">
<ele>33.4</ele>
<time>2013-03-03T14:21:44.000Z</time>
</trkpt>
<trkpt lat="51.27061" lon="6.561887">
<ele>33.5</ele>
<time>2013-03-03T14:21:45.000Z</time>
</trkpt>
<trkpt lat="51.270648" lon="6.561833">
<ele>33.2</ele>
<time>2013-03-03T14:21:46.000Z</time>
</trkpt>
<trkpt lat="51.270689" lon="6.561779">
<ele>34</ele>
<time>2013-03-03T14:21:47.000Z</time>
</trkpt>
<trkpt lat="51.270738" lon="6.561666">
<ele>33.8</ele>
<time>2013-03-03T14:21:49.000Z</time>
</trkpt>
<trkpt lat="51.270774" lon="6.5616">
<ele>34.1</ele>
<time>2013-03-03T14:21:50.000Z</time>
</trkpt>
<trkpt lat="51.270809" lon="6.561533">
<ele>33.8</ele>
<time>2013-03-03T14:21:51.000Z</time>
</trkpt>
<trkpt lat="51.270855" lon="6.561502">
<ele>32.6</ele>
<time>2013-03-03T14:21:52.000Z</time>
</trkpt>
<trkpt lat="51.270888" lon="6.561453">
<ele>32.1</ele>
<time>2013-03-03T14:21:53.000Z</time>
</trkpt>
<trkpt lat="51.270939" lon="6.561426">
<ele>31.7</ele>
<time>2013-03-03T14:21:54.000Z</time>
</trkpt>
<trkpt lat="51.270972" lon="6.56137">
<ele>31.5</ele>
<time>2013-03-03T14:21:55.000Z</time>
</trkpt>
<trkpt lat="51.271045" lon="6.561277">
<ele>30.7</ele>
<time>2013-03-03T14:21:57.000Z</time>
</trkpt>
<trkpt lat="51.271079" lon="6.561224">
<ele>29.9</ele>
<time>2013-03-03T14:21:58.000Z</time>
</trkpt>
<trkpt lat="51.271116" lon="6.561172">
<ele>30</ele>
<time>2013-03-03T14:21:59.000Z</time>
</trkpt>
<trkpt lat="51.271151" lon="6.561118">
<ele>30.4</ele>
<time>2013-03-03T14:22:00.000Z</time>
</trkpt>
<trkpt lat="51.271187" lon="6.561065">
<ele>30.6</ele>
<time>2013-03-03T14:22:01.000Z</time>
</trkpt>
<trkpt lat="51.271221" lon="6.56101">
<ele>30.4</ele>
<time>2013-03-03T14:22:02.000Z</time>
</trkpt>
<trkpt lat="51.271258" lon="6.560959">
<ele>29.8</ele>
<time>2013-03-03T14:22:03.000Z</time>
</trkpt>
<trkpt lat="51.271293" lon="6.560913">
<ele>29.4</ele>
<time>2013-03-03T14:22:04.000Z</time>
</trkpt>
<trkpt lat="51.271361" lon="6.560814">
<ele>29.6</ele>
<time>2013-03-03T14:22:06.000Z</time>
</trkpt>
<trkpt lat="51.271395" lon="6.56076">
<ele>29.9</ele>
<time>2013-03-03T14:22:07.000Z</time>
</trkpt>
<trkpt lat="51.271429" lon="6.560713">
<ele>29.1</ele>
<time>2013-03-03T14:22:08.000Z</time>
</trkpt>
<trkpt lat="51.271497" lon="6.56063">
<ele>28.4</ele>
<time>2013-03-03T14:22:10.000Z</time>
</trkpt>
<trkpt lat="51.271561" lon="6.560596">
<ele>29.5</ele>
<time>2013-03-03T14:22:12.000Z</time>
</trkpt>
<trkpt lat="51.271632" lon="6.560595">
<ele>29.7</ele>
<time>2013-03-03T14:22:14.000Z</time>
</trkpt>
<trkpt lat="51.271694" lon="6.56054">
<ele>30.7</ele>
<time>2013-03-03T14:22:16.000Z</time>
</trkpt>
<trkpt lat="51.271752" lon="6.560463">
<ele>32.4</ele>
<time>2013-03-03T14:22:18.000Z</time>
</trkpt>
<trkpt lat="51.271814" lon="6.560395">
<ele>32.1</ele>
<time>2013-03-03T14:22:20.000Z</time>
</trkpt>
<trkpt lat="51.271879" lon="6.560332">
<ele>34.6</ele>
<time>2013-03-03T14:22:22.000Z</time>
</trkpt>
<trkpt lat="51.271945" lon="6.560269">
<ele>33.9</ele>
<time>2013-03-03T14:22:24.000Z</time>
</trkpt>
<trkpt lat="51.27201" lon="6.560207">
<ele>33.6</ele>
<time>2013-03-03T14:22:26.000Z</time>
</trkpt>
<trkpt lat="51.272068" lon="6.560141">
<ele>34.3</ele>
<time>2013-03-03T14:22:28.000Z</time>
</trkpt>
<trkpt lat="51.272122" lon="6.560075">
<ele>35</ele>
<time>2013-03-03T14:22:30.000Z</time>
</trkpt>
<trkpt lat="51.27217" lon="6.559995">
<ele>34.1</ele>
<time>2013-03-03T14:22:32.000Z</time>
</trkpt>
<trkpt lat="51.272178" lon="6.559904">
<ele>33.1</ele>
<time>2013-03-03T14:22:33.000Z</time>
</trkpt>
<trkpt lat="51.272204" lon="6.559836">
<ele>31</ele>
<time>2013-03-03T14:22:34.000Z</time>
</trkpt>
<trkpt lat="51.272266" lon="6.559736">
<ele>29.7</ele>
<time>2013-03-03T14:22:36.000Z</time>
</trkpt>
<trkpt lat="51.272292" lon="6.559672">
<ele>30.3</ele>
<time>2013-03-03T14:22:37.000Z</time>
</trkpt>
<trkpt lat="51.27231" lon="6.559604">
<ele>29.9</ele>
<time>2013-03-03T14:22:38.000Z</time>
</trkpt>
<trkpt lat="51.272365" lon="6.559493">
<ele>25.8</ele>
<time>2013-03-03T14:22:40.000Z</time>
</trkpt>
<trkpt lat="51.272443" lon="6.55938">
<ele>23.3</ele>
<time>2013-03-03T14:22:42.000Z</time>
</trkpt>
<trkpt lat="51.272472" lon="6.559315">
<ele>24</ele>
<time>2013-03-03T14:22:43.000Z</time>
</trkpt>
<trkpt lat="51.272515" lon="6.55919">
<ele>23.2</ele>
<time>2013-03-03T14:22:45.000Z</time>
</trkpt>
<trkpt lat="51.272546" lon="6.559122">
<ele>21.8</ele>
<time>2013-03-03T14:22:46.000Z</time>
</trkpt>
<trkpt lat="51.272574" lon="6.559052">
<ele>23.1</ele>
<time>2013-03-03T14:22:47.000Z</time>
</trkpt>
<trkpt lat="51.272586" lon="6.558978">
<ele>24.8</ele>
<time>2013-03-03T14:22:48.000Z</time>
</trkpt>
<trkpt lat="51.272596" lon="6.558901">
<ele>26.3</ele>
<time>2013-03-03T14:22:49.000Z</time>
</trkpt>
<trkpt lat="51.272637" lon="6.558771">
<ele>28.3</ele>
<time>2013-03-03T14:22:51.000Z</time>
</trkpt>
<trkpt lat="51.272668" lon="6.558666">
<ele>29.3</ele>
<time>2013-03-03T14:22:53.000Z</time>
</trkpt>
<trkpt lat="51.272717" lon="6.558477">
<ele>30.3</ele>
<time>2013-03-03T14:22:56.000Z</time>
</trkpt>
<trkpt lat="51.272766" lon="6.55839">
<ele>27.9</ele>
<time>2013-03-03T14:22:58.000Z</time>
</trkpt>
<trkpt lat="51.272811" lon="6.558285">
<ele>25.4</ele>
<time>2013-03-03T14:23:00.000Z</time>
</trkpt>
<trkpt lat="51.272818" lon="6.558176">
<ele>24.6</ele>
<time>2013-03-03T14:23:02.000Z</time>
</trkpt>
<trkpt lat="51.2728" lon="6.558072">
<ele>25.4</ele>
<time>2013-03-03T14:23:04.000Z</time>
</trkpt>
<trkpt lat="51.272774" lon="6.557975">
<ele>24.4</ele>
<time>2013-03-03T14:23:06.000Z</time>
</trkpt>
<trkpt lat="51.272749" lon="6.557873">
<ele>23.4</ele>
<time>2013-03-03T14:23:08.000Z</time>
</trkpt>
<trkpt lat="51.272724" lon="6.557768">
<ele>25.3</ele>
<time>2013-03-03T14:23:10.000Z</time>
</trkpt>
<trkpt lat="51.272692" lon="6.557657">
<ele>26</ele>
<time>2013-03-03T14:23:12.000Z</time>
</trkpt>
<trkpt lat="51.272658" lon="6.557544">
<ele>25.7</ele>
<time>2013-03-03T14:23:14.000Z</time>
</trkpt>
<trkpt lat="51.272634" lon="6.557459">
<ele>24.6</ele>
<time>2013-03-03T14:23:16.000Z</time>
</trkpt>
<trkpt lat="51.272607" lon="6.557373">
<ele>22.5</ele>
<time>2013-03-03T14:23:19.000Z</time>
</trkpt>
<trkpt lat="51.272579" lon="6.557313">
<ele>24</ele>
<time>2013-03-03T14:23:22.000Z</time>
</trkpt>
<trkpt lat="51.272572" lon="6.557234">
<ele>24.3</ele>
<time>2013-03-03T14:23:25.000Z</time>
</trkpt>
<trkpt lat="51.272559" lon="6.557144">
<ele>24</ele>
<time>2013-03-03T14:23:28.000Z</time>
</trkpt>
<trkpt lat="51.272538" lon="6.557053">
<ele>23.4</ele>
<time>2013-03-03T14:23:31.000Z</time>
</trkpt>
<trkpt lat="51.272521" lon="6.556979">
<ele>23</ele>
<time>2013-03-03T14:23:33.000Z</time>
</trkpt>
<trkpt lat="51.2725" lon="6.556896">
<ele>22.8</ele>
<time>2013-03-03T14:23:35.000Z</time>
</trkpt>
<trkpt lat="51.272476" lon="6.556804">
<ele>22.7</ele>
<time>2013-03-03T14:23:37.000Z</time>
</trkpt>
<trkpt lat="51.272452" lon="6.556713">
<ele>22.6</ele>
<time>2013-03-03T14:23:39.000Z</time>
</trkpt>
<trkpt lat="51.272434" lon="6.556621">
<ele>22</ele>
<time>2013-03-03T14:23:41.000Z</time>
</trkpt>
<trkpt lat="51.272409" lon="6.556521">
<ele>22.9</ele>
<time>2013-03-03T14:23:43.000Z</time>
</trkpt>
<trkpt lat="51.272391" lon="6.556408">
<ele>22.7</ele>
<time>2013-03-03T14:23:45.000Z</time>
</trkpt>
<trkpt lat="51.272397" lon="6.556294">
<ele>22.4</ele>
<time>2013-03-03T14:23:47.000Z</time>
</trkpt>
<trkpt lat="51.272428" lon="6.556192">
<ele>23.5</ele>
<time>2013-03-03T14:23:49.000Z</time>
</trkpt>
<trkpt lat="51.272465" lon="6.556103">
<ele>25.4</ele>
<time>2013-03-03T14:23:51.000Z</time>
</trkpt>
<trkpt lat="51.272511" lon="6.556028">
<ele>28.4</ele>
<time>2013-03-03T14:23:53.000Z</time>
</trkpt>
<trkpt lat="51.272564" lon="6.55596">
<ele>25.9</ele>
<time>2013-03-03T14:23:55.000Z</time>
</trkpt>
<trkpt lat="51.272632" lon="6.555895">
<ele>25.5</ele>
<time>2013-03-03T14:23:57.000Z</time>
</trkpt>
<trkpt lat="51.272708" lon="6.555825">
<ele>27.8</ele>
<time>2013-03-03T14:23:59.000Z</time>
</trkpt>
<trkpt lat="51.272775" lon="6.5558">
<ele>25.3</ele>
<time>2013-03-03T14:24:00.000Z</time>
</trkpt>
<trkpt lat="51.272838" lon="6.555735">
<ele>27.2</ele>
<time>2013-03-03T14:24:02.000Z</time>
</trkpt>
<trkpt lat="51.272881" lon="6.555707">
<ele>25.3</ele>
<time>2013-03-03T14:24:03.000Z</time>
</trkpt>
<trkpt lat="51.272923" lon="6.555672">
<ele>24.2</ele>
<time>2013-03-03T14:24:04.000Z</time>
</trkpt>
<trkpt lat="51.272973" lon="6.555601">
<ele>24</ele>
<time>2013-03-03T14:24:06.000Z</time>
</trkpt>
<trkpt lat="51.273039" lon="6.555531">
<ele>24.6</ele>
<time>2013-03-03T14:24:08.000Z</time>
</trkpt>
<trkpt lat="51.273111" lon="6.555455">
<ele>25.9</ele>
<time>2013-03-03T14:24:10.000Z</time>
</trkpt>
<trkpt lat="51.273217" lon="6.555351">
<ele>21.4</ele>
<time>2013-03-03T14:24:13.000Z</time>
</trkpt>
<trkpt lat="51.273258" lon="6.555314">
<ele>20.3</ele>
<time>2013-03-03T14:24:14.000Z</time>
</trkpt>
<trkpt lat="51.273306" lon="6.555301">
<ele>20.5</ele>
<time>2013-03-03T14:24:15.000Z</time>
</trkpt>
<trkpt lat="51.273354" lon="6.555203">
<ele>22.7</ele>
<time>2013-03-03T14:24:17.000Z</time>
</trkpt>
<trkpt lat="51.273397" lon="6.555148">
<ele>27.2</ele>
<time>2013-03-03T14:24:21.000Z</time>
</trkpt>
<trkpt lat="51.273457" lon="6.555048">
<ele>26.4</ele>
<time>2013-03-03T14:24:23.000Z</time>
</trkpt>
<trkpt lat="51.273516" lon="6.555068">
<ele>28.7</ele>
<time>2013-03-03T14:24:25.000Z</time>
</trkpt>
<trkpt lat="51.273578" lon="6.555094">
<ele>30.2</ele>
<time>2013-03-03T14:24:27.000Z</time>
</trkpt>
<trkpt lat="51.273634" lon="6.555135">
<ele>29.8</ele>
<time>2013-03-03T14:24:29.000Z</time>
</trkpt>
<trkpt lat="51.273608" lon="6.555065">
<ele>31.4</ele>
<time>2013-03-03T14:26:43.000Z</time>
</trkpt>
<trkpt lat="51.273654" lon="6.55503">
<ele>33.1</ele>
<time>2013-03-03T14:26:46.000Z</time>
</trkpt>
<trkpt lat="51.273712" lon="6.555049">
<ele>32.9</ele>
<time>2013-03-03T14:26:48.000Z</time>
</trkpt>
<trkpt lat="51.273773" lon="6.555063">
<ele>33.9</ele>
<time>2013-03-03T14:26:50.000Z</time>
</trkpt>
<trkpt lat="51.273835" lon="6.555066">
<ele>34.9</ele>
<time>2013-03-03T14:26:52.000Z</time>
</trkpt>
<trkpt lat="51.273899" lon="6.555061">
<ele>36</ele>
<time>2013-03-03T14:26:54.000Z</time>
</trkpt>
<trkpt lat="51.273962" lon="6.555054">
<ele>34.6</ele>
<time>2013-03-03T14:26:56.000Z</time>
</trkpt>
<trkpt lat="51.274024" lon="6.555056">
<ele>36</ele>
<time>2013-03-03T14:26:58.000Z</time>
</trkpt>
<trkpt lat="51.274082" lon="6.555059">
<ele>36</ele>
<time>2013-03-03T14:27:00.000Z</time>
</trkpt>
<trkpt lat="51.274136" lon="6.555061">
<ele>37.1</ele>
<time>2013-03-03T14:27:02.000Z</time>
</trkpt>
<trkpt lat="51.274183" lon="6.555066">
<ele>39.2</ele>
<time>2013-03-03T14:27:04.000Z</time>
</trkpt>
<trkpt lat="51.27423" lon="6.555056">
<ele>38.2</ele>
<time>2013-03-03T14:27:07.000Z</time>
</trkpt>
<trkpt lat="51.274293" lon="6.555044">
<ele>38.8</ele>
<time>2013-03-03T14:27:10.000Z</time>
</trkpt>
<trkpt lat="51.274359" lon="6.555041">
<ele>38.3</ele>
<time>2013-03-03T14:27:12.000Z</time>
</trkpt>
<trkpt lat="51.274434" lon="6.555039">
<ele>37.7</ele>
<time>2013-03-03T14:27:14.000Z</time>
</trkpt>
<trkpt lat="51.274494" lon="6.555038">
<ele>37.9</ele>
<time>2013-03-03T14:27:16.000Z</time>
</trkpt>
<trkpt lat="51.27454" lon="6.555029">
<ele>38</ele>
<time>2013-03-03T14:27:18.000Z</time>
</trkpt>
<trkpt lat="51.274599" lon="6.554975">
<ele>36</ele>
<time>2013-03-03T14:27:21.000Z</time>
</trkpt>
<trkpt lat="51.274632" lon="6.554901">
<ele>34</ele>
<time>2013-03-03T14:27:23.000Z</time>
</trkpt>
<trkpt lat="51.274648" lon="6.554805">
<ele>34</ele>
<time>2013-03-03T14:27:25.000Z</time>
</trkpt>
<trkpt lat="51.27468" lon="6.554749">
<ele>34.5</ele>
<time>2013-03-03T14:27:27.000Z</time>
</trkpt>
<trkpt lat="51.274727" lon="6.554738">
<ele>35.1</ele>
<time>2013-03-03T14:27:29.000Z</time>
</trkpt>
<trkpt lat="51.274788" lon="6.55476">
<ele>34.7</ele>
<time>2013-03-03T14:27:31.000Z</time>
</trkpt>
<trkpt lat="51.274858" lon="6.554784">
<ele>31.8</ele>
<time>2013-03-03T14:27:33.000Z</time>
</trkpt>
<trkpt lat="51.27494" lon="6.554808">
<ele>30.4</ele>
<time>2013-03-03T14:27:35.000Z</time>
</trkpt>
<trkpt lat="51.275027" lon="6.554821">
<ele>27</ele>
<time>2013-03-03T14:27:37.000Z</time>
</trkpt>
<trkpt lat="51.275112" lon="6.554827">
<ele>25.5</ele>
<time>2013-03-03T14:27:39.000Z</time>
</trkpt>
<trkpt lat="51.275157" lon="6.554829">
<ele>25.2</ele>
<time>2013-03-03T14:27:40.000Z</time>
</trkpt>
<trkpt lat="51.27525" lon="6.554822">
<ele>25.7</ele>
<time>2013-03-03T14:27:41.000Z</time>
</trkpt>
<trkpt lat="51.275311" lon="6.554844">
<ele>25.8</ele>
<time>2013-03-03T14:27:42.000Z</time>
</trkpt>
<trkpt lat="51.275367" lon="6.55481">
<ele>26.4</ele>
<time>2013-03-03T14:27:43.000Z</time>
</trkpt>
<trkpt lat="51.275494" lon="6.554804">
<ele>26.5</ele>
<time>2013-03-03T14:27:45.000Z</time>
</trkpt>
<trkpt lat="51.275563" lon="6.5548">
<ele>28.1</ele>
<time>2013-03-03T14:27:46.000Z</time>
</trkpt>
<trkpt lat="51.275614" lon="6.554812">
<ele>28.3</ele>
<time>2013-03-03T14:27:47.000Z</time>
</trkpt>
<trkpt lat="51.275659" lon="6.554823">
<ele>28.8</ele>
<time>2013-03-03T14:27:48.000Z</time>
</trkpt>
<trkpt lat="51.275712" lon="6.554819">
<ele>29.3</ele>
<time>2013-03-03T14:27:49.000Z</time>
</trkpt>
<trkpt lat="51.275761" lon="6.55482">
<ele>31.2</ele>
<time>2013-03-03T14:27:50.000Z</time>
</trkpt>
<trkpt lat="51.275819" lon="6.554826">
<ele>32.1</ele>
<time>2013-03-03T14:27:51.000Z</time>
</trkpt>
<trkpt lat="51.275872" lon="6.554832">
<ele>31.4</ele>
<time>2013-03-03T14:27:52.000Z</time>
</trkpt>
<trkpt lat="51.275924" lon="6.554832">
<ele>30.3</ele>
<time>2013-03-03T14:27:53.000Z</time>
</trkpt>
<trkpt lat="51.275984" lon="6.554823">
<ele>31.8</ele>
<time>2013-03-03T14:27:54.000Z</time>
</trkpt>
<trkpt lat="51.276039" lon="6.55482">
<ele>32.6</ele>
<time>2013-03-03T14:27:55.000Z</time>
</trkpt>
<trkpt lat="51.276097" lon="6.554808">
<ele>33.1</ele>
<time>2013-03-03T14:27:56.000Z</time>
</trkpt>
<trkpt lat="51.276151" lon="6.554826">
<ele>33.4</ele>
<time>2013-03-03T14:27:57.000Z</time>
</trkpt>
<trkpt lat="51.276205" lon="6.55485">
<ele>32.7</ele>
<time>2013-03-03T14:27:58.000Z</time>
</trkpt>
<trkpt lat="51.276262" lon="6.554867">
<ele>31.5</ele>
<time>2013-03-03T14:27:59.000Z</time>
</trkpt>
<trkpt lat="51.276312" lon="6.554864">
<ele>32.2</ele>
<time>2013-03-03T14:28:00.000Z</time>
</trkpt>
<trkpt lat="51.276362" lon="6.554884">
<ele>33.3</ele>
<time>2013-03-03T14:28:01.000Z</time>
</trkpt>
<trkpt lat="51.276414" lon="6.554871">
<ele>33.6</ele>
<time>2013-03-03T14:28:02.000Z</time>
</trkpt>
<trkpt lat="51.276468" lon="6.554869">
<ele>33.8</ele>
<time>2013-03-03T14:28:03.000Z</time>
</trkpt>
<trkpt lat="51.276528" lon="6.554868">
<ele>33.1</ele>
<time>2013-03-03T14:28:04.000Z</time>
</trkpt>
<trkpt lat="51.276592" lon="6.554872">
<ele>33.2</ele>
<time>2013-03-03T14:28:05.000Z</time>
</trkpt>
<trkpt lat="51.276644" lon="6.554842">
<ele>33.5</ele>
<time>2013-03-03T14:28:06.000Z</time>
</trkpt>
<trkpt lat="51.276689" lon="6.554831">
<ele>32.4</ele>
<time>2013-03-03T14:28:07.000Z</time>
</trkpt>
<trkpt lat="51.2768" lon="6.554825">
<ele>33.2</ele>
<time>2013-03-03T14:28:09.000Z</time>
</trkpt>
<trkpt lat="51.276847" lon="6.554813">
<ele>34.4</ele>
<time>2013-03-03T14:28:10.000Z</time>
</trkpt>
<trkpt lat="51.276893" lon="6.554803">
<ele>34.8</ele>
<time>2013-03-03T14:28:11.000Z</time>
</trkpt>
<trkpt lat="51.276964" lon="6.554805">
<ele>34.8</ele>
<time>2013-03-03T14:28:13.000Z</time>
</trkpt>
<trkpt lat="51.277014" lon="6.554809">
<ele>34.5</ele>
<time>2013-03-03T14:28:15.000Z</time>
</trkpt>
<trkpt lat="51.277088" lon="6.554803">
<ele>33.4</ele>
<time>2013-03-03T14:28:17.000Z</time>
</trkpt>
<trkpt lat="51.277144" lon="6.554813">
<ele>33.2</ele>
<time>2013-03-03T14:28:19.000Z</time>
</trkpt>
<trkpt lat="51.2772" lon="6.554813">
<ele>32.4</ele>
<time>2013-03-03T14:28:21.000Z</time>
</trkpt>
<trkpt lat="51.277265" lon="6.554815">
<ele>32.7</ele>
<time>2013-03-03T14:28:23.000Z</time>
</trkpt>
<trkpt lat="51.277345" lon="6.554805">
<ele>35.8</ele>
<time>2013-03-03T14:28:25.000Z</time>
</trkpt>
<trkpt lat="51.277393" lon="6.554801">
<ele>35.5</ele>
<time>2013-03-03T14:28:26.000Z</time>
</trkpt>
<trkpt lat="51.277556" lon="6.554778">
<ele>37.1</ele>
<time>2013-03-03T14:28:27.000Z</time>
</trkpt>
<trkpt lat="51.277602" lon="6.554787">
<ele>34.8</ele>
<time>2013-03-03T14:28:28.000Z</time>
</trkpt>
<trkpt lat="51.27766" lon="6.55478">
<ele>34.9</ele>
<time>2013-03-03T14:28:30.000Z</time>
</trkpt>
<trkpt lat="51.277717" lon="6.554781">
<ele>35.8</ele>
<time>2013-03-03T14:28:31.000Z</time>
</trkpt>
<trkpt lat="51.277781" lon="6.554768">
<ele>34.9</ele>
<time>2013-03-03T14:28:32.000Z</time>
</trkpt>
<trkpt lat="51.277831" lon="6.554781">
<ele>35.3</ele>
<time>2013-03-03T14:28:33.000Z</time>
</trkpt>
<trkpt lat="51.277893" lon="6.554788">
<ele>35.5</ele>
<time>2013-03-03T14:28:34.000Z</time>
</trkpt>
<trkpt lat="51.277957" lon="6.554764">
<ele>34.6</ele>
<time>2013-03-03T14:28:35.000Z</time>
</trkpt>
<trkpt lat="51.278002" lon="6.554772">
<ele>33.6</ele>
<time>2013-03-03T14:28:36.000Z</time>
</trkpt>
<trkpt lat="51.278054" lon="6.554787">
<ele>32.1</ele>
<time>2013-03-03T14:28:37.000Z</time>
</trkpt>
<trkpt lat="51.278126" lon="6.554787">
<ele>32.8</ele>
<time>2013-03-03T14:28:38.000Z</time>
</trkpt>
<trkpt lat="51.278175" lon="6.554773">
<ele>33.1</ele>
<time>2013-03-03T14:28:39.000Z</time>
</trkpt>
<trkpt lat="51.278232" lon="6.554762">
<ele>33.5</ele>
<time>2013-03-03T14:28:40.000Z</time>
</trkpt>
<trkpt lat="51.278283" lon="6.554801">
<ele>34.1</ele>
<time>2013-03-03T14:28:42.000Z</time>
</trkpt>
<trkpt lat="51.278332" lon="6.554794">
<ele>34.8</ele>
<time>2013-03-03T14:28:43.000Z</time>
</trkpt>
<trkpt lat="51.27839" lon="6.554775">
<ele>34.4</ele>
<time>2013-03-03T14:28:44.000Z</time>
</trkpt>
<trkpt lat="51.278454" lon="6.554783">
<ele>34</ele>
<time>2013-03-03T14:28:45.000Z</time>
</trkpt>
<trkpt lat="51.278499" lon="6.554775">
<ele>33.4</ele>
<time>2013-03-03T14:28:46.000Z</time>
</trkpt>
<trkpt lat="51.278554" lon="6.554766">
<ele>34</ele>
<time>2013-03-03T14:28:47.000Z</time>
</trkpt>
<trkpt lat="51.278608" lon="6.554763">
<ele>34.3</ele>
<time>2013-03-03T14:28:48.000Z</time>
</trkpt>
<trkpt lat="51.278666" lon="6.55475">
<ele>34.9</ele>
<time>2013-03-03T14:28:49.000Z</time>
</trkpt>
<trkpt lat="51.278727" lon="6.55473">
<ele>35.3</ele>
<time>2013-03-03T14:28:50.000Z</time>
</trkpt>
<trkpt lat="51.278768" lon="6.55476">
<ele>34.9</ele>
<time>2013-03-03T14:28:51.000Z</time>
</trkpt>
<trkpt lat="51.278853" lon="6.554794">
<ele>33.6</ele>
<time>2013-03-03T14:28:53.000Z</time>
</trkpt>
<trkpt lat="51.278959" lon="6.554799">
<ele>34.5</ele>
<time>2013-03-03T14:28:55.000Z</time>
</trkpt>
<trkpt lat="51.279022" lon="6.554804">
<ele>34.1</ele>
<time>2013-03-03T14:28:56.000Z</time>
</trkpt>
<trkpt lat="51.279071" lon="6.554794">
<ele>35</ele>
<time>2013-03-03T14:28:57.000Z</time>
</trkpt>
<trkpt lat="51.279122" lon="6.554778">
<ele>35.1</ele>
<time>2013-03-03T14:28:58.000Z</time>
</trkpt>
<trkpt lat="51.279213" lon="6.554765">
<ele>33.7</ele>
<time>2013-03-03T14:29:00.000Z</time>
</trkpt>
<trkpt lat="51.279267" lon="6.554764">
<ele>33.6</ele>
<time>2013-03-03T14:29:01.000Z</time>
</trkpt>
<trkpt lat="51.279322" lon="6.554775">
<ele>33.6</ele>
<time>2013-03-03T14:29:02.000Z</time>
</trkpt>
<trkpt lat="51.279396" lon="6.554744">
<ele>32.8</ele>
<time>2013-03-03T14:29:04.000Z</time>
</trkpt>
<trkpt lat="51.279451" lon="6.554753">
<ele>33.2</ele>
<time>2013-03-03T14:29:05.000Z</time>
</trkpt>
<trkpt lat="51.279525" lon="6.554752">
<ele>33.4</ele>
<time>2013-03-03T14:29:07.000Z</time>
</trkpt>
<trkpt lat="51.279575" lon="6.55475">
<ele>33.7</ele>
<time>2013-03-03T14:29:08.000Z</time>
</trkpt>
<trkpt lat="51.27963" lon="6.554752">
<ele>33</ele>
<time>2013-03-03T14:29:09.000Z</time>
</trkpt>
<trkpt lat="51.279682" lon="6.554764">
<ele>33.2</ele>
<time>2013-03-03T14:29:10.000Z</time>
</trkpt>
<trkpt lat="51.27976" lon="6.554758">
<ele>32.6</ele>
<time>2013-03-03T14:29:12.000Z</time>
</trkpt>
<trkpt lat="51.279849" lon="6.554769">
<ele>32.4</ele>
<time>2013-03-03T14:29:14.000Z</time>
</trkpt>
<trkpt lat="51.279926" lon="6.55478">
<ele>34.8</ele>
<time>2013-03-03T14:29:15.000Z</time>
</trkpt>
<trkpt lat="51.279988" lon="6.554773">
<ele>35.4</ele>
<time>2013-03-03T14:29:17.000Z</time>
</trkpt>
<trkpt lat="51.280036" lon="6.55476">
<ele>34.4</ele>
<time>2013-03-03T14:29:18.000Z</time>
</trkpt>
<trkpt lat="51.280125" lon="6.554767">
<ele>34</ele>
<time>2013-03-03T14:29:20.000Z</time>
</trkpt>
<trkpt lat="51.28017" lon="6.55477">
<ele>34.1</ele>
<time>2013-03-03T14:29:21.000Z</time>
</trkpt>
<trkpt lat="51.280237" lon="6.554777">
<ele>31.5</ele>
<time>2013-03-03T14:29:23.000Z</time>
</trkpt>
<trkpt lat="51.280318" lon="6.554792">
<ele>31.6</ele>
<time>2013-03-03T14:29:25.000Z</time>
</trkpt>
<trkpt lat="51.280365" lon="6.554792">
<ele>32.8</ele>
<time>2013-03-03T14:29:26.000Z</time>
</trkpt>
<trkpt lat="51.280477" lon="6.554786">
<ele>31.7</ele>
<time>2013-03-03T14:29:29.000Z</time>
</trkpt>
<trkpt lat="51.280561" lon="6.554779">
<ele>31.3</ele>
<time>2013-03-03T14:29:31.000Z</time>
</trkpt>
<trkpt lat="51.280607" lon="6.554765">
<ele>32.3</ele>
<time>2013-03-03T14:29:32.000Z</time>
</trkpt>
<trkpt lat="51.280666" lon="6.55477">
<ele>32.9</ele>
<time>2013-03-03T14:29:33.000Z</time>
</trkpt>
<trkpt lat="51.280754" lon="6.554777">
<ele>30.8</ele>
<time>2013-03-03T14:29:35.000Z</time>
</trkpt>
<trkpt lat="51.28082" lon="6.554783">
<ele>28.9</ele>
<time>2013-03-03T14:29:37.000Z</time>
</trkpt>
<trkpt lat="51.28088" lon="6.554798">
<ele>28.2</ele>
<time>2013-03-03T14:29:39.000Z</time>
</trkpt>
<trkpt lat="51.280975" lon="6.554792">
<ele>27.8</ele>
<time>2013-03-03T14:29:41.000Z</time>
</trkpt>
<trkpt lat="51.281031" lon="6.554805">
<ele>28.1</ele>
<time>2013-03-03T14:29:42.000Z</time>
</trkpt>
<trkpt lat="51.281083" lon="6.554801">
<ele>28.7</ele>
<time>2013-03-03T14:29:43.000Z</time>
</trkpt>
<trkpt lat="51.281134" lon="6.554811">
<ele>29</ele>
<time>2013-03-03T14:29:44.000Z</time>
</trkpt>
<trkpt lat="51.281188" lon="6.55481">
<ele>29.4</ele>
<time>2013-03-03T14:29:45.000Z</time>
</trkpt>
<trkpt lat="51.28124" lon="6.554796">
<ele>30.2</ele>
<time>2013-03-03T14:29:46.000Z</time>
</trkpt>
<trkpt lat="51.281295" lon="6.554794">
<ele>31.1</ele>
<time>2013-03-03T14:29:47.000Z</time>
</trkpt>
<trkpt lat="51.28134" lon="6.55479">
<ele>31.2</ele>
<time>2013-03-03T14:29:48.000Z</time>
</trkpt>
<trkpt lat="51.281388" lon="6.554795">
<ele>31.5</ele>
<time>2013-03-03T14:29:49.000Z</time>
</trkpt>
<trkpt lat="51.281485" lon="6.554792">
<ele>31.7</ele>
<time>2013-03-03T14:29:51.000Z</time>
</trkpt>
<trkpt lat="51.28153" lon="6.5548">
<ele>32.1</ele>
<time>2013-03-03T14:29:52.000Z</time>
</trkpt>
<trkpt lat="51.281584" lon="6.554791">
<ele>32.7</ele>
<time>2013-03-03T14:29:53.000Z</time>
</trkpt>
<trkpt lat="51.281673" lon="6.554754">
<ele>32.8</ele>
<time>2013-03-03T14:29:55.000Z</time>
</trkpt>
<trkpt lat="51.281759" lon="6.55475">
<ele>34.9</ele>
<time>2013-03-03T14:29:57.000Z</time>
</trkpt>
<trkpt lat="51.281828" lon="6.554739">
<ele>34.5</ele>
<time>2013-03-03T14:29:59.000Z</time>
</trkpt>
<trkpt lat="51.281896" lon="6.554747">
<ele>34.2</ele>
<time>2013-03-03T14:30:01.000Z</time>
</trkpt>
<trkpt lat="51.281956" lon="6.554752">
<ele>35.7</ele>
<time>2013-03-03T14:30:03.000Z</time>
</trkpt>
<trkpt lat="51.28201" lon="6.554704">
<ele>34.9</ele>
<time>2013-03-03T14:30:05.000Z</time>
</trkpt>
<trkpt lat="51.282028" lon="6.554618">
<ele>35.3</ele>
<time>2013-03-03T14:30:08.000Z</time>
</trkpt>
<trkpt lat="51.282008" lon="6.554524">
<ele>33.1</ele>
<time>2013-03-03T14:30:11.000Z</time>
</trkpt>
<trkpt lat="51.282015" lon="6.554443">
<ele>32.4</ele>
<time>2013-03-03T14:30:15.000Z</time>
</trkpt>
<trkpt lat="51.282022" lon="6.554365">
<ele>33</ele>
<time>2013-03-03T14:30:18.000Z</time>
</trkpt>
</trkseg>
</trk>
</gpx>
